<?xml version="1.0" encoding="UTF-8" standalone="no" ?>
<gpx xmlns="http://www.topografix.com/GPX/1/1" xmlns:xsi="http://www.w3.org/2001/XMLSchema-instance" xsi:schemaLocation="http://www.topografix.com/GPX/1/1 http://www.topografix.com/GPX/1/1/gpx.xsd" version="1.1" creator="VisuGPX - https://www.visugpx.com">
  <metadata>
    <name>Herbignac 15/08/2021</name>
    <desc><![CDATA[Sortie La Cour aux Loups 15 août 2021]]></desc>
  </metadata>
  <trk>
    <name><![CDATA[Herbignac Cyclisme]]></name>
    <trkseg>
      <trkpt lat="47.43511" lon="-2.34696">
        <ele>37.200000762939</ele>
        <time>2021-08-15T06:42:06.000Z</time>
      </trkpt>
      <trkpt lat="47.43519" lon="-2.34701">
        <ele>37.200000762939</ele>
        <time>2021-08-15T06:42:09.000Z</time>
      </trkpt>
      <trkpt lat="47.43521" lon="-2.34703">
        <ele>37.799999237061</ele>
        <time>2021-08-15T06:42:10.000Z</time>
      </trkpt>
      <trkpt lat="47.43527" lon="-2.34707">
        <ele>37.799999237061</ele>
        <time>2021-08-15T06:42:12.000Z</time>
      </trkpt>
      <trkpt lat="47.43557" lon="-2.34723">
        <ele>37.799999237061</ele>
        <time>2021-08-15T06:42:20.000Z</time>
      </trkpt>
      <trkpt lat="47.4359" lon="-2.34741">
        <ele>37.799999237061</ele>
        <time>2021-08-15T06:42:27.000Z</time>
      </trkpt>
      <trkpt lat="47.43613" lon="-2.34755">
        <ele>37.799999237061</ele>
        <time>2021-08-15T06:42:33.000Z</time>
      </trkpt>
      <trkpt lat="47.43632" lon="-2.34763">
        <ele>37.799999237061</ele>
        <time>2021-08-15T06:42:37.000Z</time>
      </trkpt>
      <trkpt lat="47.43638" lon="-2.34765">
        <ele>37.799999237061</ele>
        <time>2021-08-15T06:42:38.000Z</time>
      </trkpt>
      <trkpt lat="47.43662" lon="-2.34776">
        <ele>37.799999237061</ele>
        <time>2021-08-15T06:42:43.000Z</time>
      </trkpt>
      <trkpt lat="47.43702" lon="-2.34796">
        <ele>37.799999237061</ele>
        <time>2021-08-15T06:42:52.000Z</time>
      </trkpt>
      <trkpt lat="47.43712" lon="-2.348">
        <ele>37.799999237061</ele>
        <time>2021-08-15T06:42:54.000Z</time>
      </trkpt>
      <trkpt lat="47.43724" lon="-2.34808">
        <ele>37.799999237061</ele>
        <time>2021-08-15T06:42:57.000Z</time>
      </trkpt>
      <trkpt lat="47.43728" lon="-2.34811">
        <ele>37.400001525879</ele>
        <time>2021-08-15T06:42:58.000Z</time>
      </trkpt>
      <trkpt lat="47.43732" lon="-2.34814">
        <ele>37</ele>
        <time>2021-08-15T06:42:59.000Z</time>
      </trkpt>
      <trkpt lat="47.43736" lon="-2.34816">
        <ele>36.400001525879</ele>
        <time>2021-08-15T06:43:00.000Z</time>
      </trkpt>
      <trkpt lat="47.4374" lon="-2.34819">
        <ele>36</ele>
        <time>2021-08-15T06:43:01.000Z</time>
      </trkpt>
      <trkpt lat="47.43744" lon="-2.34822">
        <ele>35.599998474121</ele>
        <time>2021-08-15T06:43:02.000Z</time>
      </trkpt>
      <trkpt lat="47.43748" lon="-2.34825">
        <ele>35.599998474121</ele>
        <time>2021-08-15T06:43:03.000Z</time>
      </trkpt>
      <trkpt lat="47.43778" lon="-2.34841">
        <ele>35.599998474121</ele>
        <time>2021-08-15T06:43:08.000Z</time>
      </trkpt>
      <trkpt lat="47.43818" lon="-2.34863">
        <ele>35.599998474121</ele>
        <time>2021-08-15T06:43:14.000Z</time>
      </trkpt>
      <trkpt lat="47.43846" lon="-2.3488">
        <ele>35.599998474121</ele>
        <time>2021-08-15T06:43:19.000Z</time>
      </trkpt>
      <trkpt lat="47.43876" lon="-2.34895">
        <ele>35.599998474121</ele>
        <time>2021-08-15T06:43:25.000Z</time>
      </trkpt>
      <trkpt lat="47.43901" lon="-2.3491">
        <ele>35.599998474121</ele>
        <time>2021-08-15T06:43:30.000Z</time>
      </trkpt>
      <trkpt lat="47.43939" lon="-2.34936">
        <ele>35.599998474121</ele>
        <time>2021-08-15T06:43:40.000Z</time>
      </trkpt>
      <trkpt lat="47.43964" lon="-2.34948">
        <ele>35.599998474121</ele>
        <time>2021-08-15T06:43:45.000Z</time>
      </trkpt>
      <trkpt lat="47.44004" lon="-2.34967">
        <ele>35.599998474121</ele>
        <time>2021-08-15T06:43:52.000Z</time>
      </trkpt>
      <trkpt lat="47.44036" lon="-2.34984">
        <ele>35.599998474121</ele>
        <time>2021-08-15T06:43:59.000Z</time>
      </trkpt>
      <trkpt lat="47.44064" lon="-2.35001">
        <ele>35.599998474121</ele>
        <time>2021-08-15T06:44:06.000Z</time>
      </trkpt>
      <trkpt lat="47.44096" lon="-2.35019">
        <ele>35.599998474121</ele>
        <time>2021-08-15T06:44:13.000Z</time>
      </trkpt>
      <trkpt lat="47.441" lon="-2.35022">
        <ele>36</ele>
        <time>2021-08-15T06:44:14.000Z</time>
      </trkpt>
      <trkpt lat="47.44105" lon="-2.35025">
        <ele>36.400001525879</ele>
        <time>2021-08-15T06:44:15.000Z</time>
      </trkpt>
      <trkpt lat="47.4411" lon="-2.35028">
        <ele>36.799999237061</ele>
        <time>2021-08-15T06:44:16.000Z</time>
      </trkpt>
      <trkpt lat="47.44115" lon="-2.3503">
        <ele>37.200000762939</ele>
        <time>2021-08-15T06:44:17.000Z</time>
      </trkpt>
      <trkpt lat="47.4412" lon="-2.35033">
        <ele>37.599998474121</ele>
        <time>2021-08-15T06:44:18.000Z</time>
      </trkpt>
      <trkpt lat="47.44125" lon="-2.35034">
        <ele>37.599998474121</ele>
        <time>2021-08-15T06:44:19.000Z</time>
      </trkpt>
      <trkpt lat="47.44153" lon="-2.35047">
        <ele>37.599998474121</ele>
        <time>2021-08-15T06:44:25.000Z</time>
      </trkpt>
      <trkpt lat="47.44189" lon="-2.35063">
        <ele>37.599998474121</ele>
        <time>2021-08-15T06:44:33.000Z</time>
      </trkpt>
      <trkpt lat="47.44211" lon="-2.35077">
        <ele>37.599998474121</ele>
        <time>2021-08-15T06:44:39.000Z</time>
      </trkpt>
      <trkpt lat="47.44222" lon="-2.35079">
        <ele>37.599998474121</ele>
        <time>2021-08-15T06:44:43.000Z</time>
      </trkpt>
      <trkpt lat="47.44231" lon="-2.35079">
        <ele>38</ele>
        <time>2021-08-15T06:44:47.000Z</time>
      </trkpt>
      <trkpt lat="47.44234" lon="-2.3508">
        <ele>38.400001525879</ele>
        <time>2021-08-15T06:44:48.000Z</time>
      </trkpt>
      <trkpt lat="47.44235" lon="-2.35081">
        <ele>38.799999237061</ele>
        <time>2021-08-15T06:44:49.000Z</time>
      </trkpt>
      <trkpt lat="47.44238" lon="-2.35083">
        <ele>39.200000762939</ele>
        <time>2021-08-15T06:44:50.000Z</time>
      </trkpt>
      <trkpt lat="47.4424" lon="-2.35084">
        <ele>39.599998474121</ele>
        <time>2021-08-15T06:44:51.000Z</time>
      </trkpt>
      <trkpt lat="47.44252" lon="-2.35088">
        <ele>39.599998474121</ele>
        <time>2021-08-15T06:44:57.000Z</time>
      </trkpt>
      <trkpt lat="47.44259" lon="-2.3509">
        <ele>39.599998474121</ele>
        <time>2021-08-15T06:45:00.000Z</time>
      </trkpt>
      <trkpt lat="47.44263" lon="-2.35093">
        <ele>39.599998474121</ele>
        <time>2021-08-15T06:45:02.000Z</time>
      </trkpt>
      <trkpt lat="47.44268" lon="-2.35097">
        <ele>39.599998474121</ele>
        <time>2021-08-15T06:45:04.000Z</time>
      </trkpt>
      <trkpt lat="47.44271" lon="-2.35098">
        <ele>39.599998474121</ele>
        <time>2021-08-15T06:45:05.000Z</time>
      </trkpt>
      <trkpt lat="47.44278" lon="-2.35098">
        <ele>39.599998474121</ele>
        <time>2021-08-15T06:45:06.000Z</time>
      </trkpt>
      <trkpt lat="47.44313" lon="-2.35109">
        <ele>39.599998474121</ele>
        <time>2021-08-15T06:45:14.000Z</time>
      </trkpt>
      <trkpt lat="47.44321" lon="-2.35113">
        <ele>40</ele>
        <time>2021-08-15T06:45:16.000Z</time>
      </trkpt>
      <trkpt lat="47.44325" lon="-2.35115">
        <ele>40.400001525879</ele>
        <time>2021-08-15T06:45:17.000Z</time>
      </trkpt>
      <trkpt lat="47.44329" lon="-2.35117">
        <ele>40.799999237061</ele>
        <time>2021-08-15T06:45:18.000Z</time>
      </trkpt>
      <trkpt lat="47.44333" lon="-2.35118">
        <ele>41.200000762939</ele>
        <time>2021-08-15T06:45:19.000Z</time>
      </trkpt>
      <trkpt lat="47.44338" lon="-2.3512">
        <ele>41.599998474121</ele>
        <time>2021-08-15T06:45:20.000Z</time>
      </trkpt>
      <trkpt lat="47.44367" lon="-2.35135">
        <ele>41.599998474121</ele>
        <time>2021-08-15T06:45:27.000Z</time>
      </trkpt>
      <trkpt lat="47.44381" lon="-2.35145">
        <ele>41.599998474121</ele>
        <time>2021-08-15T06:45:30.000Z</time>
      </trkpt>
      <trkpt lat="47.4439" lon="-2.35149">
        <ele>41.599998474121</ele>
        <time>2021-08-15T06:45:32.000Z</time>
      </trkpt>
      <trkpt lat="47.44406" lon="-2.35155">
        <ele>41.599998474121</ele>
        <time>2021-08-15T06:45:35.000Z</time>
      </trkpt>
      <trkpt lat="47.44419" lon="-2.35159">
        <ele>41.599998474121</ele>
        <time>2021-08-15T06:45:38.000Z</time>
      </trkpt>
      <trkpt lat="47.44436" lon="-2.35167">
        <ele>41.599998474121</ele>
        <time>2021-08-15T06:45:43.000Z</time>
      </trkpt>
      <trkpt lat="47.44461" lon="-2.3518">
        <ele>41.599998474121</ele>
        <time>2021-08-15T06:45:50.000Z</time>
      </trkpt>
      <trkpt lat="47.44469" lon="-2.35181">
        <ele>41.599998474121</ele>
        <time>2021-08-15T06:45:52.000Z</time>
      </trkpt>
      <trkpt lat="47.44474" lon="-2.35183">
        <ele>41.599998474121</ele>
        <time>2021-08-15T06:45:54.000Z</time>
      </trkpt>
      <trkpt lat="47.44494" lon="-2.35188">
        <ele>41.599998474121</ele>
        <time>2021-08-15T06:45:58.000Z</time>
      </trkpt>
      <trkpt lat="47.44505" lon="-2.35191">
        <ele>41.599998474121</ele>
        <time>2021-08-15T06:46:00.000Z</time>
      </trkpt>
      <trkpt lat="47.44525" lon="-2.35197">
        <ele>41.599998474121</ele>
        <time>2021-08-15T06:46:04.000Z</time>
      </trkpt>
      <trkpt lat="47.44537" lon="-2.352">
        <ele>41.599998474121</ele>
        <time>2021-08-15T06:46:06.000Z</time>
      </trkpt>
      <trkpt lat="47.44542" lon="-2.35202">
        <ele>41.599998474121</ele>
        <time>2021-08-15T06:46:07.000Z</time>
      </trkpt>
      <trkpt lat="47.44556" lon="-2.35208">
        <ele>41.599998474121</ele>
        <time>2021-08-15T06:46:10.000Z</time>
      </trkpt>
      <trkpt lat="47.4456" lon="-2.3521">
        <ele>41.599998474121</ele>
        <time>2021-08-15T06:46:11.000Z</time>
      </trkpt>
      <trkpt lat="47.44573" lon="-2.35217">
        <ele>41.599998474121</ele>
        <time>2021-08-15T06:46:14.000Z</time>
      </trkpt>
      <trkpt lat="47.44584" lon="-2.35222">
        <ele>41.599998474121</ele>
        <time>2021-08-15T06:46:17.000Z</time>
      </trkpt>
      <trkpt lat="47.44588" lon="-2.35222">
        <ele>41.599998474121</ele>
        <time>2021-08-15T06:46:18.000Z</time>
      </trkpt>
      <trkpt lat="47.4459" lon="-2.3522">
        <ele>41.599998474121</ele>
        <time>2021-08-15T06:46:19.000Z</time>
      </trkpt>
      <trkpt lat="47.44594" lon="-2.35218">
        <ele>41.599998474121</ele>
        <time>2021-08-15T06:46:21.000Z</time>
      </trkpt>
      <trkpt lat="47.44604" lon="-2.35217">
        <ele>41.599998474121</ele>
        <time>2021-08-15T06:46:25.000Z</time>
      </trkpt>
      <trkpt lat="47.44625" lon="-2.35202">
        <ele>41.599998474121</ele>
        <time>2021-08-15T06:46:32.000Z</time>
      </trkpt>
      <trkpt lat="47.44645" lon="-2.35188">
        <ele>41.599998474121</ele>
        <time>2021-08-15T06:46:37.000Z</time>
      </trkpt>
      <trkpt lat="47.4465" lon="-2.35185">
        <ele>41.599998474121</ele>
        <time>2021-08-15T06:46:38.000Z</time>
      </trkpt>
      <trkpt lat="47.44654" lon="-2.35183">
        <ele>41.599998474121</ele>
        <time>2021-08-15T06:46:39.000Z</time>
      </trkpt>
      <trkpt lat="47.44679" lon="-2.35176">
        <ele>41.599998474121</ele>
        <time>2021-08-15T06:46:44.000Z</time>
      </trkpt>
      <trkpt lat="47.44705" lon="-2.35181">
        <ele>41.599998474121</ele>
        <time>2021-08-15T06:46:48.000Z</time>
      </trkpt>
      <trkpt lat="47.44758" lon="-2.35198">
        <ele>41.599998474121</ele>
        <time>2021-08-15T06:46:56.000Z</time>
      </trkpt>
      <trkpt lat="47.44809" lon="-2.35207">
        <ele>41.599998474121</ele>
        <time>2021-08-15T06:47:02.000Z</time>
      </trkpt>
      <trkpt lat="47.44848" lon="-2.35214">
        <ele>41.599998474121</ele>
        <time>2021-08-15T06:47:08.000Z</time>
      </trkpt>
      <trkpt lat="47.44852" lon="-2.35214">
        <ele>41.599998474121</ele>
        <time>2021-08-15T06:47:09.000Z</time>
      </trkpt>
      <trkpt lat="47.44857" lon="-2.35214">
        <ele>41.599998474121</ele>
        <time>2021-08-15T06:47:10.000Z</time>
      </trkpt>
      <trkpt lat="47.44873" lon="-2.35219">
        <ele>41.599998474121</ele>
        <time>2021-08-15T06:47:14.000Z</time>
      </trkpt>
      <trkpt lat="47.44877" lon="-2.35221">
        <ele>41.599998474121</ele>
        <time>2021-08-15T06:47:15.000Z</time>
      </trkpt>
      <trkpt lat="47.449" lon="-2.35228">
        <ele>41.599998474121</ele>
        <time>2021-08-15T06:47:20.000Z</time>
      </trkpt>
      <trkpt lat="47.44917" lon="-2.35232">
        <ele>41.599998474121</ele>
        <time>2021-08-15T06:47:24.000Z</time>
      </trkpt>
      <trkpt lat="47.44932" lon="-2.35239">
        <ele>41.599998474121</ele>
        <time>2021-08-15T06:47:27.000Z</time>
      </trkpt>
      <trkpt lat="47.44937" lon="-2.35241">
        <ele>41.599998474121</ele>
        <time>2021-08-15T06:47:28.000Z</time>
      </trkpt>
      <trkpt lat="47.44943" lon="-2.35243">
        <ele>41.599998474121</ele>
        <time>2021-08-15T06:47:29.000Z</time>
      </trkpt>
      <trkpt lat="47.44959" lon="-2.35246">
        <ele>41.599998474121</ele>
        <time>2021-08-15T06:47:32.000Z</time>
      </trkpt>
      <trkpt lat="47.44999" lon="-2.35255">
        <ele>41.599998474121</ele>
        <time>2021-08-15T06:47:39.000Z</time>
      </trkpt>
      <trkpt lat="47.4502" lon="-2.35264">
        <ele>41.599998474121</ele>
        <time>2021-08-15T06:47:43.000Z</time>
      </trkpt>
      <trkpt lat="47.45032" lon="-2.35269">
        <ele>41.599998474121</ele>
        <time>2021-08-15T06:47:45.000Z</time>
      </trkpt>
      <trkpt lat="47.45053" lon="-2.35273">
        <ele>41.599998474121</ele>
        <time>2021-08-15T06:47:49.000Z</time>
      </trkpt>
      <trkpt lat="47.45076" lon="-2.35279">
        <ele>41.599998474121</ele>
        <time>2021-08-15T06:47:53.000Z</time>
      </trkpt>
      <trkpt lat="47.45082" lon="-2.3528">
        <ele>41.599998474121</ele>
        <time>2021-08-15T06:47:54.000Z</time>
      </trkpt>
      <trkpt lat="47.4511" lon="-2.35289">
        <ele>41.599998474121</ele>
        <time>2021-08-15T06:47:59.000Z</time>
      </trkpt>
      <trkpt lat="47.45115" lon="-2.3529">
        <ele>41.599998474121</ele>
        <time>2021-08-15T06:48:00.000Z</time>
      </trkpt>
      <trkpt lat="47.45163" lon="-2.35298">
        <ele>41.599998474121</ele>
        <time>2021-08-15T06:48:08.000Z</time>
      </trkpt>
      <trkpt lat="47.45204" lon="-2.35301">
        <ele>41.599998474121</ele>
        <time>2021-08-15T06:48:15.000Z</time>
      </trkpt>
      <trkpt lat="47.45235" lon="-2.35305">
        <ele>41.599998474121</ele>
        <time>2021-08-15T06:48:20.000Z</time>
      </trkpt>
      <trkpt lat="47.45242" lon="-2.35306">
        <ele>41.599998474121</ele>
        <time>2021-08-15T06:48:21.000Z</time>
      </trkpt>
      <trkpt lat="47.45281" lon="-2.35305">
        <ele>41.599998474121</ele>
        <time>2021-08-15T06:48:27.000Z</time>
      </trkpt>
      <trkpt lat="47.45327" lon="-2.35301">
        <ele>41.599998474121</ele>
        <time>2021-08-15T06:48:33.000Z</time>
      </trkpt>
      <trkpt lat="47.45355" lon="-2.35301">
        <ele>41.200000762939</ele>
        <time>2021-08-15T06:48:37.000Z</time>
      </trkpt>
      <trkpt lat="47.45361" lon="-2.35302">
        <ele>40.799999237061</ele>
        <time>2021-08-15T06:48:38.000Z</time>
      </trkpt>
      <trkpt lat="47.45367" lon="-2.35302">
        <ele>40.400001525879</ele>
        <time>2021-08-15T06:48:39.000Z</time>
      </trkpt>
      <trkpt lat="47.45373" lon="-2.35302">
        <ele>40</ele>
        <time>2021-08-15T06:48:40.000Z</time>
      </trkpt>
      <trkpt lat="47.45379" lon="-2.35302">
        <ele>39.599998474121</ele>
        <time>2021-08-15T06:48:41.000Z</time>
      </trkpt>
      <trkpt lat="47.45397" lon="-2.35299">
        <ele>39.599998474121</ele>
        <time>2021-08-15T06:48:44.000Z</time>
      </trkpt>
      <trkpt lat="47.4542" lon="-2.35294">
        <ele>39.599998474121</ele>
        <time>2021-08-15T06:48:48.000Z</time>
      </trkpt>
      <trkpt lat="47.45431" lon="-2.35287">
        <ele>39.599998474121</ele>
        <time>2021-08-15T06:48:50.000Z</time>
      </trkpt>
      <trkpt lat="47.45445" lon="-2.35268">
        <ele>39.599998474121</ele>
        <time>2021-08-15T06:48:53.000Z</time>
      </trkpt>
      <trkpt lat="47.45448" lon="-2.35262">
        <ele>39.599998474121</ele>
        <time>2021-08-15T06:48:54.000Z</time>
      </trkpt>
      <trkpt lat="47.45478" lon="-2.3521">
        <ele>39.599998474121</ele>
        <time>2021-08-15T06:49:02.000Z</time>
      </trkpt>
      <trkpt lat="47.45509" lon="-2.3518">
        <ele>39.599998474121</ele>
        <time>2021-08-15T06:49:08.000Z</time>
      </trkpt>
      <trkpt lat="47.45543" lon="-2.35145">
        <ele>39.599998474121</ele>
        <time>2021-08-15T06:49:15.000Z</time>
      </trkpt>
      <trkpt lat="47.45554" lon="-2.35136">
        <ele>39.599998474121</ele>
        <time>2021-08-15T06:49:17.000Z</time>
      </trkpt>
      <trkpt lat="47.45575" lon="-2.35117">
        <ele>39.599998474121</ele>
        <time>2021-08-15T06:49:21.000Z</time>
      </trkpt>
      <trkpt lat="47.45586" lon="-2.35107">
        <ele>39.599998474121</ele>
        <time>2021-08-15T06:49:23.000Z</time>
      </trkpt>
      <trkpt lat="47.45605" lon="-2.35094">
        <ele>39.599998474121</ele>
        <time>2021-08-15T06:49:26.000Z</time>
      </trkpt>
      <trkpt lat="47.45646" lon="-2.35062">
        <ele>39.599998474121</ele>
        <time>2021-08-15T06:49:33.000Z</time>
      </trkpt>
      <trkpt lat="47.4568" lon="-2.35034">
        <ele>39.599998474121</ele>
        <time>2021-08-15T06:49:40.000Z</time>
      </trkpt>
      <trkpt lat="47.45689" lon="-2.35027">
        <ele>40</ele>
        <time>2021-08-15T06:49:42.000Z</time>
      </trkpt>
      <trkpt lat="47.45694" lon="-2.35023">
        <ele>40.400001525879</ele>
        <time>2021-08-15T06:49:43.000Z</time>
      </trkpt>
      <trkpt lat="47.45699" lon="-2.35019">
        <ele>40.799999237061</ele>
        <time>2021-08-15T06:49:44.000Z</time>
      </trkpt>
      <trkpt lat="47.45704" lon="-2.35016">
        <ele>41.200000762939</ele>
        <time>2021-08-15T06:49:45.000Z</time>
      </trkpt>
      <trkpt lat="47.45708" lon="-2.35012">
        <ele>41.599998474121</ele>
        <time>2021-08-15T06:49:46.000Z</time>
      </trkpt>
      <trkpt lat="47.45717" lon="-2.35005">
        <ele>41.599998474121</ele>
        <time>2021-08-15T06:49:48.000Z</time>
      </trkpt>
      <trkpt lat="47.45726" lon="-2.34998">
        <ele>41.599998474121</ele>
        <time>2021-08-15T06:49:50.000Z</time>
      </trkpt>
      <trkpt lat="47.45739" lon="-2.34985">
        <ele>41.599998474121</ele>
        <time>2021-08-15T06:49:53.000Z</time>
      </trkpt>
      <trkpt lat="47.45748" lon="-2.34978">
        <ele>41.599998474121</ele>
        <time>2021-08-15T06:49:55.000Z</time>
      </trkpt>
      <trkpt lat="47.45766" lon="-2.34965">
        <ele>41.599998474121</ele>
        <time>2021-08-15T06:49:59.000Z</time>
      </trkpt>
      <trkpt lat="47.45788" lon="-2.34953">
        <ele>41.599998474121</ele>
        <time>2021-08-15T06:50:04.000Z</time>
      </trkpt>
      <trkpt lat="47.45792" lon="-2.34952">
        <ele>41.599998474121</ele>
        <time>2021-08-15T06:50:05.000Z</time>
      </trkpt>
      <trkpt lat="47.45814" lon="-2.34956">
        <ele>41.599998474121</ele>
        <time>2021-08-15T06:50:09.000Z</time>
      </trkpt>
      <trkpt lat="47.45846" lon="-2.34963">
        <ele>41.599998474121</ele>
        <time>2021-08-15T06:50:15.000Z</time>
      </trkpt>
      <trkpt lat="47.45881" lon="-2.34969">
        <ele>41.599998474121</ele>
        <time>2021-08-15T06:50:22.000Z</time>
      </trkpt>
      <trkpt lat="47.45917" lon="-2.34974">
        <ele>41.599998474121</ele>
        <time>2021-08-15T06:50:29.000Z</time>
      </trkpt>
      <trkpt lat="47.45934" lon="-2.34978">
        <ele>41.599998474121</ele>
        <time>2021-08-15T06:50:32.000Z</time>
      </trkpt>
      <trkpt lat="47.45949" lon="-2.34983">
        <ele>41.599998474121</ele>
        <time>2021-08-15T06:50:35.000Z</time>
      </trkpt>
      <trkpt lat="47.45988" lon="-2.34989">
        <ele>41.599998474121</ele>
        <time>2021-08-15T06:50:42.000Z</time>
      </trkpt>
      <trkpt lat="47.4601" lon="-2.34992">
        <ele>41.599998474121</ele>
        <time>2021-08-15T06:50:46.000Z</time>
      </trkpt>
      <trkpt lat="47.46028" lon="-2.34994">
        <ele>41.599998474121</ele>
        <time>2021-08-15T06:50:49.000Z</time>
      </trkpt>
      <trkpt lat="47.46059" lon="-2.35002">
        <ele>41.599998474121</ele>
        <time>2021-08-15T06:50:54.000Z</time>
      </trkpt>
      <trkpt lat="47.46093" lon="-2.35013">
        <ele>41.599998474121</ele>
        <time>2021-08-15T06:51:00.000Z</time>
      </trkpt>
      <trkpt lat="47.46122" lon="-2.35014">
        <ele>41.599998474121</ele>
        <time>2021-08-15T06:51:05.000Z</time>
      </trkpt>
      <trkpt lat="47.46158" lon="-2.35019">
        <ele>41.599998474121</ele>
        <time>2021-08-15T06:51:11.000Z</time>
      </trkpt>
      <trkpt lat="47.46191" lon="-2.35027">
        <ele>41.200000762939</ele>
        <time>2021-08-15T06:51:17.000Z</time>
      </trkpt>
      <trkpt lat="47.46196" lon="-2.35028">
        <ele>40.799999237061</ele>
        <time>2021-08-15T06:51:18.000Z</time>
      </trkpt>
      <trkpt lat="47.46202" lon="-2.35029">
        <ele>40.400001525879</ele>
        <time>2021-08-15T06:51:19.000Z</time>
      </trkpt>
      <trkpt lat="47.46209" lon="-2.35029">
        <ele>39.599998474121</ele>
        <time>2021-08-15T06:51:20.000Z</time>
      </trkpt>
      <trkpt lat="47.46234" lon="-2.3503">
        <ele>39.599998474121</ele>
        <time>2021-08-15T06:51:24.000Z</time>
      </trkpt>
      <trkpt lat="47.46268" lon="-2.35032">
        <ele>39.599998474121</ele>
        <time>2021-08-15T06:51:30.000Z</time>
      </trkpt>
      <trkpt lat="47.46301" lon="-2.35038">
        <ele>39.599998474121</ele>
        <time>2021-08-15T06:51:36.000Z</time>
      </trkpt>
      <trkpt lat="47.46331" lon="-2.35047">
        <ele>39.599998474121</ele>
        <time>2021-08-15T06:51:42.000Z</time>
      </trkpt>
      <trkpt lat="47.46363" lon="-2.35057">
        <ele>39.599998474121</ele>
        <time>2021-08-15T06:51:49.000Z</time>
      </trkpt>
      <trkpt lat="47.46367" lon="-2.35058">
        <ele>40</ele>
        <time>2021-08-15T06:51:50.000Z</time>
      </trkpt>
      <trkpt lat="47.46372" lon="-2.35059">
        <ele>40.400001525879</ele>
        <time>2021-08-15T06:51:51.000Z</time>
      </trkpt>
      <trkpt lat="47.46377" lon="-2.3506">
        <ele>40.799999237061</ele>
        <time>2021-08-15T06:51:52.000Z</time>
      </trkpt>
      <trkpt lat="47.46382" lon="-2.3506">
        <ele>41.200000762939</ele>
        <time>2021-08-15T06:51:53.000Z</time>
      </trkpt>
      <trkpt lat="47.46388" lon="-2.35061">
        <ele>41.599998474121</ele>
        <time>2021-08-15T06:51:54.000Z</time>
      </trkpt>
      <trkpt lat="47.46393" lon="-2.35062">
        <ele>41.599998474121</ele>
        <time>2021-08-15T06:51:55.000Z</time>
      </trkpt>
      <trkpt lat="47.46423" lon="-2.35072">
        <ele>41.599998474121</ele>
        <time>2021-08-15T06:52:01.000Z</time>
      </trkpt>
      <trkpt lat="47.46457" lon="-2.35092">
        <ele>41.599998474121</ele>
        <time>2021-08-15T06:52:08.000Z</time>
      </trkpt>
      <trkpt lat="47.46494" lon="-2.35119">
        <ele>41.599998474121</ele>
        <time>2021-08-15T06:52:16.000Z</time>
      </trkpt>
      <trkpt lat="47.46521" lon="-2.35135">
        <ele>41.599998474121</ele>
        <time>2021-08-15T06:52:22.000Z</time>
      </trkpt>
      <trkpt lat="47.46525" lon="-2.35138">
        <ele>41.599998474121</ele>
        <time>2021-08-15T06:52:23.000Z</time>
      </trkpt>
      <trkpt lat="47.46541" lon="-2.35152">
        <ele>41.599998474121</ele>
        <time>2021-08-15T06:52:27.000Z</time>
      </trkpt>
      <trkpt lat="47.46545" lon="-2.35155">
        <ele>41.599998474121</ele>
        <time>2021-08-15T06:52:28.000Z</time>
      </trkpt>
      <trkpt lat="47.46568" lon="-2.35168">
        <ele>41.599998474121</ele>
        <time>2021-08-15T06:52:33.000Z</time>
      </trkpt>
      <trkpt lat="47.46598" lon="-2.35191">
        <ele>41.599998474121</ele>
        <time>2021-08-15T06:52:40.000Z</time>
      </trkpt>
      <trkpt lat="47.4663" lon="-2.3522">
        <ele>41.599998474121</ele>
        <time>2021-08-15T06:52:46.000Z</time>
      </trkpt>
      <trkpt lat="47.46656" lon="-2.35242">
        <ele>41.599998474121</ele>
        <time>2021-08-15T06:52:51.000Z</time>
      </trkpt>
      <trkpt lat="47.4666" lon="-2.35247">
        <ele>41.599998474121</ele>
        <time>2021-08-15T06:52:52.000Z</time>
      </trkpt>
      <trkpt lat="47.46681" lon="-2.35275">
        <ele>41.599998474121</ele>
        <time>2021-08-15T06:52:57.000Z</time>
      </trkpt>
      <trkpt lat="47.46685" lon="-2.35279">
        <ele>41.599998474121</ele>
        <time>2021-08-15T06:52:58.000Z</time>
      </trkpt>
      <trkpt lat="47.46706" lon="-2.35305">
        <ele>41.599998474121</ele>
        <time>2021-08-15T06:53:03.000Z</time>
      </trkpt>
      <trkpt lat="47.46711" lon="-2.35308">
        <ele>41.599998474121</ele>
        <time>2021-08-15T06:53:04.000Z</time>
      </trkpt>
      <trkpt lat="47.46725" lon="-2.35304">
        <ele>41.599998474121</ele>
        <time>2021-08-15T06:53:07.000Z</time>
      </trkpt>
      <trkpt lat="47.46736" lon="-2.35279">
        <ele>41.599998474121</ele>
        <time>2021-08-15T06:53:11.000Z</time>
      </trkpt>
      <trkpt lat="47.46737" lon="-2.35271">
        <ele>41.599998474121</ele>
        <time>2021-08-15T06:53:12.000Z</time>
      </trkpt>
      <trkpt lat="47.46737" lon="-2.35263">
        <ele>41.599998474121</ele>
        <time>2021-08-15T06:53:13.000Z</time>
      </trkpt>
      <trkpt lat="47.46735" lon="-2.35238">
        <ele>41.599998474121</ele>
        <time>2021-08-15T06:53:16.000Z</time>
      </trkpt>
      <trkpt lat="47.4673" lon="-2.35182">
        <ele>41.599998474121</ele>
        <time>2021-08-15T06:53:23.000Z</time>
      </trkpt>
      <trkpt lat="47.4673" lon="-2.35168">
        <ele>41.599998474121</ele>
        <time>2021-08-15T06:53:26.000Z</time>
      </trkpt>
      <trkpt lat="47.46729" lon="-2.35167">
        <ele>41.599998474121</ele>
        <time>2021-08-15T06:53:27.000Z</time>
      </trkpt>
      <trkpt lat="47.46729" lon="-2.35166">
        <ele>41.599998474121</ele>
        <time>2021-08-15T06:53:29.000Z</time>
      </trkpt>
      <trkpt lat="47.46729" lon="-2.35173">
        <ele>41.599998474121</ele>
        <time>2021-08-15T06:53:44.000Z</time>
      </trkpt>
      <trkpt lat="47.46731" lon="-2.35188">
        <ele>41.599998474121</ele>
        <time>2021-08-15T06:53:48.000Z</time>
      </trkpt>
      <trkpt lat="47.46732" lon="-2.35192">
        <ele>41.599998474121</ele>
        <time>2021-08-15T06:53:51.000Z</time>
      </trkpt>
      <trkpt lat="47.46734" lon="-2.35191">
        <ele>41.599998474121</ele>
        <time>2021-08-15T06:54:03.000Z</time>
      </trkpt>
      <trkpt lat="47.4675" lon="-2.35181">
        <ele>41.599998474121</ele>
        <time>2021-08-15T06:54:07.000Z</time>
      </trkpt>
      <trkpt lat="47.46755" lon="-2.35178">
        <ele>41.599998474121</ele>
        <time>2021-08-15T06:54:08.000Z</time>
      </trkpt>
      <trkpt lat="47.46787" lon="-2.35162">
        <ele>41.599998474121</ele>
        <time>2021-08-15T06:54:14.000Z</time>
      </trkpt>
      <trkpt lat="47.46824" lon="-2.35147">
        <ele>41.599998474121</ele>
        <time>2021-08-15T06:54:21.000Z</time>
      </trkpt>
      <trkpt lat="47.4684" lon="-2.35139">
        <ele>41.599998474121</ele>
        <time>2021-08-15T06:54:24.000Z</time>
      </trkpt>
      <trkpt lat="47.46846" lon="-2.35129">
        <ele>41.599998474121</ele>
        <time>2021-08-15T06:54:26.000Z</time>
      </trkpt>
      <trkpt lat="47.46839" lon="-2.35111">
        <ele>41.599998474121</ele>
        <time>2021-08-15T06:54:29.000Z</time>
      </trkpt>
      <trkpt lat="47.46836" lon="-2.35104">
        <ele>41.599998474121</ele>
        <time>2021-08-15T06:54:30.000Z</time>
      </trkpt>
      <trkpt lat="47.46819" lon="-2.35066">
        <ele>41.599998474121</ele>
        <time>2021-08-15T06:54:35.000Z</time>
      </trkpt>
      <trkpt lat="47.46813" lon="-2.35015">
        <ele>41.599998474121</ele>
        <time>2021-08-15T06:54:41.000Z</time>
      </trkpt>
      <trkpt lat="47.46803" lon="-2.34979">
        <ele>41.599998474121</ele>
        <time>2021-08-15T06:54:46.000Z</time>
      </trkpt>
      <trkpt lat="47.46785" lon="-2.34948">
        <ele>41.599998474121</ele>
        <time>2021-08-15T06:54:51.000Z</time>
      </trkpt>
      <trkpt lat="47.46779" lon="-2.34926">
        <ele>41.599998474121</ele>
        <time>2021-08-15T06:54:54.000Z</time>
      </trkpt>
      <trkpt lat="47.46788" lon="-2.3491">
        <ele>41.599998474121</ele>
        <time>2021-08-15T06:54:57.000Z</time>
      </trkpt>
      <trkpt lat="47.46798" lon="-2.34903">
        <ele>41.599998474121</ele>
        <time>2021-08-15T06:54:59.000Z</time>
      </trkpt>
      <trkpt lat="47.46812" lon="-2.34892">
        <ele>41.599998474121</ele>
        <time>2021-08-15T06:55:02.000Z</time>
      </trkpt>
      <trkpt lat="47.46822" lon="-2.34885">
        <ele>42</ele>
        <time>2021-08-15T06:55:04.000Z</time>
      </trkpt>
      <trkpt lat="47.46827" lon="-2.34882">
        <ele>42.400001525879</ele>
        <time>2021-08-15T06:55:05.000Z</time>
      </trkpt>
      <trkpt lat="47.46831" lon="-2.34878">
        <ele>42.799999237061</ele>
        <time>2021-08-15T06:55:06.000Z</time>
      </trkpt>
      <trkpt lat="47.46836" lon="-2.34875">
        <ele>43.200000762939</ele>
        <time>2021-08-15T06:55:07.000Z</time>
      </trkpt>
      <trkpt lat="47.4684" lon="-2.34872">
        <ele>43.599998474121</ele>
        <time>2021-08-15T06:55:08.000Z</time>
      </trkpt>
      <trkpt lat="47.46844" lon="-2.34869">
        <ele>43.599998474121</ele>
        <time>2021-08-15T06:55:09.000Z</time>
      </trkpt>
      <trkpt lat="47.46856" lon="-2.34859">
        <ele>44.200000762939</ele>
        <time>2021-08-15T06:55:12.000Z</time>
      </trkpt>
      <trkpt lat="47.4686" lon="-2.34856">
        <ele>44.599998474121</ele>
        <time>2021-08-15T06:55:13.000Z</time>
      </trkpt>
      <trkpt lat="47.46865" lon="-2.34853">
        <ele>45</ele>
        <time>2021-08-15T06:55:14.000Z</time>
      </trkpt>
      <trkpt lat="47.46869" lon="-2.34851">
        <ele>45.400001525879</ele>
        <time>2021-08-15T06:55:15.000Z</time>
      </trkpt>
      <trkpt lat="47.46873" lon="-2.34848">
        <ele>45.799999237061</ele>
        <time>2021-08-15T06:55:16.000Z</time>
      </trkpt>
      <trkpt lat="47.46881" lon="-2.34843">
        <ele>45.799999237061</ele>
        <time>2021-08-15T06:55:18.000Z</time>
      </trkpt>
      <trkpt lat="47.46911" lon="-2.34824">
        <ele>46.200000762939</ele>
        <time>2021-08-15T06:55:25.000Z</time>
      </trkpt>
      <trkpt lat="47.46915" lon="-2.34821">
        <ele>46.599998474121</ele>
        <time>2021-08-15T06:55:26.000Z</time>
      </trkpt>
      <trkpt lat="47.46919" lon="-2.34818">
        <ele>47</ele>
        <time>2021-08-15T06:55:27.000Z</time>
      </trkpt>
      <trkpt lat="47.46924" lon="-2.34815">
        <ele>47.799999237061</ele>
        <time>2021-08-15T06:55:28.000Z</time>
      </trkpt>
      <trkpt lat="47.46952" lon="-2.34794">
        <ele>47.799999237061</ele>
        <time>2021-08-15T06:55:35.000Z</time>
      </trkpt>
      <trkpt lat="47.46977" lon="-2.34773">
        <ele>47.799999237061</ele>
        <time>2021-08-15T06:55:43.000Z</time>
      </trkpt>
      <trkpt lat="47.4699" lon="-2.34754">
        <ele>47.799999237061</ele>
        <time>2021-08-15T06:55:49.000Z</time>
      </trkpt>
      <trkpt lat="47.46993" lon="-2.34751">
        <ele>48.200000762939</ele>
        <time>2021-08-15T06:55:50.000Z</time>
      </trkpt>
      <trkpt lat="47.46997" lon="-2.34748">
        <ele>48.599998474121</ele>
        <time>2021-08-15T06:55:51.000Z</time>
      </trkpt>
      <trkpt lat="47.47001" lon="-2.34745">
        <ele>49.200000762939</ele>
        <time>2021-08-15T06:55:52.000Z</time>
      </trkpt>
      <trkpt lat="47.47005" lon="-2.34743">
        <ele>50</ele>
        <time>2021-08-15T06:55:53.000Z</time>
      </trkpt>
      <trkpt lat="47.47009" lon="-2.34741">
        <ele>50</ele>
        <time>2021-08-15T06:55:54.000Z</time>
      </trkpt>
      <trkpt lat="47.47048" lon="-2.34728">
        <ele>50</ele>
        <time>2021-08-15T06:56:02.000Z</time>
      </trkpt>
      <trkpt lat="47.47082" lon="-2.34716">
        <ele>50</ele>
        <time>2021-08-15T06:56:09.000Z</time>
      </trkpt>
      <trkpt lat="47.47116" lon="-2.34703">
        <ele>50</ele>
        <time>2021-08-15T06:56:16.000Z</time>
      </trkpt>
      <trkpt lat="47.47157" lon="-2.34687">
        <ele>50</ele>
        <time>2021-08-15T06:56:24.000Z</time>
      </trkpt>
      <trkpt lat="47.47169" lon="-2.34685">
        <ele>50</ele>
        <time>2021-08-15T06:56:26.000Z</time>
      </trkpt>
      <trkpt lat="47.47186" lon="-2.34685">
        <ele>50</ele>
        <time>2021-08-15T06:56:29.000Z</time>
      </trkpt>
      <trkpt lat="47.47198" lon="-2.34693">
        <ele>50</ele>
        <time>2021-08-15T06:56:32.000Z</time>
      </trkpt>
      <trkpt lat="47.47201" lon="-2.34697">
        <ele>50</ele>
        <time>2021-08-15T06:56:33.000Z</time>
      </trkpt>
      <trkpt lat="47.47205" lon="-2.34698">
        <ele>50</ele>
        <time>2021-08-15T06:56:34.000Z</time>
      </trkpt>
      <trkpt lat="47.47213" lon="-2.34696">
        <ele>50</ele>
        <time>2021-08-15T06:56:36.000Z</time>
      </trkpt>
      <trkpt lat="47.47223" lon="-2.34693">
        <ele>50</ele>
        <time>2021-08-15T06:56:38.000Z</time>
      </trkpt>
      <trkpt lat="47.4724" lon="-2.34689">
        <ele>50</ele>
        <time>2021-08-15T06:56:41.000Z</time>
      </trkpt>
      <trkpt lat="47.47255" lon="-2.34686">
        <ele>50</ele>
        <time>2021-08-15T06:56:44.000Z</time>
      </trkpt>
      <trkpt lat="47.47259" lon="-2.34688">
        <ele>49.599998474121</ele>
        <time>2021-08-15T06:56:45.000Z</time>
      </trkpt>
      <trkpt lat="47.47263" lon="-2.3469">
        <ele>49.200000762939</ele>
        <time>2021-08-15T06:56:46.000Z</time>
      </trkpt>
      <trkpt lat="47.47266" lon="-2.34694">
        <ele>48.799999237061</ele>
        <time>2021-08-15T06:56:47.000Z</time>
      </trkpt>
      <trkpt lat="47.47269" lon="-2.347">
        <ele>48.400001525879</ele>
        <time>2021-08-15T06:56:48.000Z</time>
      </trkpt>
      <trkpt lat="47.47273" lon="-2.34705">
        <ele>48</ele>
        <time>2021-08-15T06:56:49.000Z</time>
      </trkpt>
      <trkpt lat="47.47276" lon="-2.34708">
        <ele>48</ele>
        <time>2021-08-15T06:56:50.000Z</time>
      </trkpt>
      <trkpt lat="47.47281" lon="-2.34707">
        <ele>48</ele>
        <time>2021-08-15T06:56:52.000Z</time>
      </trkpt>
      <trkpt lat="47.47287" lon="-2.34703">
        <ele>48</ele>
        <time>2021-08-15T06:56:54.000Z</time>
      </trkpt>
      <trkpt lat="47.47291" lon="-2.34696">
        <ele>48</ele>
        <time>2021-08-15T06:56:56.000Z</time>
      </trkpt>
      <trkpt lat="47.47303" lon="-2.34692">
        <ele>48</ele>
        <time>2021-08-15T06:57:00.000Z</time>
      </trkpt>
      <trkpt lat="47.47315" lon="-2.34704">
        <ele>48</ele>
        <time>2021-08-15T06:57:03.000Z</time>
      </trkpt>
      <trkpt lat="47.47324" lon="-2.34713">
        <ele>48</ele>
        <time>2021-08-15T06:57:05.000Z</time>
      </trkpt>
      <trkpt lat="47.47351" lon="-2.34742">
        <ele>48</ele>
        <time>2021-08-15T06:57:11.000Z</time>
      </trkpt>
      <trkpt lat="47.4738" lon="-2.34775">
        <ele>48</ele>
        <time>2021-08-15T06:57:17.000Z</time>
      </trkpt>
      <trkpt lat="47.4741" lon="-2.34806">
        <ele>48</ele>
        <time>2021-08-15T06:57:23.000Z</time>
      </trkpt>
      <trkpt lat="47.47446" lon="-2.3484">
        <ele>48</ele>
        <time>2021-08-15T06:57:30.000Z</time>
      </trkpt>
      <trkpt lat="47.47451" lon="-2.34843">
        <ele>48</ele>
        <time>2021-08-15T06:57:31.000Z</time>
      </trkpt>
      <trkpt lat="47.47458" lon="-2.34843">
        <ele>48</ele>
        <time>2021-08-15T06:57:33.000Z</time>
      </trkpt>
      <trkpt lat="47.47468" lon="-2.34829">
        <ele>48</ele>
        <time>2021-08-15T06:57:37.000Z</time>
      </trkpt>
      <trkpt lat="47.47471" lon="-2.34822">
        <ele>48</ele>
        <time>2021-08-15T06:57:38.000Z</time>
      </trkpt>
      <trkpt lat="47.47481" lon="-2.34798">
        <ele>48</ele>
        <time>2021-08-15T06:57:42.000Z</time>
      </trkpt>
      <trkpt lat="47.47487" lon="-2.34779">
        <ele>48</ele>
        <time>2021-08-15T06:57:45.000Z</time>
      </trkpt>
      <trkpt lat="47.475" lon="-2.34764">
        <ele>48.400001525879</ele>
        <time>2021-08-15T06:57:48.000Z</time>
      </trkpt>
      <trkpt lat="47.47504" lon="-2.34758">
        <ele>48.799999237061</ele>
        <time>2021-08-15T06:57:49.000Z</time>
      </trkpt>
      <trkpt lat="47.47509" lon="-2.34753">
        <ele>49.200000762939</ele>
        <time>2021-08-15T06:57:50.000Z</time>
      </trkpt>
      <trkpt lat="47.47513" lon="-2.34748">
        <ele>49.799999237061</ele>
        <time>2021-08-15T06:57:51.000Z</time>
      </trkpt>
      <trkpt lat="47.47518" lon="-2.34745">
        <ele>50.200000762939</ele>
        <time>2021-08-15T06:57:52.000Z</time>
      </trkpt>
      <trkpt lat="47.47523" lon="-2.34744">
        <ele>50.200000762939</ele>
        <time>2021-08-15T06:57:53.000Z</time>
      </trkpt>
      <trkpt lat="47.4754" lon="-2.34757">
        <ele>50.200000762939</ele>
        <time>2021-08-15T06:57:57.000Z</time>
      </trkpt>
      <trkpt lat="47.47549" lon="-2.34784">
        <ele>50.200000762939</ele>
        <time>2021-08-15T06:58:01.000Z</time>
      </trkpt>
      <trkpt lat="47.4755" lon="-2.34791">
        <ele>50.200000762939</ele>
        <time>2021-08-15T06:58:02.000Z</time>
      </trkpt>
      <trkpt lat="47.47552" lon="-2.34806">
        <ele>50.200000762939</ele>
        <time>2021-08-15T06:58:04.000Z</time>
      </trkpt>
      <trkpt lat="47.47557" lon="-2.34813">
        <ele>50.200000762939</ele>
        <time>2021-08-15T06:58:06.000Z</time>
      </trkpt>
      <trkpt lat="47.47569" lon="-2.34809">
        <ele>50.200000762939</ele>
        <time>2021-08-15T06:58:09.000Z</time>
      </trkpt>
      <trkpt lat="47.47578" lon="-2.34802">
        <ele>50.200000762939</ele>
        <time>2021-08-15T06:58:11.000Z</time>
      </trkpt>
      <trkpt lat="47.47593" lon="-2.34791">
        <ele>50.200000762939</ele>
        <time>2021-08-15T06:58:14.000Z</time>
      </trkpt>
      <trkpt lat="47.47645" lon="-2.34754">
        <ele>50.200000762939</ele>
        <time>2021-08-15T06:58:23.000Z</time>
      </trkpt>
      <trkpt lat="47.47688" lon="-2.34724">
        <ele>50.200000762939</ele>
        <time>2021-08-15T06:58:30.000Z</time>
      </trkpt>
      <trkpt lat="47.47724" lon="-2.34701">
        <ele>50.200000762939</ele>
        <time>2021-08-15T06:58:36.000Z</time>
      </trkpt>
      <trkpt lat="47.47739" lon="-2.34712">
        <ele>50.200000762939</ele>
        <time>2021-08-15T06:58:39.000Z</time>
      </trkpt>
      <trkpt lat="47.47743" lon="-2.34718">
        <ele>50.200000762939</ele>
        <time>2021-08-15T06:58:40.000Z</time>
      </trkpt>
      <trkpt lat="47.4777" lon="-2.34754">
        <ele>50.200000762939</ele>
        <time>2021-08-15T06:58:46.000Z</time>
      </trkpt>
      <trkpt lat="47.47796" lon="-2.34793">
        <ele>50.200000762939</ele>
        <time>2021-08-15T06:58:52.000Z</time>
      </trkpt>
      <trkpt lat="47.47826" lon="-2.34839">
        <ele>50.200000762939</ele>
        <time>2021-08-15T06:58:59.000Z</time>
      </trkpt>
      <trkpt lat="47.47862" lon="-2.34886">
        <ele>50.200000762939</ele>
        <time>2021-08-15T06:59:07.000Z</time>
      </trkpt>
      <trkpt lat="47.47891" lon="-2.34927">
        <ele>50.200000762939</ele>
        <time>2021-08-15T06:59:14.000Z</time>
      </trkpt>
      <trkpt lat="47.47916" lon="-2.34963">
        <ele>50.200000762939</ele>
        <time>2021-08-15T06:59:21.000Z</time>
      </trkpt>
      <trkpt lat="47.47939" lon="-2.34995">
        <ele>50.200000762939</ele>
        <time>2021-08-15T06:59:28.000Z</time>
      </trkpt>
      <trkpt lat="47.47959" lon="-2.35015">
        <ele>51</ele>
        <time>2021-08-15T06:59:34.000Z</time>
      </trkpt>
      <trkpt lat="47.47963" lon="-2.35019">
        <ele>51.400001525879</ele>
        <time>2021-08-15T06:59:35.000Z</time>
      </trkpt>
      <trkpt lat="47.47967" lon="-2.35024">
        <ele>52</ele>
        <time>2021-08-15T06:59:36.000Z</time>
      </trkpt>
      <trkpt lat="47.4797" lon="-2.35029">
        <ele>52.400001525879</ele>
        <time>2021-08-15T06:59:37.000Z</time>
      </trkpt>
      <trkpt lat="47.4798" lon="-2.35045">
        <ele>52.400001525879</ele>
        <time>2021-08-15T06:59:40.000Z</time>
      </trkpt>
      <trkpt lat="47.48008" lon="-2.35091">
        <ele>52.400001525879</ele>
        <time>2021-08-15T06:59:48.000Z</time>
      </trkpt>
      <trkpt lat="47.48038" lon="-2.35138">
        <ele>52.400001525879</ele>
        <time>2021-08-15T06:59:56.000Z</time>
      </trkpt>
      <trkpt lat="47.48064" lon="-2.35175">
        <ele>52.400001525879</ele>
        <time>2021-08-15T07:00:02.000Z</time>
      </trkpt>
      <trkpt lat="47.48093" lon="-2.35216">
        <ele>52.400001525879</ele>
        <time>2021-08-15T07:00:09.000Z</time>
      </trkpt>
      <trkpt lat="47.4811" lon="-2.35243">
        <ele>52.400001525879</ele>
        <time>2021-08-15T07:00:13.000Z</time>
      </trkpt>
      <trkpt lat="47.48117" lon="-2.35258">
        <ele>52.400001525879</ele>
        <time>2021-08-15T07:00:15.000Z</time>
      </trkpt>
      <trkpt lat="47.48141" lon="-2.35311">
        <ele>52.400001525879</ele>
        <time>2021-08-15T07:00:22.000Z</time>
      </trkpt>
      <trkpt lat="47.48168" lon="-2.35349">
        <ele>52.400001525879</ele>
        <time>2021-08-15T07:00:28.000Z</time>
      </trkpt>
      <trkpt lat="47.482" lon="-2.35383">
        <ele>52.400001525879</ele>
        <time>2021-08-15T07:00:34.000Z</time>
      </trkpt>
      <trkpt lat="47.4822" lon="-2.35406">
        <ele>52</ele>
        <time>2021-08-15T07:00:38.000Z</time>
      </trkpt>
      <trkpt lat="47.48225" lon="-2.35411">
        <ele>51.599998474121</ele>
        <time>2021-08-15T07:00:39.000Z</time>
      </trkpt>
      <trkpt lat="47.48231" lon="-2.35417">
        <ele>51.200000762939</ele>
        <time>2021-08-15T07:00:40.000Z</time>
      </trkpt>
      <trkpt lat="47.48235" lon="-2.35422">
        <ele>50.799999237061</ele>
        <time>2021-08-15T07:00:41.000Z</time>
      </trkpt>
      <trkpt lat="47.4824" lon="-2.35425">
        <ele>50.400001525879</ele>
        <time>2021-08-15T07:00:42.000Z</time>
      </trkpt>
      <trkpt lat="47.48257" lon="-2.35428">
        <ele>50.400001525879</ele>
        <time>2021-08-15T07:00:46.000Z</time>
      </trkpt>
      <trkpt lat="47.48261" lon="-2.35428">
        <ele>50.400001525879</ele>
        <time>2021-08-15T07:00:47.000Z</time>
      </trkpt>
      <trkpt lat="47.48287" lon="-2.35426">
        <ele>50.400001525879</ele>
        <time>2021-08-15T07:00:52.000Z</time>
      </trkpt>
      <trkpt lat="47.48318" lon="-2.35426">
        <ele>50</ele>
        <time>2021-08-15T07:00:57.000Z</time>
      </trkpt>
      <trkpt lat="47.48325" lon="-2.35427">
        <ele>49.599998474121</ele>
        <time>2021-08-15T07:00:58.000Z</time>
      </trkpt>
      <trkpt lat="47.48331" lon="-2.35427">
        <ele>49.200000762939</ele>
        <time>2021-08-15T07:00:59.000Z</time>
      </trkpt>
      <trkpt lat="47.48337" lon="-2.35427">
        <ele>48.799999237061</ele>
        <time>2021-08-15T07:01:00.000Z</time>
      </trkpt>
      <trkpt lat="47.48343" lon="-2.35424">
        <ele>48.400001525879</ele>
        <time>2021-08-15T07:01:01.000Z</time>
      </trkpt>
      <trkpt lat="47.48349" lon="-2.3542">
        <ele>48.400001525879</ele>
        <time>2021-08-15T07:01:02.000Z</time>
      </trkpt>
      <trkpt lat="47.48356" lon="-2.35398">
        <ele>47.799999237061</ele>
        <time>2021-08-15T07:01:05.000Z</time>
      </trkpt>
      <trkpt lat="47.48356" lon="-2.3539">
        <ele>47.400001525879</ele>
        <time>2021-08-15T07:01:06.000Z</time>
      </trkpt>
      <trkpt lat="47.48355" lon="-2.35382">
        <ele>47</ele>
        <time>2021-08-15T07:01:07.000Z</time>
      </trkpt>
      <trkpt lat="47.48354" lon="-2.35373">
        <ele>46.599998474121</ele>
        <time>2021-08-15T07:01:08.000Z</time>
      </trkpt>
      <trkpt lat="47.48353" lon="-2.35364">
        <ele>46</ele>
        <time>2021-08-15T07:01:09.000Z</time>
      </trkpt>
      <trkpt lat="47.48347" lon="-2.35308">
        <ele>46</ele>
        <time>2021-08-15T07:01:16.000Z</time>
      </trkpt>
      <trkpt lat="47.48341" lon="-2.35244">
        <ele>46</ele>
        <time>2021-08-15T07:01:24.000Z</time>
      </trkpt>
      <trkpt lat="47.48341" lon="-2.35229">
        <ele>46</ele>
        <time>2021-08-15T07:01:26.000Z</time>
      </trkpt>
      <trkpt lat="47.48345" lon="-2.3522">
        <ele>46</ele>
        <time>2021-08-15T07:01:28.000Z</time>
      </trkpt>
      <trkpt lat="47.48349" lon="-2.35216">
        <ele>46.400001525879</ele>
        <time>2021-08-15T07:01:29.000Z</time>
      </trkpt>
      <trkpt lat="47.48353" lon="-2.35213">
        <ele>46.799999237061</ele>
        <time>2021-08-15T07:01:30.000Z</time>
      </trkpt>
      <trkpt lat="47.48357" lon="-2.35209">
        <ele>47.400001525879</ele>
        <time>2021-08-15T07:01:31.000Z</time>
      </trkpt>
      <trkpt lat="47.48361" lon="-2.35204">
        <ele>47.799999237061</ele>
        <time>2021-08-15T07:01:32.000Z</time>
      </trkpt>
      <trkpt lat="47.48365" lon="-2.35198">
        <ele>48.200000762939</ele>
        <time>2021-08-15T07:01:33.000Z</time>
      </trkpt>
      <trkpt lat="47.48388" lon="-2.35158">
        <ele>48.200000762939</ele>
        <time>2021-08-15T07:01:39.000Z</time>
      </trkpt>
      <trkpt lat="47.48408" lon="-2.35108">
        <ele>47.799999237061</ele>
        <time>2021-08-15T07:01:45.000Z</time>
      </trkpt>
      <trkpt lat="47.48412" lon="-2.35099">
        <ele>47.400001525879</ele>
        <time>2021-08-15T07:01:46.000Z</time>
      </trkpt>
      <trkpt lat="47.48415" lon="-2.35091">
        <ele>47</ele>
        <time>2021-08-15T07:01:47.000Z</time>
      </trkpt>
      <trkpt lat="47.48419" lon="-2.35082">
        <ele>46.599998474121</ele>
        <time>2021-08-15T07:01:48.000Z</time>
      </trkpt>
      <trkpt lat="47.48423" lon="-2.35074">
        <ele>46</ele>
        <time>2021-08-15T07:01:49.000Z</time>
      </trkpt>
      <trkpt lat="47.4844" lon="-2.3504">
        <ele>46</ele>
        <time>2021-08-15T07:01:53.000Z</time>
      </trkpt>
      <trkpt lat="47.48454" lon="-2.35015">
        <ele>45.599998474121</ele>
        <time>2021-08-15T07:01:56.000Z</time>
      </trkpt>
      <trkpt lat="47.48458" lon="-2.35007">
        <ele>45.200000762939</ele>
        <time>2021-08-15T07:01:57.000Z</time>
      </trkpt>
      <trkpt lat="47.48462" lon="-2.34999">
        <ele>44.799999237061</ele>
        <time>2021-08-15T07:01:58.000Z</time>
      </trkpt>
      <trkpt lat="47.48466" lon="-2.34991">
        <ele>44.400001525879</ele>
        <time>2021-08-15T07:01:59.000Z</time>
      </trkpt>
      <trkpt lat="47.4847" lon="-2.34984">
        <ele>43.799999237061</ele>
        <time>2021-08-15T07:02:00.000Z</time>
      </trkpt>
      <trkpt lat="47.48488" lon="-2.34949">
        <ele>43.400001525879</ele>
        <time>2021-08-15T07:02:04.000Z</time>
      </trkpt>
      <trkpt lat="47.48493" lon="-2.34941">
        <ele>43</ele>
        <time>2021-08-15T07:02:05.000Z</time>
      </trkpt>
      <trkpt lat="47.48498" lon="-2.34932">
        <ele>42.599998474121</ele>
        <time>2021-08-15T07:02:06.000Z</time>
      </trkpt>
      <trkpt lat="47.48503" lon="-2.34923">
        <ele>42.200000762939</ele>
        <time>2021-08-15T07:02:07.000Z</time>
      </trkpt>
      <trkpt lat="47.48507" lon="-2.34914">
        <ele>41.799999237061</ele>
        <time>2021-08-15T07:02:08.000Z</time>
      </trkpt>
      <trkpt lat="47.48522" lon="-2.34875">
        <ele>41.799999237061</ele>
        <time>2021-08-15T07:02:12.000Z</time>
      </trkpt>
      <trkpt lat="47.48546" lon="-2.34807">
        <ele>41.799999237061</ele>
        <time>2021-08-15T07:02:19.000Z</time>
      </trkpt>
      <trkpt lat="47.48556" lon="-2.34779">
        <ele>41.400001525879</ele>
        <time>2021-08-15T07:02:22.000Z</time>
      </trkpt>
      <trkpt lat="47.4856" lon="-2.3477">
        <ele>41</ele>
        <time>2021-08-15T07:02:23.000Z</time>
      </trkpt>
      <trkpt lat="47.48563" lon="-2.3476">
        <ele>40.599998474121</ele>
        <time>2021-08-15T07:02:24.000Z</time>
      </trkpt>
      <trkpt lat="47.48566" lon="-2.34751">
        <ele>40</ele>
        <time>2021-08-15T07:02:25.000Z</time>
      </trkpt>
      <trkpt lat="47.48569" lon="-2.34741">
        <ele>39.599998474121</ele>
        <time>2021-08-15T07:02:26.000Z</time>
      </trkpt>
      <trkpt lat="47.48589" lon="-2.34679">
        <ele>39.599998474121</ele>
        <time>2021-08-15T07:02:33.000Z</time>
      </trkpt>
      <trkpt lat="47.48592" lon="-2.3467">
        <ele>39.599998474121</ele>
        <time>2021-08-15T07:02:34.000Z</time>
      </trkpt>
      <trkpt lat="47.48601" lon="-2.34644">
        <ele>39.599998474121</ele>
        <time>2021-08-15T07:02:37.000Z</time>
      </trkpt>
      <trkpt lat="47.4862" lon="-2.34591">
        <ele>39.599998474121</ele>
        <time>2021-08-15T07:02:43.000Z</time>
      </trkpt>
      <trkpt lat="47.4864" lon="-2.3455">
        <ele>39.200000762939</ele>
        <time>2021-08-15T07:02:48.000Z</time>
      </trkpt>
      <trkpt lat="47.48644" lon="-2.34541">
        <ele>38.799999237061</ele>
        <time>2021-08-15T07:02:49.000Z</time>
      </trkpt>
      <trkpt lat="47.48647" lon="-2.34533">
        <ele>38.400001525879</ele>
        <time>2021-08-15T07:02:50.000Z</time>
      </trkpt>
      <trkpt lat="47.48651" lon="-2.34526">
        <ele>37.400001525879</ele>
        <time>2021-08-15T07:02:51.000Z</time>
      </trkpt>
      <trkpt lat="47.48662" lon="-2.34504">
        <ele>37.400001525879</ele>
        <time>2021-08-15T07:02:54.000Z</time>
      </trkpt>
      <trkpt lat="47.48667" lon="-2.3449">
        <ele>37.400001525879</ele>
        <time>2021-08-15T07:02:56.000Z</time>
      </trkpt>
      <trkpt lat="47.48672" lon="-2.34482">
        <ele>37.400001525879</ele>
        <time>2021-08-15T07:02:58.000Z</time>
      </trkpt>
      <trkpt lat="47.48676" lon="-2.3448">
        <ele>37.400001525879</ele>
        <time>2021-08-15T07:02:59.000Z</time>
      </trkpt>
      <trkpt lat="47.48687" lon="-2.34479">
        <ele>37.400001525879</ele>
        <time>2021-08-15T07:03:01.000Z</time>
      </trkpt>
      <trkpt lat="47.48692" lon="-2.34478">
        <ele>37.400001525879</ele>
        <time>2021-08-15T07:03:02.000Z</time>
      </trkpt>
      <trkpt lat="47.48713" lon="-2.34475">
        <ele>37.400001525879</ele>
        <time>2021-08-15T07:03:06.000Z</time>
      </trkpt>
      <trkpt lat="47.48754" lon="-2.34467">
        <ele>37.400001525879</ele>
        <time>2021-08-15T07:03:13.000Z</time>
      </trkpt>
      <trkpt lat="47.48803" lon="-2.34456">
        <ele>37.400001525879</ele>
        <time>2021-08-15T07:03:21.000Z</time>
      </trkpt>
      <trkpt lat="47.48835" lon="-2.34458">
        <ele>37.400001525879</ele>
        <time>2021-08-15T07:03:26.000Z</time>
      </trkpt>
      <trkpt lat="47.48876" lon="-2.34473">
        <ele>37.400001525879</ele>
        <time>2021-08-15T07:03:33.000Z</time>
      </trkpt>
      <trkpt lat="47.48922" lon="-2.34496">
        <ele>37.400001525879</ele>
        <time>2021-08-15T07:03:41.000Z</time>
      </trkpt>
      <trkpt lat="47.48942" lon="-2.34519">
        <ele>37.400001525879</ele>
        <time>2021-08-15T07:03:45.000Z</time>
      </trkpt>
      <trkpt lat="47.48966" lon="-2.34558">
        <ele>37.400001525879</ele>
        <time>2021-08-15T07:03:51.000Z</time>
      </trkpt>
      <trkpt lat="47.4897" lon="-2.34563">
        <ele>37.400001525879</ele>
        <time>2021-08-15T07:03:52.000Z</time>
      </trkpt>
      <trkpt lat="47.48985" lon="-2.34574">
        <ele>37.400001525879</ele>
        <time>2021-08-15T07:03:55.000Z</time>
      </trkpt>
      <trkpt lat="47.49009" lon="-2.34579">
        <ele>37.400001525879</ele>
        <time>2021-08-15T07:03:59.000Z</time>
      </trkpt>
      <trkpt lat="47.49015" lon="-2.34579">
        <ele>37.400001525879</ele>
        <time>2021-08-15T07:04:00.000Z</time>
      </trkpt>
      <trkpt lat="47.49021" lon="-2.34578">
        <ele>37.400001525879</ele>
        <time>2021-08-15T07:04:01.000Z</time>
      </trkpt>
      <trkpt lat="47.4904" lon="-2.34569">
        <ele>37.400001525879</ele>
        <time>2021-08-15T07:04:04.000Z</time>
      </trkpt>
      <trkpt lat="47.49058" lon="-2.34553">
        <ele>37.400001525879</ele>
        <time>2021-08-15T07:04:07.000Z</time>
      </trkpt>
      <trkpt lat="47.49062" lon="-2.34546">
        <ele>37</ele>
        <time>2021-08-15T07:04:08.000Z</time>
      </trkpt>
      <trkpt lat="47.49067" lon="-2.34539">
        <ele>36.599998474121</ele>
        <time>2021-08-15T07:04:09.000Z</time>
      </trkpt>
      <trkpt lat="47.49072" lon="-2.34533">
        <ele>36.200000762939</ele>
        <time>2021-08-15T07:04:10.000Z</time>
      </trkpt>
      <trkpt lat="47.49077" lon="-2.34529">
        <ele>35.599998474121</ele>
        <time>2021-08-15T07:04:11.000Z</time>
      </trkpt>
      <trkpt lat="47.49082" lon="-2.34527">
        <ele>35.200000762939</ele>
        <time>2021-08-15T07:04:12.000Z</time>
      </trkpt>
      <trkpt lat="47.49088" lon="-2.34528">
        <ele>34.599998474121</ele>
        <time>2021-08-15T07:04:13.000Z</time>
      </trkpt>
      <trkpt lat="47.49093" lon="-2.34531">
        <ele>34</ele>
        <time>2021-08-15T07:04:14.000Z</time>
      </trkpt>
      <trkpt lat="47.49097" lon="-2.34535">
        <ele>33.599998474121</ele>
        <time>2021-08-15T07:04:15.000Z</time>
      </trkpt>
      <trkpt lat="47.49099" lon="-2.34538">
        <ele>33</ele>
        <time>2021-08-15T07:04:16.000Z</time>
      </trkpt>
      <trkpt lat="47.491" lon="-2.3454">
        <ele>32.400001525879</ele>
        <time>2021-08-15T07:04:17.000Z</time>
      </trkpt>
      <trkpt lat="47.49101" lon="-2.34542">
        <ele>32</ele>
        <time>2021-08-15T07:04:18.000Z</time>
      </trkpt>
      <trkpt lat="47.49102" lon="-2.34544">
        <ele>31.39999961853</ele>
        <time>2021-08-15T07:04:19.000Z</time>
      </trkpt>
      <trkpt lat="47.49104" lon="-2.34546">
        <ele>30.799999237061</ele>
        <time>2021-08-15T07:04:20.000Z</time>
      </trkpt>
      <trkpt lat="47.49108" lon="-2.34551">
        <ele>30.799999237061</ele>
        <time>2021-08-15T07:04:25.000Z</time>
      </trkpt>
      <trkpt lat="47.49112" lon="-2.34548">
        <ele>28.799999237061</ele>
        <time>2021-08-15T07:04:49.000Z</time>
      </trkpt>
      <trkpt lat="47.49114" lon="-2.34546">
        <ele>28.39999961853</ele>
        <time>2021-08-15T07:04:51.000Z</time>
      </trkpt>
      <trkpt lat="47.49115" lon="-2.34546">
        <ele>28</ele>
        <time>2021-08-15T07:04:52.000Z</time>
      </trkpt>
      <trkpt lat="47.49115" lon="-2.34546">
        <ele>27.60000038147</ele>
        <time>2021-08-15T07:04:53.000Z</time>
      </trkpt>
      <trkpt lat="47.49117" lon="-2.34546">
        <ele>27.200000762939</ele>
        <time>2021-08-15T07:04:54.000Z</time>
      </trkpt>
      <trkpt lat="47.49117" lon="-2.34546">
        <ele>26.60000038147</ele>
        <time>2021-08-15T07:04:55.000Z</time>
      </trkpt>
      <trkpt lat="47.49119" lon="-2.34546">
        <ele>26.60000038147</ele>
        <time>2021-08-15T07:04:57.000Z</time>
      </trkpt>
      <trkpt lat="47.4912" lon="-2.34546">
        <ele>26.60000038147</ele>
        <time>2021-08-15T07:04:58.000Z</time>
      </trkpt>
      <trkpt lat="47.49134" lon="-2.34543">
        <ele>26.60000038147</ele>
        <time>2021-08-15T07:05:04.000Z</time>
      </trkpt>
      <trkpt lat="47.49141" lon="-2.34545">
        <ele>26.60000038147</ele>
        <time>2021-08-15T07:05:07.000Z</time>
      </trkpt>
      <trkpt lat="47.49144" lon="-2.34549">
        <ele>26.60000038147</ele>
        <time>2021-08-15T07:05:09.000Z</time>
      </trkpt>
      <trkpt lat="47.49158" lon="-2.34552">
        <ele>26.60000038147</ele>
        <time>2021-08-15T07:05:13.000Z</time>
      </trkpt>
      <trkpt lat="47.49178" lon="-2.34552">
        <ele>26.60000038147</ele>
        <time>2021-08-15T07:05:18.000Z</time>
      </trkpt>
      <trkpt lat="47.49194" lon="-2.34558">
        <ele>26.60000038147</ele>
        <time>2021-08-15T07:05:22.000Z</time>
      </trkpt>
      <trkpt lat="47.49223" lon="-2.34575">
        <ele>26.60000038147</ele>
        <time>2021-08-15T07:05:29.000Z</time>
      </trkpt>
      <trkpt lat="47.49238" lon="-2.34583">
        <ele>26.200000762939</ele>
        <time>2021-08-15T07:05:32.000Z</time>
      </trkpt>
      <trkpt lat="47.49243" lon="-2.34585">
        <ele>25.799999237061</ele>
        <time>2021-08-15T07:05:33.000Z</time>
      </trkpt>
      <trkpt lat="47.49247" lon="-2.34588">
        <ele>25.200000762939</ele>
        <time>2021-08-15T07:05:34.000Z</time>
      </trkpt>
      <trkpt lat="47.49252" lon="-2.34591">
        <ele>24.799999237061</ele>
        <time>2021-08-15T07:05:35.000Z</time>
      </trkpt>
      <trkpt lat="47.49258" lon="-2.34594">
        <ele>24.200000762939</ele>
        <time>2021-08-15T07:05:36.000Z</time>
      </trkpt>
      <trkpt lat="47.4927" lon="-2.34601">
        <ele>24.200000762939</ele>
        <time>2021-08-15T07:05:38.000Z</time>
      </trkpt>
      <trkpt lat="47.4929" lon="-2.34611">
        <ele>23.799999237061</ele>
        <time>2021-08-15T07:05:41.000Z</time>
      </trkpt>
      <trkpt lat="47.49294" lon="-2.34614">
        <ele>23.39999961853</ele>
        <time>2021-08-15T07:05:42.000Z</time>
      </trkpt>
      <trkpt lat="47.49299" lon="-2.34618">
        <ele>22.39999961853</ele>
        <time>2021-08-15T07:05:43.000Z</time>
      </trkpt>
      <trkpt lat="47.49303" lon="-2.34621">
        <ele>22</ele>
        <time>2021-08-15T07:05:44.000Z</time>
      </trkpt>
      <trkpt lat="47.49312" lon="-2.34626">
        <ele>22</ele>
        <time>2021-08-15T07:05:46.000Z</time>
      </trkpt>
      <trkpt lat="47.49316" lon="-2.34629">
        <ele>22</ele>
        <time>2021-08-15T07:05:47.000Z</time>
      </trkpt>
      <trkpt lat="47.4932" lon="-2.34632">
        <ele>22</ele>
        <time>2021-08-15T07:05:48.000Z</time>
      </trkpt>
      <trkpt lat="47.49335" lon="-2.34651">
        <ele>22</ele>
        <time>2021-08-15T07:05:52.000Z</time>
      </trkpt>
      <trkpt lat="47.49358" lon="-2.3468">
        <ele>22</ele>
        <time>2021-08-15T07:05:58.000Z</time>
      </trkpt>
      <trkpt lat="47.49373" lon="-2.34699">
        <ele>21.60000038147</ele>
        <time>2021-08-15T07:06:01.000Z</time>
      </trkpt>
      <trkpt lat="47.49379" lon="-2.34707">
        <ele>21.200000762939</ele>
        <time>2021-08-15T07:06:02.000Z</time>
      </trkpt>
      <trkpt lat="47.49384" lon="-2.34713">
        <ele>20.60000038147</ele>
        <time>2021-08-15T07:06:03.000Z</time>
      </trkpt>
      <trkpt lat="47.49388" lon="-2.3472">
        <ele>20.200000762939</ele>
        <time>2021-08-15T07:06:04.000Z</time>
      </trkpt>
      <trkpt lat="47.49391" lon="-2.34726">
        <ele>19.799999237061</ele>
        <time>2021-08-15T07:06:05.000Z</time>
      </trkpt>
      <trkpt lat="47.49404" lon="-2.34747">
        <ele>19.799999237061</ele>
        <time>2021-08-15T07:06:08.000Z</time>
      </trkpt>
      <trkpt lat="47.49409" lon="-2.34754">
        <ele>19</ele>
        <time>2021-08-15T07:06:09.000Z</time>
      </trkpt>
      <trkpt lat="47.49413" lon="-2.34762">
        <ele>18.39999961853</ele>
        <time>2021-08-15T07:06:10.000Z</time>
      </trkpt>
      <trkpt lat="47.49418" lon="-2.34769">
        <ele>18</ele>
        <time>2021-08-15T07:06:11.000Z</time>
      </trkpt>
      <trkpt lat="47.49421" lon="-2.34776">
        <ele>17.60000038147</ele>
        <time>2021-08-15T07:06:12.000Z</time>
      </trkpt>
      <trkpt lat="47.49431" lon="-2.34795">
        <ele>17.60000038147</ele>
        <time>2021-08-15T07:06:15.000Z</time>
      </trkpt>
      <trkpt lat="47.4945" lon="-2.34834">
        <ele>17.60000038147</ele>
        <time>2021-08-15T07:06:21.000Z</time>
      </trkpt>
      <trkpt lat="47.49453" lon="-2.34843">
        <ele>17.60000038147</ele>
        <time>2021-08-15T07:06:22.000Z</time>
      </trkpt>
      <trkpt lat="47.49463" lon="-2.34879">
        <ele>17</ele>
        <time>2021-08-15T07:06:26.000Z</time>
      </trkpt>
      <trkpt lat="47.49464" lon="-2.34887">
        <ele>16.60000038147</ele>
        <time>2021-08-15T07:06:27.000Z</time>
      </trkpt>
      <trkpt lat="47.49465" lon="-2.34895">
        <ele>16</ele>
        <time>2021-08-15T07:06:28.000Z</time>
      </trkpt>
      <trkpt lat="47.49465" lon="-2.34903">
        <ele>15.60000038147</ele>
        <time>2021-08-15T07:06:29.000Z</time>
      </trkpt>
      <trkpt lat="47.49466" lon="-2.3491">
        <ele>15</ele>
        <time>2021-08-15T07:06:30.000Z</time>
      </trkpt>
      <trkpt lat="47.49466" lon="-2.34918">
        <ele>15</ele>
        <time>2021-08-15T07:06:31.000Z</time>
      </trkpt>
      <trkpt lat="47.49467" lon="-2.34933">
        <ele>15</ele>
        <time>2021-08-15T07:06:33.000Z</time>
      </trkpt>
      <trkpt lat="47.49469" lon="-2.34955">
        <ele>15</ele>
        <time>2021-08-15T07:06:36.000Z</time>
      </trkpt>
      <trkpt lat="47.49471" lon="-2.34963">
        <ele>15</ele>
        <time>2021-08-15T07:06:37.000Z</time>
      </trkpt>
      <trkpt lat="47.49476" lon="-2.34992">
        <ele>15</ele>
        <time>2021-08-15T07:06:41.000Z</time>
      </trkpt>
      <trkpt lat="47.49478" lon="-2.35002">
        <ele>14.60000038147</ele>
        <time>2021-08-15T07:06:43.000Z</time>
      </trkpt>
      <trkpt lat="47.49479" lon="-2.35006">
        <ele>14.199999809265</ele>
        <time>2021-08-15T07:06:44.000Z</time>
      </trkpt>
      <trkpt lat="47.49479" lon="-2.35008">
        <ele>13.800000190735</ele>
        <time>2021-08-15T07:06:45.000Z</time>
      </trkpt>
      <trkpt lat="47.4948" lon="-2.35009">
        <ele>13.39999961853</ele>
        <time>2021-08-15T07:06:46.000Z</time>
      </trkpt>
      <trkpt lat="47.49483" lon="-2.35014">
        <ele>13</ele>
        <time>2021-08-15T07:07:26.000Z</time>
      </trkpt>
      <trkpt lat="47.49485" lon="-2.35019">
        <ele>13</ele>
        <time>2021-08-15T07:07:27.000Z</time>
      </trkpt>
      <trkpt lat="47.49487" lon="-2.35046">
        <ele>13</ele>
        <time>2021-08-15T07:07:32.000Z</time>
      </trkpt>
      <trkpt lat="47.4949" lon="-2.35079">
        <ele>13</ele>
        <time>2021-08-15T07:07:37.000Z</time>
      </trkpt>
      <trkpt lat="47.49491" lon="-2.35087">
        <ele>13</ele>
        <time>2021-08-15T07:07:38.000Z</time>
      </trkpt>
      <trkpt lat="47.49491" lon="-2.35127">
        <ele>13</ele>
        <time>2021-08-15T07:07:43.000Z</time>
      </trkpt>
      <trkpt lat="47.4949" lon="-2.35134">
        <ele>13</ele>
        <time>2021-08-15T07:07:44.000Z</time>
      </trkpt>
      <trkpt lat="47.49484" lon="-2.35158">
        <ele>13</ele>
        <time>2021-08-15T07:07:48.000Z</time>
      </trkpt>
      <trkpt lat="47.49475" lon="-2.35182">
        <ele>13.39999961853</ele>
        <time>2021-08-15T07:07:54.000Z</time>
      </trkpt>
      <trkpt lat="47.49474" lon="-2.35184">
        <ele>14</ele>
        <time>2021-08-15T07:07:55.000Z</time>
      </trkpt>
      <trkpt lat="47.49474" lon="-2.35188">
        <ele>14.39999961853</ele>
        <time>2021-08-15T07:07:56.000Z</time>
      </trkpt>
      <trkpt lat="47.49473" lon="-2.35191">
        <ele>14.800000190735</ele>
        <time>2021-08-15T07:07:57.000Z</time>
      </trkpt>
      <trkpt lat="47.49472" lon="-2.35194">
        <ele>15.199999809265</ele>
        <time>2021-08-15T07:07:58.000Z</time>
      </trkpt>
      <trkpt lat="47.49471" lon="-2.35198">
        <ele>15.800000190735</ele>
        <time>2021-08-15T07:07:59.000Z</time>
      </trkpt>
      <trkpt lat="47.49469" lon="-2.35201">
        <ele>16.200000762939</ele>
        <time>2021-08-15T07:08:00.000Z</time>
      </trkpt>
      <trkpt lat="47.49467" lon="-2.35205">
        <ele>16.799999237061</ele>
        <time>2021-08-15T07:08:01.000Z</time>
      </trkpt>
      <trkpt lat="47.49466" lon="-2.35209">
        <ele>17.200000762939</ele>
        <time>2021-08-15T07:08:02.000Z</time>
      </trkpt>
      <trkpt lat="47.49464" lon="-2.35214">
        <ele>17.60000038147</ele>
        <time>2021-08-15T07:08:03.000Z</time>
      </trkpt>
      <trkpt lat="47.49463" lon="-2.35221">
        <ele>17.60000038147</ele>
        <time>2021-08-15T07:08:05.000Z</time>
      </trkpt>
      <trkpt lat="47.49461" lon="-2.35228">
        <ele>18.200000762939</ele>
        <time>2021-08-15T07:08:07.000Z</time>
      </trkpt>
      <trkpt lat="47.49459" lon="-2.35231">
        <ele>18.60000038147</ele>
        <time>2021-08-15T07:08:08.000Z</time>
      </trkpt>
      <trkpt lat="47.49458" lon="-2.35233">
        <ele>19</ele>
        <time>2021-08-15T07:08:09.000Z</time>
      </trkpt>
      <trkpt lat="47.49456" lon="-2.35235">
        <ele>19.39999961853</ele>
        <time>2021-08-15T07:08:10.000Z</time>
      </trkpt>
      <trkpt lat="47.49456" lon="-2.35237">
        <ele>20</ele>
        <time>2021-08-15T07:08:11.000Z</time>
      </trkpt>
      <trkpt lat="47.49455" lon="-2.3524">
        <ele>20</ele>
        <time>2021-08-15T07:08:12.000Z</time>
      </trkpt>
      <trkpt lat="47.49452" lon="-2.35244">
        <ele>20.39999961853</ele>
        <time>2021-08-15T07:08:14.000Z</time>
      </trkpt>
      <trkpt lat="47.49451" lon="-2.35245">
        <ele>20.799999237061</ele>
        <time>2021-08-15T07:08:15.000Z</time>
      </trkpt>
      <trkpt lat="47.4945" lon="-2.35247">
        <ele>21.200000762939</ele>
        <time>2021-08-15T07:08:16.000Z</time>
      </trkpt>
      <trkpt lat="47.49449" lon="-2.35248">
        <ele>21.60000038147</ele>
        <time>2021-08-15T07:08:17.000Z</time>
      </trkpt>
      <trkpt lat="47.49448" lon="-2.35249">
        <ele>22.200000762939</ele>
        <time>2021-08-15T07:08:18.000Z</time>
      </trkpt>
      <trkpt lat="47.49445" lon="-2.35254">
        <ele>22.60000038147</ele>
        <time>2021-08-15T07:08:21.000Z</time>
      </trkpt>
      <trkpt lat="47.49443" lon="-2.35257">
        <ele>23</ele>
        <time>2021-08-15T07:08:22.000Z</time>
      </trkpt>
      <trkpt lat="47.49442" lon="-2.35259">
        <ele>23.39999961853</ele>
        <time>2021-08-15T07:08:23.000Z</time>
      </trkpt>
      <trkpt lat="47.4944" lon="-2.35261">
        <ele>23.799999237061</ele>
        <time>2021-08-15T07:08:24.000Z</time>
      </trkpt>
      <trkpt lat="47.49439" lon="-2.35264">
        <ele>24.200000762939</ele>
        <time>2021-08-15T07:08:25.000Z</time>
      </trkpt>
      <trkpt lat="47.49433" lon="-2.35271">
        <ele>24.60000038147</ele>
        <time>2021-08-15T07:08:29.000Z</time>
      </trkpt>
      <trkpt lat="47.49432" lon="-2.35273">
        <ele>25.200000762939</ele>
        <time>2021-08-15T07:08:30.000Z</time>
      </trkpt>
      <trkpt lat="47.4943" lon="-2.35275">
        <ele>25.60000038147</ele>
        <time>2021-08-15T07:08:31.000Z</time>
      </trkpt>
      <trkpt lat="47.49429" lon="-2.35277">
        <ele>26</ele>
        <time>2021-08-15T07:08:32.000Z</time>
      </trkpt>
      <trkpt lat="47.49428" lon="-2.3528">
        <ele>26.39999961853</ele>
        <time>2021-08-15T07:08:33.000Z</time>
      </trkpt>
      <trkpt lat="47.49426" lon="-2.35287">
        <ele>26.39999961853</ele>
        <time>2021-08-15T07:08:36.000Z</time>
      </trkpt>
      <trkpt lat="47.49424" lon="-2.35303">
        <ele>26.39999961853</ele>
        <time>2021-08-15T07:08:42.000Z</time>
      </trkpt>
      <trkpt lat="47.4942" lon="-2.3531">
        <ele>26.39999961853</ele>
        <time>2021-08-15T07:08:47.000Z</time>
      </trkpt>
      <trkpt lat="47.4942" lon="-2.35316">
        <ele>26.39999961853</ele>
        <time>2021-08-15T07:09:32.000Z</time>
      </trkpt>
      <trkpt lat="47.49423" lon="-2.35336">
        <ele>26.39999961853</ele>
        <time>2021-08-15T07:09:38.000Z</time>
      </trkpt>
      <trkpt lat="47.49431" lon="-2.35372">
        <ele>26.39999961853</ele>
        <time>2021-08-15T07:09:44.000Z</time>
      </trkpt>
      <trkpt lat="47.49439" lon="-2.35416">
        <ele>26.39999961853</ele>
        <time>2021-08-15T07:09:50.000Z</time>
      </trkpt>
      <trkpt lat="47.49441" lon="-2.35423">
        <ele>27.39999961853</ele>
        <time>2021-08-15T07:09:51.000Z</time>
      </trkpt>
      <trkpt lat="47.49443" lon="-2.35431">
        <ele>27.799999237061</ele>
        <time>2021-08-15T07:09:52.000Z</time>
      </trkpt>
      <trkpt lat="47.49445" lon="-2.35439">
        <ele>28.200000762939</ele>
        <time>2021-08-15T07:09:53.000Z</time>
      </trkpt>
      <trkpt lat="47.49446" lon="-2.35446">
        <ele>28.60000038147</ele>
        <time>2021-08-15T07:09:54.000Z</time>
      </trkpt>
      <trkpt lat="47.4945" lon="-2.35478">
        <ele>28.60000038147</ele>
        <time>2021-08-15T07:09:58.000Z</time>
      </trkpt>
      <trkpt lat="47.49453" lon="-2.35548">
        <ele>28.60000038147</ele>
        <time>2021-08-15T07:10:07.000Z</time>
      </trkpt>
      <trkpt lat="47.49456" lon="-2.35621">
        <ele>28.60000038147</ele>
        <time>2021-08-15T07:10:16.000Z</time>
      </trkpt>
      <trkpt lat="47.49457" lon="-2.35651">
        <ele>28.200000762939</ele>
        <time>2021-08-15T07:10:19.000Z</time>
      </trkpt>
      <trkpt lat="47.49457" lon="-2.35661">
        <ele>27.799999237061</ele>
        <time>2021-08-15T07:10:20.000Z</time>
      </trkpt>
      <trkpt lat="47.49456" lon="-2.35671">
        <ele>27.200000762939</ele>
        <time>2021-08-15T07:10:21.000Z</time>
      </trkpt>
      <trkpt lat="47.49456" lon="-2.3568">
        <ele>26.799999237061</ele>
        <time>2021-08-15T07:10:22.000Z</time>
      </trkpt>
      <trkpt lat="47.49455" lon="-2.35689">
        <ele>26.39999961853</ele>
        <time>2021-08-15T07:10:23.000Z</time>
      </trkpt>
      <trkpt lat="47.49456" lon="-2.35708">
        <ele>26</ele>
        <time>2021-08-15T07:10:25.000Z</time>
      </trkpt>
      <trkpt lat="47.49456" lon="-2.35716">
        <ele>25.60000038147</ele>
        <time>2021-08-15T07:10:26.000Z</time>
      </trkpt>
      <trkpt lat="47.49457" lon="-2.35723">
        <ele>25.200000762939</ele>
        <time>2021-08-15T07:10:27.000Z</time>
      </trkpt>
      <trkpt lat="47.49457" lon="-2.3573">
        <ele>24.60000038147</ele>
        <time>2021-08-15T07:10:28.000Z</time>
      </trkpt>
      <trkpt lat="47.49458" lon="-2.35737">
        <ele>24</ele>
        <time>2021-08-15T07:10:29.000Z</time>
      </trkpt>
      <trkpt lat="47.49459" lon="-2.35744">
        <ele>23.39999961853</ele>
        <time>2021-08-15T07:10:30.000Z</time>
      </trkpt>
      <trkpt lat="47.4946" lon="-2.3575">
        <ele>22.799999237061</ele>
        <time>2021-08-15T07:10:31.000Z</time>
      </trkpt>
      <trkpt lat="47.4946" lon="-2.35755">
        <ele>22.39999961853</ele>
        <time>2021-08-15T07:10:32.000Z</time>
      </trkpt>
      <trkpt lat="47.49462" lon="-2.35766">
        <ele>22.39999961853</ele>
        <time>2021-08-15T07:10:35.000Z</time>
      </trkpt>
      <trkpt lat="47.49463" lon="-2.3578">
        <ele>22.39999961853</ele>
        <time>2021-08-15T07:10:41.000Z</time>
      </trkpt>
      <trkpt lat="47.49465" lon="-2.35801">
        <ele>22.39999961853</ele>
        <time>2021-08-15T07:10:50.000Z</time>
      </trkpt>
      <trkpt lat="47.49464" lon="-2.3582">
        <ele>22.39999961853</ele>
        <time>2021-08-15T07:10:58.000Z</time>
      </trkpt>
      <trkpt lat="47.49467" lon="-2.35845">
        <ele>22.39999961853</ele>
        <time>2021-08-15T07:11:04.000Z</time>
      </trkpt>
      <trkpt lat="47.49469" lon="-2.35849">
        <ele>23.200000762939</ele>
        <time>2021-08-15T07:11:05.000Z</time>
      </trkpt>
      <trkpt lat="47.49469" lon="-2.35854">
        <ele>23.60000038147</ele>
        <time>2021-08-15T07:11:06.000Z</time>
      </trkpt>
      <trkpt lat="47.4947" lon="-2.35859">
        <ele>24</ele>
        <time>2021-08-15T07:11:07.000Z</time>
      </trkpt>
      <trkpt lat="47.4947" lon="-2.35863">
        <ele>24.39999961853</ele>
        <time>2021-08-15T07:11:08.000Z</time>
      </trkpt>
      <trkpt lat="47.49472" lon="-2.35866">
        <ele>24.39999961853</ele>
        <time>2021-08-15T07:11:09.000Z</time>
      </trkpt>
      <trkpt lat="47.49476" lon="-2.35894">
        <ele>24.39999961853</ele>
        <time>2021-08-15T07:11:16.000Z</time>
      </trkpt>
      <trkpt lat="47.49479" lon="-2.35924">
        <ele>24.39999961853</ele>
        <time>2021-08-15T07:11:24.000Z</time>
      </trkpt>
      <trkpt lat="47.49477" lon="-2.35935">
        <ele>24.799999237061</ele>
        <time>2021-08-15T07:11:26.000Z</time>
      </trkpt>
      <trkpt lat="47.49476" lon="-2.3594">
        <ele>25.200000762939</ele>
        <time>2021-08-15T07:11:27.000Z</time>
      </trkpt>
      <trkpt lat="47.49474" lon="-2.35945">
        <ele>25.60000038147</ele>
        <time>2021-08-15T07:11:28.000Z</time>
      </trkpt>
      <trkpt lat="47.49473" lon="-2.35949">
        <ele>26</ele>
        <time>2021-08-15T07:11:29.000Z</time>
      </trkpt>
      <trkpt lat="47.49471" lon="-2.35953">
        <ele>26.39999961853</ele>
        <time>2021-08-15T07:11:30.000Z</time>
      </trkpt>
      <trkpt lat="47.49461" lon="-2.35974">
        <ele>26.39999961853</ele>
        <time>2021-08-15T07:11:36.000Z</time>
      </trkpt>
      <trkpt lat="47.49456" lon="-2.35998">
        <ele>26.39999961853</ele>
        <time>2021-08-15T07:11:42.000Z</time>
      </trkpt>
      <trkpt lat="47.49456" lon="-2.36001">
        <ele>26.799999237061</ele>
        <time>2021-08-15T07:11:43.000Z</time>
      </trkpt>
      <trkpt lat="47.49457" lon="-2.36004">
        <ele>27.200000762939</ele>
        <time>2021-08-15T07:11:44.000Z</time>
      </trkpt>
      <trkpt lat="47.49457" lon="-2.36008">
        <ele>27.60000038147</ele>
        <time>2021-08-15T07:11:45.000Z</time>
      </trkpt>
      <trkpt lat="47.49458" lon="-2.36013">
        <ele>28</ele>
        <time>2021-08-15T07:11:46.000Z</time>
      </trkpt>
      <trkpt lat="47.49459" lon="-2.36017">
        <ele>28.39999961853</ele>
        <time>2021-08-15T07:11:47.000Z</time>
      </trkpt>
      <trkpt lat="47.49461" lon="-2.36026">
        <ele>28.39999961853</ele>
        <time>2021-08-15T07:11:49.000Z</time>
      </trkpt>
      <trkpt lat="47.49464" lon="-2.36039">
        <ele>28.799999237061</ele>
        <time>2021-08-15T07:11:52.000Z</time>
      </trkpt>
      <trkpt lat="47.49466" lon="-2.36044">
        <ele>29.39999961853</ele>
        <time>2021-08-15T07:11:53.000Z</time>
      </trkpt>
      <trkpt lat="47.49468" lon="-2.3605">
        <ele>29.799999237061</ele>
        <time>2021-08-15T07:11:54.000Z</time>
      </trkpt>
      <trkpt lat="47.49469" lon="-2.36054">
        <ele>30.60000038147</ele>
        <time>2021-08-15T07:11:55.000Z</time>
      </trkpt>
      <trkpt lat="47.49471" lon="-2.36059">
        <ele>30.60000038147</ele>
        <time>2021-08-15T07:11:56.000Z</time>
      </trkpt>
      <trkpt lat="47.49479" lon="-2.36092">
        <ele>30.60000038147</ele>
        <time>2021-08-15T07:12:03.000Z</time>
      </trkpt>
      <trkpt lat="47.49488" lon="-2.36134">
        <ele>30.60000038147</ele>
        <time>2021-08-15T07:12:10.000Z</time>
      </trkpt>
      <trkpt lat="47.49492" lon="-2.36174">
        <ele>30.60000038147</ele>
        <time>2021-08-15T07:12:16.000Z</time>
      </trkpt>
      <trkpt lat="47.49487" lon="-2.36187">
        <ele>30.60000038147</ele>
        <time>2021-08-15T07:12:19.000Z</time>
      </trkpt>
      <trkpt lat="47.49467" lon="-2.36206">
        <ele>30.60000038147</ele>
        <time>2021-08-15T07:12:25.000Z</time>
      </trkpt>
      <trkpt lat="47.49452" lon="-2.36219">
        <ele>30.60000038147</ele>
        <time>2021-08-15T07:12:29.000Z</time>
      </trkpt>
      <trkpt lat="47.49449" lon="-2.36224">
        <ele>30.60000038147</ele>
        <time>2021-08-15T07:12:30.000Z</time>
      </trkpt>
      <trkpt lat="47.49447" lon="-2.36231">
        <ele>30</ele>
        <time>2021-08-15T07:12:32.000Z</time>
      </trkpt>
      <trkpt lat="47.49446" lon="-2.36234">
        <ele>29.60000038147</ele>
        <time>2021-08-15T07:12:33.000Z</time>
      </trkpt>
      <trkpt lat="47.49446" lon="-2.36238">
        <ele>29.200000762939</ele>
        <time>2021-08-15T07:12:34.000Z</time>
      </trkpt>
      <trkpt lat="47.49445" lon="-2.36241">
        <ele>28.799999237061</ele>
        <time>2021-08-15T07:12:35.000Z</time>
      </trkpt>
      <trkpt lat="47.49445" lon="-2.36244">
        <ele>28.200000762939</ele>
        <time>2021-08-15T07:12:36.000Z</time>
      </trkpt>
      <trkpt lat="47.49444" lon="-2.3625">
        <ele>28.200000762939</ele>
        <time>2021-08-15T07:12:41.000Z</time>
      </trkpt>
      <trkpt lat="47.49443" lon="-2.36254">
        <ele>28.200000762939</ele>
        <time>2021-08-15T07:12:47.000Z</time>
      </trkpt>
      <trkpt lat="47.49442" lon="-2.36263">
        <ele>28.200000762939</ele>
        <time>2021-08-15T07:12:49.000Z</time>
      </trkpt>
      <trkpt lat="47.49442" lon="-2.36296">
        <ele>28.200000762939</ele>
        <time>2021-08-15T07:12:54.000Z</time>
      </trkpt>
      <trkpt lat="47.49442" lon="-2.36303">
        <ele>27.799999237061</ele>
        <time>2021-08-15T07:12:55.000Z</time>
      </trkpt>
      <trkpt lat="47.49441" lon="-2.36311">
        <ele>27.39999961853</ele>
        <time>2021-08-15T07:12:56.000Z</time>
      </trkpt>
      <trkpt lat="47.49441" lon="-2.36319">
        <ele>27</ele>
        <time>2021-08-15T07:12:57.000Z</time>
      </trkpt>
      <trkpt lat="47.4944" lon="-2.36326">
        <ele>26.60000038147</ele>
        <time>2021-08-15T07:12:58.000Z</time>
      </trkpt>
      <trkpt lat="47.4944" lon="-2.36334">
        <ele>26</ele>
        <time>2021-08-15T07:12:59.000Z</time>
      </trkpt>
      <trkpt lat="47.4944" lon="-2.36343">
        <ele>26</ele>
        <time>2021-08-15T07:13:00.000Z</time>
      </trkpt>
      <trkpt lat="47.49438" lon="-2.3636">
        <ele>26</ele>
        <time>2021-08-15T07:13:02.000Z</time>
      </trkpt>
      <trkpt lat="47.49432" lon="-2.36385">
        <ele>26</ele>
        <time>2021-08-15T07:13:05.000Z</time>
      </trkpt>
      <trkpt lat="47.49428" lon="-2.36392">
        <ele>25.60000038147</ele>
        <time>2021-08-15T07:13:06.000Z</time>
      </trkpt>
      <trkpt lat="47.49425" lon="-2.36398">
        <ele>25.200000762939</ele>
        <time>2021-08-15T07:13:07.000Z</time>
      </trkpt>
      <trkpt lat="47.49423" lon="-2.36404">
        <ele>24.799999237061</ele>
        <time>2021-08-15T07:13:08.000Z</time>
      </trkpt>
      <trkpt lat="47.49421" lon="-2.36408">
        <ele>23.799999237061</ele>
        <time>2021-08-15T07:13:09.000Z</time>
      </trkpt>
      <trkpt lat="47.49419" lon="-2.36413">
        <ele>23.39999961853</ele>
        <time>2021-08-15T07:13:10.000Z</time>
      </trkpt>
      <trkpt lat="47.49417" lon="-2.36416">
        <ele>23</ele>
        <time>2021-08-15T07:13:11.000Z</time>
      </trkpt>
      <trkpt lat="47.49416" lon="-2.3642">
        <ele>22.60000038147</ele>
        <time>2021-08-15T07:13:12.000Z</time>
      </trkpt>
      <trkpt lat="47.49416" lon="-2.36424">
        <ele>22.200000762939</ele>
        <time>2021-08-15T07:13:13.000Z</time>
      </trkpt>
      <trkpt lat="47.49415" lon="-2.36429">
        <ele>21.799999237061</ele>
        <time>2021-08-15T07:13:14.000Z</time>
      </trkpt>
      <trkpt lat="47.49415" lon="-2.36449">
        <ele>21.39999961853</ele>
        <time>2021-08-15T07:13:18.000Z</time>
      </trkpt>
      <trkpt lat="47.49414" lon="-2.36455">
        <ele>21</ele>
        <time>2021-08-15T07:13:19.000Z</time>
      </trkpt>
      <trkpt lat="47.49415" lon="-2.3646">
        <ele>20.39999961853</ele>
        <time>2021-08-15T07:13:20.000Z</time>
      </trkpt>
      <trkpt lat="47.49414" lon="-2.36465">
        <ele>20</ele>
        <time>2021-08-15T07:13:21.000Z</time>
      </trkpt>
      <trkpt lat="47.49413" lon="-2.3647">
        <ele>19.39999961853</ele>
        <time>2021-08-15T07:13:22.000Z</time>
      </trkpt>
      <trkpt lat="47.49413" lon="-2.36474">
        <ele>19</ele>
        <time>2021-08-15T07:13:23.000Z</time>
      </trkpt>
      <trkpt lat="47.49414" lon="-2.36479">
        <ele>18.39999961853</ele>
        <time>2021-08-15T07:13:24.000Z</time>
      </trkpt>
      <trkpt lat="47.49415" lon="-2.36483">
        <ele>18</ele>
        <time>2021-08-15T07:13:25.000Z</time>
      </trkpt>
      <trkpt lat="47.49417" lon="-2.36486">
        <ele>17.39999961853</ele>
        <time>2021-08-15T07:13:26.000Z</time>
      </trkpt>
      <trkpt lat="47.49422" lon="-2.3649">
        <ele>17.39999961853</ele>
        <time>2021-08-15T07:13:28.000Z</time>
      </trkpt>
      <trkpt lat="47.49429" lon="-2.36495">
        <ele>17.39999961853</ele>
        <time>2021-08-15T07:13:32.000Z</time>
      </trkpt>
      <trkpt lat="47.49442" lon="-2.3651">
        <ele>17.39999961853</ele>
        <time>2021-08-15T07:13:38.000Z</time>
      </trkpt>
      <trkpt lat="47.49458" lon="-2.36531">
        <ele>17.39999961853</ele>
        <time>2021-08-15T07:13:43.000Z</time>
      </trkpt>
      <trkpt lat="47.49479" lon="-2.36557">
        <ele>17.39999961853</ele>
        <time>2021-08-15T07:13:50.000Z</time>
      </trkpt>
      <trkpt lat="47.49483" lon="-2.3656">
        <ele>17.799999237061</ele>
        <time>2021-08-15T07:13:51.000Z</time>
      </trkpt>
      <trkpt lat="47.49485" lon="-2.36564">
        <ele>18.200000762939</ele>
        <time>2021-08-15T07:13:52.000Z</time>
      </trkpt>
      <trkpt lat="47.49489" lon="-2.36569">
        <ele>18.60000038147</ele>
        <time>2021-08-15T07:13:53.000Z</time>
      </trkpt>
      <trkpt lat="47.49492" lon="-2.36574">
        <ele>19</ele>
        <time>2021-08-15T07:13:54.000Z</time>
      </trkpt>
      <trkpt lat="47.49497" lon="-2.36579">
        <ele>19.39999961853</ele>
        <time>2021-08-15T07:13:55.000Z</time>
      </trkpt>
      <trkpt lat="47.49501" lon="-2.36583">
        <ele>19.39999961853</ele>
        <time>2021-08-15T07:13:56.000Z</time>
      </trkpt>
      <trkpt lat="47.49525" lon="-2.36613">
        <ele>19.39999961853</ele>
        <time>2021-08-15T07:14:03.000Z</time>
      </trkpt>
      <trkpt lat="47.49536" lon="-2.36635">
        <ele>19.39999961853</ele>
        <time>2021-08-15T07:14:07.000Z</time>
      </trkpt>
      <trkpt lat="47.4954" lon="-2.36649">
        <ele>19.39999961853</ele>
        <time>2021-08-15T07:14:09.000Z</time>
      </trkpt>
      <trkpt lat="47.49544" lon="-2.36656">
        <ele>19.39999961853</ele>
        <time>2021-08-15T07:14:10.000Z</time>
      </trkpt>
      <trkpt lat="47.49561" lon="-2.36688">
        <ele>19.39999961853</ele>
        <time>2021-08-15T07:14:14.000Z</time>
      </trkpt>
      <trkpt lat="47.49572" lon="-2.36712">
        <ele>19.39999961853</ele>
        <time>2021-08-15T07:14:17.000Z</time>
      </trkpt>
      <trkpt lat="47.4958" lon="-2.3673">
        <ele>19.39999961853</ele>
        <time>2021-08-15T07:14:19.000Z</time>
      </trkpt>
      <trkpt lat="47.49584" lon="-2.36736">
        <ele>19.39999961853</ele>
        <time>2021-08-15T07:14:20.000Z</time>
      </trkpt>
      <trkpt lat="47.4959" lon="-2.36744">
        <ele>19.39999961853</ele>
        <time>2021-08-15T07:14:22.000Z</time>
      </trkpt>
      <trkpt lat="47.496" lon="-2.36759">
        <ele>19.39999961853</ele>
        <time>2021-08-15T07:14:27.000Z</time>
      </trkpt>
      <trkpt lat="47.49608" lon="-2.36766">
        <ele>19.39999961853</ele>
        <time>2021-08-15T07:14:29.000Z</time>
      </trkpt>
      <trkpt lat="47.49616" lon="-2.36779">
        <ele>19.799999237061</ele>
        <time>2021-08-15T07:14:31.000Z</time>
      </trkpt>
      <trkpt lat="47.49619" lon="-2.36785">
        <ele>20.200000762939</ele>
        <time>2021-08-15T07:14:32.000Z</time>
      </trkpt>
      <trkpt lat="47.49623" lon="-2.36792">
        <ele>20.60000038147</ele>
        <time>2021-08-15T07:14:33.000Z</time>
      </trkpt>
      <trkpt lat="47.49628" lon="-2.36798">
        <ele>21.200000762939</ele>
        <time>2021-08-15T07:14:34.000Z</time>
      </trkpt>
      <trkpt lat="47.49632" lon="-2.36805">
        <ele>21.60000038147</ele>
        <time>2021-08-15T07:14:35.000Z</time>
      </trkpt>
      <trkpt lat="47.49647" lon="-2.36828">
        <ele>21.60000038147</ele>
        <time>2021-08-15T07:14:39.000Z</time>
      </trkpt>
      <trkpt lat="47.49663" lon="-2.36843">
        <ele>21.60000038147</ele>
        <time>2021-08-15T07:14:44.000Z</time>
      </trkpt>
      <trkpt lat="47.49672" lon="-2.36835">
        <ele>21.200000762939</ele>
        <time>2021-08-15T07:14:46.000Z</time>
      </trkpt>
      <trkpt lat="47.49677" lon="-2.36829">
        <ele>20.799999237061</ele>
        <time>2021-08-15T07:14:47.000Z</time>
      </trkpt>
      <trkpt lat="47.49683" lon="-2.36823">
        <ele>19.799999237061</ele>
        <time>2021-08-15T07:14:48.000Z</time>
      </trkpt>
      <trkpt lat="47.49688" lon="-2.36817">
        <ele>19.39999961853</ele>
        <time>2021-08-15T07:14:49.000Z</time>
      </trkpt>
      <trkpt lat="47.49694" lon="-2.36811">
        <ele>19</ele>
        <time>2021-08-15T07:14:50.000Z</time>
      </trkpt>
      <trkpt lat="47.497" lon="-2.36805">
        <ele>18.39999961853</ele>
        <time>2021-08-15T07:14:51.000Z</time>
      </trkpt>
      <trkpt lat="47.49706" lon="-2.368">
        <ele>18</ele>
        <time>2021-08-15T07:14:52.000Z</time>
      </trkpt>
      <trkpt lat="47.49712" lon="-2.36793">
        <ele>17.200000762939</ele>
        <time>2021-08-15T07:14:53.000Z</time>
      </trkpt>
      <trkpt lat="47.49718" lon="-2.36785">
        <ele>16.39999961853</ele>
        <time>2021-08-15T07:14:54.000Z</time>
      </trkpt>
      <trkpt lat="47.49724" lon="-2.36779">
        <ele>15.60000038147</ele>
        <time>2021-08-15T07:14:55.000Z</time>
      </trkpt>
      <trkpt lat="47.4973" lon="-2.36769">
        <ele>14.60000038147</ele>
        <time>2021-08-15T07:14:56.000Z</time>
      </trkpt>
      <trkpt lat="47.49734" lon="-2.36763">
        <ele>13.39999961853</ele>
        <time>2021-08-15T07:14:57.000Z</time>
      </trkpt>
      <trkpt lat="47.49738" lon="-2.3676">
        <ele>12.39999961853</ele>
        <time>2021-08-15T07:14:58.000Z</time>
      </trkpt>
      <trkpt lat="47.49743" lon="-2.36759">
        <ele>11.199999809265</ele>
        <time>2021-08-15T07:14:59.000Z</time>
      </trkpt>
      <trkpt lat="47.49746" lon="-2.36761">
        <ele>10.199999809265</ele>
        <time>2021-08-15T07:15:00.000Z</time>
      </trkpt>
      <trkpt lat="47.49749" lon="-2.36764">
        <ele>9</ele>
        <time>2021-08-15T07:15:01.000Z</time>
      </trkpt>
      <trkpt lat="47.49753" lon="-2.36768">
        <ele>8</ele>
        <time>2021-08-15T07:15:02.000Z</time>
      </trkpt>
      <trkpt lat="47.49757" lon="-2.36772">
        <ele>6.8000001907349</ele>
        <time>2021-08-15T07:15:03.000Z</time>
      </trkpt>
      <trkpt lat="47.49761" lon="-2.36777">
        <ele>6.8000001907349</ele>
        <time>2021-08-15T07:15:04.000Z</time>
      </trkpt>
      <trkpt lat="47.49779" lon="-2.36806">
        <ele>6.8000001907349</ele>
        <time>2021-08-15T07:15:09.000Z</time>
      </trkpt>
      <trkpt lat="47.49784" lon="-2.36818">
        <ele>6.8000001907349</ele>
        <time>2021-08-15T07:15:11.000Z</time>
      </trkpt>
      <trkpt lat="47.49791" lon="-2.36825">
        <ele>6.8000001907349</ele>
        <time>2021-08-15T07:15:13.000Z</time>
      </trkpt>
      <trkpt lat="47.49804" lon="-2.36829">
        <ele>6.8000001907349</ele>
        <time>2021-08-15T07:15:16.000Z</time>
      </trkpt>
      <trkpt lat="47.49808" lon="-2.3683">
        <ele>6.8000001907349</ele>
        <time>2021-08-15T07:15:17.000Z</time>
      </trkpt>
      <trkpt lat="47.49816" lon="-2.36835">
        <ele>6.8000001907349</ele>
        <time>2021-08-15T07:15:19.000Z</time>
      </trkpt>
      <trkpt lat="47.49822" lon="-2.36845">
        <ele>6.8000001907349</ele>
        <time>2021-08-15T07:15:21.000Z</time>
      </trkpt>
      <trkpt lat="47.49824" lon="-2.36856">
        <ele>6.8000001907349</ele>
        <time>2021-08-15T07:15:23.000Z</time>
      </trkpt>
      <trkpt lat="47.49825" lon="-2.36864">
        <ele>6.8000001907349</ele>
        <time>2021-08-15T07:15:25.000Z</time>
      </trkpt>
      <trkpt lat="47.49823" lon="-2.36872">
        <ele>6.8000001907349</ele>
        <time>2021-08-15T07:15:27.000Z</time>
      </trkpt>
      <trkpt lat="47.49818" lon="-2.36882">
        <ele>6.8000001907349</ele>
        <time>2021-08-15T07:15:29.000Z</time>
      </trkpt>
      <trkpt lat="47.49803" lon="-2.36911">
        <ele>6.8000001907349</ele>
        <time>2021-08-15T07:15:35.000Z</time>
      </trkpt>
      <trkpt lat="47.49787" lon="-2.36941">
        <ele>6.8000001907349</ele>
        <time>2021-08-15T07:15:41.000Z</time>
      </trkpt>
      <trkpt lat="47.49773" lon="-2.3697">
        <ele>6.8000001907349</ele>
        <time>2021-08-15T07:15:47.000Z</time>
      </trkpt>
      <trkpt lat="47.49769" lon="-2.36976">
        <ele>6.8000001907349</ele>
        <time>2021-08-15T07:15:48.000Z</time>
      </trkpt>
      <trkpt lat="47.4976" lon="-2.36988">
        <ele>6.8000001907349</ele>
        <time>2021-08-15T07:15:51.000Z</time>
      </trkpt>
      <trkpt lat="47.49753" lon="-2.36999">
        <ele>7.1999998092651</ele>
        <time>2021-08-15T07:15:54.000Z</time>
      </trkpt>
      <trkpt lat="47.49751" lon="-2.37002">
        <ele>7.5999999046326</ele>
        <time>2021-08-15T07:15:55.000Z</time>
      </trkpt>
      <trkpt lat="47.4975" lon="-2.37005">
        <ele>8.1999998092651</ele>
        <time>2021-08-15T07:15:56.000Z</time>
      </trkpt>
      <trkpt lat="47.49749" lon="-2.3701">
        <ele>8.6000003814697</ele>
        <time>2021-08-15T07:15:57.000Z</time>
      </trkpt>
      <trkpt lat="47.49748" lon="-2.37016">
        <ele>9</ele>
        <time>2021-08-15T07:15:58.000Z</time>
      </trkpt>
      <trkpt lat="47.49741" lon="-2.37031">
        <ele>9</ele>
        <time>2021-08-15T07:16:01.000Z</time>
      </trkpt>
      <trkpt lat="47.49737" lon="-2.37036">
        <ele>9</ele>
        <time>2021-08-15T07:16:02.000Z</time>
      </trkpt>
      <trkpt lat="47.49716" lon="-2.3707">
        <ele>9</ele>
        <time>2021-08-15T07:16:08.000Z</time>
      </trkpt>
      <trkpt lat="47.49709" lon="-2.37081">
        <ele>9</ele>
        <time>2021-08-15T07:16:10.000Z</time>
      </trkpt>
      <trkpt lat="47.49697" lon="-2.37099">
        <ele>9</ele>
        <time>2021-08-15T07:16:14.000Z</time>
      </trkpt>
      <trkpt lat="47.49693" lon="-2.37098">
        <ele>9</ele>
        <time>2021-08-15T07:16:15.000Z</time>
      </trkpt>
      <trkpt lat="47.4969" lon="-2.37096">
        <ele>9</ele>
        <time>2021-08-15T07:16:16.000Z</time>
      </trkpt>
      <trkpt lat="47.49679" lon="-2.37079">
        <ele>9</ele>
        <time>2021-08-15T07:16:21.000Z</time>
      </trkpt>
      <trkpt lat="47.49678" lon="-2.37076">
        <ele>9.3999996185303</ele>
        <time>2021-08-15T07:16:22.000Z</time>
      </trkpt>
      <trkpt lat="47.49677" lon="-2.37073">
        <ele>10</ele>
        <time>2021-08-15T07:16:23.000Z</time>
      </trkpt>
      <trkpt lat="47.49676" lon="-2.3707">
        <ele>10.39999961853</ele>
        <time>2021-08-15T07:16:24.000Z</time>
      </trkpt>
      <trkpt lat="47.49675" lon="-2.37068">
        <ele>10.800000190735</ele>
        <time>2021-08-15T07:16:25.000Z</time>
      </trkpt>
      <trkpt lat="47.49674" lon="-2.37066">
        <ele>11.39999961853</ele>
        <time>2021-08-15T07:16:26.000Z</time>
      </trkpt>
      <trkpt lat="47.49673" lon="-2.37065">
        <ele>11.800000190735</ele>
        <time>2021-08-15T07:16:27.000Z</time>
      </trkpt>
      <trkpt lat="47.49672" lon="-2.37063">
        <ele>12.199999809265</ele>
        <time>2021-08-15T07:16:28.000Z</time>
      </trkpt>
      <trkpt lat="47.49671" lon="-2.37061">
        <ele>12.60000038147</ele>
        <time>2021-08-15T07:16:29.000Z</time>
      </trkpt>
      <trkpt lat="47.4967" lon="-2.37058">
        <ele>13</ele>
        <time>2021-08-15T07:16:30.000Z</time>
      </trkpt>
      <trkpt lat="47.49669" lon="-2.37056">
        <ele>13.39999961853</ele>
        <time>2021-08-15T07:16:31.000Z</time>
      </trkpt>
      <trkpt lat="47.49668" lon="-2.37054">
        <ele>13.39999961853</ele>
        <time>2021-08-15T07:16:32.000Z</time>
      </trkpt>
      <trkpt lat="47.49666" lon="-2.37048">
        <ele>13.800000190735</ele>
        <time>2021-08-15T07:16:34.000Z</time>
      </trkpt>
      <trkpt lat="47.49665" lon="-2.37046">
        <ele>14.39999961853</ele>
        <time>2021-08-15T07:16:35.000Z</time>
      </trkpt>
      <trkpt lat="47.49664" lon="-2.37044">
        <ele>14.800000190735</ele>
        <time>2021-08-15T07:16:36.000Z</time>
      </trkpt>
      <trkpt lat="47.49663" lon="-2.37042">
        <ele>15.199999809265</ele>
        <time>2021-08-15T07:16:37.000Z</time>
      </trkpt>
      <trkpt lat="47.49661" lon="-2.37041">
        <ele>15.60000038147</ele>
        <time>2021-08-15T07:16:38.000Z</time>
      </trkpt>
      <trkpt lat="47.49657" lon="-2.37044">
        <ele>16.200000762939</ele>
        <time>2021-08-15T07:16:41.000Z</time>
      </trkpt>
      <trkpt lat="47.49656" lon="-2.37047">
        <ele>16.60000038147</ele>
        <time>2021-08-15T07:16:42.000Z</time>
      </trkpt>
      <trkpt lat="47.49655" lon="-2.37051">
        <ele>17</ele>
        <time>2021-08-15T07:16:43.000Z</time>
      </trkpt>
      <trkpt lat="47.49653" lon="-2.37055">
        <ele>17.39999961853</ele>
        <time>2021-08-15T07:16:44.000Z</time>
      </trkpt>
      <trkpt lat="47.49652" lon="-2.37059">
        <ele>18</ele>
        <time>2021-08-15T07:16:45.000Z</time>
      </trkpt>
      <trkpt lat="47.49647" lon="-2.37073">
        <ele>18</ele>
        <time>2021-08-15T07:16:48.000Z</time>
      </trkpt>
      <trkpt lat="47.49635" lon="-2.37107">
        <ele>18</ele>
        <time>2021-08-15T07:16:54.000Z</time>
      </trkpt>
      <trkpt lat="47.49615" lon="-2.37151">
        <ele>18</ele>
        <time>2021-08-15T07:17:01.000Z</time>
      </trkpt>
      <trkpt lat="47.49598" lon="-2.37187">
        <ele>18</ele>
        <time>2021-08-15T07:17:07.000Z</time>
      </trkpt>
      <trkpt lat="47.49583" lon="-2.37231">
        <ele>18</ele>
        <time>2021-08-15T07:17:13.000Z</time>
      </trkpt>
      <trkpt lat="47.49578" lon="-2.37244">
        <ele>18</ele>
        <time>2021-08-15T07:17:15.000Z</time>
      </trkpt>
      <trkpt lat="47.49572" lon="-2.37261">
        <ele>17.60000038147</ele>
        <time>2021-08-15T07:17:18.000Z</time>
      </trkpt>
      <trkpt lat="47.4957" lon="-2.37266">
        <ele>17.200000762939</ele>
        <time>2021-08-15T07:17:19.000Z</time>
      </trkpt>
      <trkpt lat="47.49568" lon="-2.3727">
        <ele>16.799999237061</ele>
        <time>2021-08-15T07:17:20.000Z</time>
      </trkpt>
      <trkpt lat="47.49566" lon="-2.37275">
        <ele>16.39999961853</ele>
        <time>2021-08-15T07:17:21.000Z</time>
      </trkpt>
      <trkpt lat="47.49565" lon="-2.37279">
        <ele>16</ele>
        <time>2021-08-15T07:17:22.000Z</time>
      </trkpt>
      <trkpt lat="47.49562" lon="-2.37288">
        <ele>16</ele>
        <time>2021-08-15T07:17:24.000Z</time>
      </trkpt>
      <trkpt lat="47.49554" lon="-2.37304">
        <ele>16</ele>
        <time>2021-08-15T07:17:29.000Z</time>
      </trkpt>
      <trkpt lat="47.49544" lon="-2.37332">
        <ele>16.39999961853</ele>
        <time>2021-08-15T07:17:36.000Z</time>
      </trkpt>
      <trkpt lat="47.49542" lon="-2.37338">
        <ele>16.799999237061</ele>
        <time>2021-08-15T07:17:37.000Z</time>
      </trkpt>
      <trkpt lat="47.4954" lon="-2.37344">
        <ele>17.200000762939</ele>
        <time>2021-08-15T07:17:38.000Z</time>
      </trkpt>
      <trkpt lat="47.49538" lon="-2.37351">
        <ele>17.60000038147</ele>
        <time>2021-08-15T07:17:39.000Z</time>
      </trkpt>
      <trkpt lat="47.49535" lon="-2.37357">
        <ele>18</ele>
        <time>2021-08-15T07:17:40.000Z</time>
      </trkpt>
      <trkpt lat="47.49533" lon="-2.37362">
        <ele>18</ele>
        <time>2021-08-15T07:17:41.000Z</time>
      </trkpt>
      <trkpt lat="47.49511" lon="-2.37415">
        <ele>18</ele>
        <time>2021-08-15T07:17:50.000Z</time>
      </trkpt>
      <trkpt lat="47.49498" lon="-2.3745">
        <ele>17.60000038147</ele>
        <time>2021-08-15T07:17:55.000Z</time>
      </trkpt>
      <trkpt lat="47.49497" lon="-2.37458">
        <ele>17</ele>
        <time>2021-08-15T07:17:56.000Z</time>
      </trkpt>
      <trkpt lat="47.49498" lon="-2.37467">
        <ele>16.60000038147</ele>
        <time>2021-08-15T07:17:57.000Z</time>
      </trkpt>
      <trkpt lat="47.49501" lon="-2.37475">
        <ele>16.200000762939</ele>
        <time>2021-08-15T07:17:58.000Z</time>
      </trkpt>
      <trkpt lat="47.49505" lon="-2.37481">
        <ele>15.800000190735</ele>
        <time>2021-08-15T07:17:59.000Z</time>
      </trkpt>
      <trkpt lat="47.49514" lon="-2.37487">
        <ele>15.199999809265</ele>
        <time>2021-08-15T07:18:01.000Z</time>
      </trkpt>
      <trkpt lat="47.49519" lon="-2.37489">
        <ele>14.800000190735</ele>
        <time>2021-08-15T07:18:02.000Z</time>
      </trkpt>
      <trkpt lat="47.49523" lon="-2.37491">
        <ele>14.39999961853</ele>
        <time>2021-08-15T07:18:03.000Z</time>
      </trkpt>
      <trkpt lat="47.49527" lon="-2.37494">
        <ele>13.60000038147</ele>
        <time>2021-08-15T07:18:04.000Z</time>
      </trkpt>
      <trkpt lat="47.49532" lon="-2.37498">
        <ele>13.60000038147</ele>
        <time>2021-08-15T07:18:05.000Z</time>
      </trkpt>
      <trkpt lat="47.49548" lon="-2.37506">
        <ele>13</ele>
        <time>2021-08-15T07:18:08.000Z</time>
      </trkpt>
      <trkpt lat="47.49553" lon="-2.3751">
        <ele>12.60000038147</ele>
        <time>2021-08-15T07:18:09.000Z</time>
      </trkpt>
      <trkpt lat="47.49559" lon="-2.37513">
        <ele>12.199999809265</ele>
        <time>2021-08-15T07:18:10.000Z</time>
      </trkpt>
      <trkpt lat="47.49562" lon="-2.37515">
        <ele>11.60000038147</ele>
        <time>2021-08-15T07:18:11.000Z</time>
      </trkpt>
      <trkpt lat="47.49565" lon="-2.37516">
        <ele>11.199999809265</ele>
        <time>2021-08-15T07:18:12.000Z</time>
      </trkpt>
      <trkpt lat="47.49567" lon="-2.37517">
        <ele>10.800000190735</ele>
        <time>2021-08-15T07:18:13.000Z</time>
      </trkpt>
      <trkpt lat="47.49569" lon="-2.37519">
        <ele>10.39999961853</ele>
        <time>2021-08-15T07:18:14.000Z</time>
      </trkpt>
      <trkpt lat="47.49571" lon="-2.3752">
        <ele>10</ele>
        <time>2021-08-15T07:18:15.000Z</time>
      </trkpt>
      <trkpt lat="47.49573" lon="-2.37521">
        <ele>9.6000003814697</ele>
        <time>2021-08-15T07:18:16.000Z</time>
      </trkpt>
      <trkpt lat="47.49576" lon="-2.37522">
        <ele>9.1999998092651</ele>
        <time>2021-08-15T07:18:17.000Z</time>
      </trkpt>
      <trkpt lat="47.49579" lon="-2.37528">
        <ele>8.6000003814697</ele>
        <time>2021-08-15T07:18:18.000Z</time>
      </trkpt>
      <trkpt lat="47.49579" lon="-2.37532">
        <ele>8.1999998092651</ele>
        <time>2021-08-15T07:18:19.000Z</time>
      </trkpt>
      <trkpt lat="47.49578" lon="-2.37536">
        <ele>7.5999999046326</ele>
        <time>2021-08-15T07:18:20.000Z</time>
      </trkpt>
      <trkpt lat="47.49576" lon="-2.3754">
        <ele>7.1999998092651</ele>
        <time>2021-08-15T07:18:21.000Z</time>
      </trkpt>
      <trkpt lat="47.49573" lon="-2.37544">
        <ele>6.8000001907349</ele>
        <time>2021-08-15T07:18:22.000Z</time>
      </trkpt>
      <trkpt lat="47.49565" lon="-2.37551">
        <ele>6.8000001907349</ele>
        <time>2021-08-15T07:18:24.000Z</time>
      </trkpt>
      <trkpt lat="47.49561" lon="-2.37553">
        <ele>6.8000001907349</ele>
        <time>2021-08-15T07:18:25.000Z</time>
      </trkpt>
      <trkpt lat="47.49557" lon="-2.37559">
        <ele>6.8000001907349</ele>
        <time>2021-08-15T07:18:26.000Z</time>
      </trkpt>
      <trkpt lat="47.49544" lon="-2.37586">
        <ele>6.8000001907349</ele>
        <time>2021-08-15T07:18:30.000Z</time>
      </trkpt>
      <trkpt lat="47.49544" lon="-2.37614">
        <ele>6.8000001907349</ele>
        <time>2021-08-15T07:18:34.000Z</time>
      </trkpt>
      <trkpt lat="47.49544" lon="-2.3762">
        <ele>6.8000001907349</ele>
        <time>2021-08-15T07:18:35.000Z</time>
      </trkpt>
      <trkpt lat="47.49543" lon="-2.37632">
        <ele>6.8000001907349</ele>
        <time>2021-08-15T07:18:38.000Z</time>
      </trkpt>
      <trkpt lat="47.49544" lon="-2.37643">
        <ele>7.1999998092651</ele>
        <time>2021-08-15T07:18:40.000Z</time>
      </trkpt>
      <trkpt lat="47.49544" lon="-2.37648">
        <ele>7.5999999046326</ele>
        <time>2021-08-15T07:18:41.000Z</time>
      </trkpt>
      <trkpt lat="47.49544" lon="-2.37654">
        <ele>8</ele>
        <time>2021-08-15T07:18:42.000Z</time>
      </trkpt>
      <trkpt lat="47.49544" lon="-2.37659">
        <ele>8.6000003814697</ele>
        <time>2021-08-15T07:18:43.000Z</time>
      </trkpt>
      <trkpt lat="47.49544" lon="-2.37664">
        <ele>9</ele>
        <time>2021-08-15T07:18:44.000Z</time>
      </trkpt>
      <trkpt lat="47.49546" lon="-2.37693">
        <ele>9</ele>
        <time>2021-08-15T07:18:49.000Z</time>
      </trkpt>
      <trkpt lat="47.49553" lon="-2.37727">
        <ele>9</ele>
        <time>2021-08-15T07:18:55.000Z</time>
      </trkpt>
      <trkpt lat="47.49553" lon="-2.37756">
        <ele>9</ele>
        <time>2021-08-15T07:19:00.000Z</time>
      </trkpt>
      <trkpt lat="47.49544" lon="-2.37755">
        <ele>9</ele>
        <time>2021-08-15T07:19:03.000Z</time>
      </trkpt>
      <trkpt lat="47.4954" lon="-2.37755">
        <ele>9</ele>
        <time>2021-08-15T07:19:04.000Z</time>
      </trkpt>
      <trkpt lat="47.49535" lon="-2.37759">
        <ele>9</ele>
        <time>2021-08-15T07:19:06.000Z</time>
      </trkpt>
      <trkpt lat="47.49532" lon="-2.37762">
        <ele>9</ele>
        <time>2021-08-15T07:19:07.000Z</time>
      </trkpt>
      <trkpt lat="47.49527" lon="-2.37772">
        <ele>9.3999996185303</ele>
        <time>2021-08-15T07:19:09.000Z</time>
      </trkpt>
      <trkpt lat="47.49525" lon="-2.37778">
        <ele>9.8000001907349</ele>
        <time>2021-08-15T07:19:10.000Z</time>
      </trkpt>
      <trkpt lat="47.49524" lon="-2.37783">
        <ele>10.199999809265</ele>
        <time>2021-08-15T07:19:11.000Z</time>
      </trkpt>
      <trkpt lat="47.49523" lon="-2.37788">
        <ele>10.800000190735</ele>
        <time>2021-08-15T07:19:12.000Z</time>
      </trkpt>
      <trkpt lat="47.49522" lon="-2.37793">
        <ele>11.199999809265</ele>
        <time>2021-08-15T07:19:13.000Z</time>
      </trkpt>
      <trkpt lat="47.49517" lon="-2.37815">
        <ele>11.199999809265</ele>
        <time>2021-08-15T07:19:18.000Z</time>
      </trkpt>
      <trkpt lat="47.49511" lon="-2.37844">
        <ele>11.199999809265</ele>
        <time>2021-08-15T07:19:23.000Z</time>
      </trkpt>
      <trkpt lat="47.49508" lon="-2.3785">
        <ele>11.199999809265</ele>
        <time>2021-08-15T07:19:24.000Z</time>
      </trkpt>
      <trkpt lat="47.49495" lon="-2.37882">
        <ele>11.199999809265</ele>
        <time>2021-08-15T07:19:28.000Z</time>
      </trkpt>
      <trkpt lat="47.49478" lon="-2.37925">
        <ele>11.199999809265</ele>
        <time>2021-08-15T07:19:34.000Z</time>
      </trkpt>
      <trkpt lat="47.49476" lon="-2.37931">
        <ele>11.199999809265</ele>
        <time>2021-08-15T07:19:35.000Z</time>
      </trkpt>
      <trkpt lat="47.49481" lon="-2.3795">
        <ele>10.800000190735</ele>
        <time>2021-08-15T07:19:38.000Z</time>
      </trkpt>
      <trkpt lat="47.49484" lon="-2.37958">
        <ele>10.199999809265</ele>
        <time>2021-08-15T07:19:39.000Z</time>
      </trkpt>
      <trkpt lat="47.49486" lon="-2.37965">
        <ele>9.8000001907349</ele>
        <time>2021-08-15T07:19:40.000Z</time>
      </trkpt>
      <trkpt lat="47.49488" lon="-2.37971">
        <ele>9.1999998092651</ele>
        <time>2021-08-15T07:19:41.000Z</time>
      </trkpt>
      <trkpt lat="47.49489" lon="-2.37979">
        <ele>8.3999996185303</ele>
        <time>2021-08-15T07:19:42.000Z</time>
      </trkpt>
      <trkpt lat="47.4949" lon="-2.37985">
        <ele>7.1999998092651</ele>
        <time>2021-08-15T07:19:43.000Z</time>
      </trkpt>
      <trkpt lat="47.49489" lon="-2.3799">
        <ele>6.5999999046326</ele>
        <time>2021-08-15T07:19:44.000Z</time>
      </trkpt>
      <trkpt lat="47.49492" lon="-2.38002">
        <ele>6.5999999046326</ele>
        <time>2021-08-15T07:19:49.000Z</time>
      </trkpt>
      <trkpt lat="47.49497" lon="-2.38017">
        <ele>6.5999999046326</ele>
        <time>2021-08-15T07:19:54.000Z</time>
      </trkpt>
      <trkpt lat="47.49499" lon="-2.38032">
        <ele>6.5999999046326</ele>
        <time>2021-08-15T07:19:58.000Z</time>
      </trkpt>
      <trkpt lat="47.495" lon="-2.38037">
        <ele>6.5999999046326</ele>
        <time>2021-08-15T07:19:59.000Z</time>
      </trkpt>
      <trkpt lat="47.49507" lon="-2.38064">
        <ele>6.5999999046326</ele>
        <time>2021-08-15T07:20:05.000Z</time>
      </trkpt>
      <trkpt lat="47.49516" lon="-2.38091">
        <ele>6.5999999046326</ele>
        <time>2021-08-15T07:20:12.000Z</time>
      </trkpt>
      <trkpt lat="47.49526" lon="-2.38114">
        <ele>6.5999999046326</ele>
        <time>2021-08-15T07:20:19.000Z</time>
      </trkpt>
      <trkpt lat="47.49535" lon="-2.38133">
        <ele>6.5999999046326</ele>
        <time>2021-08-15T07:20:24.000Z</time>
      </trkpt>
      <trkpt lat="47.49544" lon="-2.3816">
        <ele>6.5999999046326</ele>
        <time>2021-08-15T07:20:30.000Z</time>
      </trkpt>
      <trkpt lat="47.49543" lon="-2.38185">
        <ele>6.5999999046326</ele>
        <time>2021-08-15T07:20:35.000Z</time>
      </trkpt>
      <trkpt lat="47.49549" lon="-2.3821">
        <ele>6.5999999046326</ele>
        <time>2021-08-15T07:20:40.000Z</time>
      </trkpt>
      <trkpt lat="47.49562" lon="-2.38242">
        <ele>6.5999999046326</ele>
        <time>2021-08-15T07:20:46.000Z</time>
      </trkpt>
      <trkpt lat="47.49568" lon="-2.38271">
        <ele>6.5999999046326</ele>
        <time>2021-08-15T07:20:52.000Z</time>
      </trkpt>
      <trkpt lat="47.49576" lon="-2.38312">
        <ele>6.5999999046326</ele>
        <time>2021-08-15T07:20:59.000Z</time>
      </trkpt>
      <trkpt lat="47.49593" lon="-2.38337">
        <ele>6.5999999046326</ele>
        <time>2021-08-15T07:21:05.000Z</time>
      </trkpt>
      <trkpt lat="47.49603" lon="-2.38366">
        <ele>6.5999999046326</ele>
        <time>2021-08-15T07:21:11.000Z</time>
      </trkpt>
      <trkpt lat="47.49604" lon="-2.38402">
        <ele>6.5999999046326</ele>
        <time>2021-08-15T07:21:17.000Z</time>
      </trkpt>
      <trkpt lat="47.49604" lon="-2.38408">
        <ele>6.5999999046326</ele>
        <time>2021-08-15T07:21:18.000Z</time>
      </trkpt>
      <trkpt lat="47.49608" lon="-2.38427">
        <ele>6.5999999046326</ele>
        <time>2021-08-15T07:21:21.000Z</time>
      </trkpt>
      <trkpt lat="47.4961" lon="-2.38433">
        <ele>6.5999999046326</ele>
        <time>2021-08-15T07:21:22.000Z</time>
      </trkpt>
      <trkpt lat="47.49611" lon="-2.3844">
        <ele>6.5999999046326</ele>
        <time>2021-08-15T07:21:23.000Z</time>
      </trkpt>
      <trkpt lat="47.49618" lon="-2.3848">
        <ele>6.5999999046326</ele>
        <time>2021-08-15T07:21:29.000Z</time>
      </trkpt>
      <trkpt lat="47.49617" lon="-2.38504">
        <ele>6.5999999046326</ele>
        <time>2021-08-15T07:21:33.000Z</time>
      </trkpt>
      <trkpt lat="47.49615" lon="-2.38517">
        <ele>7</ele>
        <time>2021-08-15T07:21:37.000Z</time>
      </trkpt>
      <trkpt lat="47.49615" lon="-2.38519">
        <ele>7.4000000953674</ele>
        <time>2021-08-15T07:21:38.000Z</time>
      </trkpt>
      <trkpt lat="47.49616" lon="-2.38523">
        <ele>7.8000001907349</ele>
        <time>2021-08-15T07:21:39.000Z</time>
      </trkpt>
      <trkpt lat="47.49616" lon="-2.38525">
        <ele>8.1999998092651</ele>
        <time>2021-08-15T07:21:40.000Z</time>
      </trkpt>
      <trkpt lat="47.49616" lon="-2.38527">
        <ele>8.6000003814697</ele>
        <time>2021-08-15T07:21:41.000Z</time>
      </trkpt>
      <trkpt lat="47.49616" lon="-2.38529">
        <ele>9</ele>
        <time>2021-08-15T07:21:42.000Z</time>
      </trkpt>
      <trkpt lat="47.49617" lon="-2.38531">
        <ele>9.3999996185303</ele>
        <time>2021-08-15T07:21:43.000Z</time>
      </trkpt>
      <trkpt lat="47.49618" lon="-2.38532">
        <ele>9.8000001907349</ele>
        <time>2021-08-15T07:21:44.000Z</time>
      </trkpt>
      <trkpt lat="47.49619" lon="-2.38532">
        <ele>10.199999809265</ele>
        <time>2021-08-15T07:21:45.000Z</time>
      </trkpt>
      <trkpt lat="47.4962" lon="-2.38531">
        <ele>10.60000038147</ele>
        <time>2021-08-15T07:21:46.000Z</time>
      </trkpt>
      <trkpt lat="47.49625" lon="-2.38527">
        <ele>10.60000038147</ele>
        <time>2021-08-15T07:21:49.000Z</time>
      </trkpt>
      <trkpt lat="47.49627" lon="-2.38529">
        <ele>10.60000038147</ele>
        <time>2021-08-15T07:21:50.000Z</time>
      </trkpt>
      <trkpt lat="47.49629" lon="-2.3853">
        <ele>11</ele>
        <time>2021-08-15T07:21:51.000Z</time>
      </trkpt>
      <trkpt lat="47.49631" lon="-2.38532">
        <ele>11.60000038147</ele>
        <time>2021-08-15T07:21:52.000Z</time>
      </trkpt>
      <trkpt lat="47.49633" lon="-2.38534">
        <ele>12</ele>
        <time>2021-08-15T07:21:53.000Z</time>
      </trkpt>
      <trkpt lat="47.49634" lon="-2.38536">
        <ele>12.39999961853</ele>
        <time>2021-08-15T07:21:54.000Z</time>
      </trkpt>
      <trkpt lat="47.49637" lon="-2.38538">
        <ele>12.800000190735</ele>
        <time>2021-08-15T07:21:55.000Z</time>
      </trkpt>
      <trkpt lat="47.4964" lon="-2.38543">
        <ele>13.199999809265</ele>
        <time>2021-08-15T07:21:57.000Z</time>
      </trkpt>
      <trkpt lat="47.49642" lon="-2.38547">
        <ele>13.800000190735</ele>
        <time>2021-08-15T07:21:58.000Z</time>
      </trkpt>
      <trkpt lat="47.49643" lon="-2.3855">
        <ele>14.199999809265</ele>
        <time>2021-08-15T07:21:59.000Z</time>
      </trkpt>
      <trkpt lat="47.49643" lon="-2.38554">
        <ele>14.60000038147</ele>
        <time>2021-08-15T07:22:00.000Z</time>
      </trkpt>
      <trkpt lat="47.49644" lon="-2.38557">
        <ele>15</ele>
        <time>2021-08-15T07:22:01.000Z</time>
      </trkpt>
      <trkpt lat="47.49645" lon="-2.38566">
        <ele>15</ele>
        <time>2021-08-15T07:22:07.000Z</time>
      </trkpt>
      <trkpt lat="47.49645" lon="-2.38566">
        <ele>15</ele>
        <time>2021-08-15T07:22:08.000Z</time>
      </trkpt>
      <trkpt lat="47.49645" lon="-2.38569">
        <ele>15</ele>
        <time>2021-08-15T07:22:21.000Z</time>
      </trkpt>
      <trkpt lat="47.49641" lon="-2.38576">
        <ele>15</ele>
        <time>2021-08-15T07:22:24.000Z</time>
      </trkpt>
      <trkpt lat="47.4964" lon="-2.3858">
        <ele>15</ele>
        <time>2021-08-15T07:22:26.000Z</time>
      </trkpt>
      <trkpt lat="47.4964" lon="-2.38585">
        <ele>15</ele>
        <time>2021-08-15T07:22:29.000Z</time>
      </trkpt>
      <trkpt lat="47.49642" lon="-2.38587">
        <ele>15</ele>
        <time>2021-08-15T07:22:31.000Z</time>
      </trkpt>
      <trkpt lat="47.49648" lon="-2.38591">
        <ele>14.60000038147</ele>
        <time>2021-08-15T07:22:35.000Z</time>
      </trkpt>
      <trkpt lat="47.49649" lon="-2.38592">
        <ele>14.199999809265</ele>
        <time>2021-08-15T07:22:36.000Z</time>
      </trkpt>
      <trkpt lat="47.4965" lon="-2.38592">
        <ele>13.39999961853</ele>
        <time>2021-08-15T07:22:37.000Z</time>
      </trkpt>
      <trkpt lat="47.49652" lon="-2.38593">
        <ele>12.800000190735</ele>
        <time>2021-08-15T07:22:38.000Z</time>
      </trkpt>
      <trkpt lat="47.49653" lon="-2.38594">
        <ele>12.199999809265</ele>
        <time>2021-08-15T07:22:39.000Z</time>
      </trkpt>
      <trkpt lat="47.49655" lon="-2.38594">
        <ele>11.800000190735</ele>
        <time>2021-08-15T07:22:40.000Z</time>
      </trkpt>
      <trkpt lat="47.49657" lon="-2.38592">
        <ele>11.199999809265</ele>
        <time>2021-08-15T07:22:41.000Z</time>
      </trkpt>
      <trkpt lat="47.49659" lon="-2.38589">
        <ele>10.60000038147</ele>
        <time>2021-08-15T07:22:42.000Z</time>
      </trkpt>
      <trkpt lat="47.49663" lon="-2.38582">
        <ele>10.60000038147</ele>
        <time>2021-08-15T07:22:44.000Z</time>
      </trkpt>
      <trkpt lat="47.49674" lon="-2.38571">
        <ele>10.60000038147</ele>
        <time>2021-08-15T07:22:47.000Z</time>
      </trkpt>
      <trkpt lat="47.49683" lon="-2.38563">
        <ele>10.199999809265</ele>
        <time>2021-08-15T07:22:49.000Z</time>
      </trkpt>
      <trkpt lat="47.49687" lon="-2.38559">
        <ele>9.8000001907349</ele>
        <time>2021-08-15T07:22:50.000Z</time>
      </trkpt>
      <trkpt lat="47.49692" lon="-2.38555">
        <ele>9.3999996185303</ele>
        <time>2021-08-15T07:22:51.000Z</time>
      </trkpt>
      <trkpt lat="47.49697" lon="-2.3855">
        <ele>9</ele>
        <time>2021-08-15T07:22:52.000Z</time>
      </trkpt>
      <trkpt lat="47.49702" lon="-2.38545">
        <ele>8.6000003814697</ele>
        <time>2021-08-15T07:22:53.000Z</time>
      </trkpt>
      <trkpt lat="47.49707" lon="-2.3854">
        <ele>8.6000003814697</ele>
        <time>2021-08-15T07:22:54.000Z</time>
      </trkpt>
      <trkpt lat="47.49742" lon="-2.385">
        <ele>8.6000003814697</ele>
        <time>2021-08-15T07:23:01.000Z</time>
      </trkpt>
      <trkpt lat="47.49772" lon="-2.38452">
        <ele>8.6000003814697</ele>
        <time>2021-08-15T07:23:08.000Z</time>
      </trkpt>
      <trkpt lat="47.49776" lon="-2.38446">
        <ele>8.6000003814697</ele>
        <time>2021-08-15T07:23:09.000Z</time>
      </trkpt>
      <trkpt lat="47.498" lon="-2.38421">
        <ele>8.6000003814697</ele>
        <time>2021-08-15T07:23:14.000Z</time>
      </trkpt>
      <trkpt lat="47.49825" lon="-2.38387">
        <ele>8.6000003814697</ele>
        <time>2021-08-15T07:23:20.000Z</time>
      </trkpt>
      <trkpt lat="47.4984" lon="-2.38364">
        <ele>8.6000003814697</ele>
        <time>2021-08-15T07:23:24.000Z</time>
      </trkpt>
      <trkpt lat="47.49848" lon="-2.38357">
        <ele>8.6000003814697</ele>
        <time>2021-08-15T07:23:26.000Z</time>
      </trkpt>
      <trkpt lat="47.49852" lon="-2.38352">
        <ele>8.6000003814697</ele>
        <time>2021-08-15T07:23:27.000Z</time>
      </trkpt>
      <trkpt lat="47.49864" lon="-2.38332">
        <ele>8.6000003814697</ele>
        <time>2021-08-15T07:23:31.000Z</time>
      </trkpt>
      <trkpt lat="47.49868" lon="-2.38315">
        <ele>8.6000003814697</ele>
        <time>2021-08-15T07:23:34.000Z</time>
      </trkpt>
      <trkpt lat="47.49877" lon="-2.38303">
        <ele>8.6000003814697</ele>
        <time>2021-08-15T07:23:37.000Z</time>
      </trkpt>
      <trkpt lat="47.4988" lon="-2.383">
        <ele>8.6000003814697</ele>
        <time>2021-08-15T07:23:38.000Z</time>
      </trkpt>
      <trkpt lat="47.49896" lon="-2.38289">
        <ele>8.6000003814697</ele>
        <time>2021-08-15T07:23:43.000Z</time>
      </trkpt>
      <trkpt lat="47.499" lon="-2.38289">
        <ele>8.6000003814697</ele>
        <time>2021-08-15T07:23:47.000Z</time>
      </trkpt>
      <trkpt lat="47.49902" lon="-2.38289">
        <ele>8.6000003814697</ele>
        <time>2021-08-15T07:24:00.000Z</time>
      </trkpt>
      <trkpt lat="47.49904" lon="-2.38289">
        <ele>8.6000003814697</ele>
        <time>2021-08-15T07:24:01.000Z</time>
      </trkpt>
      <trkpt lat="47.49911" lon="-2.3829">
        <ele>8.6000003814697</ele>
        <time>2021-08-15T07:24:05.000Z</time>
      </trkpt>
      <trkpt lat="47.49912" lon="-2.38288">
        <ele>8.6000003814697</ele>
        <time>2021-08-15T07:24:06.000Z</time>
      </trkpt>
      <trkpt lat="47.49919" lon="-2.38277">
        <ele>8.6000003814697</ele>
        <time>2021-08-15T07:24:10.000Z</time>
      </trkpt>
      <trkpt lat="47.49922" lon="-2.38274">
        <ele>8.6000003814697</ele>
        <time>2021-08-15T07:24:11.000Z</time>
      </trkpt>
      <trkpt lat="47.49932" lon="-2.3826">
        <ele>9</ele>
        <time>2021-08-15T07:24:15.000Z</time>
      </trkpt>
      <trkpt lat="47.49935" lon="-2.38256">
        <ele>9.3999996185303</ele>
        <time>2021-08-15T07:24:16.000Z</time>
      </trkpt>
      <trkpt lat="47.49938" lon="-2.38253">
        <ele>9.8000001907349</ele>
        <time>2021-08-15T07:24:17.000Z</time>
      </trkpt>
      <trkpt lat="47.49941" lon="-2.38249">
        <ele>10.199999809265</ele>
        <time>2021-08-15T07:24:18.000Z</time>
      </trkpt>
      <trkpt lat="47.49943" lon="-2.38246">
        <ele>10.60000038147</ele>
        <time>2021-08-15T07:24:19.000Z</time>
      </trkpt>
      <trkpt lat="47.49959" lon="-2.38224">
        <ele>10.60000038147</ele>
        <time>2021-08-15T07:24:26.000Z</time>
      </trkpt>
      <trkpt lat="47.4998" lon="-2.38197">
        <ele>10.60000038147</ele>
        <time>2021-08-15T07:24:35.000Z</time>
      </trkpt>
      <trkpt lat="47.49994" lon="-2.38177">
        <ele>10.60000038147</ele>
        <time>2021-08-15T07:24:42.000Z</time>
      </trkpt>
      <trkpt lat="47.5001" lon="-2.38158">
        <ele>10.60000038147</ele>
        <time>2021-08-15T07:24:46.000Z</time>
      </trkpt>
      <trkpt lat="47.5004" lon="-2.38118">
        <ele>10.60000038147</ele>
        <time>2021-08-15T07:24:52.000Z</time>
      </trkpt>
      <trkpt lat="47.50068" lon="-2.3808">
        <ele>10.60000038147</ele>
        <time>2021-08-15T07:24:58.000Z</time>
      </trkpt>
      <trkpt lat="47.50073" lon="-2.38059">
        <ele>10.60000038147</ele>
        <time>2021-08-15T07:25:01.000Z</time>
      </trkpt>
      <trkpt lat="47.50073" lon="-2.38044">
        <ele>10.60000038147</ele>
        <time>2021-08-15T07:25:03.000Z</time>
      </trkpt>
      <trkpt lat="47.50073" lon="-2.38028">
        <ele>10.60000038147</ele>
        <time>2021-08-15T07:25:05.000Z</time>
      </trkpt>
      <trkpt lat="47.50074" lon="-2.3802">
        <ele>10.60000038147</ele>
        <time>2021-08-15T07:25:06.000Z</time>
      </trkpt>
      <trkpt lat="47.50073" lon="-2.38007">
        <ele>10.60000038147</ele>
        <time>2021-08-15T07:25:08.000Z</time>
      </trkpt>
      <trkpt lat="47.5007" lon="-2.37993">
        <ele>10.60000038147</ele>
        <time>2021-08-15T07:25:10.000Z</time>
      </trkpt>
      <trkpt lat="47.50069" lon="-2.37969">
        <ele>10.60000038147</ele>
        <time>2021-08-15T07:25:13.000Z</time>
      </trkpt>
      <trkpt lat="47.5008" lon="-2.37951">
        <ele>10.60000038147</ele>
        <time>2021-08-15T07:25:16.000Z</time>
      </trkpt>
      <trkpt lat="47.50084" lon="-2.37946">
        <ele>10.60000038147</ele>
        <time>2021-08-15T07:25:17.000Z</time>
      </trkpt>
      <trkpt lat="47.50113" lon="-2.37906">
        <ele>10.60000038147</ele>
        <time>2021-08-15T07:25:25.000Z</time>
      </trkpt>
      <trkpt lat="47.50124" lon="-2.37893">
        <ele>10.60000038147</ele>
        <time>2021-08-15T07:25:28.000Z</time>
      </trkpt>
      <trkpt lat="47.50135" lon="-2.37882">
        <ele>10.60000038147</ele>
        <time>2021-08-15T07:25:31.000Z</time>
      </trkpt>
      <trkpt lat="47.50137" lon="-2.37879">
        <ele>10.60000038147</ele>
        <time>2021-08-15T07:25:32.000Z</time>
      </trkpt>
      <trkpt lat="47.50148" lon="-2.37867">
        <ele>10.60000038147</ele>
        <time>2021-08-15T07:25:36.000Z</time>
      </trkpt>
      <trkpt lat="47.50155" lon="-2.37859">
        <ele>10.60000038147</ele>
        <time>2021-08-15T07:25:38.000Z</time>
      </trkpt>
      <trkpt lat="47.50166" lon="-2.37845">
        <ele>10.60000038147</ele>
        <time>2021-08-15T07:25:41.000Z</time>
      </trkpt>
      <trkpt lat="47.50183" lon="-2.3782">
        <ele>11</ele>
        <time>2021-08-15T07:25:46.000Z</time>
      </trkpt>
      <trkpt lat="47.50186" lon="-2.37815">
        <ele>11.39999961853</ele>
        <time>2021-08-15T07:25:47.000Z</time>
      </trkpt>
      <trkpt lat="47.50191" lon="-2.37809">
        <ele>11.800000190735</ele>
        <time>2021-08-15T07:25:48.000Z</time>
      </trkpt>
      <trkpt lat="47.50195" lon="-2.37804">
        <ele>12.199999809265</ele>
        <time>2021-08-15T07:25:49.000Z</time>
      </trkpt>
      <trkpt lat="47.50199" lon="-2.37799">
        <ele>12.60000038147</ele>
        <time>2021-08-15T07:25:50.000Z</time>
      </trkpt>
      <trkpt lat="47.50224" lon="-2.37765">
        <ele>12.60000038147</ele>
        <time>2021-08-15T07:25:56.000Z</time>
      </trkpt>
      <trkpt lat="47.50252" lon="-2.37724">
        <ele>12.60000038147</ele>
        <time>2021-08-15T07:26:02.000Z</time>
      </trkpt>
      <trkpt lat="47.50295" lon="-2.37665">
        <ele>12.199999809265</ele>
        <time>2021-08-15T07:26:10.000Z</time>
      </trkpt>
      <trkpt lat="47.503" lon="-2.37658">
        <ele>11.800000190735</ele>
        <time>2021-08-15T07:26:11.000Z</time>
      </trkpt>
      <trkpt lat="47.50305" lon="-2.37651">
        <ele>11.39999961853</ele>
        <time>2021-08-15T07:26:12.000Z</time>
      </trkpt>
      <trkpt lat="47.50309" lon="-2.37644">
        <ele>11</ele>
        <time>2021-08-15T07:26:13.000Z</time>
      </trkpt>
      <trkpt lat="47.50314" lon="-2.37637">
        <ele>10.60000038147</ele>
        <time>2021-08-15T07:26:14.000Z</time>
      </trkpt>
      <trkpt lat="47.5032" lon="-2.3762">
        <ele>10.60000038147</ele>
        <time>2021-08-15T07:26:16.000Z</time>
      </trkpt>
      <trkpt lat="47.5032" lon="-2.3759">
        <ele>9.8000001907349</ele>
        <time>2021-08-15T07:26:19.000Z</time>
      </trkpt>
      <trkpt lat="47.50319" lon="-2.37581">
        <ele>9.3999996185303</ele>
        <time>2021-08-15T07:26:20.000Z</time>
      </trkpt>
      <trkpt lat="47.50319" lon="-2.37571">
        <ele>9</ele>
        <time>2021-08-15T07:26:21.000Z</time>
      </trkpt>
      <trkpt lat="47.50319" lon="-2.37562">
        <ele>8.3999996185303</ele>
        <time>2021-08-15T07:26:22.000Z</time>
      </trkpt>
      <trkpt lat="47.5032" lon="-2.37553">
        <ele>8.3999996185303</ele>
        <time>2021-08-15T07:26:23.000Z</time>
      </trkpt>
      <trkpt lat="47.50332" lon="-2.37521">
        <ele>8.3999996185303</ele>
        <time>2021-08-15T07:26:27.000Z</time>
      </trkpt>
      <trkpt lat="47.50337" lon="-2.37515">
        <ele>8.3999996185303</ele>
        <time>2021-08-15T07:26:28.000Z</time>
      </trkpt>
      <trkpt lat="47.50362" lon="-2.37475">
        <ele>8.3999996185303</ele>
        <time>2021-08-15T07:26:34.000Z</time>
      </trkpt>
      <trkpt lat="47.50382" lon="-2.37431">
        <ele>8.3999996185303</ele>
        <time>2021-08-15T07:26:40.000Z</time>
      </trkpt>
      <trkpt lat="47.5039" lon="-2.37386">
        <ele>8.3999996185303</ele>
        <time>2021-08-15T07:26:45.000Z</time>
      </trkpt>
      <trkpt lat="47.5039" lon="-2.37324">
        <ele>8.3999996185303</ele>
        <time>2021-08-15T07:26:52.000Z</time>
      </trkpt>
      <trkpt lat="47.50388" lon="-2.37298">
        <ele>8.3999996185303</ele>
        <time>2021-08-15T07:26:56.000Z</time>
      </trkpt>
      <trkpt lat="47.50388" lon="-2.37274">
        <ele>8.3999996185303</ele>
        <time>2021-08-15T07:27:02.000Z</time>
      </trkpt>
      <trkpt lat="47.50398" lon="-2.37275">
        <ele>8.3999996185303</ele>
        <time>2021-08-15T07:27:07.000Z</time>
      </trkpt>
      <trkpt lat="47.50412" lon="-2.37278">
        <ele>8.3999996185303</ele>
        <time>2021-08-15T07:27:13.000Z</time>
      </trkpt>
      <trkpt lat="47.50424" lon="-2.37282">
        <ele>9</ele>
        <time>2021-08-15T07:27:18.000Z</time>
      </trkpt>
      <trkpt lat="47.50426" lon="-2.37283">
        <ele>9.3999996185303</ele>
        <time>2021-08-15T07:27:19.000Z</time>
      </trkpt>
      <trkpt lat="47.50429" lon="-2.37285">
        <ele>9.8000001907349</ele>
        <time>2021-08-15T07:27:20.000Z</time>
      </trkpt>
      <trkpt lat="47.50431" lon="-2.37286">
        <ele>10.39999961853</ele>
        <time>2021-08-15T07:27:21.000Z</time>
      </trkpt>
      <trkpt lat="47.50433" lon="-2.37286">
        <ele>10.800000190735</ele>
        <time>2021-08-15T07:27:22.000Z</time>
      </trkpt>
      <trkpt lat="47.50436" lon="-2.37287">
        <ele>10.800000190735</ele>
        <time>2021-08-15T07:27:23.000Z</time>
      </trkpt>
      <trkpt lat="47.50438" lon="-2.37287">
        <ele>11.199999809265</ele>
        <time>2021-08-15T07:27:24.000Z</time>
      </trkpt>
      <trkpt lat="47.5044" lon="-2.37287">
        <ele>11.60000038147</ele>
        <time>2021-08-15T07:27:25.000Z</time>
      </trkpt>
      <trkpt lat="47.50442" lon="-2.37287">
        <ele>12</ele>
        <time>2021-08-15T07:27:26.000Z</time>
      </trkpt>
      <trkpt lat="47.50444" lon="-2.37286">
        <ele>12.39999961853</ele>
        <time>2021-08-15T07:27:27.000Z</time>
      </trkpt>
      <trkpt lat="47.50446" lon="-2.37287">
        <ele>12.800000190735</ele>
        <time>2021-08-15T07:27:28.000Z</time>
      </trkpt>
      <trkpt lat="47.50447" lon="-2.37287">
        <ele>12.800000190735</ele>
        <time>2021-08-15T07:27:29.000Z</time>
      </trkpt>
      <trkpt lat="47.50449" lon="-2.37287">
        <ele>13.199999809265</ele>
        <time>2021-08-15T07:27:30.000Z</time>
      </trkpt>
      <trkpt lat="47.50451" lon="-2.37287">
        <ele>13.800000190735</ele>
        <time>2021-08-15T07:27:31.000Z</time>
      </trkpt>
      <trkpt lat="47.50453" lon="-2.37288">
        <ele>14.199999809265</ele>
        <time>2021-08-15T07:27:32.000Z</time>
      </trkpt>
      <trkpt lat="47.50455" lon="-2.37288">
        <ele>15.199999809265</ele>
        <time>2021-08-15T07:27:33.000Z</time>
      </trkpt>
      <trkpt lat="47.50459" lon="-2.3729">
        <ele>15.199999809265</ele>
        <time>2021-08-15T07:27:35.000Z</time>
      </trkpt>
      <trkpt lat="47.50464" lon="-2.37292">
        <ele>15.60000038147</ele>
        <time>2021-08-15T07:27:38.000Z</time>
      </trkpt>
      <trkpt lat="47.50466" lon="-2.37293">
        <ele>16</ele>
        <time>2021-08-15T07:27:39.000Z</time>
      </trkpt>
      <trkpt lat="47.50468" lon="-2.37294">
        <ele>16.39999961853</ele>
        <time>2021-08-15T07:27:40.000Z</time>
      </trkpt>
      <trkpt lat="47.5047" lon="-2.37296">
        <ele>16.799999237061</ele>
        <time>2021-08-15T07:27:41.000Z</time>
      </trkpt>
      <trkpt lat="47.50471" lon="-2.37297">
        <ele>17.200000762939</ele>
        <time>2021-08-15T07:27:42.000Z</time>
      </trkpt>
      <trkpt lat="47.50477" lon="-2.37301">
        <ele>17.60000038147</ele>
        <time>2021-08-15T07:27:46.000Z</time>
      </trkpt>
      <trkpt lat="47.50479" lon="-2.37301">
        <ele>18</ele>
        <time>2021-08-15T07:27:47.000Z</time>
      </trkpt>
      <trkpt lat="47.5048" lon="-2.37303">
        <ele>18.39999961853</ele>
        <time>2021-08-15T07:27:48.000Z</time>
      </trkpt>
      <trkpt lat="47.50482" lon="-2.37304">
        <ele>19</ele>
        <time>2021-08-15T07:27:49.000Z</time>
      </trkpt>
      <trkpt lat="47.50484" lon="-2.37305">
        <ele>19.39999961853</ele>
        <time>2021-08-15T07:27:50.000Z</time>
      </trkpt>
      <trkpt lat="47.50491" lon="-2.37308">
        <ele>19.39999961853</ele>
        <time>2021-08-15T07:27:54.000Z</time>
      </trkpt>
      <trkpt lat="47.50497" lon="-2.37313">
        <ele>19.799999237061</ele>
        <time>2021-08-15T07:27:57.000Z</time>
      </trkpt>
      <trkpt lat="47.50499" lon="-2.37315">
        <ele>20.60000038147</ele>
        <time>2021-08-15T07:27:58.000Z</time>
      </trkpt>
      <trkpt lat="47.505" lon="-2.37318">
        <ele>21</ele>
        <time>2021-08-15T07:27:59.000Z</time>
      </trkpt>
      <trkpt lat="47.50501" lon="-2.3732">
        <ele>21.60000038147</ele>
        <time>2021-08-15T07:28:00.000Z</time>
      </trkpt>
      <trkpt lat="47.50503" lon="-2.37322">
        <ele>21.60000038147</ele>
        <time>2021-08-15T07:28:01.000Z</time>
      </trkpt>
      <trkpt lat="47.50515" lon="-2.37334">
        <ele>21.60000038147</ele>
        <time>2021-08-15T07:28:08.000Z</time>
      </trkpt>
      <trkpt lat="47.50519" lon="-2.37336">
        <ele>22</ele>
        <time>2021-08-15T07:28:10.000Z</time>
      </trkpt>
      <trkpt lat="47.50521" lon="-2.37338">
        <ele>22.39999961853</ele>
        <time>2021-08-15T07:28:11.000Z</time>
      </trkpt>
      <trkpt lat="47.50523" lon="-2.37339">
        <ele>22.799999237061</ele>
        <time>2021-08-15T07:28:12.000Z</time>
      </trkpt>
      <trkpt lat="47.50524" lon="-2.37341">
        <ele>23.200000762939</ele>
        <time>2021-08-15T07:28:13.000Z</time>
      </trkpt>
      <trkpt lat="47.50526" lon="-2.37343">
        <ele>23.60000038147</ele>
        <time>2021-08-15T07:28:14.000Z</time>
      </trkpt>
      <trkpt lat="47.5053" lon="-2.37349">
        <ele>23.60000038147</ele>
        <time>2021-08-15T07:28:17.000Z</time>
      </trkpt>
      <trkpt lat="47.50539" lon="-2.37358">
        <ele>24</ele>
        <time>2021-08-15T07:28:22.000Z</time>
      </trkpt>
      <trkpt lat="47.50542" lon="-2.3736">
        <ele>24.799999237061</ele>
        <time>2021-08-15T07:28:23.000Z</time>
      </trkpt>
      <trkpt lat="47.50544" lon="-2.37362">
        <ele>25.200000762939</ele>
        <time>2021-08-15T07:28:24.000Z</time>
      </trkpt>
      <trkpt lat="47.50546" lon="-2.37364">
        <ele>25.799999237061</ele>
        <time>2021-08-15T07:28:25.000Z</time>
      </trkpt>
      <trkpt lat="47.50564" lon="-2.37378">
        <ele>25.799999237061</ele>
        <time>2021-08-15T07:28:32.000Z</time>
      </trkpt>
      <trkpt lat="47.50587" lon="-2.37391">
        <ele>25.799999237061</ele>
        <time>2021-08-15T07:28:40.000Z</time>
      </trkpt>
      <trkpt lat="47.50593" lon="-2.37389">
        <ele>25.799999237061</ele>
        <time>2021-08-15T07:28:42.000Z</time>
      </trkpt>
      <trkpt lat="47.50598" lon="-2.37382">
        <ele>25.799999237061</ele>
        <time>2021-08-15T07:28:44.000Z</time>
      </trkpt>
      <trkpt lat="47.50602" lon="-2.37372">
        <ele>26.200000762939</ele>
        <time>2021-08-15T07:28:46.000Z</time>
      </trkpt>
      <trkpt lat="47.50604" lon="-2.37367">
        <ele>27</ele>
        <time>2021-08-15T07:28:47.000Z</time>
      </trkpt>
      <trkpt lat="47.50606" lon="-2.37362">
        <ele>27.39999961853</ele>
        <time>2021-08-15T07:28:48.000Z</time>
      </trkpt>
      <trkpt lat="47.50608" lon="-2.37356">
        <ele>27.799999237061</ele>
        <time>2021-08-15T07:28:49.000Z</time>
      </trkpt>
      <trkpt lat="47.50613" lon="-2.37344">
        <ele>27.799999237061</ele>
        <time>2021-08-15T07:28:51.000Z</time>
      </trkpt>
      <trkpt lat="47.5063" lon="-2.37296">
        <ele>27.799999237061</ele>
        <time>2021-08-15T07:28:58.000Z</time>
      </trkpt>
      <trkpt lat="47.50653" lon="-2.37235">
        <ele>27.799999237061</ele>
        <time>2021-08-15T07:29:06.000Z</time>
      </trkpt>
      <trkpt lat="47.50656" lon="-2.37228">
        <ele>27.799999237061</ele>
        <time>2021-08-15T07:29:07.000Z</time>
      </trkpt>
      <trkpt lat="47.5067" lon="-2.37211">
        <ele>27.799999237061</ele>
        <time>2021-08-15T07:29:10.000Z</time>
      </trkpt>
      <trkpt lat="47.50675" lon="-2.37206">
        <ele>27.799999237061</ele>
        <time>2021-08-15T07:29:11.000Z</time>
      </trkpt>
      <trkpt lat="47.5068" lon="-2.37201">
        <ele>27.799999237061</ele>
        <time>2021-08-15T07:29:12.000Z</time>
      </trkpt>
      <trkpt lat="47.50696" lon="-2.37189">
        <ele>27.799999237061</ele>
        <time>2021-08-15T07:29:15.000Z</time>
      </trkpt>
      <trkpt lat="47.50724" lon="-2.37171">
        <ele>27.799999237061</ele>
        <time>2021-08-15T07:29:21.000Z</time>
      </trkpt>
      <trkpt lat="47.50735" lon="-2.37151">
        <ele>27.799999237061</ele>
        <time>2021-08-15T07:29:26.000Z</time>
      </trkpt>
      <trkpt lat="47.50745" lon="-2.37119">
        <ele>27.799999237061</ele>
        <time>2021-08-15T07:29:32.000Z</time>
      </trkpt>
      <trkpt lat="47.50751" lon="-2.37101">
        <ele>27.799999237061</ele>
        <time>2021-08-15T07:29:35.000Z</time>
      </trkpt>
      <trkpt lat="47.50753" lon="-2.37088">
        <ele>27.799999237061</ele>
        <time>2021-08-15T07:29:37.000Z</time>
      </trkpt>
      <trkpt lat="47.50759" lon="-2.37041">
        <ele>27.799999237061</ele>
        <time>2021-08-15T07:29:44.000Z</time>
      </trkpt>
      <trkpt lat="47.5077" lon="-2.37002">
        <ele>27.799999237061</ele>
        <time>2021-08-15T07:29:50.000Z</time>
      </trkpt>
      <trkpt lat="47.50772" lon="-2.36996">
        <ele>27.799999237061</ele>
        <time>2021-08-15T07:29:51.000Z</time>
      </trkpt>
      <trkpt lat="47.50782" lon="-2.36971">
        <ele>27.39999961853</ele>
        <time>2021-08-15T07:29:55.000Z</time>
      </trkpt>
      <trkpt lat="47.50784" lon="-2.36964">
        <ele>27</ele>
        <time>2021-08-15T07:29:56.000Z</time>
      </trkpt>
      <trkpt lat="47.50787" lon="-2.36958">
        <ele>26.39999961853</ele>
        <time>2021-08-15T07:29:57.000Z</time>
      </trkpt>
      <trkpt lat="47.50789" lon="-2.36951">
        <ele>26</ele>
        <time>2021-08-15T07:29:58.000Z</time>
      </trkpt>
      <trkpt lat="47.50792" lon="-2.36944">
        <ele>25.60000038147</ele>
        <time>2021-08-15T07:29:59.000Z</time>
      </trkpt>
      <trkpt lat="47.50797" lon="-2.3693">
        <ele>25</ele>
        <time>2021-08-15T07:30:01.000Z</time>
      </trkpt>
      <trkpt lat="47.508" lon="-2.36922">
        <ele>24</ele>
        <time>2021-08-15T07:30:02.000Z</time>
      </trkpt>
      <trkpt lat="47.50803" lon="-2.36914">
        <ele>23.60000038147</ele>
        <time>2021-08-15T07:30:03.000Z</time>
      </trkpt>
      <trkpt lat="47.50806" lon="-2.36905">
        <ele>23</ele>
        <time>2021-08-15T07:30:04.000Z</time>
      </trkpt>
      <trkpt lat="47.50808" lon="-2.36897">
        <ele>22.39999961853</ele>
        <time>2021-08-15T07:30:05.000Z</time>
      </trkpt>
      <trkpt lat="47.5081" lon="-2.36889">
        <ele>22</ele>
        <time>2021-08-15T07:30:06.000Z</time>
      </trkpt>
      <trkpt lat="47.50811" lon="-2.36883">
        <ele>21.39999961853</ele>
        <time>2021-08-15T07:30:07.000Z</time>
      </trkpt>
      <trkpt lat="47.50813" lon="-2.36878">
        <ele>20.60000038147</ele>
        <time>2021-08-15T07:30:08.000Z</time>
      </trkpt>
      <trkpt lat="47.50814" lon="-2.36874">
        <ele>20</ele>
        <time>2021-08-15T07:30:09.000Z</time>
      </trkpt>
      <trkpt lat="47.50815" lon="-2.36872">
        <ele>19.39999961853</ele>
        <time>2021-08-15T07:30:10.000Z</time>
      </trkpt>
      <trkpt lat="47.50815" lon="-2.36871">
        <ele>18.799999237061</ele>
        <time>2021-08-15T07:30:11.000Z</time>
      </trkpt>
      <trkpt lat="47.50815" lon="-2.3687">
        <ele>18.799999237061</ele>
        <time>2021-08-15T07:30:13.000Z</time>
      </trkpt>
      <trkpt lat="47.50815" lon="-2.36864">
        <ele>18.799999237061</ele>
        <time>2021-08-15T07:30:57.000Z</time>
      </trkpt>
      <trkpt lat="47.50815" lon="-2.36862">
        <ele>18.799999237061</ele>
        <time>2021-08-15T07:30:58.000Z</time>
      </trkpt>
      <trkpt lat="47.50817" lon="-2.36859">
        <ele>18.799999237061</ele>
        <time>2021-08-15T07:31:01.000Z</time>
      </trkpt>
      <trkpt lat="47.50815" lon="-2.36837">
        <ele>14.60000038147</ele>
        <time>2021-08-15T07:31:50.000Z</time>
      </trkpt>
      <trkpt lat="47.50815" lon="-2.36834">
        <ele>14.60000038147</ele>
        <time>2021-08-15T07:31:51.000Z</time>
      </trkpt>
      <trkpt lat="47.5082" lon="-2.36814">
        <ele>14.60000038147</ele>
        <time>2021-08-15T07:31:57.000Z</time>
      </trkpt>
      <trkpt lat="47.50826" lon="-2.36808">
        <ele>14.60000038147</ele>
        <time>2021-08-15T07:32:00.000Z</time>
      </trkpt>
      <trkpt lat="47.50828" lon="-2.36808">
        <ele>14.60000038147</ele>
        <time>2021-08-15T07:32:01.000Z</time>
      </trkpt>
      <trkpt lat="47.50842" lon="-2.36814">
        <ele>14.60000038147</ele>
        <time>2021-08-15T07:32:06.000Z</time>
      </trkpt>
      <trkpt lat="47.50845" lon="-2.36816">
        <ele>14.60000038147</ele>
        <time>2021-08-15T07:32:07.000Z</time>
      </trkpt>
      <trkpt lat="47.50856" lon="-2.36822">
        <ele>15</ele>
        <time>2021-08-15T07:32:10.000Z</time>
      </trkpt>
      <trkpt lat="47.5086" lon="-2.36824">
        <ele>15.39999961853</ele>
        <time>2021-08-15T07:32:11.000Z</time>
      </trkpt>
      <trkpt lat="47.50864" lon="-2.36825">
        <ele>16</ele>
        <time>2021-08-15T07:32:12.000Z</time>
      </trkpt>
      <trkpt lat="47.50868" lon="-2.36827">
        <ele>16.39999961853</ele>
        <time>2021-08-15T07:32:13.000Z</time>
      </trkpt>
      <trkpt lat="47.50873" lon="-2.36828">
        <ele>16.799999237061</ele>
        <time>2021-08-15T07:32:14.000Z</time>
      </trkpt>
      <trkpt lat="47.50897" lon="-2.36841">
        <ele>16.799999237061</ele>
        <time>2021-08-15T07:32:19.000Z</time>
      </trkpt>
      <trkpt lat="47.50902" lon="-2.36843">
        <ele>17.200000762939</ele>
        <time>2021-08-15T07:32:20.000Z</time>
      </trkpt>
      <trkpt lat="47.50907" lon="-2.36845">
        <ele>17.60000038147</ele>
        <time>2021-08-15T07:32:21.000Z</time>
      </trkpt>
      <trkpt lat="47.50911" lon="-2.36847">
        <ele>18</ele>
        <time>2021-08-15T07:32:22.000Z</time>
      </trkpt>
      <trkpt lat="47.50916" lon="-2.3685">
        <ele>18.60000038147</ele>
        <time>2021-08-15T07:32:23.000Z</time>
      </trkpt>
      <trkpt lat="47.50919" lon="-2.36851">
        <ele>19</ele>
        <time>2021-08-15T07:32:24.000Z</time>
      </trkpt>
      <trkpt lat="47.50923" lon="-2.36852">
        <ele>19</ele>
        <time>2021-08-15T07:32:25.000Z</time>
      </trkpt>
      <trkpt lat="47.50946" lon="-2.36865">
        <ele>19</ele>
        <time>2021-08-15T07:32:31.000Z</time>
      </trkpt>
      <trkpt lat="47.50969" lon="-2.36872">
        <ele>19</ele>
        <time>2021-08-15T07:32:36.000Z</time>
      </trkpt>
      <trkpt lat="47.50987" lon="-2.36889">
        <ele>19</ele>
        <time>2021-08-15T07:32:41.000Z</time>
      </trkpt>
      <trkpt lat="47.50995" lon="-2.36898">
        <ele>19</ele>
        <time>2021-08-15T07:32:45.000Z</time>
      </trkpt>
      <trkpt lat="47.51005" lon="-2.36903">
        <ele>19.39999961853</ele>
        <time>2021-08-15T07:32:49.000Z</time>
      </trkpt>
      <trkpt lat="47.51008" lon="-2.36903">
        <ele>19.799999237061</ele>
        <time>2021-08-15T07:32:50.000Z</time>
      </trkpt>
      <trkpt lat="47.51011" lon="-2.36902">
        <ele>20.200000762939</ele>
        <time>2021-08-15T07:32:51.000Z</time>
      </trkpt>
      <trkpt lat="47.51014" lon="-2.36901">
        <ele>20.60000038147</ele>
        <time>2021-08-15T07:32:52.000Z</time>
      </trkpt>
      <trkpt lat="47.51017" lon="-2.36899">
        <ele>21</ele>
        <time>2021-08-15T07:32:53.000Z</time>
      </trkpt>
      <trkpt lat="47.51019" lon="-2.36897">
        <ele>21.60000038147</ele>
        <time>2021-08-15T07:32:54.000Z</time>
      </trkpt>
      <trkpt lat="47.51021" lon="-2.36894">
        <ele>22</ele>
        <time>2021-08-15T07:32:55.000Z</time>
      </trkpt>
      <trkpt lat="47.51022" lon="-2.36891">
        <ele>22.39999961853</ele>
        <time>2021-08-15T07:32:56.000Z</time>
      </trkpt>
      <trkpt lat="47.51023" lon="-2.36887">
        <ele>22.799999237061</ele>
        <time>2021-08-15T07:32:57.000Z</time>
      </trkpt>
      <trkpt lat="47.51024" lon="-2.36883">
        <ele>23.200000762939</ele>
        <time>2021-08-15T07:32:58.000Z</time>
      </trkpt>
      <trkpt lat="47.51026" lon="-2.36874">
        <ele>23.799999237061</ele>
        <time>2021-08-15T07:33:01.000Z</time>
      </trkpt>
      <trkpt lat="47.51026" lon="-2.36871">
        <ele>24.200000762939</ele>
        <time>2021-08-15T07:33:02.000Z</time>
      </trkpt>
      <trkpt lat="47.51026" lon="-2.36868">
        <ele>24.60000038147</ele>
        <time>2021-08-15T07:33:03.000Z</time>
      </trkpt>
      <trkpt lat="47.51027" lon="-2.36865">
        <ele>25.200000762939</ele>
        <time>2021-08-15T07:33:04.000Z</time>
      </trkpt>
      <trkpt lat="47.51027" lon="-2.36862">
        <ele>25.60000038147</ele>
        <time>2021-08-15T07:33:05.000Z</time>
      </trkpt>
      <trkpt lat="47.51029" lon="-2.36856">
        <ele>25.60000038147</ele>
        <time>2021-08-15T07:33:07.000Z</time>
      </trkpt>
      <trkpt lat="47.5103" lon="-2.36853">
        <ele>26</ele>
        <time>2021-08-15T07:33:08.000Z</time>
      </trkpt>
      <trkpt lat="47.51031" lon="-2.3685">
        <ele>26.39999961853</ele>
        <time>2021-08-15T07:33:09.000Z</time>
      </trkpt>
      <trkpt lat="47.51032" lon="-2.36847">
        <ele>27</ele>
        <time>2021-08-15T07:33:10.000Z</time>
      </trkpt>
      <trkpt lat="47.51033" lon="-2.36844">
        <ele>27.39999961853</ele>
        <time>2021-08-15T07:33:11.000Z</time>
      </trkpt>
      <trkpt lat="47.51034" lon="-2.3684">
        <ele>27.799999237061</ele>
        <time>2021-08-15T07:33:12.000Z</time>
      </trkpt>
      <trkpt lat="47.51034" lon="-2.36837">
        <ele>27.799999237061</ele>
        <time>2021-08-15T07:33:13.000Z</time>
      </trkpt>
      <trkpt lat="47.51036" lon="-2.36829">
        <ele>28.200000762939</ele>
        <time>2021-08-15T07:33:16.000Z</time>
      </trkpt>
      <trkpt lat="47.51037" lon="-2.36826">
        <ele>28.60000038147</ele>
        <time>2021-08-15T07:33:17.000Z</time>
      </trkpt>
      <trkpt lat="47.51037" lon="-2.36824">
        <ele>29.39999961853</ele>
        <time>2021-08-15T07:33:18.000Z</time>
      </trkpt>
      <trkpt lat="47.51038" lon="-2.36821">
        <ele>29.799999237061</ele>
        <time>2021-08-15T07:33:19.000Z</time>
      </trkpt>
      <trkpt lat="47.51041" lon="-2.36815">
        <ele>29.799999237061</ele>
        <time>2021-08-15T07:33:21.000Z</time>
      </trkpt>
      <trkpt lat="47.51042" lon="-2.3681">
        <ele>30.200000762939</ele>
        <time>2021-08-15T07:33:23.000Z</time>
      </trkpt>
      <trkpt lat="47.51043" lon="-2.36806">
        <ele>30.60000038147</ele>
        <time>2021-08-15T07:33:24.000Z</time>
      </trkpt>
      <trkpt lat="47.51044" lon="-2.36803">
        <ele>31.200000762939</ele>
        <time>2021-08-15T07:33:25.000Z</time>
      </trkpt>
      <trkpt lat="47.51045" lon="-2.368">
        <ele>31.60000038147</ele>
        <time>2021-08-15T07:33:26.000Z</time>
      </trkpt>
      <trkpt lat="47.51046" lon="-2.36798">
        <ele>32</ele>
        <time>2021-08-15T07:33:27.000Z</time>
      </trkpt>
      <trkpt lat="47.51046" lon="-2.36795">
        <ele>32</ele>
        <time>2021-08-15T07:33:28.000Z</time>
      </trkpt>
      <trkpt lat="47.51049" lon="-2.36786">
        <ele>32.400001525879</ele>
        <time>2021-08-15T07:33:31.000Z</time>
      </trkpt>
      <trkpt lat="47.5105" lon="-2.36783">
        <ele>32.799999237061</ele>
        <time>2021-08-15T07:33:32.000Z</time>
      </trkpt>
      <trkpt lat="47.51051" lon="-2.3678">
        <ele>33.400001525879</ele>
        <time>2021-08-15T07:33:33.000Z</time>
      </trkpt>
      <trkpt lat="47.51052" lon="-2.36776">
        <ele>33.799999237061</ele>
        <time>2021-08-15T07:33:34.000Z</time>
      </trkpt>
      <trkpt lat="47.51053" lon="-2.36772">
        <ele>34.200000762939</ele>
        <time>2021-08-15T07:33:35.000Z</time>
      </trkpt>
      <trkpt lat="47.51054" lon="-2.36769">
        <ele>34.200000762939</ele>
        <time>2021-08-15T07:33:36.000Z</time>
      </trkpt>
      <trkpt lat="47.51057" lon="-2.36757">
        <ele>34.599998474121</ele>
        <time>2021-08-15T07:33:40.000Z</time>
      </trkpt>
      <trkpt lat="47.51058" lon="-2.36754">
        <ele>35</ele>
        <time>2021-08-15T07:33:41.000Z</time>
      </trkpt>
      <trkpt lat="47.5106" lon="-2.36751">
        <ele>35.400001525879</ele>
        <time>2021-08-15T07:33:42.000Z</time>
      </trkpt>
      <trkpt lat="47.51061" lon="-2.36747">
        <ele>36.200000762939</ele>
        <time>2021-08-15T07:33:43.000Z</time>
      </trkpt>
      <trkpt lat="47.51069" lon="-2.36721">
        <ele>36.200000762939</ele>
        <time>2021-08-15T07:33:50.000Z</time>
      </trkpt>
      <trkpt lat="47.51076" lon="-2.36699">
        <ele>36.599998474121</ele>
        <time>2021-08-15T07:33:56.000Z</time>
      </trkpt>
      <trkpt lat="47.51078" lon="-2.36694">
        <ele>37.200000762939</ele>
        <time>2021-08-15T07:33:57.000Z</time>
      </trkpt>
      <trkpt lat="47.51079" lon="-2.3669">
        <ele>37.599998474121</ele>
        <time>2021-08-15T07:33:58.000Z</time>
      </trkpt>
      <trkpt lat="47.51081" lon="-2.36685">
        <ele>38</ele>
        <time>2021-08-15T07:33:59.000Z</time>
      </trkpt>
      <trkpt lat="47.51083" lon="-2.36681">
        <ele>38.400001525879</ele>
        <time>2021-08-15T07:34:00.000Z</time>
      </trkpt>
      <trkpt lat="47.51087" lon="-2.36665">
        <ele>38.400001525879</ele>
        <time>2021-08-15T07:34:04.000Z</time>
      </trkpt>
      <trkpt lat="47.51093" lon="-2.36644">
        <ele>38.400001525879</ele>
        <time>2021-08-15T07:34:09.000Z</time>
      </trkpt>
      <trkpt lat="47.511" lon="-2.36633">
        <ele>38.400001525879</ele>
        <time>2021-08-15T07:34:13.000Z</time>
      </trkpt>
      <trkpt lat="47.51103" lon="-2.36633">
        <ele>38.400001525879</ele>
        <time>2021-08-15T07:34:14.000Z</time>
      </trkpt>
      <trkpt lat="47.51118" lon="-2.36635">
        <ele>38.400001525879</ele>
        <time>2021-08-15T07:34:20.000Z</time>
      </trkpt>
      <trkpt lat="47.51122" lon="-2.36633">
        <ele>38.400001525879</ele>
        <time>2021-08-15T07:34:24.000Z</time>
      </trkpt>
      <trkpt lat="47.51127" lon="-2.36633">
        <ele>38.400001525879</ele>
        <time>2021-08-15T07:35:18.000Z</time>
      </trkpt>
      <trkpt lat="47.51142" lon="-2.36634">
        <ele>38.400001525879</ele>
        <time>2021-08-15T07:35:24.000Z</time>
      </trkpt>
      <trkpt lat="47.51159" lon="-2.36634">
        <ele>38.400001525879</ele>
        <time>2021-08-15T07:35:30.000Z</time>
      </trkpt>
      <trkpt lat="47.51177" lon="-2.36629">
        <ele>38.400001525879</ele>
        <time>2021-08-15T07:35:36.000Z</time>
      </trkpt>
      <trkpt lat="47.51186" lon="-2.36612">
        <ele>38.400001525879</ele>
        <time>2021-08-15T07:35:41.000Z</time>
      </trkpt>
      <trkpt lat="47.51192" lon="-2.36585">
        <ele>38.400001525879</ele>
        <time>2021-08-15T07:35:46.000Z</time>
      </trkpt>
      <trkpt lat="47.51199" lon="-2.36538">
        <ele>38.400001525879</ele>
        <time>2021-08-15T07:35:54.000Z</time>
      </trkpt>
      <trkpt lat="47.51204" lon="-2.36531">
        <ele>38.400001525879</ele>
        <time>2021-08-15T07:35:56.000Z</time>
      </trkpt>
      <trkpt lat="47.51207" lon="-2.3653">
        <ele>38.400001525879</ele>
        <time>2021-08-15T07:35:57.000Z</time>
      </trkpt>
      <trkpt lat="47.51227" lon="-2.36535">
        <ele>38.400001525879</ele>
        <time>2021-08-15T07:36:01.000Z</time>
      </trkpt>
      <trkpt lat="47.51258" lon="-2.36546">
        <ele>38.799999237061</ele>
        <time>2021-08-15T07:36:08.000Z</time>
      </trkpt>
      <trkpt lat="47.51263" lon="-2.36548">
        <ele>39.200000762939</ele>
        <time>2021-08-15T07:36:09.000Z</time>
      </trkpt>
      <trkpt lat="47.51266" lon="-2.3655">
        <ele>39.599998474121</ele>
        <time>2021-08-15T07:36:10.000Z</time>
      </trkpt>
      <trkpt lat="47.5127" lon="-2.36552">
        <ele>40</ele>
        <time>2021-08-15T07:36:11.000Z</time>
      </trkpt>
      <trkpt lat="47.51274" lon="-2.36554">
        <ele>40.400001525879</ele>
        <time>2021-08-15T07:36:12.000Z</time>
      </trkpt>
      <trkpt lat="47.5129" lon="-2.36559">
        <ele>40.400001525879</ele>
        <time>2021-08-15T07:36:16.000Z</time>
      </trkpt>
      <trkpt lat="47.51321" lon="-2.36569">
        <ele>40.400001525879</ele>
        <time>2021-08-15T07:36:24.000Z</time>
      </trkpt>
      <trkpt lat="47.51329" lon="-2.36571">
        <ele>40.799999237061</ele>
        <time>2021-08-15T07:36:26.000Z</time>
      </trkpt>
      <trkpt lat="47.51332" lon="-2.36572">
        <ele>41.200000762939</ele>
        <time>2021-08-15T07:36:27.000Z</time>
      </trkpt>
      <trkpt lat="47.51336" lon="-2.36573">
        <ele>41.599998474121</ele>
        <time>2021-08-15T07:36:28.000Z</time>
      </trkpt>
      <trkpt lat="47.5134" lon="-2.36574">
        <ele>42</ele>
        <time>2021-08-15T07:36:29.000Z</time>
      </trkpt>
      <trkpt lat="47.51344" lon="-2.36575">
        <ele>42.400001525879</ele>
        <time>2021-08-15T07:36:30.000Z</time>
      </trkpt>
      <trkpt lat="47.51368" lon="-2.36582">
        <ele>42.400001525879</ele>
        <time>2021-08-15T07:36:36.000Z</time>
      </trkpt>
      <trkpt lat="47.51398" lon="-2.36592">
        <ele>42.799999237061</ele>
        <time>2021-08-15T07:36:43.000Z</time>
      </trkpt>
      <trkpt lat="47.51403" lon="-2.36594">
        <ele>43.200000762939</ele>
        <time>2021-08-15T07:36:44.000Z</time>
      </trkpt>
      <trkpt lat="47.51407" lon="-2.36595">
        <ele>43.599998474121</ele>
        <time>2021-08-15T07:36:45.000Z</time>
      </trkpt>
      <trkpt lat="47.51411" lon="-2.36595">
        <ele>44</ele>
        <time>2021-08-15T07:36:46.000Z</time>
      </trkpt>
      <trkpt lat="47.51416" lon="-2.36597">
        <ele>44.599998474121</ele>
        <time>2021-08-15T07:36:47.000Z</time>
      </trkpt>
      <trkpt lat="47.51424" lon="-2.366">
        <ele>44.599998474121</ele>
        <time>2021-08-15T07:36:49.000Z</time>
      </trkpt>
      <trkpt lat="47.51445" lon="-2.36607">
        <ele>44.599998474121</ele>
        <time>2021-08-15T07:36:55.000Z</time>
      </trkpt>
      <trkpt lat="47.5146" lon="-2.36616">
        <ele>44.599998474121</ele>
        <time>2021-08-15T07:37:01.000Z</time>
      </trkpt>
      <trkpt lat="47.5148" lon="-2.36621">
        <ele>44.599998474121</ele>
        <time>2021-08-15T07:37:06.000Z</time>
      </trkpt>
      <trkpt lat="47.51499" lon="-2.36627">
        <ele>45</ele>
        <time>2021-08-15T07:37:11.000Z</time>
      </trkpt>
      <trkpt lat="47.51503" lon="-2.36627">
        <ele>45.400001525879</ele>
        <time>2021-08-15T07:37:12.000Z</time>
      </trkpt>
      <trkpt lat="47.51506" lon="-2.36627">
        <ele>45.799999237061</ele>
        <time>2021-08-15T07:37:13.000Z</time>
      </trkpt>
      <trkpt lat="47.51511" lon="-2.36627">
        <ele>46.200000762939</ele>
        <time>2021-08-15T07:37:14.000Z</time>
      </trkpt>
      <trkpt lat="47.51515" lon="-2.36628">
        <ele>46.599998474121</ele>
        <time>2021-08-15T07:37:15.000Z</time>
      </trkpt>
      <trkpt lat="47.5153" lon="-2.36632">
        <ele>46.599998474121</ele>
        <time>2021-08-15T07:37:19.000Z</time>
      </trkpt>
      <trkpt lat="47.51558" lon="-2.36641">
        <ele>46.599998474121</ele>
        <time>2021-08-15T07:37:26.000Z</time>
      </trkpt>
      <trkpt lat="47.51581" lon="-2.36652">
        <ele>46.599998474121</ele>
        <time>2021-08-15T07:37:31.000Z</time>
      </trkpt>
      <trkpt lat="47.51585" lon="-2.36654">
        <ele>46.599998474121</ele>
        <time>2021-08-15T07:37:32.000Z</time>
      </trkpt>
      <trkpt lat="47.5159" lon="-2.36656">
        <ele>46.599998474121</ele>
        <time>2021-08-15T07:37:33.000Z</time>
      </trkpt>
      <trkpt lat="47.51614" lon="-2.36668">
        <ele>46.599998474121</ele>
        <time>2021-08-15T07:37:38.000Z</time>
      </trkpt>
      <trkpt lat="47.51642" lon="-2.36695">
        <ele>46.599998474121</ele>
        <time>2021-08-15T07:37:45.000Z</time>
      </trkpt>
      <trkpt lat="47.51653" lon="-2.36701">
        <ele>46.599998474121</ele>
        <time>2021-08-15T07:37:48.000Z</time>
      </trkpt>
      <trkpt lat="47.51657" lon="-2.36699">
        <ele>46.599998474121</ele>
        <time>2021-08-15T07:37:49.000Z</time>
      </trkpt>
      <trkpt lat="47.51661" lon="-2.36697">
        <ele>47</ele>
        <time>2021-08-15T07:37:50.000Z</time>
      </trkpt>
      <trkpt lat="47.51665" lon="-2.36695">
        <ele>47.400001525879</ele>
        <time>2021-08-15T07:37:51.000Z</time>
      </trkpt>
      <trkpt lat="47.51669" lon="-2.36694">
        <ele>48.200000762939</ele>
        <time>2021-08-15T07:37:52.000Z</time>
      </trkpt>
      <trkpt lat="47.51673" lon="-2.36693">
        <ele>48.599998474121</ele>
        <time>2021-08-15T07:37:53.000Z</time>
      </trkpt>
      <trkpt lat="47.51692" lon="-2.367">
        <ele>48.599998474121</ele>
        <time>2021-08-15T07:37:57.000Z</time>
      </trkpt>
      <trkpt lat="47.51732" lon="-2.36713">
        <ele>48.599998474121</ele>
        <time>2021-08-15T07:38:05.000Z</time>
      </trkpt>
      <trkpt lat="47.51767" lon="-2.36725">
        <ele>48.599998474121</ele>
        <time>2021-08-15T07:38:13.000Z</time>
      </trkpt>
      <trkpt lat="47.5178" lon="-2.36737">
        <ele>48.599998474121</ele>
        <time>2021-08-15T07:38:18.000Z</time>
      </trkpt>
      <trkpt lat="47.51781" lon="-2.36748">
        <ele>48.599998474121</ele>
        <time>2021-08-15T07:38:20.000Z</time>
      </trkpt>
      <trkpt lat="47.5178" lon="-2.36754">
        <ele>48.599998474121</ele>
        <time>2021-08-15T07:38:21.000Z</time>
      </trkpt>
      <trkpt lat="47.51774" lon="-2.36812">
        <ele>48.599998474121</ele>
        <time>2021-08-15T07:38:29.000Z</time>
      </trkpt>
      <trkpt lat="47.51769" lon="-2.36874">
        <ele>48.599998474121</ele>
        <time>2021-08-15T07:38:36.000Z</time>
      </trkpt>
      <trkpt lat="47.51767" lon="-2.36906">
        <ele>48.599998474121</ele>
        <time>2021-08-15T07:38:40.000Z</time>
      </trkpt>
      <trkpt lat="47.51773" lon="-2.36925">
        <ele>48.599998474121</ele>
        <time>2021-08-15T07:38:43.000Z</time>
      </trkpt>
      <trkpt lat="47.5178" lon="-2.36944">
        <ele>48.599998474121</ele>
        <time>2021-08-15T07:38:46.000Z</time>
      </trkpt>
      <trkpt lat="47.51788" lon="-2.36961">
        <ele>48.599998474121</ele>
        <time>2021-08-15T07:38:50.000Z</time>
      </trkpt>
      <trkpt lat="47.51807" lon="-2.37002">
        <ele>48.599998474121</ele>
        <time>2021-08-15T07:38:57.000Z</time>
      </trkpt>
      <trkpt lat="47.51829" lon="-2.37053">
        <ele>48.599998474121</ele>
        <time>2021-08-15T07:39:05.000Z</time>
      </trkpt>
      <trkpt lat="47.51853" lon="-2.3711">
        <ele>48.599998474121</ele>
        <time>2021-08-15T07:39:14.000Z</time>
      </trkpt>
      <trkpt lat="47.51867" lon="-2.37141">
        <ele>49.200000762939</ele>
        <time>2021-08-15T07:39:19.000Z</time>
      </trkpt>
      <trkpt lat="47.5187" lon="-2.37147">
        <ele>49.599998474121</ele>
        <time>2021-08-15T07:39:20.000Z</time>
      </trkpt>
      <trkpt lat="47.51873" lon="-2.37153">
        <ele>50</ele>
        <time>2021-08-15T07:39:21.000Z</time>
      </trkpt>
      <trkpt lat="47.51877" lon="-2.37159">
        <ele>50.400001525879</ele>
        <time>2021-08-15T07:39:22.000Z</time>
      </trkpt>
      <trkpt lat="47.5188" lon="-2.37165">
        <ele>50.799999237061</ele>
        <time>2021-08-15T07:39:23.000Z</time>
      </trkpt>
      <trkpt lat="47.51893" lon="-2.37191">
        <ele>50.799999237061</ele>
        <time>2021-08-15T07:39:28.000Z</time>
      </trkpt>
      <trkpt lat="47.51901" lon="-2.37206">
        <ele>50.799999237061</ele>
        <time>2021-08-15T07:39:31.000Z</time>
      </trkpt>
      <trkpt lat="47.51908" lon="-2.37225">
        <ele>50.799999237061</ele>
        <time>2021-08-15T07:39:34.000Z</time>
      </trkpt>
      <trkpt lat="47.51917" lon="-2.37226">
        <ele>50.799999237061</ele>
        <time>2021-08-15T07:39:36.000Z</time>
      </trkpt>
      <trkpt lat="47.51931" lon="-2.37213">
        <ele>50.799999237061</ele>
        <time>2021-08-15T07:39:40.000Z</time>
      </trkpt>
      <trkpt lat="47.51938" lon="-2.37201">
        <ele>50.799999237061</ele>
        <time>2021-08-15T07:39:42.000Z</time>
      </trkpt>
      <trkpt lat="47.51945" lon="-2.3719">
        <ele>50.799999237061</ele>
        <time>2021-08-15T07:39:44.000Z</time>
      </trkpt>
      <trkpt lat="47.51948" lon="-2.37183">
        <ele>50.799999237061</ele>
        <time>2021-08-15T07:39:45.000Z</time>
      </trkpt>
      <trkpt lat="47.51954" lon="-2.3717">
        <ele>50.799999237061</ele>
        <time>2021-08-15T07:39:47.000Z</time>
      </trkpt>
      <trkpt lat="47.5197" lon="-2.37145">
        <ele>50.799999237061</ele>
        <time>2021-08-15T07:39:51.000Z</time>
      </trkpt>
      <trkpt lat="47.51999" lon="-2.37101">
        <ele>50.799999237061</ele>
        <time>2021-08-15T07:39:58.000Z</time>
      </trkpt>
      <trkpt lat="47.52031" lon="-2.37058">
        <ele>50.799999237061</ele>
        <time>2021-08-15T07:40:05.000Z</time>
      </trkpt>
      <trkpt lat="47.52044" lon="-2.37042">
        <ele>50.799999237061</ele>
        <time>2021-08-15T07:40:08.000Z</time>
      </trkpt>
      <trkpt lat="47.52057" lon="-2.37024">
        <ele>50.799999237061</ele>
        <time>2021-08-15T07:40:11.000Z</time>
      </trkpt>
      <trkpt lat="47.52093" lon="-2.36974">
        <ele>50.799999237061</ele>
        <time>2021-08-15T07:40:19.000Z</time>
      </trkpt>
      <trkpt lat="47.52122" lon="-2.36946">
        <ele>50.400001525879</ele>
        <time>2021-08-15T07:40:24.000Z</time>
      </trkpt>
      <trkpt lat="47.52129" lon="-2.36941">
        <ele>50</ele>
        <time>2021-08-15T07:40:25.000Z</time>
      </trkpt>
      <trkpt lat="47.52135" lon="-2.36936">
        <ele>49.400001525879</ele>
        <time>2021-08-15T07:40:26.000Z</time>
      </trkpt>
      <trkpt lat="47.52142" lon="-2.3693">
        <ele>49</ele>
        <time>2021-08-15T07:40:27.000Z</time>
      </trkpt>
      <trkpt lat="47.52148" lon="-2.36925">
        <ele>48.599998474121</ele>
        <time>2021-08-15T07:40:28.000Z</time>
      </trkpt>
      <trkpt lat="47.52161" lon="-2.36913">
        <ele>48.599998474121</ele>
        <time>2021-08-15T07:40:30.000Z</time>
      </trkpt>
      <trkpt lat="47.52212" lon="-2.36871">
        <ele>48.599998474121</ele>
        <time>2021-08-15T07:40:38.000Z</time>
      </trkpt>
      <trkpt lat="47.52229" lon="-2.36856">
        <ele>48.200000762939</ele>
        <time>2021-08-15T07:40:41.000Z</time>
      </trkpt>
      <trkpt lat="47.52235" lon="-2.36851">
        <ele>47.799999237061</ele>
        <time>2021-08-15T07:40:42.000Z</time>
      </trkpt>
      <trkpt lat="47.52241" lon="-2.36845">
        <ele>47.400001525879</ele>
        <time>2021-08-15T07:40:43.000Z</time>
      </trkpt>
      <trkpt lat="47.52247" lon="-2.3684">
        <ele>46.799999237061</ele>
        <time>2021-08-15T07:40:44.000Z</time>
      </trkpt>
      <trkpt lat="47.52252" lon="-2.36834">
        <ele>46.400001525879</ele>
        <time>2021-08-15T07:40:45.000Z</time>
      </trkpt>
      <trkpt lat="47.523" lon="-2.36793">
        <ele>46.400001525879</ele>
        <time>2021-08-15T07:40:53.000Z</time>
      </trkpt>
      <trkpt lat="47.52306" lon="-2.36789">
        <ele>46.400001525879</ele>
        <time>2021-08-15T07:40:54.000Z</time>
      </trkpt>
      <trkpt lat="47.52336" lon="-2.36773">
        <ele>46.400001525879</ele>
        <time>2021-08-15T07:40:59.000Z</time>
      </trkpt>
      <trkpt lat="47.52341" lon="-2.36768">
        <ele>46.400001525879</ele>
        <time>2021-08-15T07:41:00.000Z</time>
      </trkpt>
      <trkpt lat="47.52346" lon="-2.36762">
        <ele>46</ele>
        <time>2021-08-15T07:41:01.000Z</time>
      </trkpt>
      <trkpt lat="47.52349" lon="-2.36755">
        <ele>45.599998474121</ele>
        <time>2021-08-15T07:41:02.000Z</time>
      </trkpt>
      <trkpt lat="47.52352" lon="-2.36746">
        <ele>45.200000762939</ele>
        <time>2021-08-15T07:41:03.000Z</time>
      </trkpt>
      <trkpt lat="47.52354" lon="-2.36737">
        <ele>44.799999237061</ele>
        <time>2021-08-15T07:41:04.000Z</time>
      </trkpt>
      <trkpt lat="47.52355" lon="-2.36728">
        <ele>44.200000762939</ele>
        <time>2021-08-15T07:41:05.000Z</time>
      </trkpt>
      <trkpt lat="47.52356" lon="-2.36718">
        <ele>44.200000762939</ele>
        <time>2021-08-15T07:41:06.000Z</time>
      </trkpt>
      <trkpt lat="47.52362" lon="-2.36689">
        <ele>43.799999237061</ele>
        <time>2021-08-15T07:41:09.000Z</time>
      </trkpt>
      <trkpt lat="47.52364" lon="-2.3668">
        <ele>43.400001525879</ele>
        <time>2021-08-15T07:41:10.000Z</time>
      </trkpt>
      <trkpt lat="47.52367" lon="-2.36672">
        <ele>43</ele>
        <time>2021-08-15T07:41:11.000Z</time>
      </trkpt>
      <trkpt lat="47.5237" lon="-2.36664">
        <ele>42.599998474121</ele>
        <time>2021-08-15T07:41:12.000Z</time>
      </trkpt>
      <trkpt lat="47.52374" lon="-2.36655">
        <ele>42</ele>
        <time>2021-08-15T07:41:13.000Z</time>
      </trkpt>
      <trkpt lat="47.52384" lon="-2.36639">
        <ele>42</ele>
        <time>2021-08-15T07:41:15.000Z</time>
      </trkpt>
      <trkpt lat="47.52401" lon="-2.36609">
        <ele>42</ele>
        <time>2021-08-15T07:41:19.000Z</time>
      </trkpt>
      <trkpt lat="47.52433" lon="-2.36553">
        <ele>42</ele>
        <time>2021-08-15T07:41:26.000Z</time>
      </trkpt>
      <trkpt lat="47.52444" lon="-2.36528">
        <ele>42</ele>
        <time>2021-08-15T07:41:29.000Z</time>
      </trkpt>
      <trkpt lat="47.52447" lon="-2.3651">
        <ele>42</ele>
        <time>2021-08-15T07:41:31.000Z</time>
      </trkpt>
      <trkpt lat="47.52453" lon="-2.36461">
        <ele>42</ele>
        <time>2021-08-15T07:41:37.000Z</time>
      </trkpt>
      <trkpt lat="47.52456" lon="-2.36438">
        <ele>42</ele>
        <time>2021-08-15T07:41:40.000Z</time>
      </trkpt>
      <trkpt lat="47.52459" lon="-2.36424">
        <ele>42</ele>
        <time>2021-08-15T07:41:42.000Z</time>
      </trkpt>
      <trkpt lat="47.52462" lon="-2.36409">
        <ele>42.599998474121</ele>
        <time>2021-08-15T07:41:44.000Z</time>
      </trkpt>
      <trkpt lat="47.52463" lon="-2.36403">
        <ele>43</ele>
        <time>2021-08-15T07:41:45.000Z</time>
      </trkpt>
      <trkpt lat="47.52464" lon="-2.36396">
        <ele>43.400001525879</ele>
        <time>2021-08-15T07:41:46.000Z</time>
      </trkpt>
      <trkpt lat="47.52466" lon="-2.36389">
        <ele>43.799999237061</ele>
        <time>2021-08-15T07:41:47.000Z</time>
      </trkpt>
      <trkpt lat="47.52468" lon="-2.36383">
        <ele>44.200000762939</ele>
        <time>2021-08-15T07:41:48.000Z</time>
      </trkpt>
      <trkpt lat="47.52471" lon="-2.36369">
        <ele>44.200000762939</ele>
        <time>2021-08-15T07:41:50.000Z</time>
      </trkpt>
      <trkpt lat="47.52472" lon="-2.36354">
        <ele>44.799999237061</ele>
        <time>2021-08-15T07:41:52.000Z</time>
      </trkpt>
      <trkpt lat="47.52472" lon="-2.36347">
        <ele>45.200000762939</ele>
        <time>2021-08-15T07:41:53.000Z</time>
      </trkpt>
      <trkpt lat="47.52471" lon="-2.3634">
        <ele>45.599998474121</ele>
        <time>2021-08-15T07:41:54.000Z</time>
      </trkpt>
      <trkpt lat="47.5247" lon="-2.36333">
        <ele>46</ele>
        <time>2021-08-15T07:41:55.000Z</time>
      </trkpt>
      <trkpt lat="47.52468" lon="-2.36327">
        <ele>46.400001525879</ele>
        <time>2021-08-15T07:41:56.000Z</time>
      </trkpt>
      <trkpt lat="47.52465" lon="-2.36314">
        <ele>46.400001525879</ele>
        <time>2021-08-15T07:41:58.000Z</time>
      </trkpt>
      <trkpt lat="47.52466" lon="-2.36301">
        <ele>46.400001525879</ele>
        <time>2021-08-15T07:42:01.000Z</time>
      </trkpt>
      <trkpt lat="47.52477" lon="-2.36293">
        <ele>46.400001525879</ele>
        <time>2021-08-15T07:42:04.000Z</time>
      </trkpt>
      <trkpt lat="47.52481" lon="-2.36293">
        <ele>46.400001525879</ele>
        <time>2021-08-15T07:42:05.000Z</time>
      </trkpt>
      <trkpt lat="47.52485" lon="-2.3629">
        <ele>46.400001525879</ele>
        <time>2021-08-15T07:42:06.000Z</time>
      </trkpt>
      <trkpt lat="47.52497" lon="-2.36279">
        <ele>46.400001525879</ele>
        <time>2021-08-15T07:42:09.000Z</time>
      </trkpt>
      <trkpt lat="47.52507" lon="-2.36264">
        <ele>46.400001525879</ele>
        <time>2021-08-15T07:42:12.000Z</time>
      </trkpt>
      <trkpt lat="47.52513" lon="-2.36254">
        <ele>46</ele>
        <time>2021-08-15T07:42:14.000Z</time>
      </trkpt>
      <trkpt lat="47.52516" lon="-2.36248">
        <ele>45.599998474121</ele>
        <time>2021-08-15T07:42:15.000Z</time>
      </trkpt>
      <trkpt lat="47.5252" lon="-2.36242">
        <ele>45</ele>
        <time>2021-08-15T07:42:16.000Z</time>
      </trkpt>
      <trkpt lat="47.52524" lon="-2.36236">
        <ele>44.599998474121</ele>
        <time>2021-08-15T07:42:17.000Z</time>
      </trkpt>
      <trkpt lat="47.52528" lon="-2.3623">
        <ele>44.200000762939</ele>
        <time>2021-08-15T07:42:18.000Z</time>
      </trkpt>
      <trkpt lat="47.52533" lon="-2.36223">
        <ele>43.599998474121</ele>
        <time>2021-08-15T07:42:19.000Z</time>
      </trkpt>
      <trkpt lat="47.52537" lon="-2.36216">
        <ele>43.200000762939</ele>
        <time>2021-08-15T07:42:20.000Z</time>
      </trkpt>
      <trkpt lat="47.52542" lon="-2.36208">
        <ele>42.799999237061</ele>
        <time>2021-08-15T07:42:21.000Z</time>
      </trkpt>
      <trkpt lat="47.52546" lon="-2.362">
        <ele>42.400001525879</ele>
        <time>2021-08-15T07:42:22.000Z</time>
      </trkpt>
      <trkpt lat="47.52549" lon="-2.36191">
        <ele>41.799999237061</ele>
        <time>2021-08-15T07:42:23.000Z</time>
      </trkpt>
      <trkpt lat="47.52552" lon="-2.36182">
        <ele>40.799999237061</ele>
        <time>2021-08-15T07:42:24.000Z</time>
      </trkpt>
      <trkpt lat="47.52554" lon="-2.36172">
        <ele>40.200000762939</ele>
        <time>2021-08-15T07:42:25.000Z</time>
      </trkpt>
      <trkpt lat="47.52556" lon="-2.36163">
        <ele>39.599998474121</ele>
        <time>2021-08-15T07:42:26.000Z</time>
      </trkpt>
      <trkpt lat="47.52565" lon="-2.36126">
        <ele>39.200000762939</ele>
        <time>2021-08-15T07:42:30.000Z</time>
      </trkpt>
      <trkpt lat="47.52567" lon="-2.36117">
        <ele>38.799999237061</ele>
        <time>2021-08-15T07:42:31.000Z</time>
      </trkpt>
      <trkpt lat="47.5257" lon="-2.36108">
        <ele>38.400001525879</ele>
        <time>2021-08-15T07:42:32.000Z</time>
      </trkpt>
      <trkpt lat="47.52572" lon="-2.36098">
        <ele>38</ele>
        <time>2021-08-15T07:42:33.000Z</time>
      </trkpt>
      <trkpt lat="47.52575" lon="-2.36089">
        <ele>37.599998474121</ele>
        <time>2021-08-15T07:42:34.000Z</time>
      </trkpt>
      <trkpt lat="47.52585" lon="-2.36042">
        <ele>37</ele>
        <time>2021-08-15T07:42:39.000Z</time>
      </trkpt>
      <trkpt lat="47.52586" lon="-2.36033">
        <ele>36.599998474121</ele>
        <time>2021-08-15T07:42:40.000Z</time>
      </trkpt>
      <trkpt lat="47.52587" lon="-2.36023">
        <ele>36.200000762939</ele>
        <time>2021-08-15T07:42:41.000Z</time>
      </trkpt>
      <trkpt lat="47.52587" lon="-2.36014">
        <ele>35.799999237061</ele>
        <time>2021-08-15T07:42:42.000Z</time>
      </trkpt>
      <trkpt lat="47.52587" lon="-2.36005">
        <ele>35.400001525879</ele>
        <time>2021-08-15T07:42:43.000Z</time>
      </trkpt>
      <trkpt lat="47.52587" lon="-2.35987">
        <ele>35.400001525879</ele>
        <time>2021-08-15T07:42:45.000Z</time>
      </trkpt>
      <trkpt lat="47.52583" lon="-2.35955">
        <ele>35</ele>
        <time>2021-08-15T07:42:49.000Z</time>
      </trkpt>
      <trkpt lat="47.52581" lon="-2.35949">
        <ele>34.599998474121</ele>
        <time>2021-08-15T07:42:50.000Z</time>
      </trkpt>
      <trkpt lat="47.52579" lon="-2.35944">
        <ele>34.200000762939</ele>
        <time>2021-08-15T07:42:51.000Z</time>
      </trkpt>
      <trkpt lat="47.52576" lon="-2.3594">
        <ele>33.799999237061</ele>
        <time>2021-08-15T07:42:52.000Z</time>
      </trkpt>
      <trkpt lat="47.52572" lon="-2.35937">
        <ele>33.400001525879</ele>
        <time>2021-08-15T07:42:53.000Z</time>
      </trkpt>
      <trkpt lat="47.52567" lon="-2.35928">
        <ele>33.400001525879</ele>
        <time>2021-08-15T07:42:55.000Z</time>
      </trkpt>
      <trkpt lat="47.52568" lon="-2.35921">
        <ele>33</ele>
        <time>2021-08-15T07:42:56.000Z</time>
      </trkpt>
      <trkpt lat="47.52569" lon="-2.35915">
        <ele>32.599998474121</ele>
        <time>2021-08-15T07:42:57.000Z</time>
      </trkpt>
      <trkpt lat="47.52571" lon="-2.3591">
        <ele>32.200000762939</ele>
        <time>2021-08-15T07:42:58.000Z</time>
      </trkpt>
      <trkpt lat="47.52574" lon="-2.35903">
        <ele>31.799999237061</ele>
        <time>2021-08-15T07:42:59.000Z</time>
      </trkpt>
      <trkpt lat="47.52576" lon="-2.35896">
        <ele>31.39999961853</ele>
        <time>2021-08-15T07:43:00.000Z</time>
      </trkpt>
      <trkpt lat="47.52579" lon="-2.35889">
        <ele>30.799999237061</ele>
        <time>2021-08-15T07:43:01.000Z</time>
      </trkpt>
      <trkpt lat="47.52583" lon="-2.35881">
        <ele>30.200000762939</ele>
        <time>2021-08-15T07:43:02.000Z</time>
      </trkpt>
      <trkpt lat="47.52586" lon="-2.35874">
        <ele>29.799999237061</ele>
        <time>2021-08-15T07:43:03.000Z</time>
      </trkpt>
      <trkpt lat="47.5259" lon="-2.35867">
        <ele>29</ele>
        <time>2021-08-15T07:43:04.000Z</time>
      </trkpt>
      <trkpt lat="47.52594" lon="-2.35861">
        <ele>28.39999961853</ele>
        <time>2021-08-15T07:43:05.000Z</time>
      </trkpt>
      <trkpt lat="47.52598" lon="-2.35856">
        <ele>27.39999961853</ele>
        <time>2021-08-15T07:43:06.000Z</time>
      </trkpt>
      <trkpt lat="47.52601" lon="-2.35851">
        <ele>26.60000038147</ele>
        <time>2021-08-15T07:43:07.000Z</time>
      </trkpt>
      <trkpt lat="47.52604" lon="-2.35848">
        <ele>25.60000038147</ele>
        <time>2021-08-15T07:43:08.000Z</time>
      </trkpt>
      <trkpt lat="47.52607" lon="-2.35845">
        <ele>24.799999237061</ele>
        <time>2021-08-15T07:43:09.000Z</time>
      </trkpt>
      <trkpt lat="47.52611" lon="-2.35843">
        <ele>24.200000762939</ele>
        <time>2021-08-15T07:43:10.000Z</time>
      </trkpt>
      <trkpt lat="47.52612" lon="-2.35843">
        <ele>23.39999961853</ele>
        <time>2021-08-15T07:43:11.000Z</time>
      </trkpt>
      <trkpt lat="47.52614" lon="-2.35844">
        <ele>22.799999237061</ele>
        <time>2021-08-15T07:43:12.000Z</time>
      </trkpt>
      <trkpt lat="47.52614" lon="-2.35845">
        <ele>21.39999961853</ele>
        <time>2021-08-15T07:43:13.000Z</time>
      </trkpt>
      <trkpt lat="47.52615" lon="-2.35847">
        <ele>21.39999961853</ele>
        <time>2021-08-15T07:43:14.000Z</time>
      </trkpt>
      <trkpt lat="47.52616" lon="-2.35852">
        <ele>21.39999961853</ele>
        <time>2021-08-15T07:43:16.000Z</time>
      </trkpt>
      <trkpt lat="47.52621" lon="-2.35859">
        <ele>21.39999961853</ele>
        <time>2021-08-15T07:43:20.000Z</time>
      </trkpt>
      <trkpt lat="47.52623" lon="-2.3586">
        <ele>21.39999961853</ele>
        <time>2021-08-15T07:43:21.000Z</time>
      </trkpt>
      <trkpt lat="47.52638" lon="-2.35873">
        <ele>21.39999961853</ele>
        <time>2021-08-15T07:43:25.000Z</time>
      </trkpt>
      <trkpt lat="47.52648" lon="-2.35887">
        <ele>21.39999961853</ele>
        <time>2021-08-15T07:43:28.000Z</time>
      </trkpt>
      <trkpt lat="47.52654" lon="-2.35898">
        <ele>21.39999961853</ele>
        <time>2021-08-15T07:43:30.000Z</time>
      </trkpt>
      <trkpt lat="47.52656" lon="-2.35905">
        <ele>21.39999961853</ele>
        <time>2021-08-15T07:43:31.000Z</time>
      </trkpt>
      <trkpt lat="47.5266" lon="-2.35925">
        <ele>21.39999961853</ele>
        <time>2021-08-15T07:43:34.000Z</time>
      </trkpt>
      <trkpt lat="47.52661" lon="-2.35932">
        <ele>21.39999961853</ele>
        <time>2021-08-15T07:43:35.000Z</time>
      </trkpt>
      <trkpt lat="47.52662" lon="-2.35939">
        <ele>21.39999961853</ele>
        <time>2021-08-15T07:43:36.000Z</time>
      </trkpt>
      <trkpt lat="47.52659" lon="-2.35963">
        <ele>21.39999961853</ele>
        <time>2021-08-15T07:43:39.000Z</time>
      </trkpt>
      <trkpt lat="47.52657" lon="-2.35974">
        <ele>21.39999961853</ele>
        <time>2021-08-15T07:43:41.000Z</time>
      </trkpt>
      <trkpt lat="47.52656" lon="-2.35984">
        <ele>21.39999961853</ele>
        <time>2021-08-15T07:43:44.000Z</time>
      </trkpt>
      <trkpt lat="47.52656" lon="-2.35988">
        <ele>21.39999961853</ele>
        <time>2021-08-15T07:43:46.000Z</time>
      </trkpt>
      <trkpt lat="47.52656" lon="-2.35989">
        <ele>21.39999961853</ele>
        <time>2021-08-15T07:43:47.000Z</time>
      </trkpt>
      <trkpt lat="47.52662" lon="-2.36003">
        <ele>19.39999961853</ele>
        <time>2021-08-15T07:46:12.000Z</time>
      </trkpt>
      <trkpt lat="47.52663" lon="-2.36001">
        <ele>19.39999961853</ele>
        <time>2021-08-15T07:46:13.000Z</time>
      </trkpt>
      <trkpt lat="47.52678" lon="-2.35984">
        <ele>19.39999961853</ele>
        <time>2021-08-15T07:46:19.000Z</time>
      </trkpt>
      <trkpt lat="47.52693" lon="-2.35974">
        <ele>19.799999237061</ele>
        <time>2021-08-15T07:46:24.000Z</time>
      </trkpt>
      <trkpt lat="47.52697" lon="-2.35972">
        <ele>20.200000762939</ele>
        <time>2021-08-15T07:46:25.000Z</time>
      </trkpt>
      <trkpt lat="47.52702" lon="-2.3597">
        <ele>20.60000038147</ele>
        <time>2021-08-15T07:46:26.000Z</time>
      </trkpt>
      <trkpt lat="47.52705" lon="-2.35969">
        <ele>21</ele>
        <time>2021-08-15T07:46:27.000Z</time>
      </trkpt>
      <trkpt lat="47.52709" lon="-2.35967">
        <ele>21.39999961853</ele>
        <time>2021-08-15T07:46:28.000Z</time>
      </trkpt>
      <trkpt lat="47.52719" lon="-2.35964">
        <ele>21.39999961853</ele>
        <time>2021-08-15T07:46:31.000Z</time>
      </trkpt>
      <trkpt lat="47.52728" lon="-2.35954">
        <ele>21.39999961853</ele>
        <time>2021-08-15T07:46:36.000Z</time>
      </trkpt>
      <trkpt lat="47.52739" lon="-2.35934">
        <ele>21.39999961853</ele>
        <time>2021-08-15T07:46:41.000Z</time>
      </trkpt>
      <trkpt lat="47.52742" lon="-2.35929">
        <ele>22</ele>
        <time>2021-08-15T07:46:42.000Z</time>
      </trkpt>
      <trkpt lat="47.52744" lon="-2.35926">
        <ele>22.39999961853</ele>
        <time>2021-08-15T07:46:43.000Z</time>
      </trkpt>
      <trkpt lat="47.52748" lon="-2.35923">
        <ele>22.799999237061</ele>
        <time>2021-08-15T07:46:44.000Z</time>
      </trkpt>
      <trkpt lat="47.52752" lon="-2.3592">
        <ele>23.200000762939</ele>
        <time>2021-08-15T07:46:45.000Z</time>
      </trkpt>
      <trkpt lat="47.52755" lon="-2.35916">
        <ele>23.60000038147</ele>
        <time>2021-08-15T07:46:46.000Z</time>
      </trkpt>
      <trkpt lat="47.52757" lon="-2.3591">
        <ele>23.60000038147</ele>
        <time>2021-08-15T07:46:47.000Z</time>
      </trkpt>
      <trkpt lat="47.52763" lon="-2.35878">
        <ele>23.60000038147</ele>
        <time>2021-08-15T07:46:53.000Z</time>
      </trkpt>
      <trkpt lat="47.52762" lon="-2.35852">
        <ele>24</ele>
        <time>2021-08-15T07:46:59.000Z</time>
      </trkpt>
      <trkpt lat="47.52762" lon="-2.35848">
        <ele>24.39999961853</ele>
        <time>2021-08-15T07:47:00.000Z</time>
      </trkpt>
      <trkpt lat="47.52761" lon="-2.35844">
        <ele>24.799999237061</ele>
        <time>2021-08-15T07:47:01.000Z</time>
      </trkpt>
      <trkpt lat="47.5276" lon="-2.3584">
        <ele>25.39999961853</ele>
        <time>2021-08-15T07:47:02.000Z</time>
      </trkpt>
      <trkpt lat="47.52759" lon="-2.35836">
        <ele>25.799999237061</ele>
        <time>2021-08-15T07:47:03.000Z</time>
      </trkpt>
      <trkpt lat="47.52757" lon="-2.35822">
        <ele>25.799999237061</ele>
        <time>2021-08-15T07:47:06.000Z</time>
      </trkpt>
      <trkpt lat="47.52754" lon="-2.35805">
        <ele>26.200000762939</ele>
        <time>2021-08-15T07:47:10.000Z</time>
      </trkpt>
      <trkpt lat="47.52752" lon="-2.35801">
        <ele>26.60000038147</ele>
        <time>2021-08-15T07:47:11.000Z</time>
      </trkpt>
      <trkpt lat="47.52751" lon="-2.35798">
        <ele>27</ele>
        <time>2021-08-15T07:47:12.000Z</time>
      </trkpt>
      <trkpt lat="47.5275" lon="-2.35794">
        <ele>27.39999961853</ele>
        <time>2021-08-15T07:47:13.000Z</time>
      </trkpt>
      <trkpt lat="47.52749" lon="-2.3579">
        <ele>27.799999237061</ele>
        <time>2021-08-15T07:47:14.000Z</time>
      </trkpt>
      <trkpt lat="47.52742" lon="-2.35759">
        <ele>27.799999237061</ele>
        <time>2021-08-15T07:47:20.000Z</time>
      </trkpt>
      <trkpt lat="47.52742" lon="-2.35754">
        <ele>28.200000762939</ele>
        <time>2021-08-15T07:47:21.000Z</time>
      </trkpt>
      <trkpt lat="47.52742" lon="-2.3575">
        <ele>28.60000038147</ele>
        <time>2021-08-15T07:47:22.000Z</time>
      </trkpt>
      <trkpt lat="47.52741" lon="-2.35746">
        <ele>29</ele>
        <time>2021-08-15T07:47:23.000Z</time>
      </trkpt>
      <trkpt lat="47.52741" lon="-2.35742">
        <ele>29.60000038147</ele>
        <time>2021-08-15T07:47:24.000Z</time>
      </trkpt>
      <trkpt lat="47.52741" lon="-2.35739">
        <ele>30</ele>
        <time>2021-08-15T07:47:25.000Z</time>
      </trkpt>
      <trkpt lat="47.5274" lon="-2.35736">
        <ele>30</ele>
        <time>2021-08-15T07:47:26.000Z</time>
      </trkpt>
      <trkpt lat="47.5274" lon="-2.35732">
        <ele>30.39999961853</ele>
        <time>2021-08-15T07:47:28.000Z</time>
      </trkpt>
      <trkpt lat="47.5274" lon="-2.3573">
        <ele>30.799999237061</ele>
        <time>2021-08-15T07:47:29.000Z</time>
      </trkpt>
      <trkpt lat="47.5274" lon="-2.35727">
        <ele>31.200000762939</ele>
        <time>2021-08-15T07:47:30.000Z</time>
      </trkpt>
      <trkpt lat="47.5274" lon="-2.35725">
        <ele>31.60000038147</ele>
        <time>2021-08-15T07:47:31.000Z</time>
      </trkpt>
      <trkpt lat="47.52741" lon="-2.35722">
        <ele>32.200000762939</ele>
        <time>2021-08-15T07:47:32.000Z</time>
      </trkpt>
      <trkpt lat="47.52741" lon="-2.3572">
        <ele>32.200000762939</ele>
        <time>2021-08-15T07:47:33.000Z</time>
      </trkpt>
      <trkpt lat="47.5274" lon="-2.35716">
        <ele>32.599998474121</ele>
        <time>2021-08-15T07:47:36.000Z</time>
      </trkpt>
      <trkpt lat="47.5274" lon="-2.35714">
        <ele>33</ele>
        <time>2021-08-15T07:47:37.000Z</time>
      </trkpt>
      <trkpt lat="47.5274" lon="-2.35713">
        <ele>33.400001525879</ele>
        <time>2021-08-15T07:47:38.000Z</time>
      </trkpt>
      <trkpt lat="47.5274" lon="-2.3571">
        <ele>33.799999237061</ele>
        <time>2021-08-15T07:47:39.000Z</time>
      </trkpt>
      <trkpt lat="47.5274" lon="-2.35707">
        <ele>34.200000762939</ele>
        <time>2021-08-15T07:47:40.000Z</time>
      </trkpt>
      <trkpt lat="47.52741" lon="-2.35693">
        <ele>35.200000762939</ele>
        <time>2021-08-15T07:47:45.000Z</time>
      </trkpt>
      <trkpt lat="47.5274" lon="-2.35691">
        <ele>35.599998474121</ele>
        <time>2021-08-15T07:47:46.000Z</time>
      </trkpt>
      <trkpt lat="47.5274" lon="-2.35689">
        <ele>36</ele>
        <time>2021-08-15T07:47:47.000Z</time>
      </trkpt>
      <trkpt lat="47.5274" lon="-2.35688">
        <ele>36.400001525879</ele>
        <time>2021-08-15T07:47:48.000Z</time>
      </trkpt>
      <trkpt lat="47.5274" lon="-2.35675">
        <ele>36.799999237061</ele>
        <time>2021-08-15T07:47:53.000Z</time>
      </trkpt>
      <trkpt lat="47.52739" lon="-2.35673">
        <ele>37.400001525879</ele>
        <time>2021-08-15T07:47:54.000Z</time>
      </trkpt>
      <trkpt lat="47.52738" lon="-2.35671">
        <ele>37.799999237061</ele>
        <time>2021-08-15T07:47:55.000Z</time>
      </trkpt>
      <trkpt lat="47.52737" lon="-2.35669">
        <ele>38.200000762939</ele>
        <time>2021-08-15T07:47:56.000Z</time>
      </trkpt>
      <trkpt lat="47.52737" lon="-2.35666">
        <ele>38.599998474121</ele>
        <time>2021-08-15T07:47:57.000Z</time>
      </trkpt>
      <trkpt lat="47.52735" lon="-2.35657">
        <ele>38.599998474121</ele>
        <time>2021-08-15T07:48:01.000Z</time>
      </trkpt>
      <trkpt lat="47.52731" lon="-2.3564">
        <ele>39</ele>
        <time>2021-08-15T07:48:07.000Z</time>
      </trkpt>
      <trkpt lat="47.5273" lon="-2.35637">
        <ele>39.400001525879</ele>
        <time>2021-08-15T07:48:08.000Z</time>
      </trkpt>
      <trkpt lat="47.52729" lon="-2.35633">
        <ele>40.200000762939</ele>
        <time>2021-08-15T07:48:09.000Z</time>
      </trkpt>
      <trkpt lat="47.52729" lon="-2.35629">
        <ele>40.599998474121</ele>
        <time>2021-08-15T07:48:10.000Z</time>
      </trkpt>
      <trkpt lat="47.5273" lon="-2.35609">
        <ele>40.599998474121</ele>
        <time>2021-08-15T07:48:15.000Z</time>
      </trkpt>
      <trkpt lat="47.5273" lon="-2.35584">
        <ele>40.599998474121</ele>
        <time>2021-08-15T07:48:22.000Z</time>
      </trkpt>
      <trkpt lat="47.52732" lon="-2.35568">
        <ele>41</ele>
        <time>2021-08-15T07:48:27.000Z</time>
      </trkpt>
      <trkpt lat="47.52733" lon="-2.35564">
        <ele>41.400001525879</ele>
        <time>2021-08-15T07:48:28.000Z</time>
      </trkpt>
      <trkpt lat="47.52734" lon="-2.3556">
        <ele>41.799999237061</ele>
        <time>2021-08-15T07:48:29.000Z</time>
      </trkpt>
      <trkpt lat="47.52735" lon="-2.35557">
        <ele>42.200000762939</ele>
        <time>2021-08-15T07:48:30.000Z</time>
      </trkpt>
      <trkpt lat="47.52735" lon="-2.35553">
        <ele>42.599998474121</ele>
        <time>2021-08-15T07:48:31.000Z</time>
      </trkpt>
      <trkpt lat="47.52737" lon="-2.35528">
        <ele>42.599998474121</ele>
        <time>2021-08-15T07:48:38.000Z</time>
      </trkpt>
      <trkpt lat="47.52743" lon="-2.35492">
        <ele>42.599998474121</ele>
        <time>2021-08-15T07:48:46.000Z</time>
      </trkpt>
      <trkpt lat="47.5274" lon="-2.35467">
        <ele>42.599998474121</ele>
        <time>2021-08-15T07:48:51.000Z</time>
      </trkpt>
      <trkpt lat="47.52738" lon="-2.35448">
        <ele>43</ele>
        <time>2021-08-15T07:48:56.000Z</time>
      </trkpt>
      <trkpt lat="47.52738" lon="-2.35445">
        <ele>43.400001525879</ele>
        <time>2021-08-15T07:48:57.000Z</time>
      </trkpt>
      <trkpt lat="47.52738" lon="-2.35443">
        <ele>43.799999237061</ele>
        <time>2021-08-15T07:48:58.000Z</time>
      </trkpt>
      <trkpt lat="47.52739" lon="-2.3544">
        <ele>44.599998474121</ele>
        <time>2021-08-15T07:48:59.000Z</time>
      </trkpt>
      <trkpt lat="47.52739" lon="-2.3544">
        <ele>44.599998474121</ele>
        <time>2021-08-15T07:49:01.000Z</time>
      </trkpt>
      <trkpt lat="47.52742" lon="-2.35432">
        <ele>44.599998474121</ele>
        <time>2021-08-15T07:53:30.000Z</time>
      </trkpt>
      <trkpt lat="47.52745" lon="-2.35429">
        <ele>45.200000762939</ele>
        <time>2021-08-15T07:53:32.000Z</time>
      </trkpt>
      <trkpt lat="47.52747" lon="-2.35427">
        <ele>45.599998474121</ele>
        <time>2021-08-15T07:53:33.000Z</time>
      </trkpt>
      <trkpt lat="47.52749" lon="-2.35425">
        <ele>46</ele>
        <time>2021-08-15T07:53:34.000Z</time>
      </trkpt>
      <trkpt lat="47.52751" lon="-2.35424">
        <ele>46.400001525879</ele>
        <time>2021-08-15T07:53:35.000Z</time>
      </trkpt>
      <trkpt lat="47.52753" lon="-2.35422">
        <ele>46.799999237061</ele>
        <time>2021-08-15T07:53:36.000Z</time>
      </trkpt>
      <trkpt lat="47.52759" lon="-2.35415">
        <ele>47.200000762939</ele>
        <time>2021-08-15T07:53:39.000Z</time>
      </trkpt>
      <trkpt lat="47.52761" lon="-2.35413">
        <ele>47.599998474121</ele>
        <time>2021-08-15T07:53:40.000Z</time>
      </trkpt>
      <trkpt lat="47.52764" lon="-2.35411">
        <ele>48</ele>
        <time>2021-08-15T07:53:41.000Z</time>
      </trkpt>
      <trkpt lat="47.52766" lon="-2.35409">
        <ele>48.400001525879</ele>
        <time>2021-08-15T07:53:42.000Z</time>
      </trkpt>
      <trkpt lat="47.52769" lon="-2.35407">
        <ele>48.799999237061</ele>
        <time>2021-08-15T07:53:43.000Z</time>
      </trkpt>
      <trkpt lat="47.52781" lon="-2.354">
        <ele>48.799999237061</ele>
        <time>2021-08-15T07:53:48.000Z</time>
      </trkpt>
      <trkpt lat="47.52799" lon="-2.35386">
        <ele>48.799999237061</ele>
        <time>2021-08-15T07:53:55.000Z</time>
      </trkpt>
      <trkpt lat="47.52805" lon="-2.35379">
        <ele>48.799999237061</ele>
        <time>2021-08-15T07:54:00.000Z</time>
      </trkpt>
      <trkpt lat="47.52807" lon="-2.35374">
        <ele>48.799999237061</ele>
        <time>2021-08-15T07:54:23.000Z</time>
      </trkpt>
      <trkpt lat="47.52811" lon="-2.35367">
        <ele>48.799999237061</ele>
        <time>2021-08-15T07:54:26.000Z</time>
      </trkpt>
      <trkpt lat="47.52823" lon="-2.35353">
        <ele>48.799999237061</ele>
        <time>2021-08-15T07:54:30.000Z</time>
      </trkpt>
      <trkpt lat="47.52832" lon="-2.35345">
        <ele>48.799999237061</ele>
        <time>2021-08-15T07:54:32.000Z</time>
      </trkpt>
      <trkpt lat="47.52848" lon="-2.35334">
        <ele>48.799999237061</ele>
        <time>2021-08-15T07:54:35.000Z</time>
      </trkpt>
      <trkpt lat="47.52884" lon="-2.3532">
        <ele>48.799999237061</ele>
        <time>2021-08-15T07:54:40.000Z</time>
      </trkpt>
      <trkpt lat="47.52892" lon="-2.35316">
        <ele>48.400001525879</ele>
        <time>2021-08-15T07:54:41.000Z</time>
      </trkpt>
      <trkpt lat="47.52901" lon="-2.35314">
        <ele>48</ele>
        <time>2021-08-15T07:54:42.000Z</time>
      </trkpt>
      <trkpt lat="47.5291" lon="-2.35311">
        <ele>47.400001525879</ele>
        <time>2021-08-15T07:54:43.000Z</time>
      </trkpt>
      <trkpt lat="47.52918" lon="-2.35308">
        <ele>47</ele>
        <time>2021-08-15T07:54:44.000Z</time>
      </trkpt>
      <trkpt lat="47.52927" lon="-2.35306">
        <ele>46</ele>
        <time>2021-08-15T07:54:45.000Z</time>
      </trkpt>
      <trkpt lat="47.52934" lon="-2.35304">
        <ele>45.599998474121</ele>
        <time>2021-08-15T07:54:46.000Z</time>
      </trkpt>
      <trkpt lat="47.52941" lon="-2.35302">
        <ele>45.200000762939</ele>
        <time>2021-08-15T07:54:47.000Z</time>
      </trkpt>
      <trkpt lat="47.52948" lon="-2.35299">
        <ele>44.599998474121</ele>
        <time>2021-08-15T07:54:48.000Z</time>
      </trkpt>
      <trkpt lat="47.52955" lon="-2.35296">
        <ele>44.200000762939</ele>
        <time>2021-08-15T07:54:49.000Z</time>
      </trkpt>
      <trkpt lat="47.52977" lon="-2.35286">
        <ele>43.799999237061</ele>
        <time>2021-08-15T07:54:52.000Z</time>
      </trkpt>
      <trkpt lat="47.52984" lon="-2.35282">
        <ele>43.400001525879</ele>
        <time>2021-08-15T07:54:53.000Z</time>
      </trkpt>
      <trkpt lat="47.52991" lon="-2.35277">
        <ele>42.799999237061</ele>
        <time>2021-08-15T07:54:54.000Z</time>
      </trkpt>
      <trkpt lat="47.52998" lon="-2.35271">
        <ele>42.400001525879</ele>
        <time>2021-08-15T07:54:55.000Z</time>
      </trkpt>
      <trkpt lat="47.53005" lon="-2.35264">
        <ele>41.799999237061</ele>
        <time>2021-08-15T07:54:56.000Z</time>
      </trkpt>
      <trkpt lat="47.53012" lon="-2.35254">
        <ele>41.400001525879</ele>
        <time>2021-08-15T07:54:57.000Z</time>
      </trkpt>
      <trkpt lat="47.53017" lon="-2.35244">
        <ele>40.799999237061</ele>
        <time>2021-08-15T07:54:58.000Z</time>
      </trkpt>
      <trkpt lat="47.53022" lon="-2.35232">
        <ele>40.200000762939</ele>
        <time>2021-08-15T07:54:59.000Z</time>
      </trkpt>
      <trkpt lat="47.53025" lon="-2.35221">
        <ele>39.799999237061</ele>
        <time>2021-08-15T07:55:00.000Z</time>
      </trkpt>
      <trkpt lat="47.53029" lon="-2.35211">
        <ele>39.200000762939</ele>
        <time>2021-08-15T07:55:01.000Z</time>
      </trkpt>
      <trkpt lat="47.53034" lon="-2.352">
        <ele>38.599998474121</ele>
        <time>2021-08-15T07:55:02.000Z</time>
      </trkpt>
      <trkpt lat="47.53038" lon="-2.35187">
        <ele>38.200000762939</ele>
        <time>2021-08-15T07:55:03.000Z</time>
      </trkpt>
      <trkpt lat="47.53042" lon="-2.35175">
        <ele>37.599998474121</ele>
        <time>2021-08-15T07:55:04.000Z</time>
      </trkpt>
      <trkpt lat="47.53047" lon="-2.35162">
        <ele>37.200000762939</ele>
        <time>2021-08-15T07:55:05.000Z</time>
      </trkpt>
      <trkpt lat="47.53051" lon="-2.35149">
        <ele>36.599998474121</ele>
        <time>2021-08-15T07:55:06.000Z</time>
      </trkpt>
      <trkpt lat="47.53055" lon="-2.35136">
        <ele>36.200000762939</ele>
        <time>2021-08-15T07:55:07.000Z</time>
      </trkpt>
      <trkpt lat="47.5306" lon="-2.35123">
        <ele>35.599998474121</ele>
        <time>2021-08-15T07:55:08.000Z</time>
      </trkpt>
      <trkpt lat="47.53065" lon="-2.3511">
        <ele>34.400001525879</ele>
        <time>2021-08-15T07:55:09.000Z</time>
      </trkpt>
      <trkpt lat="47.5307" lon="-2.35098">
        <ele>33.799999237061</ele>
        <time>2021-08-15T07:55:10.000Z</time>
      </trkpt>
      <trkpt lat="47.53074" lon="-2.35087">
        <ele>33.400001525879</ele>
        <time>2021-08-15T07:55:11.000Z</time>
      </trkpt>
      <trkpt lat="47.53083" lon="-2.35063">
        <ele>33.400001525879</ele>
        <time>2021-08-15T07:55:14.000Z</time>
      </trkpt>
      <trkpt lat="47.53089" lon="-2.35038">
        <ele>33.799999237061</ele>
        <time>2021-08-15T07:55:18.000Z</time>
      </trkpt>
      <trkpt lat="47.5309" lon="-2.35033">
        <ele>34.200000762939</ele>
        <time>2021-08-15T07:55:19.000Z</time>
      </trkpt>
      <trkpt lat="47.5309" lon="-2.35027">
        <ele>34.599998474121</ele>
        <time>2021-08-15T07:55:20.000Z</time>
      </trkpt>
      <trkpt lat="47.5309" lon="-2.35022">
        <ele>35</ele>
        <time>2021-08-15T07:55:21.000Z</time>
      </trkpt>
      <trkpt lat="47.53089" lon="-2.35016">
        <ele>35.400001525879</ele>
        <time>2021-08-15T07:55:22.000Z</time>
      </trkpt>
      <trkpt lat="47.53088" lon="-2.35002">
        <ele>36</ele>
        <time>2021-08-15T07:55:24.000Z</time>
      </trkpt>
      <trkpt lat="47.53087" lon="-2.34995">
        <ele>36.400001525879</ele>
        <time>2021-08-15T07:55:25.000Z</time>
      </trkpt>
      <trkpt lat="47.53087" lon="-2.34987">
        <ele>36.799999237061</ele>
        <time>2021-08-15T07:55:26.000Z</time>
      </trkpt>
      <trkpt lat="47.53087" lon="-2.34981">
        <ele>37.200000762939</ele>
        <time>2021-08-15T07:55:27.000Z</time>
      </trkpt>
      <trkpt lat="47.53086" lon="-2.34973">
        <ele>37.599998474121</ele>
        <time>2021-08-15T07:55:28.000Z</time>
      </trkpt>
      <trkpt lat="47.53084" lon="-2.34945">
        <ele>37.599998474121</ele>
        <time>2021-08-15T07:55:32.000Z</time>
      </trkpt>
      <trkpt lat="47.53084" lon="-2.34937">
        <ele>38.200000762939</ele>
        <time>2021-08-15T07:55:33.000Z</time>
      </trkpt>
      <trkpt lat="47.53084" lon="-2.3493">
        <ele>39</ele>
        <time>2021-08-15T07:55:34.000Z</time>
      </trkpt>
      <trkpt lat="47.53083" lon="-2.34923">
        <ele>39.400001525879</ele>
        <time>2021-08-15T07:55:35.000Z</time>
      </trkpt>
      <trkpt lat="47.53083" lon="-2.34916">
        <ele>39.799999237061</ele>
        <time>2021-08-15T07:55:36.000Z</time>
      </trkpt>
      <trkpt lat="47.53084" lon="-2.34891">
        <ele>39.799999237061</ele>
        <time>2021-08-15T07:55:40.000Z</time>
      </trkpt>
      <trkpt lat="47.53086" lon="-2.34874">
        <ele>39.799999237061</ele>
        <time>2021-08-15T07:55:44.000Z</time>
      </trkpt>
      <trkpt lat="47.53075" lon="-2.34869">
        <ele>39.799999237061</ele>
        <time>2021-08-15T07:55:47.000Z</time>
      </trkpt>
      <trkpt lat="47.53071" lon="-2.34869">
        <ele>39.799999237061</ele>
        <time>2021-08-15T07:55:48.000Z</time>
      </trkpt>
      <trkpt lat="47.53067" lon="-2.34869">
        <ele>39.799999237061</ele>
        <time>2021-08-15T07:55:49.000Z</time>
      </trkpt>
      <trkpt lat="47.5305" lon="-2.3487">
        <ele>39.799999237061</ele>
        <time>2021-08-15T07:55:53.000Z</time>
      </trkpt>
      <trkpt lat="47.53029" lon="-2.34869">
        <ele>39.799999237061</ele>
        <time>2021-08-15T07:55:59.000Z</time>
      </trkpt>
      <trkpt lat="47.52999" lon="-2.3487">
        <ele>39.799999237061</ele>
        <time>2021-08-15T07:56:05.000Z</time>
      </trkpt>
      <trkpt lat="47.52977" lon="-2.34868">
        <ele>39.400001525879</ele>
        <time>2021-08-15T07:56:09.000Z</time>
      </trkpt>
      <trkpt lat="47.52973" lon="-2.34868">
        <ele>38.799999237061</ele>
        <time>2021-08-15T07:56:10.000Z</time>
      </trkpt>
      <trkpt lat="47.52969" lon="-2.34868">
        <ele>38.400001525879</ele>
        <time>2021-08-15T07:56:11.000Z</time>
      </trkpt>
      <trkpt lat="47.52966" lon="-2.34866">
        <ele>37.799999237061</ele>
        <time>2021-08-15T07:56:12.000Z</time>
      </trkpt>
      <trkpt lat="47.52964" lon="-2.34863">
        <ele>37.400001525879</ele>
        <time>2021-08-15T07:56:13.000Z</time>
      </trkpt>
      <trkpt lat="47.52963" lon="-2.3486">
        <ele>36.799999237061</ele>
        <time>2021-08-15T07:56:14.000Z</time>
      </trkpt>
      <trkpt lat="47.52962" lon="-2.34857">
        <ele>36.400001525879</ele>
        <time>2021-08-15T07:56:15.000Z</time>
      </trkpt>
      <trkpt lat="47.5296" lon="-2.34854">
        <ele>35.799999237061</ele>
        <time>2021-08-15T07:56:16.000Z</time>
      </trkpt>
      <trkpt lat="47.52957" lon="-2.34852">
        <ele>35.200000762939</ele>
        <time>2021-08-15T07:56:17.000Z</time>
      </trkpt>
      <trkpt lat="47.52954" lon="-2.34849">
        <ele>34.799999237061</ele>
        <time>2021-08-15T07:56:18.000Z</time>
      </trkpt>
      <trkpt lat="47.52952" lon="-2.34845">
        <ele>34.200000762939</ele>
        <time>2021-08-15T07:56:19.000Z</time>
      </trkpt>
      <trkpt lat="47.52951" lon="-2.34839">
        <ele>33.799999237061</ele>
        <time>2021-08-15T07:56:20.000Z</time>
      </trkpt>
      <trkpt lat="47.5295" lon="-2.34834">
        <ele>33.200000762939</ele>
        <time>2021-08-15T07:56:21.000Z</time>
      </trkpt>
      <trkpt lat="47.52949" lon="-2.34827">
        <ele>32.799999237061</ele>
        <time>2021-08-15T07:56:22.000Z</time>
      </trkpt>
      <trkpt lat="47.52947" lon="-2.3482">
        <ele>32.200000762939</ele>
        <time>2021-08-15T07:56:23.000Z</time>
      </trkpt>
      <trkpt lat="47.52947" lon="-2.34811">
        <ele>31.200000762939</ele>
        <time>2021-08-15T07:56:24.000Z</time>
      </trkpt>
      <trkpt lat="47.52946" lon="-2.34798">
        <ele>30.60000038147</ele>
        <time>2021-08-15T07:56:26.000Z</time>
      </trkpt>
      <trkpt lat="47.52946" lon="-2.34792">
        <ele>30.200000762939</ele>
        <time>2021-08-15T07:56:27.000Z</time>
      </trkpt>
      <trkpt lat="47.52946" lon="-2.34785">
        <ele>29.799999237061</ele>
        <time>2021-08-15T07:56:28.000Z</time>
      </trkpt>
      <trkpt lat="47.52946" lon="-2.34779">
        <ele>29.39999961853</ele>
        <time>2021-08-15T07:56:29.000Z</time>
      </trkpt>
      <trkpt lat="47.52947" lon="-2.34773">
        <ele>28.799999237061</ele>
        <time>2021-08-15T07:56:30.000Z</time>
      </trkpt>
      <trkpt lat="47.52945" lon="-2.34763">
        <ele>28.39999961853</ele>
        <time>2021-08-15T07:56:32.000Z</time>
      </trkpt>
      <trkpt lat="47.52944" lon="-2.34759">
        <ele>28</ele>
        <time>2021-08-15T07:56:33.000Z</time>
      </trkpt>
      <trkpt lat="47.52942" lon="-2.34758">
        <ele>27.60000038147</ele>
        <time>2021-08-15T07:56:34.000Z</time>
      </trkpt>
      <trkpt lat="47.52939" lon="-2.34756">
        <ele>27.200000762939</ele>
        <time>2021-08-15T07:56:35.000Z</time>
      </trkpt>
      <trkpt lat="47.52938" lon="-2.34756">
        <ele>26.799999237061</ele>
        <time>2021-08-15T07:56:36.000Z</time>
      </trkpt>
      <trkpt lat="47.52935" lon="-2.34754">
        <ele>26.799999237061</ele>
        <time>2021-08-15T07:56:38.000Z</time>
      </trkpt>
      <trkpt lat="47.52921" lon="-2.34748">
        <ele>26.799999237061</ele>
        <time>2021-08-15T07:56:44.000Z</time>
      </trkpt>
      <trkpt lat="47.52918" lon="-2.34746">
        <ele>26.799999237061</ele>
        <time>2021-08-15T07:56:46.000Z</time>
      </trkpt>
      <trkpt lat="47.52916" lon="-2.34737">
        <ele>26.799999237061</ele>
        <time>2021-08-15T07:56:49.000Z</time>
      </trkpt>
      <trkpt lat="47.52909" lon="-2.3471">
        <ele>26.799999237061</ele>
        <time>2021-08-15T07:56:57.000Z</time>
      </trkpt>
      <trkpt lat="47.52906" lon="-2.347">
        <ele>27.200000762939</ele>
        <time>2021-08-15T07:57:00.000Z</time>
      </trkpt>
      <trkpt lat="47.52905" lon="-2.34696">
        <ele>27.60000038147</ele>
        <time>2021-08-15T07:57:01.000Z</time>
      </trkpt>
      <trkpt lat="47.52904" lon="-2.34693">
        <ele>28</ele>
        <time>2021-08-15T07:57:02.000Z</time>
      </trkpt>
      <trkpt lat="47.52903" lon="-2.3469">
        <ele>28.39999961853</ele>
        <time>2021-08-15T07:57:03.000Z</time>
      </trkpt>
      <trkpt lat="47.52902" lon="-2.34686">
        <ele>29</ele>
        <time>2021-08-15T07:57:04.000Z</time>
      </trkpt>
      <trkpt lat="47.529" lon="-2.34677">
        <ele>29</ele>
        <time>2021-08-15T07:57:06.000Z</time>
      </trkpt>
      <trkpt lat="47.52896" lon="-2.34667">
        <ele>29.39999961853</ele>
        <time>2021-08-15T07:57:09.000Z</time>
      </trkpt>
      <trkpt lat="47.52895" lon="-2.34664">
        <ele>29.799999237061</ele>
        <time>2021-08-15T07:57:10.000Z</time>
      </trkpt>
      <trkpt lat="47.52892" lon="-2.34661">
        <ele>30.200000762939</ele>
        <time>2021-08-15T07:57:11.000Z</time>
      </trkpt>
      <trkpt lat="47.5289" lon="-2.34657">
        <ele>30.60000038147</ele>
        <time>2021-08-15T07:57:12.000Z</time>
      </trkpt>
      <trkpt lat="47.52888" lon="-2.34652">
        <ele>31</ele>
        <time>2021-08-15T07:57:13.000Z</time>
      </trkpt>
      <trkpt lat="47.52871" lon="-2.34631">
        <ele>31</ele>
        <time>2021-08-15T07:57:20.000Z</time>
      </trkpt>
      <trkpt lat="47.52847" lon="-2.34601">
        <ele>31</ele>
        <time>2021-08-15T07:57:27.000Z</time>
      </trkpt>
      <trkpt lat="47.52824" lon="-2.34581">
        <ele>31</ele>
        <time>2021-08-15T07:57:33.000Z</time>
      </trkpt>
      <trkpt lat="47.52799" lon="-2.34564">
        <ele>31</ele>
        <time>2021-08-15T07:57:38.000Z</time>
      </trkpt>
      <trkpt lat="47.52794" lon="-2.3456">
        <ele>31</ele>
        <time>2021-08-15T07:57:39.000Z</time>
      </trkpt>
      <trkpt lat="47.52771" lon="-2.34541">
        <ele>31</ele>
        <time>2021-08-15T07:57:44.000Z</time>
      </trkpt>
      <trkpt lat="47.52737" lon="-2.34515">
        <ele>31</ele>
        <time>2021-08-15T07:57:51.000Z</time>
      </trkpt>
      <trkpt lat="47.52706" lon="-2.34504">
        <ele>31</ele>
        <time>2021-08-15T07:57:58.000Z</time>
      </trkpt>
      <trkpt lat="47.52691" lon="-2.34498">
        <ele>31.39999961853</ele>
        <time>2021-08-15T07:58:03.000Z</time>
      </trkpt>
      <trkpt lat="47.52689" lon="-2.34498">
        <ele>31.799999237061</ele>
        <time>2021-08-15T07:58:04.000Z</time>
      </trkpt>
      <trkpt lat="47.52688" lon="-2.34497">
        <ele>32.200000762939</ele>
        <time>2021-08-15T07:58:05.000Z</time>
      </trkpt>
      <trkpt lat="47.52686" lon="-2.34496">
        <ele>32.599998474121</ele>
        <time>2021-08-15T07:58:06.000Z</time>
      </trkpt>
      <trkpt lat="47.52684" lon="-2.34494">
        <ele>33</ele>
        <time>2021-08-15T07:58:07.000Z</time>
      </trkpt>
      <trkpt lat="47.52682" lon="-2.34493">
        <ele>33.400001525879</ele>
        <time>2021-08-15T07:58:08.000Z</time>
      </trkpt>
      <trkpt lat="47.52679" lon="-2.3449">
        <ele>33.799999237061</ele>
        <time>2021-08-15T07:58:09.000Z</time>
      </trkpt>
      <trkpt lat="47.52677" lon="-2.34491">
        <ele>34.200000762939</ele>
        <time>2021-08-15T07:58:10.000Z</time>
      </trkpt>
      <trkpt lat="47.52675" lon="-2.34492">
        <ele>34.599998474121</ele>
        <time>2021-08-15T07:58:11.000Z</time>
      </trkpt>
      <trkpt lat="47.52676" lon="-2.34499">
        <ele>35.200000762939</ele>
        <time>2021-08-15T07:58:12.000Z</time>
      </trkpt>
      <trkpt lat="47.52676" lon="-2.34499">
        <ele>35.200000762939</ele>
        <time>2021-08-15T07:58:13.000Z</time>
      </trkpt>
      <trkpt lat="47.5268" lon="-2.34526">
        <ele>35.200000762939</ele>
        <time>2021-08-15T07:58:19.000Z</time>
      </trkpt>
      <trkpt lat="47.52681" lon="-2.34535">
        <ele>35.599998474121</ele>
        <time>2021-08-15T07:58:21.000Z</time>
      </trkpt>
      <trkpt lat="47.52681" lon="-2.34539">
        <ele>36</ele>
        <time>2021-08-15T07:58:22.000Z</time>
      </trkpt>
      <trkpt lat="47.52682" lon="-2.34543">
        <ele>36.400001525879</ele>
        <time>2021-08-15T07:58:23.000Z</time>
      </trkpt>
      <trkpt lat="47.52683" lon="-2.34546">
        <ele>36.799999237061</ele>
        <time>2021-08-15T07:58:24.000Z</time>
      </trkpt>
      <trkpt lat="47.52685" lon="-2.3455">
        <ele>37.200000762939</ele>
        <time>2021-08-15T07:58:25.000Z</time>
      </trkpt>
      <trkpt lat="47.52695" lon="-2.34567">
        <ele>37.200000762939</ele>
        <time>2021-08-15T07:58:31.000Z</time>
      </trkpt>
      <trkpt lat="47.52708" lon="-2.34587">
        <ele>37.599998474121</ele>
        <time>2021-08-15T07:58:37.000Z</time>
      </trkpt>
      <trkpt lat="47.5271" lon="-2.34591">
        <ele>38</ele>
        <time>2021-08-15T07:58:38.000Z</time>
      </trkpt>
      <trkpt lat="47.52711" lon="-2.34595">
        <ele>38.400001525879</ele>
        <time>2021-08-15T07:58:39.000Z</time>
      </trkpt>
      <trkpt lat="47.52713" lon="-2.34599">
        <ele>38.799999237061</ele>
        <time>2021-08-15T07:58:40.000Z</time>
      </trkpt>
      <trkpt lat="47.52714" lon="-2.34603">
        <ele>39.200000762939</ele>
        <time>2021-08-15T07:58:41.000Z</time>
      </trkpt>
      <trkpt lat="47.5272" lon="-2.3462">
        <ele>39.200000762939</ele>
        <time>2021-08-15T07:58:45.000Z</time>
      </trkpt>
      <trkpt lat="47.52726" lon="-2.34642">
        <ele>39.200000762939</ele>
        <time>2021-08-15T07:58:51.000Z</time>
      </trkpt>
      <trkpt lat="47.52727" lon="-2.34652">
        <ele>39.599998474121</ele>
        <time>2021-08-15T07:58:53.000Z</time>
      </trkpt>
      <trkpt lat="47.52728" lon="-2.34656">
        <ele>40</ele>
        <time>2021-08-15T07:58:54.000Z</time>
      </trkpt>
      <trkpt lat="47.52729" lon="-2.3466">
        <ele>40.400001525879</ele>
        <time>2021-08-15T07:58:55.000Z</time>
      </trkpt>
      <trkpt lat="47.5273" lon="-2.34664">
        <ele>40.799999237061</ele>
        <time>2021-08-15T07:58:56.000Z</time>
      </trkpt>
      <trkpt lat="47.52731" lon="-2.34669">
        <ele>41.200000762939</ele>
        <time>2021-08-15T07:58:57.000Z</time>
      </trkpt>
      <trkpt lat="47.52728" lon="-2.34679">
        <ele>41.200000762939</ele>
        <time>2021-08-15T07:59:01.000Z</time>
      </trkpt>
      <trkpt lat="47.52725" lon="-2.34682">
        <ele>41.200000762939</ele>
        <time>2021-08-15T07:59:03.000Z</time>
      </trkpt>
      <trkpt lat="47.52722" lon="-2.34689">
        <ele>41.599998474121</ele>
        <time>2021-08-15T07:59:07.000Z</time>
      </trkpt>
      <trkpt lat="47.52722" lon="-2.34691">
        <ele>42</ele>
        <time>2021-08-15T07:59:08.000Z</time>
      </trkpt>
      <trkpt lat="47.52721" lon="-2.34694">
        <ele>42.400001525879</ele>
        <time>2021-08-15T07:59:09.000Z</time>
      </trkpt>
      <trkpt lat="47.5272" lon="-2.34696">
        <ele>42.799999237061</ele>
        <time>2021-08-15T07:59:10.000Z</time>
      </trkpt>
      <trkpt lat="47.52719" lon="-2.34699">
        <ele>43.200000762939</ele>
        <time>2021-08-15T07:59:11.000Z</time>
      </trkpt>
      <trkpt lat="47.52716" lon="-2.34706">
        <ele>43.799999237061</ele>
        <time>2021-08-15T07:59:15.000Z</time>
      </trkpt>
      <trkpt lat="47.52715" lon="-2.34708">
        <ele>44.599998474121</ele>
        <time>2021-08-15T07:59:16.000Z</time>
      </trkpt>
      <trkpt lat="47.52714" lon="-2.3471">
        <ele>45</ele>
        <time>2021-08-15T07:59:17.000Z</time>
      </trkpt>
      <trkpt lat="47.52713" lon="-2.34712">
        <ele>45.400001525879</ele>
        <time>2021-08-15T07:59:18.000Z</time>
      </trkpt>
      <trkpt lat="47.52707" lon="-2.3472">
        <ele>45.799999237061</ele>
        <time>2021-08-15T07:59:23.000Z</time>
      </trkpt>
      <trkpt lat="47.52706" lon="-2.34721">
        <ele>46.200000762939</ele>
        <time>2021-08-15T07:59:24.000Z</time>
      </trkpt>
      <trkpt lat="47.52705" lon="-2.34722">
        <ele>46.599998474121</ele>
        <time>2021-08-15T07:59:25.000Z</time>
      </trkpt>
      <trkpt lat="47.52703" lon="-2.34723">
        <ele>47</ele>
        <time>2021-08-15T07:59:26.000Z</time>
      </trkpt>
      <trkpt lat="47.52702" lon="-2.34723">
        <ele>47.400001525879</ele>
        <time>2021-08-15T07:59:27.000Z</time>
      </trkpt>
      <trkpt lat="47.52697" lon="-2.34726">
        <ele>47.400001525879</ele>
        <time>2021-08-15T07:59:30.000Z</time>
      </trkpt>
      <trkpt lat="47.52693" lon="-2.34726">
        <ele>48</ele>
        <time>2021-08-15T07:59:33.000Z</time>
      </trkpt>
      <trkpt lat="47.52692" lon="-2.34726">
        <ele>48.400001525879</ele>
        <time>2021-08-15T07:59:34.000Z</time>
      </trkpt>
      <trkpt lat="47.52691" lon="-2.34725">
        <ele>48.799999237061</ele>
        <time>2021-08-15T07:59:35.000Z</time>
      </trkpt>
      <trkpt lat="47.5269" lon="-2.34724">
        <ele>49.200000762939</ele>
        <time>2021-08-15T07:59:36.000Z</time>
      </trkpt>
      <trkpt lat="47.52689" lon="-2.34724">
        <ele>49.599998474121</ele>
        <time>2021-08-15T07:59:37.000Z</time>
      </trkpt>
      <trkpt lat="47.52682" lon="-2.34722">
        <ele>50</ele>
        <time>2021-08-15T07:59:42.000Z</time>
      </trkpt>
      <trkpt lat="47.5268" lon="-2.34721">
        <ele>50.400001525879</ele>
        <time>2021-08-15T07:59:43.000Z</time>
      </trkpt>
      <trkpt lat="47.52679" lon="-2.34721">
        <ele>50.799999237061</ele>
        <time>2021-08-15T07:59:44.000Z</time>
      </trkpt>
      <trkpt lat="47.52678" lon="-2.34721">
        <ele>51.400001525879</ele>
        <time>2021-08-15T07:59:45.000Z</time>
      </trkpt>
      <trkpt lat="47.52676" lon="-2.34721">
        <ele>51.799999237061</ele>
        <time>2021-08-15T07:59:46.000Z</time>
      </trkpt>
      <trkpt lat="47.52671" lon="-2.34719">
        <ele>51.799999237061</ele>
        <time>2021-08-15T07:59:49.000Z</time>
      </trkpt>
      <trkpt lat="47.52669" lon="-2.34719">
        <ele>51.799999237061</ele>
        <time>2021-08-15T07:59:50.000Z</time>
      </trkpt>
      <trkpt lat="47.52666" lon="-2.34718">
        <ele>52.200000762939</ele>
        <time>2021-08-15T07:59:51.000Z</time>
      </trkpt>
      <trkpt lat="47.52664" lon="-2.34717">
        <ele>52.599998474121</ele>
        <time>2021-08-15T07:59:52.000Z</time>
      </trkpt>
      <trkpt lat="47.52662" lon="-2.34717">
        <ele>53</ele>
        <time>2021-08-15T07:59:53.000Z</time>
      </trkpt>
      <trkpt lat="47.5266" lon="-2.34716">
        <ele>53.400001525879</ele>
        <time>2021-08-15T07:59:54.000Z</time>
      </trkpt>
      <trkpt lat="47.52658" lon="-2.34715">
        <ele>53.799999237061</ele>
        <time>2021-08-15T07:59:55.000Z</time>
      </trkpt>
      <trkpt lat="47.52654" lon="-2.34712">
        <ele>53.799999237061</ele>
        <time>2021-08-15T07:59:58.000Z</time>
      </trkpt>
      <trkpt lat="47.5265" lon="-2.34709">
        <ele>53.799999237061</ele>
        <time>2021-08-15T08:00:00.000Z</time>
      </trkpt>
      <trkpt lat="47.52645" lon="-2.34703">
        <ele>53.799999237061</ele>
        <time>2021-08-15T08:00:02.000Z</time>
      </trkpt>
      <trkpt lat="47.52637" lon="-2.34691">
        <ele>53.799999237061</ele>
        <time>2021-08-15T08:00:06.000Z</time>
      </trkpt>
      <trkpt lat="47.52629" lon="-2.34685">
        <ele>54.200000762939</ele>
        <time>2021-08-15T08:00:10.000Z</time>
      </trkpt>
      <trkpt lat="47.52627" lon="-2.34685">
        <ele>54.599998474121</ele>
        <time>2021-08-15T08:00:11.000Z</time>
      </trkpt>
      <trkpt lat="47.52626" lon="-2.34685">
        <ele>55.200000762939</ele>
        <time>2021-08-15T08:00:12.000Z</time>
      </trkpt>
      <trkpt lat="47.52624" lon="-2.34685">
        <ele>55.599998474121</ele>
        <time>2021-08-15T08:00:13.000Z</time>
      </trkpt>
      <trkpt lat="47.52623" lon="-2.34686">
        <ele>56</ele>
        <time>2021-08-15T08:00:14.000Z</time>
      </trkpt>
      <trkpt lat="47.52618" lon="-2.34692">
        <ele>56</ele>
        <time>2021-08-15T08:00:17.000Z</time>
      </trkpt>
      <trkpt lat="47.52606" lon="-2.3471">
        <ele>56.400001525879</ele>
        <time>2021-08-15T08:00:23.000Z</time>
      </trkpt>
      <trkpt lat="47.52605" lon="-2.34713">
        <ele>56.799999237061</ele>
        <time>2021-08-15T08:00:24.000Z</time>
      </trkpt>
      <trkpt lat="47.52603" lon="-2.34715">
        <ele>57.200000762939</ele>
        <time>2021-08-15T08:00:25.000Z</time>
      </trkpt>
      <trkpt lat="47.52602" lon="-2.34718">
        <ele>57.599998474121</ele>
        <time>2021-08-15T08:00:26.000Z</time>
      </trkpt>
      <trkpt lat="47.52601" lon="-2.3472">
        <ele>58</ele>
        <time>2021-08-15T08:00:27.000Z</time>
      </trkpt>
      <trkpt lat="47.52593" lon="-2.34732">
        <ele>58</ele>
        <time>2021-08-15T08:00:32.000Z</time>
      </trkpt>
      <trkpt lat="47.52585" lon="-2.34752">
        <ele>58</ele>
        <time>2021-08-15T08:00:38.000Z</time>
      </trkpt>
      <trkpt lat="47.52577" lon="-2.34775">
        <ele>58</ele>
        <time>2021-08-15T08:00:43.000Z</time>
      </trkpt>
      <trkpt lat="47.5257" lon="-2.34798">
        <ele>58</ele>
        <time>2021-08-15T08:00:48.000Z</time>
      </trkpt>
      <trkpt lat="47.52561" lon="-2.34816">
        <ele>58</ele>
        <time>2021-08-15T08:00:53.000Z</time>
      </trkpt>
      <trkpt lat="47.52559" lon="-2.34818">
        <ele>58</ele>
        <time>2021-08-15T08:00:54.000Z</time>
      </trkpt>
      <trkpt lat="47.52552" lon="-2.34824">
        <ele>58</ele>
        <time>2021-08-15T08:00:57.000Z</time>
      </trkpt>
      <trkpt lat="47.52547" lon="-2.3483">
        <ele>58</ele>
        <time>2021-08-15T08:00:59.000Z</time>
      </trkpt>
      <trkpt lat="47.5254" lon="-2.34844">
        <ele>58</ele>
        <time>2021-08-15T08:01:02.000Z</time>
      </trkpt>
      <trkpt lat="47.5254" lon="-2.34849">
        <ele>58</ele>
        <time>2021-08-15T08:01:03.000Z</time>
      </trkpt>
      <trkpt lat="47.52542" lon="-2.34863">
        <ele>58</ele>
        <time>2021-08-15T08:01:06.000Z</time>
      </trkpt>
      <trkpt lat="47.52544" lon="-2.34868">
        <ele>58</ele>
        <time>2021-08-15T08:01:07.000Z</time>
      </trkpt>
      <trkpt lat="47.52554" lon="-2.34891">
        <ele>58</ele>
        <time>2021-08-15T08:01:13.000Z</time>
      </trkpt>
      <trkpt lat="47.52554" lon="-2.34894">
        <ele>58</ele>
        <time>2021-08-15T08:01:14.000Z</time>
      </trkpt>
      <trkpt lat="47.52553" lon="-2.34902">
        <ele>58</ele>
        <time>2021-08-15T08:01:17.000Z</time>
      </trkpt>
      <trkpt lat="47.52554" lon="-2.34904">
        <ele>58</ele>
        <time>2021-08-15T08:01:18.000Z</time>
      </trkpt>
      <trkpt lat="47.5256" lon="-2.34918">
        <ele>58</ele>
        <time>2021-08-15T08:01:22.000Z</time>
      </trkpt>
      <trkpt lat="47.52572" lon="-2.34936">
        <ele>58</ele>
        <time>2021-08-15T08:01:27.000Z</time>
      </trkpt>
      <trkpt lat="47.52587" lon="-2.3497">
        <ele>58</ele>
        <time>2021-08-15T08:01:35.000Z</time>
      </trkpt>
      <trkpt lat="47.52589" lon="-2.34994">
        <ele>57.599998474121</ele>
        <time>2021-08-15T08:01:38.000Z</time>
      </trkpt>
      <trkpt lat="47.52589" lon="-2.35004">
        <ele>57.200000762939</ele>
        <time>2021-08-15T08:01:39.000Z</time>
      </trkpt>
      <trkpt lat="47.5259" lon="-2.35014">
        <ele>56.799999237061</ele>
        <time>2021-08-15T08:01:40.000Z</time>
      </trkpt>
      <trkpt lat="47.52591" lon="-2.35022">
        <ele>56.400001525879</ele>
        <time>2021-08-15T08:01:41.000Z</time>
      </trkpt>
      <trkpt lat="47.52591" lon="-2.35031">
        <ele>56</ele>
        <time>2021-08-15T08:01:42.000Z</time>
      </trkpt>
      <trkpt lat="47.52594" lon="-2.35061">
        <ele>56</ele>
        <time>2021-08-15T08:01:46.000Z</time>
      </trkpt>
      <trkpt lat="47.52595" lon="-2.35073">
        <ele>56</ele>
        <time>2021-08-15T08:01:48.000Z</time>
      </trkpt>
      <trkpt lat="47.52592" lon="-2.35078">
        <ele>56</ele>
        <time>2021-08-15T08:01:50.000Z</time>
      </trkpt>
      <trkpt lat="47.52589" lon="-2.35078">
        <ele>56</ele>
        <time>2021-08-15T08:01:52.000Z</time>
      </trkpt>
      <trkpt lat="47.52586" lon="-2.35079">
        <ele>56</ele>
        <time>2021-08-15T08:01:54.000Z</time>
      </trkpt>
      <trkpt lat="47.52586" lon="-2.3508">
        <ele>56</ele>
        <time>2021-08-15T08:01:55.000Z</time>
      </trkpt>
      <trkpt lat="47.52587" lon="-2.35089">
        <ele>56</ele>
        <time>2021-08-15T08:01:58.000Z</time>
      </trkpt>
      <trkpt lat="47.52588" lon="-2.3511">
        <ele>56</ele>
        <time>2021-08-15T08:02:03.000Z</time>
      </trkpt>
      <trkpt lat="47.52579" lon="-2.35116">
        <ele>56</ele>
        <time>2021-08-15T08:02:07.000Z</time>
      </trkpt>
      <trkpt lat="47.52575" lon="-2.35118">
        <ele>55.599998474121</ele>
        <time>2021-08-15T08:02:09.000Z</time>
      </trkpt>
      <trkpt lat="47.52573" lon="-2.35118">
        <ele>55.200000762939</ele>
        <time>2021-08-15T08:02:10.000Z</time>
      </trkpt>
      <trkpt lat="47.52572" lon="-2.35119">
        <ele>54.799999237061</ele>
        <time>2021-08-15T08:02:11.000Z</time>
      </trkpt>
      <trkpt lat="47.5257" lon="-2.35119">
        <ele>54.200000762939</ele>
        <time>2021-08-15T08:02:12.000Z</time>
      </trkpt>
      <trkpt lat="47.52569" lon="-2.35119">
        <ele>53.799999237061</ele>
        <time>2021-08-15T08:02:13.000Z</time>
      </trkpt>
      <trkpt lat="47.52566" lon="-2.3512">
        <ele>53.799999237061</ele>
        <time>2021-08-15T08:02:16.000Z</time>
      </trkpt>
      <trkpt lat="47.52564" lon="-2.35123">
        <ele>53.799999237061</ele>
        <time>2021-08-15T08:02:35.000Z</time>
      </trkpt>
      <trkpt lat="47.52558" lon="-2.35129">
        <ele>53.799999237061</ele>
        <time>2021-08-15T08:02:39.000Z</time>
      </trkpt>
      <trkpt lat="47.52556" lon="-2.35129">
        <ele>53.799999237061</ele>
        <time>2021-08-15T08:02:40.000Z</time>
      </trkpt>
      <trkpt lat="47.52549" lon="-2.35124">
        <ele>53.799999237061</ele>
        <time>2021-08-15T08:02:45.000Z</time>
      </trkpt>
      <trkpt lat="47.52547" lon="-2.35123">
        <ele>53.799999237061</ele>
        <time>2021-08-15T08:02:47.000Z</time>
      </trkpt>
      <trkpt lat="47.52545" lon="-2.35123">
        <ele>53.400001525879</ele>
        <time>2021-08-15T08:02:48.000Z</time>
      </trkpt>
      <trkpt lat="47.52543" lon="-2.35123">
        <ele>53</ele>
        <time>2021-08-15T08:02:49.000Z</time>
      </trkpt>
      <trkpt lat="47.52541" lon="-2.35123">
        <ele>52.599998474121</ele>
        <time>2021-08-15T08:02:50.000Z</time>
      </trkpt>
      <trkpt lat="47.52538" lon="-2.35124">
        <ele>52.200000762939</ele>
        <time>2021-08-15T08:02:51.000Z</time>
      </trkpt>
      <trkpt lat="47.52536" lon="-2.35124">
        <ele>51.799999237061</ele>
        <time>2021-08-15T08:02:52.000Z</time>
      </trkpt>
      <trkpt lat="47.52528" lon="-2.35122">
        <ele>51.400001525879</ele>
        <time>2021-08-15T08:02:56.000Z</time>
      </trkpt>
      <trkpt lat="47.52527" lon="-2.3512">
        <ele>50.799999237061</ele>
        <time>2021-08-15T08:02:57.000Z</time>
      </trkpt>
      <trkpt lat="47.52526" lon="-2.35119">
        <ele>50</ele>
        <time>2021-08-15T08:02:58.000Z</time>
      </trkpt>
      <trkpt lat="47.52525" lon="-2.35118">
        <ele>49.400001525879</ele>
        <time>2021-08-15T08:02:59.000Z</time>
      </trkpt>
      <trkpt lat="47.52524" lon="-2.35117">
        <ele>49.400001525879</ele>
        <time>2021-08-15T08:03:00.000Z</time>
      </trkpt>
      <trkpt lat="47.52524" lon="-2.35123">
        <ele>49.400001525879</ele>
        <time>2021-08-15T08:03:05.000Z</time>
      </trkpt>
      <trkpt lat="47.52526" lon="-2.35125">
        <ele>49.400001525879</ele>
        <time>2021-08-15T08:03:06.000Z</time>
      </trkpt>
      <trkpt lat="47.5253" lon="-2.3513">
        <ele>49.400001525879</ele>
        <time>2021-08-15T08:03:09.000Z</time>
      </trkpt>
      <trkpt lat="47.52534" lon="-2.35132">
        <ele>49.400001525879</ele>
        <time>2021-08-15T08:03:11.000Z</time>
      </trkpt>
      <trkpt lat="47.52535" lon="-2.35134">
        <ele>49.400001525879</ele>
        <time>2021-08-15T08:03:13.000Z</time>
      </trkpt>
      <trkpt lat="47.52532" lon="-2.35137">
        <ele>49.400001525879</ele>
        <time>2021-08-15T08:03:16.000Z</time>
      </trkpt>
      <trkpt lat="47.52528" lon="-2.35139">
        <ele>49.400001525879</ele>
        <time>2021-08-15T08:03:17.000Z</time>
      </trkpt>
      <trkpt lat="47.52515" lon="-2.35147">
        <ele>49</ele>
        <time>2021-08-15T08:03:20.000Z</time>
      </trkpt>
      <trkpt lat="47.52512" lon="-2.3515">
        <ele>48.599998474121</ele>
        <time>2021-08-15T08:03:21.000Z</time>
      </trkpt>
      <trkpt lat="47.5251" lon="-2.35151">
        <ele>48</ele>
        <time>2021-08-15T08:03:22.000Z</time>
      </trkpt>
      <trkpt lat="47.52508" lon="-2.35152">
        <ele>47</ele>
        <time>2021-08-15T08:03:23.000Z</time>
      </trkpt>
      <trkpt lat="47.52507" lon="-2.3515">
        <ele>46.400001525879</ele>
        <time>2021-08-15T08:03:24.000Z</time>
      </trkpt>
      <trkpt lat="47.52505" lon="-2.35148">
        <ele>46</ele>
        <time>2021-08-15T08:03:25.000Z</time>
      </trkpt>
      <trkpt lat="47.52504" lon="-2.35147">
        <ele>45.400001525879</ele>
        <time>2021-08-15T08:03:26.000Z</time>
      </trkpt>
      <trkpt lat="47.52503" lon="-2.35144">
        <ele>44.799999237061</ele>
        <time>2021-08-15T08:03:27.000Z</time>
      </trkpt>
      <trkpt lat="47.52504" lon="-2.35138">
        <ele>44.799999237061</ele>
        <time>2021-08-15T08:03:30.000Z</time>
      </trkpt>
      <trkpt lat="47.52509" lon="-2.35134">
        <ele>44.799999237061</ele>
        <time>2021-08-15T08:03:34.000Z</time>
      </trkpt>
      <trkpt lat="47.52508" lon="-2.3513">
        <ele>45.200000762939</ele>
        <time>2021-08-15T08:03:35.000Z</time>
      </trkpt>
      <trkpt lat="47.52508" lon="-2.35127">
        <ele>45.599998474121</ele>
        <time>2021-08-15T08:03:36.000Z</time>
      </trkpt>
      <trkpt lat="47.52508" lon="-2.35124">
        <ele>46</ele>
        <time>2021-08-15T08:03:37.000Z</time>
      </trkpt>
      <trkpt lat="47.52509" lon="-2.35121">
        <ele>46.400001525879</ele>
        <time>2021-08-15T08:03:38.000Z</time>
      </trkpt>
      <trkpt lat="47.52509" lon="-2.35118">
        <ele>46.799999237061</ele>
        <time>2021-08-15T08:03:39.000Z</time>
      </trkpt>
      <trkpt lat="47.52509" lon="-2.35108">
        <ele>46.799999237061</ele>
        <time>2021-08-15T08:03:43.000Z</time>
      </trkpt>
      <trkpt lat="47.52507" lon="-2.35105">
        <ele>46.799999237061</ele>
        <time>2021-08-15T08:03:44.000Z</time>
      </trkpt>
      <trkpt lat="47.52505" lon="-2.35102">
        <ele>46.799999237061</ele>
        <time>2021-08-15T08:03:45.000Z</time>
      </trkpt>
      <trkpt lat="47.52504" lon="-2.35085">
        <ele>46.799999237061</ele>
        <time>2021-08-15T08:03:49.000Z</time>
      </trkpt>
      <trkpt lat="47.52505" lon="-2.35081">
        <ele>46.799999237061</ele>
        <time>2021-08-15T08:03:50.000Z</time>
      </trkpt>
      <trkpt lat="47.52506" lon="-2.35078">
        <ele>47.400001525879</ele>
        <time>2021-08-15T08:03:51.000Z</time>
      </trkpt>
      <trkpt lat="47.52506" lon="-2.35075">
        <ele>47.799999237061</ele>
        <time>2021-08-15T08:03:52.000Z</time>
      </trkpt>
      <trkpt lat="47.52507" lon="-2.35072">
        <ele>48.200000762939</ele>
        <time>2021-08-15T08:03:53.000Z</time>
      </trkpt>
      <trkpt lat="47.52507" lon="-2.35069">
        <ele>48.799999237061</ele>
        <time>2021-08-15T08:03:54.000Z</time>
      </trkpt>
      <trkpt lat="47.52506" lon="-2.35065">
        <ele>49.200000762939</ele>
        <time>2021-08-15T08:03:55.000Z</time>
      </trkpt>
      <trkpt lat="47.525" lon="-2.35057">
        <ele>49.200000762939</ele>
        <time>2021-08-15T08:03:58.000Z</time>
      </trkpt>
      <trkpt lat="47.52498" lon="-2.35055">
        <ele>49.200000762939</ele>
        <time>2021-08-15T08:03:59.000Z</time>
      </trkpt>
      <trkpt lat="47.52489" lon="-2.35045">
        <ele>49.200000762939</ele>
        <time>2021-08-15T08:04:03.000Z</time>
      </trkpt>
      <trkpt lat="47.52487" lon="-2.35047">
        <ele>49.200000762939</ele>
        <time>2021-08-15T08:04:05.000Z</time>
      </trkpt>
      <trkpt lat="47.52482" lon="-2.35049">
        <ele>48.799999237061</ele>
        <time>2021-08-15T08:04:07.000Z</time>
      </trkpt>
      <trkpt lat="47.5248" lon="-2.3505">
        <ele>48.400001525879</ele>
        <time>2021-08-15T08:04:08.000Z</time>
      </trkpt>
      <trkpt lat="47.52478" lon="-2.35052">
        <ele>48</ele>
        <time>2021-08-15T08:04:09.000Z</time>
      </trkpt>
      <trkpt lat="47.52476" lon="-2.35054">
        <ele>47.599998474121</ele>
        <time>2021-08-15T08:04:10.000Z</time>
      </trkpt>
      <trkpt lat="47.52473" lon="-2.35056">
        <ele>47.200000762939</ele>
        <time>2021-08-15T08:04:11.000Z</time>
      </trkpt>
      <trkpt lat="47.52472" lon="-2.35057">
        <ele>46.200000762939</ele>
        <time>2021-08-15T08:04:12.000Z</time>
      </trkpt>
      <trkpt lat="47.5247" lon="-2.35056">
        <ele>45.799999237061</ele>
        <time>2021-08-15T08:04:13.000Z</time>
      </trkpt>
      <trkpt lat="47.52468" lon="-2.35055">
        <ele>45.400001525879</ele>
        <time>2021-08-15T08:04:14.000Z</time>
      </trkpt>
      <trkpt lat="47.52466" lon="-2.35052">
        <ele>45</ele>
        <time>2021-08-15T08:04:15.000Z</time>
      </trkpt>
      <trkpt lat="47.52463" lon="-2.35046">
        <ele>45</ele>
        <time>2021-08-15T08:04:17.000Z</time>
      </trkpt>
      <trkpt lat="47.5246" lon="-2.35039">
        <ele>44.599998474121</ele>
        <time>2021-08-15T08:04:19.000Z</time>
      </trkpt>
      <trkpt lat="47.5246" lon="-2.35035">
        <ele>44</ele>
        <time>2021-08-15T08:04:20.000Z</time>
      </trkpt>
      <trkpt lat="47.52461" lon="-2.35033">
        <ele>43.599998474121</ele>
        <time>2021-08-15T08:04:21.000Z</time>
      </trkpt>
      <trkpt lat="47.52462" lon="-2.35031">
        <ele>43.200000762939</ele>
        <time>2021-08-15T08:04:22.000Z</time>
      </trkpt>
      <trkpt lat="47.52464" lon="-2.3503">
        <ele>42.799999237061</ele>
        <time>2021-08-15T08:04:23.000Z</time>
      </trkpt>
      <trkpt lat="47.52466" lon="-2.3503">
        <ele>42.799999237061</ele>
        <time>2021-08-15T08:04:24.000Z</time>
      </trkpt>
      <trkpt lat="47.5247" lon="-2.35029">
        <ele>42.799999237061</ele>
        <time>2021-08-15T08:04:27.000Z</time>
      </trkpt>
      <trkpt lat="47.52471" lon="-2.35028">
        <ele>43.200000762939</ele>
        <time>2021-08-15T08:04:28.000Z</time>
      </trkpt>
      <trkpt lat="47.52473" lon="-2.35028">
        <ele>43.599998474121</ele>
        <time>2021-08-15T08:04:29.000Z</time>
      </trkpt>
      <trkpt lat="47.52475" lon="-2.35027">
        <ele>44</ele>
        <time>2021-08-15T08:04:30.000Z</time>
      </trkpt>
      <trkpt lat="47.52476" lon="-2.35026">
        <ele>44.400001525879</ele>
        <time>2021-08-15T08:04:31.000Z</time>
      </trkpt>
      <trkpt lat="47.52477" lon="-2.35026">
        <ele>44.799999237061</ele>
        <time>2021-08-15T08:04:32.000Z</time>
      </trkpt>
      <trkpt lat="47.52481" lon="-2.35024">
        <ele>45.400001525879</ele>
        <time>2021-08-15T08:04:35.000Z</time>
      </trkpt>
      <trkpt lat="47.52483" lon="-2.35022">
        <ele>46.200000762939</ele>
        <time>2021-08-15T08:04:36.000Z</time>
      </trkpt>
      <trkpt lat="47.52484" lon="-2.35021">
        <ele>46.599998474121</ele>
        <time>2021-08-15T08:04:37.000Z</time>
      </trkpt>
      <trkpt lat="47.52485" lon="-2.35019">
        <ele>47</ele>
        <time>2021-08-15T08:04:38.000Z</time>
      </trkpt>
      <trkpt lat="47.52487" lon="-2.35011">
        <ele>47</ele>
        <time>2021-08-15T08:04:41.000Z</time>
      </trkpt>
      <trkpt lat="47.52486" lon="-2.34999">
        <ele>47.400001525879</ele>
        <time>2021-08-15T08:04:45.000Z</time>
      </trkpt>
      <trkpt lat="47.52486" lon="-2.34997">
        <ele>47.799999237061</ele>
        <time>2021-08-15T08:04:46.000Z</time>
      </trkpt>
      <trkpt lat="47.52485" lon="-2.34994">
        <ele>48.400001525879</ele>
        <time>2021-08-15T08:04:47.000Z</time>
      </trkpt>
      <trkpt lat="47.52484" lon="-2.34991">
        <ele>48.799999237061</ele>
        <time>2021-08-15T08:04:48.000Z</time>
      </trkpt>
      <trkpt lat="47.52483" lon="-2.34988">
        <ele>49.200000762939</ele>
        <time>2021-08-15T08:04:49.000Z</time>
      </trkpt>
      <trkpt lat="47.52483" lon="-2.34968">
        <ele>49.200000762939</ele>
        <time>2021-08-15T08:04:55.000Z</time>
      </trkpt>
      <trkpt lat="47.52476" lon="-2.34945">
        <ele>49.200000762939</ele>
        <time>2021-08-15T08:05:02.000Z</time>
      </trkpt>
      <trkpt lat="47.52475" lon="-2.34937">
        <ele>49.599998474121</ele>
        <time>2021-08-15T08:05:05.000Z</time>
      </trkpt>
      <trkpt lat="47.52475" lon="-2.34934">
        <ele>50</ele>
        <time>2021-08-15T08:05:06.000Z</time>
      </trkpt>
      <trkpt lat="47.52476" lon="-2.34932">
        <ele>50.400001525879</ele>
        <time>2021-08-15T08:05:07.000Z</time>
      </trkpt>
      <trkpt lat="47.52476" lon="-2.3493">
        <ele>50.799999237061</ele>
        <time>2021-08-15T08:05:08.000Z</time>
      </trkpt>
      <trkpt lat="47.52477" lon="-2.34928">
        <ele>51.200000762939</ele>
        <time>2021-08-15T08:05:09.000Z</time>
      </trkpt>
      <trkpt lat="47.52484" lon="-2.34922">
        <ele>51.200000762939</ele>
        <time>2021-08-15T08:05:14.000Z</time>
      </trkpt>
      <trkpt lat="47.52485" lon="-2.34922">
        <ele>51.200000762939</ele>
        <time>2021-08-15T08:05:15.000Z</time>
      </trkpt>
      <trkpt lat="47.52488" lon="-2.34923">
        <ele>51.599998474121</ele>
        <time>2021-08-15T08:05:17.000Z</time>
      </trkpt>
      <trkpt lat="47.52489" lon="-2.34923">
        <ele>52</ele>
        <time>2021-08-15T08:05:18.000Z</time>
      </trkpt>
      <trkpt lat="47.52491" lon="-2.34924">
        <ele>52.400001525879</ele>
        <time>2021-08-15T08:05:19.000Z</time>
      </trkpt>
      <trkpt lat="47.52492" lon="-2.34926">
        <ele>52.799999237061</ele>
        <time>2021-08-15T08:05:20.000Z</time>
      </trkpt>
      <trkpt lat="47.52494" lon="-2.34927">
        <ele>53.400001525879</ele>
        <time>2021-08-15T08:05:21.000Z</time>
      </trkpt>
      <trkpt lat="47.52505" lon="-2.34926">
        <ele>53.400001525879</ele>
        <time>2021-08-15T08:05:27.000Z</time>
      </trkpt>
      <trkpt lat="47.5251" lon="-2.34925">
        <ele>53.400001525879</ele>
        <time>2021-08-15T08:05:30.000Z</time>
      </trkpt>
      <trkpt lat="47.52521" lon="-2.34921">
        <ele>55.400001525879</ele>
        <time>2021-08-15T08:05:37.000Z</time>
      </trkpt>
      <trkpt lat="47.52523" lon="-2.34919">
        <ele>55.400001525879</ele>
        <time>2021-08-15T08:05:38.000Z</time>
      </trkpt>
      <trkpt lat="47.52526" lon="-2.34908">
        <ele>55.400001525879</ele>
        <time>2021-08-15T08:05:43.000Z</time>
      </trkpt>
      <trkpt lat="47.52521" lon="-2.34903">
        <ele>55.400001525879</ele>
        <time>2021-08-15T08:05:47.000Z</time>
      </trkpt>
      <trkpt lat="47.52516" lon="-2.34899">
        <ele>55.400001525879</ele>
        <time>2021-08-15T08:05:49.000Z</time>
      </trkpt>
      <trkpt lat="47.52507" lon="-2.3489">
        <ele>55.400001525879</ele>
        <time>2021-08-15T08:05:54.000Z</time>
      </trkpt>
      <trkpt lat="47.52505" lon="-2.3488">
        <ele>55.400001525879</ele>
        <time>2021-08-15T08:05:57.000Z</time>
      </trkpt>
      <trkpt lat="47.52506" lon="-2.34879">
        <ele>55.400001525879</ele>
        <time>2021-08-15T08:05:58.000Z</time>
      </trkpt>
      <trkpt lat="47.52508" lon="-2.34878">
        <ele>55.400001525879</ele>
        <time>2021-08-15T08:05:59.000Z</time>
      </trkpt>
      <trkpt lat="47.52517" lon="-2.34874">
        <ele>55.400001525879</ele>
        <time>2021-08-15T08:06:03.000Z</time>
      </trkpt>
      <trkpt lat="47.52519" lon="-2.34872">
        <ele>55.400001525879</ele>
        <time>2021-08-15T08:06:04.000Z</time>
      </trkpt>
      <trkpt lat="47.5252" lon="-2.34865">
        <ele>55.400001525879</ele>
        <time>2021-08-15T08:06:06.000Z</time>
      </trkpt>
      <trkpt lat="47.52522" lon="-2.3486">
        <ele>55.400001525879</ele>
        <time>2021-08-15T08:06:08.000Z</time>
      </trkpt>
      <trkpt lat="47.52522" lon="-2.34842">
        <ele>55.400001525879</ele>
        <time>2021-08-15T08:06:13.000Z</time>
      </trkpt>
      <trkpt lat="47.52515" lon="-2.34834">
        <ele>55.400001525879</ele>
        <time>2021-08-15T08:06:17.000Z</time>
      </trkpt>
      <trkpt lat="47.52514" lon="-2.34834">
        <ele>55.400001525879</ele>
        <time>2021-08-15T08:06:18.000Z</time>
      </trkpt>
      <trkpt lat="47.52512" lon="-2.34835">
        <ele>55.400001525879</ele>
        <time>2021-08-15T08:06:19.000Z</time>
      </trkpt>
      <trkpt lat="47.52503" lon="-2.34834">
        <ele>55.400001525879</ele>
        <time>2021-08-15T08:06:23.000Z</time>
      </trkpt>
      <trkpt lat="47.52493" lon="-2.34822">
        <ele>55.400001525879</ele>
        <time>2021-08-15T08:06:29.000Z</time>
      </trkpt>
      <trkpt lat="47.52491" lon="-2.34821">
        <ele>55.400001525879</ele>
        <time>2021-08-15T08:06:31.000Z</time>
      </trkpt>
      <trkpt lat="47.52484" lon="-2.34834">
        <ele>55.400001525879</ele>
        <time>2021-08-15T08:07:07.000Z</time>
      </trkpt>
      <trkpt lat="47.52484" lon="-2.34838">
        <ele>55.400001525879</ele>
        <time>2021-08-15T08:07:08.000Z</time>
      </trkpt>
      <trkpt lat="47.52485" lon="-2.34847">
        <ele>55.400001525879</ele>
        <time>2021-08-15T08:07:11.000Z</time>
      </trkpt>
      <trkpt lat="47.52484" lon="-2.34848">
        <ele>55.400001525879</ele>
        <time>2021-08-15T08:07:12.000Z</time>
      </trkpt>
      <trkpt lat="47.52482" lon="-2.3485">
        <ele>55.400001525879</ele>
        <time>2021-08-15T08:07:13.000Z</time>
      </trkpt>
      <trkpt lat="47.52468" lon="-2.34859">
        <ele>55</ele>
        <time>2021-08-15T08:07:18.000Z</time>
      </trkpt>
      <trkpt lat="47.52466" lon="-2.34863">
        <ele>54.599998474121</ele>
        <time>2021-08-15T08:07:19.000Z</time>
      </trkpt>
      <trkpt lat="47.52464" lon="-2.34867">
        <ele>54.200000762939</ele>
        <time>2021-08-15T08:07:20.000Z</time>
      </trkpt>
      <trkpt lat="47.52462" lon="-2.34869">
        <ele>53.799999237061</ele>
        <time>2021-08-15T08:07:21.000Z</time>
      </trkpt>
      <trkpt lat="47.5246" lon="-2.3487">
        <ele>53.400001525879</ele>
        <time>2021-08-15T08:07:22.000Z</time>
      </trkpt>
      <trkpt lat="47.52455" lon="-2.34873">
        <ele>53</ele>
        <time>2021-08-15T08:07:25.000Z</time>
      </trkpt>
      <trkpt lat="47.52454" lon="-2.34875">
        <ele>52.599998474121</ele>
        <time>2021-08-15T08:07:26.000Z</time>
      </trkpt>
      <trkpt lat="47.52453" lon="-2.34877">
        <ele>52.200000762939</ele>
        <time>2021-08-15T08:07:27.000Z</time>
      </trkpt>
      <trkpt lat="47.52452" lon="-2.34879">
        <ele>51.799999237061</ele>
        <time>2021-08-15T08:07:28.000Z</time>
      </trkpt>
      <trkpt lat="47.5245" lon="-2.34881">
        <ele>51.400001525879</ele>
        <time>2021-08-15T08:07:29.000Z</time>
      </trkpt>
      <trkpt lat="47.52446" lon="-2.3488">
        <ele>51.400001525879</ele>
        <time>2021-08-15T08:07:31.000Z</time>
      </trkpt>
      <trkpt lat="47.52444" lon="-2.34877">
        <ele>51</ele>
        <time>2021-08-15T08:07:32.000Z</time>
      </trkpt>
      <trkpt lat="47.52443" lon="-2.34873">
        <ele>50.599998474121</ele>
        <time>2021-08-15T08:07:33.000Z</time>
      </trkpt>
      <trkpt lat="47.52442" lon="-2.34869">
        <ele>50</ele>
        <time>2021-08-15T08:07:34.000Z</time>
      </trkpt>
      <trkpt lat="47.5244" lon="-2.34867">
        <ele>49.599998474121</ele>
        <time>2021-08-15T08:07:35.000Z</time>
      </trkpt>
      <trkpt lat="47.52439" lon="-2.34867">
        <ele>49.200000762939</ele>
        <time>2021-08-15T08:07:36.000Z</time>
      </trkpt>
      <trkpt lat="47.52437" lon="-2.34867">
        <ele>49.200000762939</ele>
        <time>2021-08-15T08:07:37.000Z</time>
      </trkpt>
      <trkpt lat="47.52428" lon="-2.34879">
        <ele>49.200000762939</ele>
        <time>2021-08-15T08:07:42.000Z</time>
      </trkpt>
      <trkpt lat="47.52428" lon="-2.34883">
        <ele>48.799999237061</ele>
        <time>2021-08-15T08:07:43.000Z</time>
      </trkpt>
      <trkpt lat="47.52428" lon="-2.34886">
        <ele>48.400001525879</ele>
        <time>2021-08-15T08:07:44.000Z</time>
      </trkpt>
      <trkpt lat="47.52429" lon="-2.34889">
        <ele>48</ele>
        <time>2021-08-15T08:07:45.000Z</time>
      </trkpt>
      <trkpt lat="47.52429" lon="-2.34891">
        <ele>47.599998474121</ele>
        <time>2021-08-15T08:07:46.000Z</time>
      </trkpt>
      <trkpt lat="47.52428" lon="-2.34893">
        <ele>47.200000762939</ele>
        <time>2021-08-15T08:07:47.000Z</time>
      </trkpt>
      <trkpt lat="47.52421" lon="-2.34899">
        <ele>47.200000762939</ele>
        <time>2021-08-15T08:07:51.000Z</time>
      </trkpt>
      <trkpt lat="47.52419" lon="-2.34899">
        <ele>46.599998474121</ele>
        <time>2021-08-15T08:07:52.000Z</time>
      </trkpt>
      <trkpt lat="47.52417" lon="-2.34898">
        <ele>46.200000762939</ele>
        <time>2021-08-15T08:07:53.000Z</time>
      </trkpt>
      <trkpt lat="47.52416" lon="-2.34897">
        <ele>45.400001525879</ele>
        <time>2021-08-15T08:07:54.000Z</time>
      </trkpt>
      <trkpt lat="47.52414" lon="-2.34896">
        <ele>45</ele>
        <time>2021-08-15T08:07:55.000Z</time>
      </trkpt>
      <trkpt lat="47.52407" lon="-2.34892">
        <ele>45</ele>
        <time>2021-08-15T08:08:00.000Z</time>
      </trkpt>
      <trkpt lat="47.52407" lon="-2.34894">
        <ele>44.599998474121</ele>
        <time>2021-08-15T08:08:01.000Z</time>
      </trkpt>
      <trkpt lat="47.52407" lon="-2.34896">
        <ele>44.200000762939</ele>
        <time>2021-08-15T08:08:02.000Z</time>
      </trkpt>
      <trkpt lat="47.52406" lon="-2.34899">
        <ele>43.799999237061</ele>
        <time>2021-08-15T08:08:03.000Z</time>
      </trkpt>
      <trkpt lat="47.52404" lon="-2.34901">
        <ele>43.400001525879</ele>
        <time>2021-08-15T08:08:04.000Z</time>
      </trkpt>
      <trkpt lat="47.52403" lon="-2.34903">
        <ele>42.799999237061</ele>
        <time>2021-08-15T08:08:05.000Z</time>
      </trkpt>
      <trkpt lat="47.52401" lon="-2.34906">
        <ele>42.400001525879</ele>
        <time>2021-08-15T08:08:06.000Z</time>
      </trkpt>
      <trkpt lat="47.52397" lon="-2.34908">
        <ele>42</ele>
        <time>2021-08-15T08:08:07.000Z</time>
      </trkpt>
      <trkpt lat="47.52394" lon="-2.3491">
        <ele>41.599998474121</ele>
        <time>2021-08-15T08:08:08.000Z</time>
      </trkpt>
      <trkpt lat="47.52391" lon="-2.34912">
        <ele>40.799999237061</ele>
        <time>2021-08-15T08:08:09.000Z</time>
      </trkpt>
      <trkpt lat="47.52388" lon="-2.34914">
        <ele>40.200000762939</ele>
        <time>2021-08-15T08:08:10.000Z</time>
      </trkpt>
      <trkpt lat="47.52385" lon="-2.34915">
        <ele>39.400001525879</ele>
        <time>2021-08-15T08:08:11.000Z</time>
      </trkpt>
      <trkpt lat="47.52382" lon="-2.34915">
        <ele>38.599998474121</ele>
        <time>2021-08-15T08:08:12.000Z</time>
      </trkpt>
      <trkpt lat="47.52379" lon="-2.34914">
        <ele>37.799999237061</ele>
        <time>2021-08-15T08:08:13.000Z</time>
      </trkpt>
      <trkpt lat="47.52376" lon="-2.34911">
        <ele>37.200000762939</ele>
        <time>2021-08-15T08:08:14.000Z</time>
      </trkpt>
      <trkpt lat="47.52374" lon="-2.34908">
        <ele>36.400001525879</ele>
        <time>2021-08-15T08:08:15.000Z</time>
      </trkpt>
      <trkpt lat="47.52372" lon="-2.34906">
        <ele>35.599998474121</ele>
        <time>2021-08-15T08:08:16.000Z</time>
      </trkpt>
      <trkpt lat="47.52371" lon="-2.34903">
        <ele>35.599998474121</ele>
        <time>2021-08-15T08:08:17.000Z</time>
      </trkpt>
      <trkpt lat="47.5237" lon="-2.34901">
        <ele>34.799999237061</ele>
        <time>2021-08-15T08:08:18.000Z</time>
      </trkpt>
      <trkpt lat="47.5237" lon="-2.34899">
        <ele>34.400001525879</ele>
        <time>2021-08-15T08:08:19.000Z</time>
      </trkpt>
      <trkpt lat="47.5237" lon="-2.34898">
        <ele>33.799999237061</ele>
        <time>2021-08-15T08:08:20.000Z</time>
      </trkpt>
      <trkpt lat="47.52369" lon="-2.34896">
        <ele>33.400001525879</ele>
        <time>2021-08-15T08:08:21.000Z</time>
      </trkpt>
      <trkpt lat="47.52364" lon="-2.34889">
        <ele>33.400001525879</ele>
        <time>2021-08-15T08:08:25.000Z</time>
      </trkpt>
      <trkpt lat="47.5236" lon="-2.34884">
        <ele>33.400001525879</ele>
        <time>2021-08-15T08:08:27.000Z</time>
      </trkpt>
      <trkpt lat="47.52358" lon="-2.34876">
        <ele>33.400001525879</ele>
        <time>2021-08-15T08:08:29.000Z</time>
      </trkpt>
      <trkpt lat="47.5235" lon="-2.34854">
        <ele>33.400001525879</ele>
        <time>2021-08-15T08:08:35.000Z</time>
      </trkpt>
      <trkpt lat="47.52341" lon="-2.34837">
        <ele>33.400001525879</ele>
        <time>2021-08-15T08:08:40.000Z</time>
      </trkpt>
      <trkpt lat="47.52334" lon="-2.34827">
        <ele>33</ele>
        <time>2021-08-15T08:08:44.000Z</time>
      </trkpt>
      <trkpt lat="47.52333" lon="-2.34824">
        <ele>32.599998474121</ele>
        <time>2021-08-15T08:08:45.000Z</time>
      </trkpt>
      <trkpt lat="47.52332" lon="-2.34822">
        <ele>32.200000762939</ele>
        <time>2021-08-15T08:08:46.000Z</time>
      </trkpt>
      <trkpt lat="47.52332" lon="-2.34819">
        <ele>31.799999237061</ele>
        <time>2021-08-15T08:08:47.000Z</time>
      </trkpt>
      <trkpt lat="47.52333" lon="-2.34816">
        <ele>31.39999961853</ele>
        <time>2021-08-15T08:08:48.000Z</time>
      </trkpt>
      <trkpt lat="47.52332" lon="-2.3481">
        <ele>31.799999237061</ele>
        <time>2021-08-15T08:08:50.000Z</time>
      </trkpt>
      <trkpt lat="47.52332" lon="-2.34807">
        <ele>32.200000762939</ele>
        <time>2021-08-15T08:08:51.000Z</time>
      </trkpt>
      <trkpt lat="47.52332" lon="-2.34805">
        <ele>32.599998474121</ele>
        <time>2021-08-15T08:08:52.000Z</time>
      </trkpt>
      <trkpt lat="47.52332" lon="-2.34803">
        <ele>33</ele>
        <time>2021-08-15T08:08:53.000Z</time>
      </trkpt>
      <trkpt lat="47.52331" lon="-2.34799">
        <ele>33.400001525879</ele>
        <time>2021-08-15T08:08:54.000Z</time>
      </trkpt>
      <trkpt lat="47.5233" lon="-2.34794">
        <ele>33.400001525879</ele>
        <time>2021-08-15T08:08:55.000Z</time>
      </trkpt>
      <trkpt lat="47.52328" lon="-2.34782">
        <ele>33.400001525879</ele>
        <time>2021-08-15T08:08:58.000Z</time>
      </trkpt>
      <trkpt lat="47.52332" lon="-2.34778">
        <ele>33.400001525879</ele>
        <time>2021-08-15T08:09:00.000Z</time>
      </trkpt>
      <trkpt lat="47.52334" lon="-2.34775">
        <ele>33.799999237061</ele>
        <time>2021-08-15T08:09:01.000Z</time>
      </trkpt>
      <trkpt lat="47.52336" lon="-2.34773">
        <ele>34.400001525879</ele>
        <time>2021-08-15T08:09:02.000Z</time>
      </trkpt>
      <trkpt lat="47.52336" lon="-2.34771">
        <ele>34.799999237061</ele>
        <time>2021-08-15T08:09:03.000Z</time>
      </trkpt>
      <trkpt lat="47.52337" lon="-2.34769">
        <ele>35.200000762939</ele>
        <time>2021-08-15T08:09:04.000Z</time>
      </trkpt>
      <trkpt lat="47.52337" lon="-2.34767">
        <ele>35.599998474121</ele>
        <time>2021-08-15T08:09:05.000Z</time>
      </trkpt>
      <trkpt lat="47.52337" lon="-2.34762">
        <ele>36</ele>
        <time>2021-08-15T08:09:07.000Z</time>
      </trkpt>
      <trkpt lat="47.52338" lon="-2.34758">
        <ele>36.400001525879</ele>
        <time>2021-08-15T08:09:08.000Z</time>
      </trkpt>
      <trkpt lat="47.52338" lon="-2.34755">
        <ele>37</ele>
        <time>2021-08-15T08:09:09.000Z</time>
      </trkpt>
      <trkpt lat="47.52339" lon="-2.34752">
        <ele>37.400001525879</ele>
        <time>2021-08-15T08:09:10.000Z</time>
      </trkpt>
      <trkpt lat="47.52341" lon="-2.34748">
        <ele>37.799999237061</ele>
        <time>2021-08-15T08:09:11.000Z</time>
      </trkpt>
      <trkpt lat="47.52342" lon="-2.34745">
        <ele>37.799999237061</ele>
        <time>2021-08-15T08:09:12.000Z</time>
      </trkpt>
      <trkpt lat="47.52346" lon="-2.34741">
        <ele>38.200000762939</ele>
        <time>2021-08-15T08:09:15.000Z</time>
      </trkpt>
      <trkpt lat="47.52347" lon="-2.34742">
        <ele>38.599998474121</ele>
        <time>2021-08-15T08:09:16.000Z</time>
      </trkpt>
      <trkpt lat="47.52348" lon="-2.34744">
        <ele>39.200000762939</ele>
        <time>2021-08-15T08:09:17.000Z</time>
      </trkpt>
      <trkpt lat="47.5235" lon="-2.34745">
        <ele>39.599998474121</ele>
        <time>2021-08-15T08:09:18.000Z</time>
      </trkpt>
      <trkpt lat="47.52352" lon="-2.34746">
        <ele>40</ele>
        <time>2021-08-15T08:09:19.000Z</time>
      </trkpt>
      <trkpt lat="47.52356" lon="-2.34745">
        <ele>40.400001525879</ele>
        <time>2021-08-15T08:09:22.000Z</time>
      </trkpt>
      <trkpt lat="47.52358" lon="-2.34745">
        <ele>40.799999237061</ele>
        <time>2021-08-15T08:09:23.000Z</time>
      </trkpt>
      <trkpt lat="47.5236" lon="-2.34744">
        <ele>41.400001525879</ele>
        <time>2021-08-15T08:09:24.000Z</time>
      </trkpt>
      <trkpt lat="47.52362" lon="-2.34743">
        <ele>41.799999237061</ele>
        <time>2021-08-15T08:09:25.000Z</time>
      </trkpt>
      <trkpt lat="47.52364" lon="-2.34742">
        <ele>42.200000762939</ele>
        <time>2021-08-15T08:09:26.000Z</time>
      </trkpt>
      <trkpt lat="47.52367" lon="-2.34739">
        <ele>42.200000762939</ele>
        <time>2021-08-15T08:09:28.000Z</time>
      </trkpt>
      <trkpt lat="47.5237" lon="-2.34734">
        <ele>42.599998474121</ele>
        <time>2021-08-15T08:09:30.000Z</time>
      </trkpt>
      <trkpt lat="47.5237" lon="-2.34732">
        <ele>43.400001525879</ele>
        <time>2021-08-15T08:09:31.000Z</time>
      </trkpt>
      <trkpt lat="47.52369" lon="-2.34729">
        <ele>43.799999237061</ele>
        <time>2021-08-15T08:09:32.000Z</time>
      </trkpt>
      <trkpt lat="47.52368" lon="-2.34727">
        <ele>44.200000762939</ele>
        <time>2021-08-15T08:09:33.000Z</time>
      </trkpt>
      <trkpt lat="47.52366" lon="-2.34724">
        <ele>44.200000762939</ele>
        <time>2021-08-15T08:09:34.000Z</time>
      </trkpt>
      <trkpt lat="47.52366" lon="-2.3472">
        <ele>44.200000762939</ele>
        <time>2021-08-15T08:09:35.000Z</time>
      </trkpt>
      <trkpt lat="47.52361" lon="-2.34705">
        <ele>44.200000762939</ele>
        <time>2021-08-15T08:09:40.000Z</time>
      </trkpt>
      <trkpt lat="47.52359" lon="-2.34705">
        <ele>44.200000762939</ele>
        <time>2021-08-15T08:09:41.000Z</time>
      </trkpt>
      <trkpt lat="47.52354" lon="-2.347">
        <ele>44.200000762939</ele>
        <time>2021-08-15T08:09:44.000Z</time>
      </trkpt>
      <trkpt lat="47.52353" lon="-2.34698">
        <ele>43.799999237061</ele>
        <time>2021-08-15T08:09:45.000Z</time>
      </trkpt>
      <trkpt lat="47.52352" lon="-2.34697">
        <ele>43.400001525879</ele>
        <time>2021-08-15T08:09:46.000Z</time>
      </trkpt>
      <trkpt lat="47.52351" lon="-2.34697">
        <ele>43</ele>
        <time>2021-08-15T08:09:47.000Z</time>
      </trkpt>
      <trkpt lat="47.5235" lon="-2.34699">
        <ele>42.599998474121</ele>
        <time>2021-08-15T08:09:48.000Z</time>
      </trkpt>
      <trkpt lat="47.5235" lon="-2.34701">
        <ele>42.200000762939</ele>
        <time>2021-08-15T08:09:49.000Z</time>
      </trkpt>
      <trkpt lat="47.52349" lon="-2.34713">
        <ele>42.200000762939</ele>
        <time>2021-08-15T08:09:53.000Z</time>
      </trkpt>
      <trkpt lat="47.52348" lon="-2.34716">
        <ele>42.200000762939</ele>
        <time>2021-08-15T08:09:54.000Z</time>
      </trkpt>
      <trkpt lat="47.52343" lon="-2.34722">
        <ele>41.799999237061</ele>
        <time>2021-08-15T08:09:57.000Z</time>
      </trkpt>
      <trkpt lat="47.52341" lon="-2.34723">
        <ele>41.400001525879</ele>
        <time>2021-08-15T08:09:58.000Z</time>
      </trkpt>
      <trkpt lat="47.52339" lon="-2.34723">
        <ele>41</ele>
        <time>2021-08-15T08:09:59.000Z</time>
      </trkpt>
      <trkpt lat="47.52337" lon="-2.34723">
        <ele>40.599998474121</ele>
        <time>2021-08-15T08:10:00.000Z</time>
      </trkpt>
      <trkpt lat="47.52335" lon="-2.34721">
        <ele>40.200000762939</ele>
        <time>2021-08-15T08:10:01.000Z</time>
      </trkpt>
      <trkpt lat="47.52333" lon="-2.3472">
        <ele>39.799999237061</ele>
        <time>2021-08-15T08:10:02.000Z</time>
      </trkpt>
      <trkpt lat="47.52331" lon="-2.3472">
        <ele>39.400001525879</ele>
        <time>2021-08-15T08:10:03.000Z</time>
      </trkpt>
      <trkpt lat="47.5233" lon="-2.3472">
        <ele>39</ele>
        <time>2021-08-15T08:10:04.000Z</time>
      </trkpt>
      <trkpt lat="47.5233" lon="-2.34722">
        <ele>38.599998474121</ele>
        <time>2021-08-15T08:10:05.000Z</time>
      </trkpt>
      <trkpt lat="47.52328" lon="-2.34724">
        <ele>38</ele>
        <time>2021-08-15T08:10:06.000Z</time>
      </trkpt>
      <trkpt lat="47.52327" lon="-2.34725">
        <ele>38</ele>
        <time>2021-08-15T08:10:07.000Z</time>
      </trkpt>
      <trkpt lat="47.52325" lon="-2.34726">
        <ele>38</ele>
        <time>2021-08-15T08:10:08.000Z</time>
      </trkpt>
      <trkpt lat="47.52324" lon="-2.34726">
        <ele>37.599998474121</ele>
        <time>2021-08-15T08:10:09.000Z</time>
      </trkpt>
      <trkpt lat="47.52316" lon="-2.34729">
        <ele>35.799999237061</ele>
        <time>2021-08-15T08:10:44.000Z</time>
      </trkpt>
      <trkpt lat="47.52314" lon="-2.34732">
        <ele>35</ele>
        <time>2021-08-15T08:10:46.000Z</time>
      </trkpt>
      <trkpt lat="47.52313" lon="-2.34734">
        <ele>34.599998474121</ele>
        <time>2021-08-15T08:10:47.000Z</time>
      </trkpt>
      <trkpt lat="47.52311" lon="-2.34736">
        <ele>34.200000762939</ele>
        <time>2021-08-15T08:10:48.000Z</time>
      </trkpt>
      <trkpt lat="47.5231" lon="-2.34738">
        <ele>33.799999237061</ele>
        <time>2021-08-15T08:10:49.000Z</time>
      </trkpt>
      <trkpt lat="47.52308" lon="-2.3474">
        <ele>33.400001525879</ele>
        <time>2021-08-15T08:10:50.000Z</time>
      </trkpt>
      <trkpt lat="47.52307" lon="-2.34742">
        <ele>32.799999237061</ele>
        <time>2021-08-15T08:10:51.000Z</time>
      </trkpt>
      <trkpt lat="47.52305" lon="-2.34743">
        <ele>32.400001525879</ele>
        <time>2021-08-15T08:10:52.000Z</time>
      </trkpt>
      <trkpt lat="47.52303" lon="-2.34744">
        <ele>32</ele>
        <time>2021-08-15T08:10:53.000Z</time>
      </trkpt>
      <trkpt lat="47.52301" lon="-2.34745">
        <ele>31.60000038147</ele>
        <time>2021-08-15T08:10:54.000Z</time>
      </trkpt>
      <trkpt lat="47.52299" lon="-2.34746">
        <ele>31.200000762939</ele>
        <time>2021-08-15T08:10:55.000Z</time>
      </trkpt>
      <trkpt lat="47.52298" lon="-2.34746">
        <ele>30.799999237061</ele>
        <time>2021-08-15T08:10:56.000Z</time>
      </trkpt>
      <trkpt lat="47.52296" lon="-2.34746">
        <ele>30.39999961853</ele>
        <time>2021-08-15T08:10:57.000Z</time>
      </trkpt>
      <trkpt lat="47.52294" lon="-2.34745">
        <ele>30</ele>
        <time>2021-08-15T08:10:58.000Z</time>
      </trkpt>
      <trkpt lat="47.52292" lon="-2.34744">
        <ele>29.60000038147</ele>
        <time>2021-08-15T08:10:59.000Z</time>
      </trkpt>
      <trkpt lat="47.52289" lon="-2.34736">
        <ele>29.60000038147</ele>
        <time>2021-08-15T08:11:03.000Z</time>
      </trkpt>
      <trkpt lat="47.52284" lon="-2.34722">
        <ele>29.60000038147</ele>
        <time>2021-08-15T08:11:07.000Z</time>
      </trkpt>
      <trkpt lat="47.52284" lon="-2.34706">
        <ele>29.60000038147</ele>
        <time>2021-08-15T08:11:12.000Z</time>
      </trkpt>
      <trkpt lat="47.52284" lon="-2.34699">
        <ele>30</ele>
        <time>2021-08-15T08:11:14.000Z</time>
      </trkpt>
      <trkpt lat="47.52285" lon="-2.34696">
        <ele>30.39999961853</ele>
        <time>2021-08-15T08:11:15.000Z</time>
      </trkpt>
      <trkpt lat="47.52285" lon="-2.34692">
        <ele>30.799999237061</ele>
        <time>2021-08-15T08:11:16.000Z</time>
      </trkpt>
      <trkpt lat="47.52286" lon="-2.34689">
        <ele>31.200000762939</ele>
        <time>2021-08-15T08:11:17.000Z</time>
      </trkpt>
      <trkpt lat="47.52287" lon="-2.34686">
        <ele>31.60000038147</ele>
        <time>2021-08-15T08:11:18.000Z</time>
      </trkpt>
      <trkpt lat="47.52293" lon="-2.34684">
        <ele>31.60000038147</ele>
        <time>2021-08-15T08:11:22.000Z</time>
      </trkpt>
      <trkpt lat="47.52295" lon="-2.34684">
        <ele>31.60000038147</ele>
        <time>2021-08-15T08:11:24.000Z</time>
      </trkpt>
      <trkpt lat="47.52295" lon="-2.34683">
        <ele>32.200000762939</ele>
        <time>2021-08-15T08:11:25.000Z</time>
      </trkpt>
      <trkpt lat="47.52296" lon="-2.34681">
        <ele>32.599998474121</ele>
        <time>2021-08-15T08:11:26.000Z</time>
      </trkpt>
      <trkpt lat="47.52296" lon="-2.34679">
        <ele>33</ele>
        <time>2021-08-15T08:11:27.000Z</time>
      </trkpt>
      <trkpt lat="47.52296" lon="-2.34677">
        <ele>33.400001525879</ele>
        <time>2021-08-15T08:11:28.000Z</time>
      </trkpt>
      <trkpt lat="47.52296" lon="-2.34674">
        <ele>33.799999237061</ele>
        <time>2021-08-15T08:11:29.000Z</time>
      </trkpt>
      <trkpt lat="47.52298" lon="-2.34666">
        <ele>33.799999237061</ele>
        <time>2021-08-15T08:11:32.000Z</time>
      </trkpt>
      <trkpt lat="47.52298" lon="-2.34663">
        <ele>33.799999237061</ele>
        <time>2021-08-15T08:11:33.000Z</time>
      </trkpt>
      <trkpt lat="47.52302" lon="-2.34655">
        <ele>34.200000762939</ele>
        <time>2021-08-15T08:11:38.000Z</time>
      </trkpt>
      <trkpt lat="47.52303" lon="-2.34654">
        <ele>34.599998474121</ele>
        <time>2021-08-15T08:11:39.000Z</time>
      </trkpt>
      <trkpt lat="47.52303" lon="-2.34648">
        <ele>36</ele>
        <time>2021-08-15T08:11:53.000Z</time>
      </trkpt>
      <trkpt lat="47.52306" lon="-2.34643">
        <ele>36</ele>
        <time>2021-08-15T08:11:56.000Z</time>
      </trkpt>
      <trkpt lat="47.52306" lon="-2.34639">
        <ele>36</ele>
        <time>2021-08-15T08:11:59.000Z</time>
      </trkpt>
      <trkpt lat="47.52306" lon="-2.34637">
        <ele>36</ele>
        <time>2021-08-15T08:12:00.000Z</time>
      </trkpt>
      <trkpt lat="47.52306" lon="-2.34634">
        <ele>36</ele>
        <time>2021-08-15T08:12:01.000Z</time>
      </trkpt>
      <trkpt lat="47.52306" lon="-2.34631">
        <ele>36</ele>
        <time>2021-08-15T08:12:02.000Z</time>
      </trkpt>
      <trkpt lat="47.52309" lon="-2.34622">
        <ele>36</ele>
        <time>2021-08-15T08:12:05.000Z</time>
      </trkpt>
      <trkpt lat="47.52313" lon="-2.34618">
        <ele>36</ele>
        <time>2021-08-15T08:12:07.000Z</time>
      </trkpt>
      <trkpt lat="47.52315" lon="-2.34616">
        <ele>36.400001525879</ele>
        <time>2021-08-15T08:12:08.000Z</time>
      </trkpt>
      <trkpt lat="47.52317" lon="-2.34615">
        <ele>36.799999237061</ele>
        <time>2021-08-15T08:12:09.000Z</time>
      </trkpt>
      <trkpt lat="47.52318" lon="-2.34614">
        <ele>37.200000762939</ele>
        <time>2021-08-15T08:12:10.000Z</time>
      </trkpt>
      <trkpt lat="47.5232" lon="-2.34614">
        <ele>37.799999237061</ele>
        <time>2021-08-15T08:12:11.000Z</time>
      </trkpt>
      <trkpt lat="47.52321" lon="-2.34616">
        <ele>38.200000762939</ele>
        <time>2021-08-15T08:12:12.000Z</time>
      </trkpt>
      <trkpt lat="47.52322" lon="-2.34619">
        <ele>38.200000762939</ele>
        <time>2021-08-15T08:12:14.000Z</time>
      </trkpt>
      <trkpt lat="47.52329" lon="-2.34625">
        <ele>38.200000762939</ele>
        <time>2021-08-15T08:12:18.000Z</time>
      </trkpt>
      <trkpt lat="47.5233" lon="-2.34627">
        <ele>38.200000762939</ele>
        <time>2021-08-15T08:12:19.000Z</time>
      </trkpt>
      <trkpt lat="47.52331" lon="-2.34631">
        <ele>38.599998474121</ele>
        <time>2021-08-15T08:12:21.000Z</time>
      </trkpt>
      <trkpt lat="47.5233" lon="-2.34633">
        <ele>39</ele>
        <time>2021-08-15T08:12:22.000Z</time>
      </trkpt>
      <trkpt lat="47.5233" lon="-2.34638">
        <ele>39.400001525879</ele>
        <time>2021-08-15T08:12:23.000Z</time>
      </trkpt>
      <trkpt lat="47.52331" lon="-2.34642">
        <ele>39.799999237061</ele>
        <time>2021-08-15T08:12:24.000Z</time>
      </trkpt>
      <trkpt lat="47.52331" lon="-2.34647">
        <ele>40.200000762939</ele>
        <time>2021-08-15T08:12:25.000Z</time>
      </trkpt>
      <trkpt lat="47.52334" lon="-2.34659">
        <ele>40.200000762939</ele>
        <time>2021-08-15T08:12:28.000Z</time>
      </trkpt>
      <trkpt lat="47.52338" lon="-2.34664">
        <ele>40.200000762939</ele>
        <time>2021-08-15T08:12:30.000Z</time>
      </trkpt>
      <trkpt lat="47.52342" lon="-2.34664">
        <ele>40.200000762939</ele>
        <time>2021-08-15T08:12:32.000Z</time>
      </trkpt>
      <trkpt lat="47.52351" lon="-2.34665">
        <ele>40.599998474121</ele>
        <time>2021-08-15T08:12:38.000Z</time>
      </trkpt>
      <trkpt lat="47.52353" lon="-2.34667">
        <ele>41</ele>
        <time>2021-08-15T08:12:39.000Z</time>
      </trkpt>
      <trkpt lat="47.52355" lon="-2.34669">
        <ele>41.599998474121</ele>
        <time>2021-08-15T08:12:40.000Z</time>
      </trkpt>
      <trkpt lat="47.52356" lon="-2.3467">
        <ele>42</ele>
        <time>2021-08-15T08:12:41.000Z</time>
      </trkpt>
      <trkpt lat="47.52358" lon="-2.34671">
        <ele>42.400001525879</ele>
        <time>2021-08-15T08:12:42.000Z</time>
      </trkpt>
      <trkpt lat="47.52365" lon="-2.34673">
        <ele>42.799999237061</ele>
        <time>2021-08-15T08:12:46.000Z</time>
      </trkpt>
      <trkpt lat="47.52366" lon="-2.34673">
        <ele>43.200000762939</ele>
        <time>2021-08-15T08:12:47.000Z</time>
      </trkpt>
      <trkpt lat="47.52368" lon="-2.34672">
        <ele>43.599998474121</ele>
        <time>2021-08-15T08:12:48.000Z</time>
      </trkpt>
      <trkpt lat="47.5237" lon="-2.34672">
        <ele>44.200000762939</ele>
        <time>2021-08-15T08:12:49.000Z</time>
      </trkpt>
      <trkpt lat="47.52372" lon="-2.34672">
        <ele>44.599998474121</ele>
        <time>2021-08-15T08:12:50.000Z</time>
      </trkpt>
      <trkpt lat="47.52375" lon="-2.34673">
        <ele>44.599998474121</ele>
        <time>2021-08-15T08:12:52.000Z</time>
      </trkpt>
      <trkpt lat="47.52379" lon="-2.34668">
        <ele>44.599998474121</ele>
        <time>2021-08-15T08:13:48.000Z</time>
      </trkpt>
      <trkpt lat="47.52382" lon="-2.34661">
        <ele>44.599998474121</ele>
        <time>2021-08-15T08:13:51.000Z</time>
      </trkpt>
      <trkpt lat="47.52384" lon="-2.34659">
        <ele>44.599998474121</ele>
        <time>2021-08-15T08:13:52.000Z</time>
      </trkpt>
      <trkpt lat="47.52393" lon="-2.34649">
        <ele>44.599998474121</ele>
        <time>2021-08-15T08:13:57.000Z</time>
      </trkpt>
      <trkpt lat="47.52401" lon="-2.3464">
        <ele>45</ele>
        <time>2021-08-15T08:14:00.000Z</time>
      </trkpt>
      <trkpt lat="47.52404" lon="-2.34637">
        <ele>45.400001525879</ele>
        <time>2021-08-15T08:14:01.000Z</time>
      </trkpt>
      <trkpt lat="47.52406" lon="-2.34633">
        <ele>45.799999237061</ele>
        <time>2021-08-15T08:14:02.000Z</time>
      </trkpt>
      <trkpt lat="47.52409" lon="-2.3463">
        <ele>46.200000762939</ele>
        <time>2021-08-15T08:14:03.000Z</time>
      </trkpt>
      <trkpt lat="47.52412" lon="-2.34627">
        <ele>46.599998474121</ele>
        <time>2021-08-15T08:14:04.000Z</time>
      </trkpt>
      <trkpt lat="47.52435" lon="-2.346">
        <ele>46.599998474121</ele>
        <time>2021-08-15T08:14:12.000Z</time>
      </trkpt>
      <trkpt lat="47.52449" lon="-2.34582">
        <ele>47</ele>
        <time>2021-08-15T08:14:18.000Z</time>
      </trkpt>
      <trkpt lat="47.52452" lon="-2.34579">
        <ele>47.599998474121</ele>
        <time>2021-08-15T08:14:19.000Z</time>
      </trkpt>
      <trkpt lat="47.52455" lon="-2.34575">
        <ele>48</ele>
        <time>2021-08-15T08:14:20.000Z</time>
      </trkpt>
      <trkpt lat="47.52457" lon="-2.34572">
        <ele>48.400001525879</ele>
        <time>2021-08-15T08:14:21.000Z</time>
      </trkpt>
      <trkpt lat="47.5246" lon="-2.34568">
        <ele>48.799999237061</ele>
        <time>2021-08-15T08:14:22.000Z</time>
      </trkpt>
      <trkpt lat="47.52469" lon="-2.34559">
        <ele>48.799999237061</ele>
        <time>2021-08-15T08:14:26.000Z</time>
      </trkpt>
      <trkpt lat="47.52485" lon="-2.34538">
        <ele>49.200000762939</ele>
        <time>2021-08-15T08:14:32.000Z</time>
      </trkpt>
      <trkpt lat="47.52488" lon="-2.34534">
        <ele>49.599998474121</ele>
        <time>2021-08-15T08:14:33.000Z</time>
      </trkpt>
      <trkpt lat="47.52491" lon="-2.3453">
        <ele>50</ele>
        <time>2021-08-15T08:14:34.000Z</time>
      </trkpt>
      <trkpt lat="47.52494" lon="-2.34527">
        <ele>50.400001525879</ele>
        <time>2021-08-15T08:14:35.000Z</time>
      </trkpt>
      <trkpt lat="47.52497" lon="-2.34524">
        <ele>50.799999237061</ele>
        <time>2021-08-15T08:14:36.000Z</time>
      </trkpt>
      <trkpt lat="47.52516" lon="-2.345">
        <ele>50.799999237061</ele>
        <time>2021-08-15T08:14:42.000Z</time>
      </trkpt>
      <trkpt lat="47.52534" lon="-2.34476">
        <ele>50.799999237061</ele>
        <time>2021-08-15T08:14:47.000Z</time>
      </trkpt>
      <trkpt lat="47.52538" lon="-2.34473">
        <ele>50.799999237061</ele>
        <time>2021-08-15T08:14:48.000Z</time>
      </trkpt>
      <trkpt lat="47.52557" lon="-2.34468">
        <ele>50.799999237061</ele>
        <time>2021-08-15T08:14:52.000Z</time>
      </trkpt>
      <trkpt lat="47.52564" lon="-2.34466">
        <ele>50.400001525879</ele>
        <time>2021-08-15T08:14:53.000Z</time>
      </trkpt>
      <trkpt lat="47.52572" lon="-2.34464">
        <ele>50</ele>
        <time>2021-08-15T08:14:54.000Z</time>
      </trkpt>
      <trkpt lat="47.5258" lon="-2.34462">
        <ele>49</ele>
        <time>2021-08-15T08:14:55.000Z</time>
      </trkpt>
      <trkpt lat="47.52588" lon="-2.34459">
        <ele>48.400001525879</ele>
        <time>2021-08-15T08:14:56.000Z</time>
      </trkpt>
      <trkpt lat="47.52597" lon="-2.34456">
        <ele>47.799999237061</ele>
        <time>2021-08-15T08:14:57.000Z</time>
      </trkpt>
      <trkpt lat="47.52605" lon="-2.34453">
        <ele>47</ele>
        <time>2021-08-15T08:14:58.000Z</time>
      </trkpt>
      <trkpt lat="47.52614" lon="-2.34451">
        <ele>46.200000762939</ele>
        <time>2021-08-15T08:14:59.000Z</time>
      </trkpt>
      <trkpt lat="47.52623" lon="-2.34449">
        <ele>45.400001525879</ele>
        <time>2021-08-15T08:15:00.000Z</time>
      </trkpt>
      <trkpt lat="47.52631" lon="-2.34446">
        <ele>44.400001525879</ele>
        <time>2021-08-15T08:15:01.000Z</time>
      </trkpt>
      <trkpt lat="47.52638" lon="-2.34443">
        <ele>43.400001525879</ele>
        <time>2021-08-15T08:15:02.000Z</time>
      </trkpt>
      <trkpt lat="47.52643" lon="-2.34441">
        <ele>42.200000762939</ele>
        <time>2021-08-15T08:15:03.000Z</time>
      </trkpt>
      <trkpt lat="47.52646" lon="-2.3444">
        <ele>41.200000762939</ele>
        <time>2021-08-15T08:15:04.000Z</time>
      </trkpt>
      <trkpt lat="47.52648" lon="-2.34436">
        <ele>40.200000762939</ele>
        <time>2021-08-15T08:15:05.000Z</time>
      </trkpt>
      <trkpt lat="47.52647" lon="-2.34432">
        <ele>39.200000762939</ele>
        <time>2021-08-15T08:15:06.000Z</time>
      </trkpt>
      <trkpt lat="47.52646" lon="-2.34428">
        <ele>38.200000762939</ele>
        <time>2021-08-15T08:15:07.000Z</time>
      </trkpt>
      <trkpt lat="47.52643" lon="-2.34424">
        <ele>37.200000762939</ele>
        <time>2021-08-15T08:15:08.000Z</time>
      </trkpt>
      <trkpt lat="47.52639" lon="-2.34419">
        <ele>36.200000762939</ele>
        <time>2021-08-15T08:15:09.000Z</time>
      </trkpt>
      <trkpt lat="47.52636" lon="-2.34415">
        <ele>36.200000762939</ele>
        <time>2021-08-15T08:15:10.000Z</time>
      </trkpt>
      <trkpt lat="47.5262" lon="-2.3439">
        <ele>36.200000762939</ele>
        <time>2021-08-15T08:15:14.000Z</time>
      </trkpt>
      <trkpt lat="47.52609" lon="-2.34369">
        <ele>35.799999237061</ele>
        <time>2021-08-15T08:15:17.000Z</time>
      </trkpt>
      <trkpt lat="47.52606" lon="-2.34361">
        <ele>35.400001525879</ele>
        <time>2021-08-15T08:15:18.000Z</time>
      </trkpt>
      <trkpt lat="47.52602" lon="-2.34354">
        <ele>35</ele>
        <time>2021-08-15T08:15:19.000Z</time>
      </trkpt>
      <trkpt lat="47.52599" lon="-2.34346">
        <ele>34</ele>
        <time>2021-08-15T08:15:20.000Z</time>
      </trkpt>
      <trkpt lat="47.52577" lon="-2.34302">
        <ele>34</ele>
        <time>2021-08-15T08:15:25.000Z</time>
      </trkpt>
      <trkpt lat="47.52572" lon="-2.34293">
        <ele>33.599998474121</ele>
        <time>2021-08-15T08:15:26.000Z</time>
      </trkpt>
      <trkpt lat="47.52566" lon="-2.34284">
        <ele>33.200000762939</ele>
        <time>2021-08-15T08:15:27.000Z</time>
      </trkpt>
      <trkpt lat="47.5256" lon="-2.34275">
        <ele>32.799999237061</ele>
        <time>2021-08-15T08:15:28.000Z</time>
      </trkpt>
      <trkpt lat="47.52554" lon="-2.34266">
        <ele>32.400001525879</ele>
        <time>2021-08-15T08:15:29.000Z</time>
      </trkpt>
      <trkpt lat="47.52547" lon="-2.34257">
        <ele>32</ele>
        <time>2021-08-15T08:15:30.000Z</time>
      </trkpt>
      <trkpt lat="47.52534" lon="-2.34243">
        <ele>31.60000038147</ele>
        <time>2021-08-15T08:15:32.000Z</time>
      </trkpt>
      <trkpt lat="47.52528" lon="-2.34238">
        <ele>31</ele>
        <time>2021-08-15T08:15:33.000Z</time>
      </trkpt>
      <trkpt lat="47.52522" lon="-2.34236">
        <ele>30.60000038147</ele>
        <time>2021-08-15T08:15:34.000Z</time>
      </trkpt>
      <trkpt lat="47.52517" lon="-2.34234">
        <ele>30.200000762939</ele>
        <time>2021-08-15T08:15:35.000Z</time>
      </trkpt>
      <trkpt lat="47.52513" lon="-2.34234">
        <ele>29.60000038147</ele>
        <time>2021-08-15T08:15:36.000Z</time>
      </trkpt>
      <trkpt lat="47.52509" lon="-2.34233">
        <ele>29</ele>
        <time>2021-08-15T08:15:37.000Z</time>
      </trkpt>
      <trkpt lat="47.52506" lon="-2.34232">
        <ele>28.39999961853</ele>
        <time>2021-08-15T08:15:38.000Z</time>
      </trkpt>
      <trkpt lat="47.52502" lon="-2.34231">
        <ele>27.799999237061</ele>
        <time>2021-08-15T08:15:39.000Z</time>
      </trkpt>
      <trkpt lat="47.52498" lon="-2.34231">
        <ele>27.200000762939</ele>
        <time>2021-08-15T08:15:40.000Z</time>
      </trkpt>
      <trkpt lat="47.5249" lon="-2.34234">
        <ele>27.200000762939</ele>
        <time>2021-08-15T08:15:42.000Z</time>
      </trkpt>
      <trkpt lat="47.52486" lon="-2.34235">
        <ele>27.200000762939</ele>
        <time>2021-08-15T08:15:43.000Z</time>
      </trkpt>
      <trkpt lat="47.52478" lon="-2.34235">
        <ele>27.200000762939</ele>
        <time>2021-08-15T08:15:46.000Z</time>
      </trkpt>
      <trkpt lat="47.52476" lon="-2.34235">
        <ele>27.200000762939</ele>
        <time>2021-08-15T08:15:47.000Z</time>
      </trkpt>
      <trkpt lat="47.52474" lon="-2.34234">
        <ele>26.799999237061</ele>
        <time>2021-08-15T08:15:48.000Z</time>
      </trkpt>
      <trkpt lat="47.52473" lon="-2.34234">
        <ele>26.39999961853</ele>
        <time>2021-08-15T08:15:49.000Z</time>
      </trkpt>
      <trkpt lat="47.52471" lon="-2.34234">
        <ele>26</ele>
        <time>2021-08-15T08:15:50.000Z</time>
      </trkpt>
      <trkpt lat="47.52469" lon="-2.34233">
        <ele>25.60000038147</ele>
        <time>2021-08-15T08:15:51.000Z</time>
      </trkpt>
      <trkpt lat="47.52466" lon="-2.34234">
        <ele>25.200000762939</ele>
        <time>2021-08-15T08:15:52.000Z</time>
      </trkpt>
      <trkpt lat="47.52464" lon="-2.34234">
        <ele>25.200000762939</ele>
        <time>2021-08-15T08:15:53.000Z</time>
      </trkpt>
      <trkpt lat="47.52455" lon="-2.34238">
        <ele>24.60000038147</ele>
        <time>2021-08-15T08:15:57.000Z</time>
      </trkpt>
      <trkpt lat="47.52453" lon="-2.34239">
        <ele>24.200000762939</ele>
        <time>2021-08-15T08:15:58.000Z</time>
      </trkpt>
      <trkpt lat="47.52451" lon="-2.34241">
        <ele>23.799999237061</ele>
        <time>2021-08-15T08:15:59.000Z</time>
      </trkpt>
      <trkpt lat="47.5245" lon="-2.34242">
        <ele>23.39999961853</ele>
        <time>2021-08-15T08:16:00.000Z</time>
      </trkpt>
      <trkpt lat="47.52449" lon="-2.34243">
        <ele>22.799999237061</ele>
        <time>2021-08-15T08:16:01.000Z</time>
      </trkpt>
      <trkpt lat="47.52447" lon="-2.34244">
        <ele>22.799999237061</ele>
        <time>2021-08-15T08:16:03.000Z</time>
      </trkpt>
      <trkpt lat="47.52442" lon="-2.34247">
        <ele>22.799999237061</ele>
        <time>2021-08-15T08:16:07.000Z</time>
      </trkpt>
      <trkpt lat="47.52439" lon="-2.34247">
        <ele>22.799999237061</ele>
        <time>2021-08-15T08:16:09.000Z</time>
      </trkpt>
      <trkpt lat="47.52439" lon="-2.34249">
        <ele>22.799999237061</ele>
        <time>2021-08-15T08:16:10.000Z</time>
      </trkpt>
      <trkpt lat="47.52434" lon="-2.34262">
        <ele>22.799999237061</ele>
        <time>2021-08-15T08:16:14.000Z</time>
      </trkpt>
      <trkpt lat="47.52421" lon="-2.34283">
        <ele>22.799999237061</ele>
        <time>2021-08-15T08:16:20.000Z</time>
      </trkpt>
      <trkpt lat="47.52408" lon="-2.34311">
        <ele>22.799999237061</ele>
        <time>2021-08-15T08:16:25.000Z</time>
      </trkpt>
      <trkpt lat="47.52405" lon="-2.34317">
        <ele>22.39999961853</ele>
        <time>2021-08-15T08:16:26.000Z</time>
      </trkpt>
      <trkpt lat="47.52402" lon="-2.34325">
        <ele>22</ele>
        <time>2021-08-15T08:16:27.000Z</time>
      </trkpt>
      <trkpt lat="47.524" lon="-2.34332">
        <ele>21.60000038147</ele>
        <time>2021-08-15T08:16:28.000Z</time>
      </trkpt>
      <trkpt lat="47.52399" lon="-2.34339">
        <ele>21.200000762939</ele>
        <time>2021-08-15T08:16:29.000Z</time>
      </trkpt>
      <trkpt lat="47.52397" lon="-2.34346">
        <ele>20.799999237061</ele>
        <time>2021-08-15T08:16:30.000Z</time>
      </trkpt>
      <trkpt lat="47.52392" lon="-2.34372">
        <ele>20.799999237061</ele>
        <time>2021-08-15T08:16:34.000Z</time>
      </trkpt>
      <trkpt lat="47.52382" lon="-2.34394">
        <ele>20.799999237061</ele>
        <time>2021-08-15T08:16:38.000Z</time>
      </trkpt>
      <trkpt lat="47.5238" lon="-2.34401">
        <ele>20.799999237061</ele>
        <time>2021-08-15T08:16:39.000Z</time>
      </trkpt>
      <trkpt lat="47.52373" lon="-2.34416">
        <ele>20.799999237061</ele>
        <time>2021-08-15T08:16:43.000Z</time>
      </trkpt>
      <trkpt lat="47.52365" lon="-2.34422">
        <ele>20.799999237061</ele>
        <time>2021-08-15T08:16:46.000Z</time>
      </trkpt>
      <trkpt lat="47.52363" lon="-2.34424">
        <ele>20.799999237061</ele>
        <time>2021-08-15T08:16:47.000Z</time>
      </trkpt>
      <trkpt lat="47.52359" lon="-2.34429">
        <ele>20.39999961853</ele>
        <time>2021-08-15T08:16:49.000Z</time>
      </trkpt>
      <trkpt lat="47.52358" lon="-2.34432">
        <ele>19.799999237061</ele>
        <time>2021-08-15T08:16:50.000Z</time>
      </trkpt>
      <trkpt lat="47.52355" lon="-2.34434">
        <ele>19.39999961853</ele>
        <time>2021-08-15T08:16:51.000Z</time>
      </trkpt>
      <trkpt lat="47.52353" lon="-2.34437">
        <ele>19</ele>
        <time>2021-08-15T08:16:52.000Z</time>
      </trkpt>
      <trkpt lat="47.52351" lon="-2.3444">
        <ele>18.39999961853</ele>
        <time>2021-08-15T08:16:53.000Z</time>
      </trkpt>
      <trkpt lat="47.52342" lon="-2.34457">
        <ele>18.39999961853</ele>
        <time>2021-08-15T08:16:59.000Z</time>
      </trkpt>
      <trkpt lat="47.5234" lon="-2.34466">
        <ele>18.799999237061</ele>
        <time>2021-08-15T08:17:03.000Z</time>
      </trkpt>
      <trkpt lat="47.52338" lon="-2.34469">
        <ele>19.39999961853</ele>
        <time>2021-08-15T08:17:04.000Z</time>
      </trkpt>
      <trkpt lat="47.52337" lon="-2.34471">
        <ele>19.799999237061</ele>
        <time>2021-08-15T08:17:05.000Z</time>
      </trkpt>
      <trkpt lat="47.52336" lon="-2.34473">
        <ele>20.200000762939</ele>
        <time>2021-08-15T08:17:06.000Z</time>
      </trkpt>
      <trkpt lat="47.52334" lon="-2.34476">
        <ele>20.60000038147</ele>
        <time>2021-08-15T08:17:07.000Z</time>
      </trkpt>
      <trkpt lat="47.52325" lon="-2.34484">
        <ele>20.60000038147</ele>
        <time>2021-08-15T08:17:11.000Z</time>
      </trkpt>
      <trkpt lat="47.52311" lon="-2.34497">
        <ele>20.200000762939</ele>
        <time>2021-08-15T08:17:16.000Z</time>
      </trkpt>
      <trkpt lat="47.52306" lon="-2.34501">
        <ele>19.799999237061</ele>
        <time>2021-08-15T08:17:17.000Z</time>
      </trkpt>
      <trkpt lat="47.52302" lon="-2.34504">
        <ele>19.39999961853</ele>
        <time>2021-08-15T08:17:18.000Z</time>
      </trkpt>
      <trkpt lat="47.52299" lon="-2.34508">
        <ele>19</ele>
        <time>2021-08-15T08:17:19.000Z</time>
      </trkpt>
      <trkpt lat="47.52298" lon="-2.34511">
        <ele>18.60000038147</ele>
        <time>2021-08-15T08:17:20.000Z</time>
      </trkpt>
      <trkpt lat="47.52283" lon="-2.34527">
        <ele>18.200000762939</ele>
        <time>2021-08-15T08:17:26.000Z</time>
      </trkpt>
      <trkpt lat="47.5228" lon="-2.34529">
        <ele>17.799999237061</ele>
        <time>2021-08-15T08:17:27.000Z</time>
      </trkpt>
      <trkpt lat="47.52277" lon="-2.34532">
        <ele>17.39999961853</ele>
        <time>2021-08-15T08:17:28.000Z</time>
      </trkpt>
      <trkpt lat="47.52273" lon="-2.34535">
        <ele>17</ele>
        <time>2021-08-15T08:17:29.000Z</time>
      </trkpt>
      <trkpt lat="47.52272" lon="-2.34535">
        <ele>16.39999961853</ele>
        <time>2021-08-15T08:17:30.000Z</time>
      </trkpt>
      <trkpt lat="47.5227" lon="-2.34536">
        <ele>16.39999961853</ele>
        <time>2021-08-15T08:17:32.000Z</time>
      </trkpt>
      <trkpt lat="47.52268" lon="-2.34537">
        <ele>16</ele>
        <time>2021-08-15T08:17:33.000Z</time>
      </trkpt>
      <trkpt lat="47.52267" lon="-2.34537">
        <ele>15.60000038147</ele>
        <time>2021-08-15T08:17:34.000Z</time>
      </trkpt>
      <trkpt lat="47.52266" lon="-2.34538">
        <ele>15.199999809265</ele>
        <time>2021-08-15T08:17:35.000Z</time>
      </trkpt>
      <trkpt lat="47.52266" lon="-2.34539">
        <ele>14.800000190735</ele>
        <time>2021-08-15T08:17:36.000Z</time>
      </trkpt>
      <trkpt lat="47.52257" lon="-2.34537">
        <ele>14.39999961853</ele>
        <time>2021-08-15T08:17:52.000Z</time>
      </trkpt>
      <trkpt lat="47.52252" lon="-2.34538">
        <ele>14</ele>
        <time>2021-08-15T08:17:54.000Z</time>
      </trkpt>
      <trkpt lat="47.52251" lon="-2.34541">
        <ele>13.39999961853</ele>
        <time>2021-08-15T08:17:55.000Z</time>
      </trkpt>
      <trkpt lat="47.5225" lon="-2.34544">
        <ele>13</ele>
        <time>2021-08-15T08:17:56.000Z</time>
      </trkpt>
      <trkpt lat="47.52249" lon="-2.34546">
        <ele>12.60000038147</ele>
        <time>2021-08-15T08:17:57.000Z</time>
      </trkpt>
      <trkpt lat="47.52248" lon="-2.34547">
        <ele>12.199999809265</ele>
        <time>2021-08-15T08:17:58.000Z</time>
      </trkpt>
      <trkpt lat="47.52245" lon="-2.34548">
        <ele>12.199999809265</ele>
        <time>2021-08-15T08:18:00.000Z</time>
      </trkpt>
      <trkpt lat="47.5224" lon="-2.3455">
        <ele>12.199999809265</ele>
        <time>2021-08-15T08:18:07.000Z</time>
      </trkpt>
      <trkpt lat="47.52236" lon="-2.34556">
        <ele>12.199999809265</ele>
        <time>2021-08-15T08:18:12.000Z</time>
      </trkpt>
      <trkpt lat="47.52235" lon="-2.34558">
        <ele>12.199999809265</ele>
        <time>2021-08-15T08:18:15.000Z</time>
      </trkpt>
      <trkpt lat="47.52231" lon="-2.34565">
        <ele>12.199999809265</ele>
        <time>2021-08-15T08:18:19.000Z</time>
      </trkpt>
      <trkpt lat="47.5223" lon="-2.34566">
        <ele>12.199999809265</ele>
        <time>2021-08-15T08:18:20.000Z</time>
      </trkpt>
      <trkpt lat="47.52226" lon="-2.34572">
        <ele>12.199999809265</ele>
        <time>2021-08-15T08:18:23.000Z</time>
      </trkpt>
      <trkpt lat="47.52223" lon="-2.34577">
        <ele>12.199999809265</ele>
        <time>2021-08-15T08:18:25.000Z</time>
      </trkpt>
      <trkpt lat="47.52214" lon="-2.34593">
        <ele>12.199999809265</ele>
        <time>2021-08-15T08:18:32.000Z</time>
      </trkpt>
      <trkpt lat="47.5221" lon="-2.34597">
        <ele>12.199999809265</ele>
        <time>2021-08-15T08:18:34.000Z</time>
      </trkpt>
      <trkpt lat="47.52204" lon="-2.34605">
        <ele>12.199999809265</ele>
        <time>2021-08-15T08:18:36.000Z</time>
      </trkpt>
      <trkpt lat="47.52193" lon="-2.34625">
        <ele>12.199999809265</ele>
        <time>2021-08-15T08:18:41.000Z</time>
      </trkpt>
      <trkpt lat="47.5218" lon="-2.34658">
        <ele>12.199999809265</ele>
        <time>2021-08-15T08:18:47.000Z</time>
      </trkpt>
      <trkpt lat="47.52175" lon="-2.34689">
        <ele>12.199999809265</ele>
        <time>2021-08-15T08:18:51.000Z</time>
      </trkpt>
      <trkpt lat="47.52175" lon="-2.34695">
        <ele>12.199999809265</ele>
        <time>2021-08-15T08:18:52.000Z</time>
      </trkpt>
      <trkpt lat="47.52177" lon="-2.34714">
        <ele>12.199999809265</ele>
        <time>2021-08-15T08:18:56.000Z</time>
      </trkpt>
      <trkpt lat="47.52187" lon="-2.34724">
        <ele>12.199999809265</ele>
        <time>2021-08-15T08:19:00.000Z</time>
      </trkpt>
      <trkpt lat="47.52201" lon="-2.34734">
        <ele>12.199999809265</ele>
        <time>2021-08-15T08:19:06.000Z</time>
      </trkpt>
      <trkpt lat="47.52202" lon="-2.34736">
        <ele>12.199999809265</ele>
        <time>2021-08-15T08:19:07.000Z</time>
      </trkpt>
      <trkpt lat="47.52207" lon="-2.34752">
        <ele>12.199999809265</ele>
        <time>2021-08-15T08:19:10.000Z</time>
      </trkpt>
      <trkpt lat="47.52209" lon="-2.34772">
        <ele>12.199999809265</ele>
        <time>2021-08-15T08:19:14.000Z</time>
      </trkpt>
      <trkpt lat="47.52215" lon="-2.34796">
        <ele>12.199999809265</ele>
        <time>2021-08-15T08:19:18.000Z</time>
      </trkpt>
      <trkpt lat="47.52222" lon="-2.34823">
        <ele>12.199999809265</ele>
        <time>2021-08-15T08:19:24.000Z</time>
      </trkpt>
      <trkpt lat="47.52228" lon="-2.34855">
        <ele>12.199999809265</ele>
        <time>2021-08-15T08:19:29.000Z</time>
      </trkpt>
      <trkpt lat="47.52227" lon="-2.34866">
        <ele>12.199999809265</ele>
        <time>2021-08-15T08:19:31.000Z</time>
      </trkpt>
      <trkpt lat="47.52225" lon="-2.34877">
        <ele>12.199999809265</ele>
        <time>2021-08-15T08:19:33.000Z</time>
      </trkpt>
      <trkpt lat="47.52231" lon="-2.34896">
        <ele>12.199999809265</ele>
        <time>2021-08-15T08:19:37.000Z</time>
      </trkpt>
      <trkpt lat="47.52236" lon="-2.34905">
        <ele>12.199999809265</ele>
        <time>2021-08-15T08:19:39.000Z</time>
      </trkpt>
      <trkpt lat="47.52245" lon="-2.34921">
        <ele>12.199999809265</ele>
        <time>2021-08-15T08:19:43.000Z</time>
      </trkpt>
      <trkpt lat="47.5226" lon="-2.3495">
        <ele>12.199999809265</ele>
        <time>2021-08-15T08:19:49.000Z</time>
      </trkpt>
      <trkpt lat="47.52287" lon="-2.34995">
        <ele>12.199999809265</ele>
        <time>2021-08-15T08:19:57.000Z</time>
      </trkpt>
      <trkpt lat="47.52304" lon="-2.35017">
        <ele>12.199999809265</ele>
        <time>2021-08-15T08:20:03.000Z</time>
      </trkpt>
      <trkpt lat="47.52329" lon="-2.35056">
        <ele>12.199999809265</ele>
        <time>2021-08-15T08:20:11.000Z</time>
      </trkpt>
      <trkpt lat="47.52348" lon="-2.35101">
        <ele>12.199999809265</ele>
        <time>2021-08-15T08:20:17.000Z</time>
      </trkpt>
      <trkpt lat="47.52359" lon="-2.35135">
        <ele>12.199999809265</ele>
        <time>2021-08-15T08:20:20.000Z</time>
      </trkpt>
      <trkpt lat="47.52371" lon="-2.35166">
        <ele>12.199999809265</ele>
        <time>2021-08-15T08:20:24.000Z</time>
      </trkpt>
      <trkpt lat="47.52381" lon="-2.35199">
        <ele>12.60000038147</ele>
        <time>2021-08-15T08:20:29.000Z</time>
      </trkpt>
      <trkpt lat="47.52383" lon="-2.35204">
        <ele>13</ele>
        <time>2021-08-15T08:20:30.000Z</time>
      </trkpt>
      <trkpt lat="47.52385" lon="-2.35208">
        <ele>13.39999961853</ele>
        <time>2021-08-15T08:20:31.000Z</time>
      </trkpt>
      <trkpt lat="47.52386" lon="-2.35211">
        <ele>13.800000190735</ele>
        <time>2021-08-15T08:20:32.000Z</time>
      </trkpt>
      <trkpt lat="47.52385" lon="-2.35215">
        <ele>14.199999809265</ele>
        <time>2021-08-15T08:20:33.000Z</time>
      </trkpt>
      <trkpt lat="47.52377" lon="-2.35219">
        <ele>14.199999809265</ele>
        <time>2021-08-15T08:20:37.000Z</time>
      </trkpt>
      <trkpt lat="47.52372" lon="-2.35222">
        <ele>14.199999809265</ele>
        <time>2021-08-15T08:20:41.000Z</time>
      </trkpt>
      <trkpt lat="47.52366" lon="-2.35224">
        <ele>14.199999809265</ele>
        <time>2021-08-15T08:20:44.000Z</time>
      </trkpt>
      <trkpt lat="47.52362" lon="-2.35222">
        <ele>14.199999809265</ele>
        <time>2021-08-15T08:20:47.000Z</time>
      </trkpt>
      <trkpt lat="47.52353" lon="-2.35214">
        <ele>14.199999809265</ele>
        <time>2021-08-15T08:20:54.000Z</time>
      </trkpt>
      <trkpt lat="47.52349" lon="-2.35211">
        <ele>14.60000038147</ele>
        <time>2021-08-15T08:20:57.000Z</time>
      </trkpt>
      <trkpt lat="47.52348" lon="-2.3521">
        <ele>15</ele>
        <time>2021-08-15T08:20:58.000Z</time>
      </trkpt>
      <trkpt lat="47.52346" lon="-2.35209">
        <ele>15.39999961853</ele>
        <time>2021-08-15T08:20:59.000Z</time>
      </trkpt>
      <trkpt lat="47.52345" lon="-2.35208">
        <ele>16</ele>
        <time>2021-08-15T08:21:00.000Z</time>
      </trkpt>
      <trkpt lat="47.52343" lon="-2.35207">
        <ele>16.39999961853</ele>
        <time>2021-08-15T08:21:01.000Z</time>
      </trkpt>
      <trkpt lat="47.52337" lon="-2.35204">
        <ele>16.799999237061</ele>
        <time>2021-08-15T08:21:04.000Z</time>
      </trkpt>
      <trkpt lat="47.52336" lon="-2.35203">
        <ele>17.200000762939</ele>
        <time>2021-08-15T08:21:05.000Z</time>
      </trkpt>
      <trkpt lat="47.52334" lon="-2.35203">
        <ele>17.60000038147</ele>
        <time>2021-08-15T08:21:06.000Z</time>
      </trkpt>
      <trkpt lat="47.52332" lon="-2.35203">
        <ele>18.39999961853</ele>
        <time>2021-08-15T08:21:07.000Z</time>
      </trkpt>
      <trkpt lat="47.5233" lon="-2.35203">
        <ele>18.39999961853</ele>
        <time>2021-08-15T08:21:08.000Z</time>
      </trkpt>
      <trkpt lat="47.52325" lon="-2.35201">
        <ele>18.799999237061</ele>
        <time>2021-08-15T08:21:11.000Z</time>
      </trkpt>
      <trkpt lat="47.52323" lon="-2.35201">
        <ele>19.200000762939</ele>
        <time>2021-08-15T08:21:12.000Z</time>
      </trkpt>
      <trkpt lat="47.52321" lon="-2.352">
        <ele>19.799999237061</ele>
        <time>2021-08-15T08:21:13.000Z</time>
      </trkpt>
      <trkpt lat="47.5232" lon="-2.35198">
        <ele>20.200000762939</ele>
        <time>2021-08-15T08:21:14.000Z</time>
      </trkpt>
      <trkpt lat="47.52318" lon="-2.35198">
        <ele>20.60000038147</ele>
        <time>2021-08-15T08:21:15.000Z</time>
      </trkpt>
      <trkpt lat="47.52316" lon="-2.35197">
        <ele>20.60000038147</ele>
        <time>2021-08-15T08:21:16.000Z</time>
      </trkpt>
      <trkpt lat="47.52312" lon="-2.35195">
        <ele>21</ele>
        <time>2021-08-15T08:21:18.000Z</time>
      </trkpt>
      <trkpt lat="47.52311" lon="-2.35193">
        <ele>21.39999961853</ele>
        <time>2021-08-15T08:21:19.000Z</time>
      </trkpt>
      <trkpt lat="47.52309" lon="-2.35192">
        <ele>21.799999237061</ele>
        <time>2021-08-15T08:21:20.000Z</time>
      </trkpt>
      <trkpt lat="47.52308" lon="-2.35191">
        <ele>22.200000762939</ele>
        <time>2021-08-15T08:21:21.000Z</time>
      </trkpt>
      <trkpt lat="47.52306" lon="-2.3519">
        <ele>22.799999237061</ele>
        <time>2021-08-15T08:21:22.000Z</time>
      </trkpt>
      <trkpt lat="47.52305" lon="-2.35189">
        <ele>22.799999237061</ele>
        <time>2021-08-15T08:21:23.000Z</time>
      </trkpt>
      <trkpt lat="47.52301" lon="-2.35186">
        <ele>23.200000762939</ele>
        <time>2021-08-15T08:21:26.000Z</time>
      </trkpt>
      <trkpt lat="47.523" lon="-2.35185">
        <ele>23.60000038147</ele>
        <time>2021-08-15T08:21:27.000Z</time>
      </trkpt>
      <trkpt lat="47.52298" lon="-2.35185">
        <ele>24</ele>
        <time>2021-08-15T08:21:28.000Z</time>
      </trkpt>
      <trkpt lat="47.52297" lon="-2.35184">
        <ele>24.39999961853</ele>
        <time>2021-08-15T08:21:29.000Z</time>
      </trkpt>
      <trkpt lat="47.52296" lon="-2.35184">
        <ele>24.799999237061</ele>
        <time>2021-08-15T08:21:30.000Z</time>
      </trkpt>
      <trkpt lat="47.52295" lon="-2.35183">
        <ele>24.799999237061</ele>
        <time>2021-08-15T08:21:31.000Z</time>
      </trkpt>
      <trkpt lat="47.52288" lon="-2.35176">
        <ele>24.799999237061</ele>
        <time>2021-08-15T08:21:38.000Z</time>
      </trkpt>
      <trkpt lat="47.52287" lon="-2.35174">
        <ele>25.200000762939</ele>
        <time>2021-08-15T08:21:39.000Z</time>
      </trkpt>
      <trkpt lat="47.52285" lon="-2.35171">
        <ele>25.60000038147</ele>
        <time>2021-08-15T08:21:40.000Z</time>
      </trkpt>
      <trkpt lat="47.52284" lon="-2.35169">
        <ele>26</ele>
        <time>2021-08-15T08:21:41.000Z</time>
      </trkpt>
      <trkpt lat="47.52283" lon="-2.35166">
        <ele>26.39999961853</ele>
        <time>2021-08-15T08:21:42.000Z</time>
      </trkpt>
      <trkpt lat="47.52283" lon="-2.35162">
        <ele>26.799999237061</ele>
        <time>2021-08-15T08:21:43.000Z</time>
      </trkpt>
      <trkpt lat="47.52279" lon="-2.35136">
        <ele>26.799999237061</ele>
        <time>2021-08-15T08:21:47.000Z</time>
      </trkpt>
      <trkpt lat="47.52272" lon="-2.35113">
        <ele>26.39999961853</ele>
        <time>2021-08-15T08:21:50.000Z</time>
      </trkpt>
      <trkpt lat="47.52268" lon="-2.35104">
        <ele>25.799999237061</ele>
        <time>2021-08-15T08:21:51.000Z</time>
      </trkpt>
      <trkpt lat="47.52266" lon="-2.35097">
        <ele>25.39999961853</ele>
        <time>2021-08-15T08:21:52.000Z</time>
      </trkpt>
      <trkpt lat="47.52262" lon="-2.35088">
        <ele>25</ele>
        <time>2021-08-15T08:21:53.000Z</time>
      </trkpt>
      <trkpt lat="47.52259" lon="-2.3508">
        <ele>24.39999961853</ele>
        <time>2021-08-15T08:21:54.000Z</time>
      </trkpt>
      <trkpt lat="47.52256" lon="-2.35073">
        <ele>23.799999237061</ele>
        <time>2021-08-15T08:21:55.000Z</time>
      </trkpt>
      <trkpt lat="47.52252" lon="-2.35065">
        <ele>22.60000038147</ele>
        <time>2021-08-15T08:21:56.000Z</time>
      </trkpt>
      <trkpt lat="47.5225" lon="-2.35058">
        <ele>22</ele>
        <time>2021-08-15T08:21:57.000Z</time>
      </trkpt>
      <trkpt lat="47.52247" lon="-2.3505">
        <ele>21.39999961853</ele>
        <time>2021-08-15T08:21:58.000Z</time>
      </trkpt>
      <trkpt lat="47.52245" lon="-2.35043">
        <ele>20.799999237061</ele>
        <time>2021-08-15T08:21:59.000Z</time>
      </trkpt>
      <trkpt lat="47.52242" lon="-2.35035">
        <ele>20.200000762939</ele>
        <time>2021-08-15T08:22:00.000Z</time>
      </trkpt>
      <trkpt lat="47.5224" lon="-2.35027">
        <ele>19.60000038147</ele>
        <time>2021-08-15T08:22:01.000Z</time>
      </trkpt>
      <trkpt lat="47.52238" lon="-2.35018">
        <ele>19</ele>
        <time>2021-08-15T08:22:02.000Z</time>
      </trkpt>
      <trkpt lat="47.52235" lon="-2.3501">
        <ele>18.39999961853</ele>
        <time>2021-08-15T08:22:03.000Z</time>
      </trkpt>
      <trkpt lat="47.52233" lon="-2.35001">
        <ele>17.799999237061</ele>
        <time>2021-08-15T08:22:04.000Z</time>
      </trkpt>
      <trkpt lat="47.5223" lon="-2.34993">
        <ele>17.200000762939</ele>
        <time>2021-08-15T08:22:05.000Z</time>
      </trkpt>
      <trkpt lat="47.52225" lon="-2.34985">
        <ele>16.60000038147</ele>
        <time>2021-08-15T08:22:06.000Z</time>
      </trkpt>
      <trkpt lat="47.52221" lon="-2.34979">
        <ele>16</ele>
        <time>2021-08-15T08:22:07.000Z</time>
      </trkpt>
      <trkpt lat="47.52217" lon="-2.34973">
        <ele>15.39999961853</ele>
        <time>2021-08-15T08:22:08.000Z</time>
      </trkpt>
      <trkpt lat="47.52211" lon="-2.34966">
        <ele>15</ele>
        <time>2021-08-15T08:22:10.000Z</time>
      </trkpt>
      <trkpt lat="47.5221" lon="-2.34964">
        <ele>14.60000038147</ele>
        <time>2021-08-15T08:22:11.000Z</time>
      </trkpt>
      <trkpt lat="47.52208" lon="-2.34961">
        <ele>14.199999809265</ele>
        <time>2021-08-15T08:22:12.000Z</time>
      </trkpt>
      <trkpt lat="47.52206" lon="-2.34958">
        <ele>13.800000190735</ele>
        <time>2021-08-15T08:22:13.000Z</time>
      </trkpt>
      <trkpt lat="47.52204" lon="-2.34955">
        <ele>13.39999961853</ele>
        <time>2021-08-15T08:22:14.000Z</time>
      </trkpt>
      <trkpt lat="47.52196" lon="-2.34944">
        <ele>13.39999961853</ele>
        <time>2021-08-15T08:22:17.000Z</time>
      </trkpt>
      <trkpt lat="47.52186" lon="-2.34932">
        <ele>13.39999961853</ele>
        <time>2021-08-15T08:22:22.000Z</time>
      </trkpt>
      <trkpt lat="47.5218" lon="-2.3491">
        <ele>13.39999961853</ele>
        <time>2021-08-15T08:22:27.000Z</time>
      </trkpt>
      <trkpt lat="47.52171" lon="-2.3489">
        <ele>13.800000190735</ele>
        <time>2021-08-15T08:22:32.000Z</time>
      </trkpt>
      <trkpt lat="47.52169" lon="-2.34887">
        <ele>14.199999809265</ele>
        <time>2021-08-15T08:22:33.000Z</time>
      </trkpt>
      <trkpt lat="47.52168" lon="-2.34883">
        <ele>14.800000190735</ele>
        <time>2021-08-15T08:22:34.000Z</time>
      </trkpt>
      <trkpt lat="47.52166" lon="-2.34878">
        <ele>15.199999809265</ele>
        <time>2021-08-15T08:22:35.000Z</time>
      </trkpt>
      <trkpt lat="47.52165" lon="-2.34873">
        <ele>15.60000038147</ele>
        <time>2021-08-15T08:22:36.000Z</time>
      </trkpt>
      <trkpt lat="47.52162" lon="-2.34861">
        <ele>15.60000038147</ele>
        <time>2021-08-15T08:22:38.000Z</time>
      </trkpt>
      <trkpt lat="47.52159" lon="-2.34849">
        <ele>15.60000038147</ele>
        <time>2021-08-15T08:22:40.000Z</time>
      </trkpt>
      <trkpt lat="47.52153" lon="-2.34845">
        <ele>15.60000038147</ele>
        <time>2021-08-15T08:22:42.000Z</time>
      </trkpt>
      <trkpt lat="47.52149" lon="-2.34844">
        <ele>15.60000038147</ele>
        <time>2021-08-15T08:22:44.000Z</time>
      </trkpt>
      <trkpt lat="47.52148" lon="-2.34845">
        <ele>15.60000038147</ele>
        <time>2021-08-15T08:22:45.000Z</time>
      </trkpt>
      <trkpt lat="47.52147" lon="-2.34846">
        <ele>15.60000038147</ele>
        <time>2021-08-15T08:22:46.000Z</time>
      </trkpt>
      <trkpt lat="47.52146" lon="-2.34847">
        <ele>15.60000038147</ele>
        <time>2021-08-15T08:22:47.000Z</time>
      </trkpt>
      <trkpt lat="47.52147" lon="-2.34853">
        <ele>15.60000038147</ele>
        <time>2021-08-15T08:22:51.000Z</time>
      </trkpt>
      <trkpt lat="47.52147" lon="-2.34856">
        <ele>15.60000038147</ele>
        <time>2021-08-15T08:22:53.000Z</time>
      </trkpt>
      <trkpt lat="47.52146" lon="-2.34861">
        <ele>15.60000038147</ele>
        <time>2021-08-15T08:22:58.000Z</time>
      </trkpt>
      <trkpt lat="47.52146" lon="-2.34864">
        <ele>16</ele>
        <time>2021-08-15T08:23:00.000Z</time>
      </trkpt>
      <trkpt lat="47.52146" lon="-2.34866">
        <ele>16.39999961853</ele>
        <time>2021-08-15T08:23:01.000Z</time>
      </trkpt>
      <trkpt lat="47.52146" lon="-2.34867">
        <ele>16.799999237061</ele>
        <time>2021-08-15T08:23:02.000Z</time>
      </trkpt>
      <trkpt lat="47.52146" lon="-2.34869">
        <ele>17.200000762939</ele>
        <time>2021-08-15T08:23:03.000Z</time>
      </trkpt>
      <trkpt lat="47.52146" lon="-2.34871">
        <ele>17.60000038147</ele>
        <time>2021-08-15T08:23:04.000Z</time>
      </trkpt>
      <trkpt lat="47.52145" lon="-2.34873">
        <ele>17.60000038147</ele>
        <time>2021-08-15T08:23:05.000Z</time>
      </trkpt>
      <trkpt lat="47.52143" lon="-2.34882">
        <ele>18.200000762939</ele>
        <time>2021-08-15T08:23:09.000Z</time>
      </trkpt>
      <trkpt lat="47.52142" lon="-2.34885">
        <ele>19</ele>
        <time>2021-08-15T08:23:10.000Z</time>
      </trkpt>
      <trkpt lat="47.52142" lon="-2.34888">
        <ele>19.39999961853</ele>
        <time>2021-08-15T08:23:11.000Z</time>
      </trkpt>
      <trkpt lat="47.52142" lon="-2.34889">
        <ele>19.799999237061</ele>
        <time>2021-08-15T08:23:12.000Z</time>
      </trkpt>
      <trkpt lat="47.52138" lon="-2.34907">
        <ele>19.799999237061</ele>
        <time>2021-08-15T08:23:19.000Z</time>
      </trkpt>
      <trkpt lat="47.52138" lon="-2.34908">
        <ele>20.200000762939</ele>
        <time>2021-08-15T08:23:20.000Z</time>
      </trkpt>
      <trkpt lat="47.52137" lon="-2.3491">
        <ele>20.60000038147</ele>
        <time>2021-08-15T08:23:21.000Z</time>
      </trkpt>
      <trkpt lat="47.52137" lon="-2.34912">
        <ele>21</ele>
        <time>2021-08-15T08:23:22.000Z</time>
      </trkpt>
      <trkpt lat="47.52137" lon="-2.34914">
        <ele>21.60000038147</ele>
        <time>2021-08-15T08:23:23.000Z</time>
      </trkpt>
      <trkpt lat="47.52136" lon="-2.34916">
        <ele>22</ele>
        <time>2021-08-15T08:23:24.000Z</time>
      </trkpt>
      <trkpt lat="47.52135" lon="-2.34917">
        <ele>22</ele>
        <time>2021-08-15T08:23:25.000Z</time>
      </trkpt>
      <trkpt lat="47.52135" lon="-2.34924">
        <ele>22.39999961853</ele>
        <time>2021-08-15T08:23:30.000Z</time>
      </trkpt>
      <trkpt lat="47.52135" lon="-2.34926">
        <ele>22.799999237061</ele>
        <time>2021-08-15T08:23:31.000Z</time>
      </trkpt>
      <trkpt lat="47.52149" lon="-2.35047">
        <ele>37.799999237061</ele>
        <time>2021-08-15T08:24:40.000Z</time>
      </trkpt>
      <trkpt lat="47.52149" lon="-2.3505">
        <ele>38.200000762939</ele>
        <time>2021-08-15T08:24:41.000Z</time>
      </trkpt>
      <trkpt lat="47.52149" lon="-2.35052">
        <ele>38.599998474121</ele>
        <time>2021-08-15T08:24:42.000Z</time>
      </trkpt>
      <trkpt lat="47.52149" lon="-2.35055">
        <ele>38.599998474121</ele>
        <time>2021-08-15T08:24:44.000Z</time>
      </trkpt>
      <trkpt lat="47.5215" lon="-2.35058">
        <ele>38.599998474121</ele>
        <time>2021-08-15T08:24:46.000Z</time>
      </trkpt>
      <trkpt lat="47.52152" lon="-2.35068">
        <ele>39</ele>
        <time>2021-08-15T08:24:52.000Z</time>
      </trkpt>
      <trkpt lat="47.52153" lon="-2.35071">
        <ele>39.400001525879</ele>
        <time>2021-08-15T08:24:53.000Z</time>
      </trkpt>
      <trkpt lat="47.52153" lon="-2.35072">
        <ele>40</ele>
        <time>2021-08-15T08:24:54.000Z</time>
      </trkpt>
      <trkpt lat="47.52153" lon="-2.35074">
        <ele>40.400001525879</ele>
        <time>2021-08-15T08:24:55.000Z</time>
      </trkpt>
      <trkpt lat="47.52153" lon="-2.35076">
        <ele>40.799999237061</ele>
        <time>2021-08-15T08:24:56.000Z</time>
      </trkpt>
      <trkpt lat="47.52153" lon="-2.35081">
        <ele>40.799999237061</ele>
        <time>2021-08-15T08:25:00.000Z</time>
      </trkpt>
      <trkpt lat="47.52158" lon="-2.35096">
        <ele>40.799999237061</ele>
        <time>2021-08-15T08:25:08.000Z</time>
      </trkpt>
      <trkpt lat="47.52159" lon="-2.35098">
        <ele>41.200000762939</ele>
        <time>2021-08-15T08:25:09.000Z</time>
      </trkpt>
      <trkpt lat="47.5216" lon="-2.35099">
        <ele>41.599998474121</ele>
        <time>2021-08-15T08:25:10.000Z</time>
      </trkpt>
      <trkpt lat="47.52161" lon="-2.351">
        <ele>42</ele>
        <time>2021-08-15T08:25:11.000Z</time>
      </trkpt>
      <trkpt lat="47.52162" lon="-2.35102">
        <ele>42.400001525879</ele>
        <time>2021-08-15T08:25:12.000Z</time>
      </trkpt>
      <trkpt lat="47.52162" lon="-2.35104">
        <ele>42.799999237061</ele>
        <time>2021-08-15T08:25:13.000Z</time>
      </trkpt>
      <trkpt lat="47.52164" lon="-2.3511">
        <ele>42.799999237061</ele>
        <time>2021-08-15T08:25:15.000Z</time>
      </trkpt>
      <trkpt lat="47.52169" lon="-2.35121">
        <ele>42.799999237061</ele>
        <time>2021-08-15T08:25:21.000Z</time>
      </trkpt>
      <trkpt lat="47.52169" lon="-2.35122">
        <ele>42.799999237061</ele>
        <time>2021-08-15T08:25:22.000Z</time>
      </trkpt>
      <trkpt lat="47.52169" lon="-2.35136">
        <ele>42.799999237061</ele>
        <time>2021-08-15T08:30:27.000Z</time>
      </trkpt>
      <trkpt lat="47.52168" lon="-2.35139">
        <ele>42.799999237061</ele>
        <time>2021-08-15T08:30:29.000Z</time>
      </trkpt>
      <trkpt lat="47.52164" lon="-2.35145">
        <ele>43.200000762939</ele>
        <time>2021-08-15T08:30:32.000Z</time>
      </trkpt>
      <trkpt lat="47.52162" lon="-2.35147">
        <ele>43.599998474121</ele>
        <time>2021-08-15T08:30:33.000Z</time>
      </trkpt>
      <trkpt lat="47.5216" lon="-2.35148">
        <ele>44</ele>
        <time>2021-08-15T08:30:34.000Z</time>
      </trkpt>
      <trkpt lat="47.52158" lon="-2.35151">
        <ele>44.799999237061</ele>
        <time>2021-08-15T08:30:35.000Z</time>
      </trkpt>
      <trkpt lat="47.52147" lon="-2.35164">
        <ele>44.799999237061</ele>
        <time>2021-08-15T08:30:40.000Z</time>
      </trkpt>
      <trkpt lat="47.52137" lon="-2.35171">
        <ele>44.799999237061</ele>
        <time>2021-08-15T08:30:44.000Z</time>
      </trkpt>
      <trkpt lat="47.52134" lon="-2.35177">
        <ele>44.799999237061</ele>
        <time>2021-08-15T08:30:45.000Z</time>
      </trkpt>
      <trkpt lat="47.52128" lon="-2.35199">
        <ele>44.799999237061</ele>
        <time>2021-08-15T08:30:49.000Z</time>
      </trkpt>
      <trkpt lat="47.52118" lon="-2.35215">
        <ele>44.400001525879</ele>
        <time>2021-08-15T08:30:53.000Z</time>
      </trkpt>
      <trkpt lat="47.52113" lon="-2.35217">
        <ele>44</ele>
        <time>2021-08-15T08:30:54.000Z</time>
      </trkpt>
      <trkpt lat="47.52107" lon="-2.35218">
        <ele>43.599998474121</ele>
        <time>2021-08-15T08:30:55.000Z</time>
      </trkpt>
      <trkpt lat="47.52102" lon="-2.35218">
        <ele>43</ele>
        <time>2021-08-15T08:30:56.000Z</time>
      </trkpt>
      <trkpt lat="47.52096" lon="-2.35219">
        <ele>42.599998474121</ele>
        <time>2021-08-15T08:30:57.000Z</time>
      </trkpt>
      <trkpt lat="47.52084" lon="-2.35222">
        <ele>42.200000762939</ele>
        <time>2021-08-15T08:30:59.000Z</time>
      </trkpt>
      <trkpt lat="47.52077" lon="-2.35226">
        <ele>41.799999237061</ele>
        <time>2021-08-15T08:31:00.000Z</time>
      </trkpt>
      <trkpt lat="47.52071" lon="-2.3523">
        <ele>41.400001525879</ele>
        <time>2021-08-15T08:31:01.000Z</time>
      </trkpt>
      <trkpt lat="47.52063" lon="-2.35234">
        <ele>40.799999237061</ele>
        <time>2021-08-15T08:31:02.000Z</time>
      </trkpt>
      <trkpt lat="47.52055" lon="-2.35238">
        <ele>40.400001525879</ele>
        <time>2021-08-15T08:31:03.000Z</time>
      </trkpt>
      <trkpt lat="47.52049" lon="-2.35242">
        <ele>40</ele>
        <time>2021-08-15T08:31:04.000Z</time>
      </trkpt>
      <trkpt lat="47.52042" lon="-2.35246">
        <ele>39.400001525879</ele>
        <time>2021-08-15T08:31:05.000Z</time>
      </trkpt>
      <trkpt lat="47.52037" lon="-2.35252">
        <ele>38.799999237061</ele>
        <time>2021-08-15T08:31:06.000Z</time>
      </trkpt>
      <trkpt lat="47.52033" lon="-2.35259">
        <ele>38.400001525879</ele>
        <time>2021-08-15T08:31:07.000Z</time>
      </trkpt>
      <trkpt lat="47.5203" lon="-2.35266">
        <ele>37.799999237061</ele>
        <time>2021-08-15T08:31:08.000Z</time>
      </trkpt>
      <trkpt lat="47.5202" lon="-2.35288">
        <ele>37.799999237061</ele>
        <time>2021-08-15T08:31:11.000Z</time>
      </trkpt>
      <trkpt lat="47.51998" lon="-2.35345">
        <ele>37.799999237061</ele>
        <time>2021-08-15T08:31:19.000Z</time>
      </trkpt>
      <trkpt lat="47.51979" lon="-2.35385">
        <ele>37.799999237061</ele>
        <time>2021-08-15T08:31:26.000Z</time>
      </trkpt>
      <trkpt lat="47.51955" lon="-2.35431">
        <ele>37.799999237061</ele>
        <time>2021-08-15T08:31:34.000Z</time>
      </trkpt>
      <trkpt lat="47.51936" lon="-2.3547">
        <ele>37.799999237061</ele>
        <time>2021-08-15T08:31:41.000Z</time>
      </trkpt>
      <trkpt lat="47.51926" lon="-2.35499">
        <ele>37.799999237061</ele>
        <time>2021-08-15T08:31:46.000Z</time>
      </trkpt>
      <trkpt lat="47.51923" lon="-2.3551">
        <ele>37.799999237061</ele>
        <time>2021-08-15T08:31:48.000Z</time>
      </trkpt>
      <trkpt lat="47.51916" lon="-2.35539">
        <ele>38.200000762939</ele>
        <time>2021-08-15T08:31:53.000Z</time>
      </trkpt>
      <trkpt lat="47.51915" lon="-2.35545">
        <ele>38.599998474121</ele>
        <time>2021-08-15T08:31:54.000Z</time>
      </trkpt>
      <trkpt lat="47.51913" lon="-2.3555">
        <ele>39</ele>
        <time>2021-08-15T08:31:55.000Z</time>
      </trkpt>
      <trkpt lat="47.51912" lon="-2.35555">
        <ele>39.599998474121</ele>
        <time>2021-08-15T08:31:56.000Z</time>
      </trkpt>
      <trkpt lat="47.5191" lon="-2.35561">
        <ele>40</ele>
        <time>2021-08-15T08:31:57.000Z</time>
      </trkpt>
      <trkpt lat="47.51902" lon="-2.35594">
        <ele>40.400001525879</ele>
        <time>2021-08-15T08:32:04.000Z</time>
      </trkpt>
      <trkpt lat="47.51901" lon="-2.35599">
        <ele>40.799999237061</ele>
        <time>2021-08-15T08:32:05.000Z</time>
      </trkpt>
      <trkpt lat="47.519" lon="-2.35604">
        <ele>41.200000762939</ele>
        <time>2021-08-15T08:32:06.000Z</time>
      </trkpt>
      <trkpt lat="47.51899" lon="-2.35609">
        <ele>41.599998474121</ele>
        <time>2021-08-15T08:32:07.000Z</time>
      </trkpt>
      <trkpt lat="47.51897" lon="-2.35614">
        <ele>42</ele>
        <time>2021-08-15T08:32:08.000Z</time>
      </trkpt>
      <trkpt lat="47.51893" lon="-2.3563">
        <ele>42</ele>
        <time>2021-08-15T08:32:11.000Z</time>
      </trkpt>
      <trkpt lat="47.5189" lon="-2.35646">
        <ele>42.400001525879</ele>
        <time>2021-08-15T08:32:14.000Z</time>
      </trkpt>
      <trkpt lat="47.51889" lon="-2.35652">
        <ele>42.799999237061</ele>
        <time>2021-08-15T08:32:15.000Z</time>
      </trkpt>
      <trkpt lat="47.51888" lon="-2.35657">
        <ele>43.400001525879</ele>
        <time>2021-08-15T08:32:16.000Z</time>
      </trkpt>
      <trkpt lat="47.51887" lon="-2.35662">
        <ele>43.799999237061</ele>
        <time>2021-08-15T08:32:17.000Z</time>
      </trkpt>
      <trkpt lat="47.51886" lon="-2.35667">
        <ele>44.200000762939</ele>
        <time>2021-08-15T08:32:18.000Z</time>
      </trkpt>
      <trkpt lat="47.51885" lon="-2.35672">
        <ele>44.200000762939</ele>
        <time>2021-08-15T08:32:19.000Z</time>
      </trkpt>
      <trkpt lat="47.51878" lon="-2.35702">
        <ele>44.200000762939</ele>
        <time>2021-08-15T08:32:24.000Z</time>
      </trkpt>
      <trkpt lat="47.51877" lon="-2.35709">
        <ele>44.599998474121</ele>
        <time>2021-08-15T08:32:25.000Z</time>
      </trkpt>
      <trkpt lat="47.51877" lon="-2.35715">
        <ele>45</ele>
        <time>2021-08-15T08:32:26.000Z</time>
      </trkpt>
      <trkpt lat="47.51876" lon="-2.35721">
        <ele>45.400001525879</ele>
        <time>2021-08-15T08:32:27.000Z</time>
      </trkpt>
      <trkpt lat="47.51875" lon="-2.35727">
        <ele>45.799999237061</ele>
        <time>2021-08-15T08:32:28.000Z</time>
      </trkpt>
      <trkpt lat="47.51874" lon="-2.35732">
        <ele>46.400001525879</ele>
        <time>2021-08-15T08:32:29.000Z</time>
      </trkpt>
      <trkpt lat="47.51872" lon="-2.3575">
        <ele>46.400001525879</ele>
        <time>2021-08-15T08:32:32.000Z</time>
      </trkpt>
      <trkpt lat="47.51869" lon="-2.35769">
        <ele>46.400001525879</ele>
        <time>2021-08-15T08:32:35.000Z</time>
      </trkpt>
      <trkpt lat="47.51867" lon="-2.35782">
        <ele>46.400001525879</ele>
        <time>2021-08-15T08:32:37.000Z</time>
      </trkpt>
      <trkpt lat="47.51858" lon="-2.35833">
        <ele>46.400001525879</ele>
        <time>2021-08-15T08:32:45.000Z</time>
      </trkpt>
      <trkpt lat="47.51857" lon="-2.3584">
        <ele>46.799999237061</ele>
        <time>2021-08-15T08:32:46.000Z</time>
      </trkpt>
      <trkpt lat="47.51856" lon="-2.35847">
        <ele>47.200000762939</ele>
        <time>2021-08-15T08:32:47.000Z</time>
      </trkpt>
      <trkpt lat="47.51854" lon="-2.35854">
        <ele>47.599998474121</ele>
        <time>2021-08-15T08:32:48.000Z</time>
      </trkpt>
      <trkpt lat="47.51854" lon="-2.35861">
        <ele>48</ele>
        <time>2021-08-15T08:32:49.000Z</time>
      </trkpt>
      <trkpt lat="47.51853" lon="-2.35867">
        <ele>48.400001525879</ele>
        <time>2021-08-15T08:32:50.000Z</time>
      </trkpt>
      <trkpt lat="47.51848" lon="-2.35893">
        <ele>48.400001525879</ele>
        <time>2021-08-15T08:32:54.000Z</time>
      </trkpt>
      <trkpt lat="47.51838" lon="-2.35947">
        <ele>48.400001525879</ele>
        <time>2021-08-15T08:33:02.000Z</time>
      </trkpt>
      <trkpt lat="47.51828" lon="-2.36001">
        <ele>48.400001525879</ele>
        <time>2021-08-15T08:33:10.000Z</time>
      </trkpt>
      <trkpt lat="47.51823" lon="-2.36046">
        <ele>48.400001525879</ele>
        <time>2021-08-15T08:33:17.000Z</time>
      </trkpt>
      <trkpt lat="47.51823" lon="-2.36061">
        <ele>48.799999237061</ele>
        <time>2021-08-15T08:33:19.000Z</time>
      </trkpt>
      <trkpt lat="47.51822" lon="-2.36068">
        <ele>49.200000762939</ele>
        <time>2021-08-15T08:33:20.000Z</time>
      </trkpt>
      <trkpt lat="47.51822" lon="-2.36075">
        <ele>49.599998474121</ele>
        <time>2021-08-15T08:33:21.000Z</time>
      </trkpt>
      <trkpt lat="47.51821" lon="-2.36082">
        <ele>50</ele>
        <time>2021-08-15T08:33:22.000Z</time>
      </trkpt>
      <trkpt lat="47.51821" lon="-2.36088">
        <ele>50.400001525879</ele>
        <time>2021-08-15T08:33:23.000Z</time>
      </trkpt>
      <trkpt lat="47.5182" lon="-2.36104">
        <ele>50.400001525879</ele>
        <time>2021-08-15T08:33:25.000Z</time>
      </trkpt>
      <trkpt lat="47.51817" lon="-2.36175">
        <ele>50.400001525879</ele>
        <time>2021-08-15T08:33:34.000Z</time>
      </trkpt>
      <trkpt lat="47.51814" lon="-2.36226">
        <ele>50.400001525879</ele>
        <time>2021-08-15T08:33:41.000Z</time>
      </trkpt>
      <trkpt lat="47.5181" lon="-2.3628">
        <ele>50.400001525879</ele>
        <time>2021-08-15T08:33:49.000Z</time>
      </trkpt>
      <trkpt lat="47.51808" lon="-2.36341">
        <ele>50.400001525879</ele>
        <time>2021-08-15T08:33:57.000Z</time>
      </trkpt>
      <trkpt lat="47.51804" lon="-2.36409">
        <ele>50.400001525879</ele>
        <time>2021-08-15T08:34:06.000Z</time>
      </trkpt>
      <trkpt lat="47.51802" lon="-2.36461">
        <ele>50.400001525879</ele>
        <time>2021-08-15T08:34:13.000Z</time>
      </trkpt>
      <trkpt lat="47.51798" lon="-2.36532">
        <ele>50.400001525879</ele>
        <time>2021-08-15T08:34:23.000Z</time>
      </trkpt>
      <trkpt lat="47.51792" lon="-2.36608">
        <ele>50.400001525879</ele>
        <time>2021-08-15T08:34:33.000Z</time>
      </trkpt>
      <trkpt lat="47.51784" lon="-2.36683">
        <ele>50.400001525879</ele>
        <time>2021-08-15T08:34:43.000Z</time>
      </trkpt>
      <trkpt lat="47.51778" lon="-2.36718">
        <ele>50.400001525879</ele>
        <time>2021-08-15T08:34:48.000Z</time>
      </trkpt>
      <trkpt lat="47.51773" lon="-2.36722">
        <ele>50.400001525879</ele>
        <time>2021-08-15T08:34:49.000Z</time>
      </trkpt>
      <trkpt lat="47.51758" lon="-2.36723">
        <ele>50.400001525879</ele>
        <time>2021-08-15T08:34:52.000Z</time>
      </trkpt>
      <trkpt lat="47.51719" lon="-2.36713">
        <ele>50.400001525879</ele>
        <time>2021-08-15T08:34:59.000Z</time>
      </trkpt>
      <trkpt lat="47.51709" lon="-2.36711">
        <ele>50.400001525879</ele>
        <time>2021-08-15T08:35:01.000Z</time>
      </trkpt>
      <trkpt lat="47.51683" lon="-2.36702">
        <ele>50.400001525879</ele>
        <time>2021-08-15T08:35:06.000Z</time>
      </trkpt>
      <trkpt lat="47.51663" lon="-2.36686">
        <ele>50</ele>
        <time>2021-08-15T08:35:12.000Z</time>
      </trkpt>
      <trkpt lat="47.51662" lon="-2.36685">
        <ele>49.599998474121</ele>
        <time>2021-08-15T08:35:13.000Z</time>
      </trkpt>
      <trkpt lat="47.51661" lon="-2.36684">
        <ele>49</ele>
        <time>2021-08-15T08:35:14.000Z</time>
      </trkpt>
      <trkpt lat="47.5166" lon="-2.36682">
        <ele>48.599998474121</ele>
        <time>2021-08-15T08:35:15.000Z</time>
      </trkpt>
      <trkpt lat="47.51659" lon="-2.36681">
        <ele>48.200000762939</ele>
        <time>2021-08-15T08:35:16.000Z</time>
      </trkpt>
      <trkpt lat="47.51653" lon="-2.36673">
        <ele>48.200000762939</ele>
        <time>2021-08-15T08:35:22.000Z</time>
      </trkpt>
      <trkpt lat="47.51656" lon="-2.3667">
        <ele>48.200000762939</ele>
        <time>2021-08-15T08:35:26.000Z</time>
      </trkpt>
      <trkpt lat="47.51656" lon="-2.36672">
        <ele>48.200000762939</ele>
        <time>2021-08-15T08:35:28.000Z</time>
      </trkpt>
      <trkpt lat="47.51657" lon="-2.36672">
        <ele>48.200000762939</ele>
        <time>2021-08-15T08:37:41.000Z</time>
      </trkpt>
      <trkpt lat="47.51658" lon="-2.36674">
        <ele>48.200000762939</ele>
        <time>2021-08-15T08:37:42.000Z</time>
      </trkpt>
      <trkpt lat="47.51668" lon="-2.36688">
        <ele>48.200000762939</ele>
        <time>2021-08-15T08:37:47.000Z</time>
      </trkpt>
      <trkpt lat="47.51679" lon="-2.36697">
        <ele>48.200000762939</ele>
        <time>2021-08-15T08:37:50.000Z</time>
      </trkpt>
      <trkpt lat="47.51682" lon="-2.36699">
        <ele>48.200000762939</ele>
        <time>2021-08-15T08:37:51.000Z</time>
      </trkpt>
      <trkpt lat="47.51712" lon="-2.3671">
        <ele>48.200000762939</ele>
        <time>2021-08-15T08:37:58.000Z</time>
      </trkpt>
      <trkpt lat="47.51716" lon="-2.3671">
        <ele>48.200000762939</ele>
        <time>2021-08-15T08:37:59.000Z</time>
      </trkpt>
      <trkpt lat="47.51749" lon="-2.36717">
        <ele>48.200000762939</ele>
        <time>2021-08-15T08:38:06.000Z</time>
      </trkpt>
      <trkpt lat="47.51767" lon="-2.3672">
        <ele>48.200000762939</ele>
        <time>2021-08-15T08:38:10.000Z</time>
      </trkpt>
      <trkpt lat="47.51772" lon="-2.36717">
        <ele>48.200000762939</ele>
        <time>2021-08-15T08:38:11.000Z</time>
      </trkpt>
      <trkpt lat="47.51779" lon="-2.36699">
        <ele>48.200000762939</ele>
        <time>2021-08-15T08:38:14.000Z</time>
      </trkpt>
      <trkpt lat="47.5178" lon="-2.36692">
        <ele>48.200000762939</ele>
        <time>2021-08-15T08:38:15.000Z</time>
      </trkpt>
      <trkpt lat="47.51781" lon="-2.36684">
        <ele>48.200000762939</ele>
        <time>2021-08-15T08:38:16.000Z</time>
      </trkpt>
      <trkpt lat="47.51785" lon="-2.36645">
        <ele>48.200000762939</ele>
        <time>2021-08-15T08:38:21.000Z</time>
      </trkpt>
      <trkpt lat="47.51791" lon="-2.36572">
        <ele>48.200000762939</ele>
        <time>2021-08-15T08:38:30.000Z</time>
      </trkpt>
      <trkpt lat="47.51795" lon="-2.36506">
        <ele>48.200000762939</ele>
        <time>2021-08-15T08:38:38.000Z</time>
      </trkpt>
      <trkpt lat="47.518" lon="-2.36432">
        <ele>48.200000762939</ele>
        <time>2021-08-15T08:38:47.000Z</time>
      </trkpt>
      <trkpt lat="47.51801" lon="-2.36383">
        <ele>48.200000762939</ele>
        <time>2021-08-15T08:38:53.000Z</time>
      </trkpt>
      <trkpt lat="47.51799" lon="-2.36375">
        <ele>48.200000762939</ele>
        <time>2021-08-15T08:38:54.000Z</time>
      </trkpt>
      <trkpt lat="47.51788" lon="-2.36355">
        <ele>48.200000762939</ele>
        <time>2021-08-15T08:38:57.000Z</time>
      </trkpt>
      <trkpt lat="47.51778" lon="-2.36345">
        <ele>48.200000762939</ele>
        <time>2021-08-15T08:38:59.000Z</time>
      </trkpt>
      <trkpt lat="47.5175" lon="-2.36321">
        <ele>48.200000762939</ele>
        <time>2021-08-15T08:39:04.000Z</time>
      </trkpt>
      <trkpt lat="47.51704" lon="-2.36286">
        <ele>48.200000762939</ele>
        <time>2021-08-15T08:39:12.000Z</time>
      </trkpt>
      <trkpt lat="47.51658" lon="-2.36253">
        <ele>48.200000762939</ele>
        <time>2021-08-15T08:39:20.000Z</time>
      </trkpt>
      <trkpt lat="47.51609" lon="-2.36212">
        <ele>48.200000762939</ele>
        <time>2021-08-15T08:39:28.000Z</time>
      </trkpt>
      <trkpt lat="47.51578" lon="-2.36167">
        <ele>48.200000762939</ele>
        <time>2021-08-15T08:39:34.000Z</time>
      </trkpt>
      <trkpt lat="47.51573" lon="-2.36159">
        <ele>47.799999237061</ele>
        <time>2021-08-15T08:39:35.000Z</time>
      </trkpt>
      <trkpt lat="47.51569" lon="-2.3615">
        <ele>47.400001525879</ele>
        <time>2021-08-15T08:39:36.000Z</time>
      </trkpt>
      <trkpt lat="47.51565" lon="-2.36141">
        <ele>46.799999237061</ele>
        <time>2021-08-15T08:39:37.000Z</time>
      </trkpt>
      <trkpt lat="47.51561" lon="-2.36132">
        <ele>46</ele>
        <time>2021-08-15T08:39:38.000Z</time>
      </trkpt>
      <trkpt lat="47.51558" lon="-2.36123">
        <ele>46</ele>
        <time>2021-08-15T08:39:39.000Z</time>
      </trkpt>
      <trkpt lat="47.51541" lon="-2.36067">
        <ele>46</ele>
        <time>2021-08-15T08:39:45.000Z</time>
      </trkpt>
      <trkpt lat="47.51534" lon="-2.3601">
        <ele>46</ele>
        <time>2021-08-15T08:39:51.000Z</time>
      </trkpt>
      <trkpt lat="47.51528" lon="-2.35946">
        <ele>46</ele>
        <time>2021-08-15T08:39:58.000Z</time>
      </trkpt>
      <trkpt lat="47.51515" lon="-2.35913">
        <ele>46</ele>
        <time>2021-08-15T08:40:02.000Z</time>
      </trkpt>
      <trkpt lat="47.51511" lon="-2.35905">
        <ele>45</ele>
        <time>2021-08-15T08:40:03.000Z</time>
      </trkpt>
      <trkpt lat="47.51507" lon="-2.35895">
        <ele>44.599998474121</ele>
        <time>2021-08-15T08:40:04.000Z</time>
      </trkpt>
      <trkpt lat="47.51503" lon="-2.35886">
        <ele>44</ele>
        <time>2021-08-15T08:40:05.000Z</time>
      </trkpt>
      <trkpt lat="47.51499" lon="-2.35876">
        <ele>43.599998474121</ele>
        <time>2021-08-15T08:40:06.000Z</time>
      </trkpt>
      <trkpt lat="47.51493" lon="-2.35856">
        <ele>43.599998474121</ele>
        <time>2021-08-15T08:40:08.000Z</time>
      </trkpt>
      <trkpt lat="47.51491" lon="-2.35845">
        <ele>43.599998474121</ele>
        <time>2021-08-15T08:40:09.000Z</time>
      </trkpt>
      <trkpt lat="47.51488" lon="-2.35823">
        <ele>43.200000762939</ele>
        <time>2021-08-15T08:40:11.000Z</time>
      </trkpt>
      <trkpt lat="47.51486" lon="-2.35811">
        <ele>42.799999237061</ele>
        <time>2021-08-15T08:40:12.000Z</time>
      </trkpt>
      <trkpt lat="47.51484" lon="-2.358">
        <ele>42.200000762939</ele>
        <time>2021-08-15T08:40:13.000Z</time>
      </trkpt>
      <trkpt lat="47.51483" lon="-2.3579">
        <ele>41.799999237061</ele>
        <time>2021-08-15T08:40:14.000Z</time>
      </trkpt>
      <trkpt lat="47.51481" lon="-2.35779">
        <ele>41.400001525879</ele>
        <time>2021-08-15T08:40:15.000Z</time>
      </trkpt>
      <trkpt lat="47.51479" lon="-2.35758">
        <ele>41</ele>
        <time>2021-08-15T08:40:17.000Z</time>
      </trkpt>
      <trkpt lat="47.51478" lon="-2.35747">
        <ele>40.599998474121</ele>
        <time>2021-08-15T08:40:18.000Z</time>
      </trkpt>
      <trkpt lat="47.51477" lon="-2.35737">
        <ele>40.200000762939</ele>
        <time>2021-08-15T08:40:19.000Z</time>
      </trkpt>
      <trkpt lat="47.51477" lon="-2.35727">
        <ele>39.599998474121</ele>
        <time>2021-08-15T08:40:20.000Z</time>
      </trkpt>
      <trkpt lat="47.51477" lon="-2.35719">
        <ele>39</ele>
        <time>2021-08-15T08:40:21.000Z</time>
      </trkpt>
      <trkpt lat="47.51478" lon="-2.35713">
        <ele>38.400001525879</ele>
        <time>2021-08-15T08:40:22.000Z</time>
      </trkpt>
      <trkpt lat="47.5148" lon="-2.35708">
        <ele>37.599998474121</ele>
        <time>2021-08-15T08:40:23.000Z</time>
      </trkpt>
      <trkpt lat="47.51483" lon="-2.35705">
        <ele>36.799999237061</ele>
        <time>2021-08-15T08:40:24.000Z</time>
      </trkpt>
      <trkpt lat="47.51485" lon="-2.35703">
        <ele>36</ele>
        <time>2021-08-15T08:40:25.000Z</time>
      </trkpt>
      <trkpt lat="47.51488" lon="-2.35702">
        <ele>35.200000762939</ele>
        <time>2021-08-15T08:40:26.000Z</time>
      </trkpt>
      <trkpt lat="47.51492" lon="-2.357">
        <ele>34.400001525879</ele>
        <time>2021-08-15T08:40:27.000Z</time>
      </trkpt>
      <trkpt lat="47.51496" lon="-2.35697">
        <ele>34.400001525879</ele>
        <time>2021-08-15T08:40:28.000Z</time>
      </trkpt>
      <trkpt lat="47.515" lon="-2.35694">
        <ele>34.400001525879</ele>
        <time>2021-08-15T08:40:29.000Z</time>
      </trkpt>
      <trkpt lat="47.51524" lon="-2.35678">
        <ele>34.400001525879</ele>
        <time>2021-08-15T08:40:35.000Z</time>
      </trkpt>
      <trkpt lat="47.51525" lon="-2.35676">
        <ele>34.400001525879</ele>
        <time>2021-08-15T08:40:36.000Z</time>
      </trkpt>
      <trkpt lat="47.51525" lon="-2.35668">
        <ele>34.400001525879</ele>
        <time>2021-08-15T08:40:38.000Z</time>
      </trkpt>
      <trkpt lat="47.5152" lon="-2.35653">
        <ele>34.400001525879</ele>
        <time>2021-08-15T08:40:41.000Z</time>
      </trkpt>
      <trkpt lat="47.51517" lon="-2.35642">
        <ele>34.400001525879</ele>
        <time>2021-08-15T08:40:43.000Z</time>
      </trkpt>
      <trkpt lat="47.51516" lon="-2.35636">
        <ele>34</ele>
        <time>2021-08-15T08:40:44.000Z</time>
      </trkpt>
      <trkpt lat="47.51515" lon="-2.3563">
        <ele>33.599998474121</ele>
        <time>2021-08-15T08:40:45.000Z</time>
      </trkpt>
      <trkpt lat="47.51514" lon="-2.35623">
        <ele>33.200000762939</ele>
        <time>2021-08-15T08:40:46.000Z</time>
      </trkpt>
      <trkpt lat="47.51514" lon="-2.35616">
        <ele>32.599998474121</ele>
        <time>2021-08-15T08:40:47.000Z</time>
      </trkpt>
      <trkpt lat="47.51515" lon="-2.35609">
        <ele>31.799999237061</ele>
        <time>2021-08-15T08:40:48.000Z</time>
      </trkpt>
      <trkpt lat="47.51515" lon="-2.35603">
        <ele>31.200000762939</ele>
        <time>2021-08-15T08:40:49.000Z</time>
      </trkpt>
      <trkpt lat="47.51516" lon="-2.35599">
        <ele>30.60000038147</ele>
        <time>2021-08-15T08:40:50.000Z</time>
      </trkpt>
      <trkpt lat="47.51517" lon="-2.35596">
        <ele>30</ele>
        <time>2021-08-15T08:40:51.000Z</time>
      </trkpt>
      <trkpt lat="47.51519" lon="-2.35594">
        <ele>30</ele>
        <time>2021-08-15T08:40:52.000Z</time>
      </trkpt>
      <trkpt lat="47.51534" lon="-2.3559">
        <ele>30</ele>
        <time>2021-08-15T08:40:58.000Z</time>
      </trkpt>
      <trkpt lat="47.51544" lon="-2.35586">
        <ele>30.39999961853</ele>
        <time>2021-08-15T08:41:02.000Z</time>
      </trkpt>
      <trkpt lat="47.51547" lon="-2.35584">
        <ele>30.799999237061</ele>
        <time>2021-08-15T08:41:03.000Z</time>
      </trkpt>
      <trkpt lat="47.5155" lon="-2.35581">
        <ele>31.200000762939</ele>
        <time>2021-08-15T08:41:04.000Z</time>
      </trkpt>
      <trkpt lat="47.51554" lon="-2.35577">
        <ele>31.60000038147</ele>
        <time>2021-08-15T08:41:05.000Z</time>
      </trkpt>
      <trkpt lat="47.51558" lon="-2.35573">
        <ele>32</ele>
        <time>2021-08-15T08:41:06.000Z</time>
      </trkpt>
      <trkpt lat="47.51562" lon="-2.35571">
        <ele>32</ele>
        <time>2021-08-15T08:41:07.000Z</time>
      </trkpt>
      <trkpt lat="47.51576" lon="-2.35558">
        <ele>32</ele>
        <time>2021-08-15T08:41:12.000Z</time>
      </trkpt>
      <trkpt lat="47.51583" lon="-2.35553">
        <ele>32.400001525879</ele>
        <time>2021-08-15T08:41:14.000Z</time>
      </trkpt>
      <trkpt lat="47.51586" lon="-2.3555">
        <ele>32.799999237061</ele>
        <time>2021-08-15T08:41:15.000Z</time>
      </trkpt>
      <trkpt lat="47.51589" lon="-2.35547">
        <ele>33.200000762939</ele>
        <time>2021-08-15T08:41:16.000Z</time>
      </trkpt>
      <trkpt lat="47.51592" lon="-2.35543">
        <ele>34.200000762939</ele>
        <time>2021-08-15T08:41:17.000Z</time>
      </trkpt>
      <trkpt lat="47.51595" lon="-2.3554">
        <ele>34.200000762939</ele>
        <time>2021-08-15T08:41:18.000Z</time>
      </trkpt>
      <trkpt lat="47.51596" lon="-2.35536">
        <ele>34.200000762939</ele>
        <time>2021-08-15T08:41:19.000Z</time>
      </trkpt>
      <trkpt lat="47.51597" lon="-2.35527">
        <ele>34.200000762939</ele>
        <time>2021-08-15T08:41:21.000Z</time>
      </trkpt>
      <trkpt lat="47.51598" lon="-2.35491">
        <ele>34.200000762939</ele>
        <time>2021-08-15T08:41:27.000Z</time>
      </trkpt>
      <trkpt lat="47.51602" lon="-2.35478">
        <ele>33.799999237061</ele>
        <time>2021-08-15T08:41:29.000Z</time>
      </trkpt>
      <trkpt lat="47.51606" lon="-2.35475">
        <ele>33.400001525879</ele>
        <time>2021-08-15T08:41:30.000Z</time>
      </trkpt>
      <trkpt lat="47.5161" lon="-2.35473">
        <ele>33</ele>
        <time>2021-08-15T08:41:31.000Z</time>
      </trkpt>
      <trkpt lat="47.51613" lon="-2.35472">
        <ele>32.400001525879</ele>
        <time>2021-08-15T08:41:32.000Z</time>
      </trkpt>
      <trkpt lat="47.51617" lon="-2.35471">
        <ele>32</ele>
        <time>2021-08-15T08:41:33.000Z</time>
      </trkpt>
      <trkpt lat="47.51631" lon="-2.35468">
        <ele>32</ele>
        <time>2021-08-15T08:41:37.000Z</time>
      </trkpt>
      <trkpt lat="47.51634" lon="-2.35468">
        <ele>32.599998474121</ele>
        <time>2021-08-15T08:41:38.000Z</time>
      </trkpt>
      <trkpt lat="47.51636" lon="-2.35467">
        <ele>33</ele>
        <time>2021-08-15T08:41:39.000Z</time>
      </trkpt>
      <trkpt lat="47.51639" lon="-2.35466">
        <ele>33.400001525879</ele>
        <time>2021-08-15T08:41:40.000Z</time>
      </trkpt>
      <trkpt lat="47.51641" lon="-2.35466">
        <ele>34.200000762939</ele>
        <time>2021-08-15T08:41:41.000Z</time>
      </trkpt>
      <trkpt lat="47.51646" lon="-2.35465">
        <ele>34.200000762939</ele>
        <time>2021-08-15T08:41:43.000Z</time>
      </trkpt>
      <trkpt lat="47.51649" lon="-2.35464">
        <ele>34.599998474121</ele>
        <time>2021-08-15T08:41:44.000Z</time>
      </trkpt>
      <trkpt lat="47.51651" lon="-2.35464">
        <ele>35</ele>
        <time>2021-08-15T08:41:45.000Z</time>
      </trkpt>
      <trkpt lat="47.51653" lon="-2.35464">
        <ele>35.400001525879</ele>
        <time>2021-08-15T08:41:46.000Z</time>
      </trkpt>
      <trkpt lat="47.51656" lon="-2.35463">
        <ele>36</ele>
        <time>2021-08-15T08:41:47.000Z</time>
      </trkpt>
      <trkpt lat="47.51659" lon="-2.35463">
        <ele>36.400001525879</ele>
        <time>2021-08-15T08:41:48.000Z</time>
      </trkpt>
      <trkpt lat="47.51661" lon="-2.35462">
        <ele>36.400001525879</ele>
        <time>2021-08-15T08:41:49.000Z</time>
      </trkpt>
      <trkpt lat="47.51671" lon="-2.3546">
        <ele>36.799999237061</ele>
        <time>2021-08-15T08:41:53.000Z</time>
      </trkpt>
      <trkpt lat="47.51673" lon="-2.35459">
        <ele>37.200000762939</ele>
        <time>2021-08-15T08:41:54.000Z</time>
      </trkpt>
      <trkpt lat="47.51674" lon="-2.35457">
        <ele>37.599998474121</ele>
        <time>2021-08-15T08:41:55.000Z</time>
      </trkpt>
      <trkpt lat="47.51676" lon="-2.35457">
        <ele>38</ele>
        <time>2021-08-15T08:41:56.000Z</time>
      </trkpt>
      <trkpt lat="47.51679" lon="-2.35456">
        <ele>38.400001525879</ele>
        <time>2021-08-15T08:41:57.000Z</time>
      </trkpt>
      <trkpt lat="47.51689" lon="-2.35452">
        <ele>38.400001525879</ele>
        <time>2021-08-15T08:42:02.000Z</time>
      </trkpt>
      <trkpt lat="47.51698" lon="-2.35451">
        <ele>39.200000762939</ele>
        <time>2021-08-15T08:42:06.000Z</time>
      </trkpt>
      <trkpt lat="47.517" lon="-2.35451">
        <ele>39.599998474121</ele>
        <time>2021-08-15T08:42:07.000Z</time>
      </trkpt>
      <trkpt lat="47.51702" lon="-2.35451">
        <ele>40</ele>
        <time>2021-08-15T08:42:08.000Z</time>
      </trkpt>
      <trkpt lat="47.51704" lon="-2.35451">
        <ele>40.400001525879</ele>
        <time>2021-08-15T08:42:09.000Z</time>
      </trkpt>
      <trkpt lat="47.51716" lon="-2.3545">
        <ele>40.400001525879</ele>
        <time>2021-08-15T08:42:14.000Z</time>
      </trkpt>
      <trkpt lat="47.51734" lon="-2.35446">
        <ele>40.400001525879</ele>
        <time>2021-08-15T08:42:20.000Z</time>
      </trkpt>
      <trkpt lat="47.51752" lon="-2.35439">
        <ele>40.400001525879</ele>
        <time>2021-08-15T08:42:26.000Z</time>
      </trkpt>
      <trkpt lat="47.51763" lon="-2.35424">
        <ele>40.400001525879</ele>
        <time>2021-08-15T08:42:30.000Z</time>
      </trkpt>
      <trkpt lat="47.51766" lon="-2.35419">
        <ele>40.400001525879</ele>
        <time>2021-08-15T08:42:31.000Z</time>
      </trkpt>
      <trkpt lat="47.51777" lon="-2.35409">
        <ele>40.400001525879</ele>
        <time>2021-08-15T08:42:34.000Z</time>
      </trkpt>
      <trkpt lat="47.51791" lon="-2.35405">
        <ele>40.400001525879</ele>
        <time>2021-08-15T08:42:37.000Z</time>
      </trkpt>
      <trkpt lat="47.51796" lon="-2.35404">
        <ele>40.400001525879</ele>
        <time>2021-08-15T08:42:38.000Z</time>
      </trkpt>
      <trkpt lat="47.51812" lon="-2.35401">
        <ele>40.400001525879</ele>
        <time>2021-08-15T08:42:42.000Z</time>
      </trkpt>
      <trkpt lat="47.51816" lon="-2.35403">
        <ele>40.400001525879</ele>
        <time>2021-08-15T08:42:43.000Z</time>
      </trkpt>
      <trkpt lat="47.51822" lon="-2.35416">
        <ele>40.400001525879</ele>
        <time>2021-08-15T08:42:46.000Z</time>
      </trkpt>
      <trkpt lat="47.51824" lon="-2.35443">
        <ele>40.400001525879</ele>
        <time>2021-08-15T08:42:51.000Z</time>
      </trkpt>
      <trkpt lat="47.51824" lon="-2.35448">
        <ele>40.400001525879</ele>
        <time>2021-08-15T08:42:52.000Z</time>
      </trkpt>
      <trkpt lat="47.51827" lon="-2.35476">
        <ele>40.400001525879</ele>
        <time>2021-08-15T08:42:57.000Z</time>
      </trkpt>
      <trkpt lat="47.51835" lon="-2.35493">
        <ele>40.400001525879</ele>
        <time>2021-08-15T08:43:02.000Z</time>
      </trkpt>
      <trkpt lat="47.51851" lon="-2.35491">
        <ele>40.400001525879</ele>
        <time>2021-08-15T08:43:06.000Z</time>
      </trkpt>
      <trkpt lat="47.51885" lon="-2.35484">
        <ele>40.400001525879</ele>
        <time>2021-08-15T08:43:12.000Z</time>
      </trkpt>
      <trkpt lat="47.51914" lon="-2.35479">
        <ele>40.400001525879</ele>
        <time>2021-08-15T08:43:16.000Z</time>
      </trkpt>
      <trkpt lat="47.51928" lon="-2.35474">
        <ele>40.400001525879</ele>
        <time>2021-08-15T08:43:18.000Z</time>
      </trkpt>
      <trkpt lat="47.51934" lon="-2.35468">
        <ele>40</ele>
        <time>2021-08-15T08:43:19.000Z</time>
      </trkpt>
      <trkpt lat="47.51939" lon="-2.35461">
        <ele>39.200000762939</ele>
        <time>2021-08-15T08:43:20.000Z</time>
      </trkpt>
      <trkpt lat="47.51943" lon="-2.35454">
        <ele>38.599998474121</ele>
        <time>2021-08-15T08:43:21.000Z</time>
      </trkpt>
      <trkpt lat="47.51947" lon="-2.35445">
        <ele>38.200000762939</ele>
        <time>2021-08-15T08:43:22.000Z</time>
      </trkpt>
      <trkpt lat="47.51957" lon="-2.35424">
        <ele>38.200000762939</ele>
        <time>2021-08-15T08:43:25.000Z</time>
      </trkpt>
      <trkpt lat="47.51975" lon="-2.35389">
        <ele>38.200000762939</ele>
        <time>2021-08-15T08:43:30.000Z</time>
      </trkpt>
      <trkpt lat="47.51983" lon="-2.35377">
        <ele>38.200000762939</ele>
        <time>2021-08-15T08:43:32.000Z</time>
      </trkpt>
      <trkpt lat="47.52002" lon="-2.35335">
        <ele>38.200000762939</ele>
        <time>2021-08-15T08:43:39.000Z</time>
      </trkpt>
      <trkpt lat="47.52004" lon="-2.35328">
        <ele>37.799999237061</ele>
        <time>2021-08-15T08:43:40.000Z</time>
      </trkpt>
      <trkpt lat="47.52006" lon="-2.35322">
        <ele>37.400001525879</ele>
        <time>2021-08-15T08:43:41.000Z</time>
      </trkpt>
      <trkpt lat="47.52008" lon="-2.35315">
        <ele>37</ele>
        <time>2021-08-15T08:43:42.000Z</time>
      </trkpt>
      <trkpt lat="47.5201" lon="-2.35309">
        <ele>36.599998474121</ele>
        <time>2021-08-15T08:43:43.000Z</time>
      </trkpt>
      <trkpt lat="47.52012" lon="-2.35304">
        <ele>36.200000762939</ele>
        <time>2021-08-15T08:43:44.000Z</time>
      </trkpt>
      <trkpt lat="47.52014" lon="-2.353">
        <ele>36.200000762939</ele>
        <time>2021-08-15T08:43:45.000Z</time>
      </trkpt>
      <trkpt lat="47.52023" lon="-2.35279">
        <ele>36.200000762939</ele>
        <time>2021-08-15T08:43:51.000Z</time>
      </trkpt>
      <trkpt lat="47.52027" lon="-2.3527">
        <ele>36.200000762939</ele>
        <time>2021-08-15T08:43:53.000Z</time>
      </trkpt>
      <trkpt lat="47.52033" lon="-2.35259">
        <ele>35.799999237061</ele>
        <time>2021-08-15T08:43:55.000Z</time>
      </trkpt>
      <trkpt lat="47.52037" lon="-2.35255">
        <ele>35.400001525879</ele>
        <time>2021-08-15T08:43:56.000Z</time>
      </trkpt>
      <trkpt lat="47.52041" lon="-2.35251">
        <ele>35</ele>
        <time>2021-08-15T08:43:57.000Z</time>
      </trkpt>
      <trkpt lat="47.52046" lon="-2.35248">
        <ele>34.599998474121</ele>
        <time>2021-08-15T08:43:58.000Z</time>
      </trkpt>
      <trkpt lat="47.5205" lon="-2.35246">
        <ele>34.200000762939</ele>
        <time>2021-08-15T08:43:59.000Z</time>
      </trkpt>
      <trkpt lat="47.52059" lon="-2.35241">
        <ele>34.200000762939</ele>
        <time>2021-08-15T08:44:01.000Z</time>
      </trkpt>
      <trkpt lat="47.52072" lon="-2.35233">
        <ele>34.200000762939</ele>
        <time>2021-08-15T08:44:05.000Z</time>
      </trkpt>
      <trkpt lat="47.52082" lon="-2.35226">
        <ele>34.200000762939</ele>
        <time>2021-08-15T08:44:10.000Z</time>
      </trkpt>
      <trkpt lat="47.52085" lon="-2.35225">
        <ele>34.599998474121</ele>
        <time>2021-08-15T08:44:12.000Z</time>
      </trkpt>
      <trkpt lat="47.52087" lon="-2.35225">
        <ele>35</ele>
        <time>2021-08-15T08:44:13.000Z</time>
      </trkpt>
      <trkpt lat="47.52089" lon="-2.35224">
        <ele>35.400001525879</ele>
        <time>2021-08-15T08:44:14.000Z</time>
      </trkpt>
      <trkpt lat="47.52091" lon="-2.35223">
        <ele>35.799999237061</ele>
        <time>2021-08-15T08:44:15.000Z</time>
      </trkpt>
      <trkpt lat="47.52093" lon="-2.35221">
        <ele>36.200000762939</ele>
        <time>2021-08-15T08:44:16.000Z</time>
      </trkpt>
      <trkpt lat="47.52104" lon="-2.35218">
        <ele>36.200000762939</ele>
        <time>2021-08-15T08:44:21.000Z</time>
      </trkpt>
      <trkpt lat="47.52105" lon="-2.35217">
        <ele>36.599998474121</ele>
        <time>2021-08-15T08:44:22.000Z</time>
      </trkpt>
      <trkpt lat="47.52107" lon="-2.35216">
        <ele>37.200000762939</ele>
        <time>2021-08-15T08:44:23.000Z</time>
      </trkpt>
      <trkpt lat="47.52109" lon="-2.35215">
        <ele>37.599998474121</ele>
        <time>2021-08-15T08:44:24.000Z</time>
      </trkpt>
      <trkpt lat="47.52112" lon="-2.35214">
        <ele>38</ele>
        <time>2021-08-15T08:44:25.000Z</time>
      </trkpt>
      <trkpt lat="47.52115" lon="-2.35212">
        <ele>38.599998474121</ele>
        <time>2021-08-15T08:44:26.000Z</time>
      </trkpt>
      <trkpt lat="47.52118" lon="-2.3521">
        <ele>38.599998474121</ele>
        <time>2021-08-15T08:44:27.000Z</time>
      </trkpt>
      <trkpt lat="47.52125" lon="-2.35199">
        <ele>39</ele>
        <time>2021-08-15T08:44:31.000Z</time>
      </trkpt>
      <trkpt lat="47.52125" lon="-2.35195">
        <ele>39.400001525879</ele>
        <time>2021-08-15T08:44:32.000Z</time>
      </trkpt>
      <trkpt lat="47.52125" lon="-2.35192">
        <ele>39.799999237061</ele>
        <time>2021-08-15T08:44:33.000Z</time>
      </trkpt>
      <trkpt lat="47.52126" lon="-2.35189">
        <ele>40.599998474121</ele>
        <time>2021-08-15T08:44:34.000Z</time>
      </trkpt>
      <trkpt lat="47.52129" lon="-2.35184">
        <ele>40.599998474121</ele>
        <time>2021-08-15T08:44:36.000Z</time>
      </trkpt>
      <trkpt lat="47.52131" lon="-2.35181">
        <ele>40.599998474121</ele>
        <time>2021-08-15T08:44:37.000Z</time>
      </trkpt>
      <trkpt lat="47.52133" lon="-2.35179">
        <ele>41</ele>
        <time>2021-08-15T08:44:38.000Z</time>
      </trkpt>
      <trkpt lat="47.52134" lon="-2.35177">
        <ele>41.400001525879</ele>
        <time>2021-08-15T08:44:39.000Z</time>
      </trkpt>
      <trkpt lat="47.52135" lon="-2.35175">
        <ele>41.799999237061</ele>
        <time>2021-08-15T08:44:40.000Z</time>
      </trkpt>
      <trkpt lat="47.52137" lon="-2.35175">
        <ele>42.200000762939</ele>
        <time>2021-08-15T08:44:41.000Z</time>
      </trkpt>
      <trkpt lat="47.52139" lon="-2.35174">
        <ele>42.599998474121</ele>
        <time>2021-08-15T08:44:42.000Z</time>
      </trkpt>
      <trkpt lat="47.5214" lon="-2.35173">
        <ele>42.599998474121</ele>
        <time>2021-08-15T08:44:43.000Z</time>
      </trkpt>
      <trkpt lat="47.52148" lon="-2.35168">
        <ele>42.599998474121</ele>
        <time>2021-08-15T08:44:46.000Z</time>
      </trkpt>
      <trkpt lat="47.52163" lon="-2.35154">
        <ele>42.599998474121</ele>
        <time>2021-08-15T08:44:52.000Z</time>
      </trkpt>
      <trkpt lat="47.52167" lon="-2.35148">
        <ele>42.599998474121</ele>
        <time>2021-08-15T08:44:54.000Z</time>
      </trkpt>
      <trkpt lat="47.52169" lon="-2.3514">
        <ele>42.599998474121</ele>
        <time>2021-08-15T08:44:56.000Z</time>
      </trkpt>
      <trkpt lat="47.52174" lon="-2.35133">
        <ele>42.599998474121</ele>
        <time>2021-08-15T08:44:58.000Z</time>
      </trkpt>
      <trkpt lat="47.52178" lon="-2.3513">
        <ele>42.599998474121</ele>
        <time>2021-08-15T08:44:59.000Z</time>
      </trkpt>
      <trkpt lat="47.52189" lon="-2.35121">
        <ele>42</ele>
        <time>2021-08-15T08:45:01.000Z</time>
      </trkpt>
      <trkpt lat="47.52194" lon="-2.35118">
        <ele>41.599998474121</ele>
        <time>2021-08-15T08:45:02.000Z</time>
      </trkpt>
      <trkpt lat="47.52199" lon="-2.35115">
        <ele>41.200000762939</ele>
        <time>2021-08-15T08:45:03.000Z</time>
      </trkpt>
      <trkpt lat="47.52204" lon="-2.35114">
        <ele>40.400001525879</ele>
        <time>2021-08-15T08:45:04.000Z</time>
      </trkpt>
      <trkpt lat="47.52209" lon="-2.35113">
        <ele>39.799999237061</ele>
        <time>2021-08-15T08:45:05.000Z</time>
      </trkpt>
      <trkpt lat="47.52214" lon="-2.35113">
        <ele>39.200000762939</ele>
        <time>2021-08-15T08:45:06.000Z</time>
      </trkpt>
      <trkpt lat="47.52219" lon="-2.35113">
        <ele>38.599998474121</ele>
        <time>2021-08-15T08:45:07.000Z</time>
      </trkpt>
      <trkpt lat="47.52224" lon="-2.35115">
        <ele>38</ele>
        <time>2021-08-15T08:45:08.000Z</time>
      </trkpt>
      <trkpt lat="47.5223" lon="-2.35117">
        <ele>37.200000762939</ele>
        <time>2021-08-15T08:45:09.000Z</time>
      </trkpt>
      <trkpt lat="47.52234" lon="-2.3512">
        <ele>36.599998474121</ele>
        <time>2021-08-15T08:45:10.000Z</time>
      </trkpt>
      <trkpt lat="47.52239" lon="-2.35124">
        <ele>35.799999237061</ele>
        <time>2021-08-15T08:45:11.000Z</time>
      </trkpt>
      <trkpt lat="47.52244" lon="-2.3513">
        <ele>35.200000762939</ele>
        <time>2021-08-15T08:45:12.000Z</time>
      </trkpt>
      <trkpt lat="47.52249" lon="-2.35135">
        <ele>34.400001525879</ele>
        <time>2021-08-15T08:45:13.000Z</time>
      </trkpt>
      <trkpt lat="47.52255" lon="-2.3514">
        <ele>33.799999237061</ele>
        <time>2021-08-15T08:45:14.000Z</time>
      </trkpt>
      <trkpt lat="47.5226" lon="-2.35146">
        <ele>33</ele>
        <time>2021-08-15T08:45:15.000Z</time>
      </trkpt>
      <trkpt lat="47.52266" lon="-2.35151">
        <ele>32.400001525879</ele>
        <time>2021-08-15T08:45:16.000Z</time>
      </trkpt>
      <trkpt lat="47.52271" lon="-2.35156">
        <ele>31.60000038147</ele>
        <time>2021-08-15T08:45:17.000Z</time>
      </trkpt>
      <trkpt lat="47.52276" lon="-2.35161">
        <ele>31</ele>
        <time>2021-08-15T08:45:18.000Z</time>
      </trkpt>
      <trkpt lat="47.52279" lon="-2.35165">
        <ele>30.39999961853</ele>
        <time>2021-08-15T08:45:19.000Z</time>
      </trkpt>
      <trkpt lat="47.52282" lon="-2.35167">
        <ele>29.60000038147</ele>
        <time>2021-08-15T08:45:20.000Z</time>
      </trkpt>
      <trkpt lat="47.52283" lon="-2.35169">
        <ele>29</ele>
        <time>2021-08-15T08:45:21.000Z</time>
      </trkpt>
      <trkpt lat="47.52284" lon="-2.3517">
        <ele>28.39999961853</ele>
        <time>2021-08-15T08:45:22.000Z</time>
      </trkpt>
      <trkpt lat="47.52284" lon="-2.3517">
        <ele>27.200000762939</ele>
        <time>2021-08-15T08:45:23.000Z</time>
      </trkpt>
      <trkpt lat="47.52284" lon="-2.3517">
        <ele>26.799999237061</ele>
        <time>2021-08-15T08:45:24.000Z</time>
      </trkpt>
      <trkpt lat="47.52282" lon="-2.35167">
        <ele>24.200000762939</ele>
        <time>2021-08-15T08:55:35.000Z</time>
      </trkpt>
      <trkpt lat="47.52281" lon="-2.35165">
        <ele>24.200000762939</ele>
        <time>2021-08-15T08:55:36.000Z</time>
      </trkpt>
      <trkpt lat="47.52269" lon="-2.35157">
        <ele>24.200000762939</ele>
        <time>2021-08-15T08:55:41.000Z</time>
      </trkpt>
      <trkpt lat="47.52255" lon="-2.35143">
        <ele>24.60000038147</ele>
        <time>2021-08-15T08:55:48.000Z</time>
      </trkpt>
      <trkpt lat="47.52253" lon="-2.35141">
        <ele>25</ele>
        <time>2021-08-15T08:55:49.000Z</time>
      </trkpt>
      <trkpt lat="47.52251" lon="-2.35139">
        <ele>25.39999961853</ele>
        <time>2021-08-15T08:55:50.000Z</time>
      </trkpt>
      <trkpt lat="47.52249" lon="-2.35137">
        <ele>25.799999237061</ele>
        <time>2021-08-15T08:55:51.000Z</time>
      </trkpt>
      <trkpt lat="47.52247" lon="-2.35135">
        <ele>26.200000762939</ele>
        <time>2021-08-15T08:55:52.000Z</time>
      </trkpt>
      <trkpt lat="47.5224" lon="-2.35125">
        <ele>26.60000038147</ele>
        <time>2021-08-15T08:55:56.000Z</time>
      </trkpt>
      <trkpt lat="47.52238" lon="-2.35122">
        <ele>27</ele>
        <time>2021-08-15T08:55:57.000Z</time>
      </trkpt>
      <trkpt lat="47.52236" lon="-2.3512">
        <ele>27.39999961853</ele>
        <time>2021-08-15T08:55:58.000Z</time>
      </trkpt>
      <trkpt lat="47.52234" lon="-2.3512">
        <ele>27.799999237061</ele>
        <time>2021-08-15T08:55:59.000Z</time>
      </trkpt>
      <trkpt lat="47.52233" lon="-2.35119">
        <ele>28.200000762939</ele>
        <time>2021-08-15T08:56:00.000Z</time>
      </trkpt>
      <trkpt lat="47.52231" lon="-2.35118">
        <ele>28.200000762939</ele>
        <time>2021-08-15T08:56:01.000Z</time>
      </trkpt>
      <trkpt lat="47.52229" lon="-2.35117">
        <ele>28.60000038147</ele>
        <time>2021-08-15T08:56:02.000Z</time>
      </trkpt>
      <trkpt lat="47.52228" lon="-2.35116">
        <ele>29</ele>
        <time>2021-08-15T08:56:03.000Z</time>
      </trkpt>
      <trkpt lat="47.52226" lon="-2.35116">
        <ele>29.39999961853</ele>
        <time>2021-08-15T08:56:04.000Z</time>
      </trkpt>
      <trkpt lat="47.52224" lon="-2.35115">
        <ele>29.799999237061</ele>
        <time>2021-08-15T08:56:05.000Z</time>
      </trkpt>
      <trkpt lat="47.52222" lon="-2.35115">
        <ele>30.200000762939</ele>
        <time>2021-08-15T08:56:06.000Z</time>
      </trkpt>
      <trkpt lat="47.52218" lon="-2.35114">
        <ele>30.60000038147</ele>
        <time>2021-08-15T08:56:08.000Z</time>
      </trkpt>
      <trkpt lat="47.52216" lon="-2.35115">
        <ele>31</ele>
        <time>2021-08-15T08:56:09.000Z</time>
      </trkpt>
      <trkpt lat="47.52214" lon="-2.35114">
        <ele>31.60000038147</ele>
        <time>2021-08-15T08:56:10.000Z</time>
      </trkpt>
      <trkpt lat="47.52212" lon="-2.35114">
        <ele>32</ele>
        <time>2021-08-15T08:56:11.000Z</time>
      </trkpt>
      <trkpt lat="47.52209" lon="-2.35114">
        <ele>32.400001525879</ele>
        <time>2021-08-15T08:56:12.000Z</time>
      </trkpt>
      <trkpt lat="47.52205" lon="-2.35116">
        <ele>32.400001525879</ele>
        <time>2021-08-15T08:56:14.000Z</time>
      </trkpt>
      <trkpt lat="47.52203" lon="-2.35117">
        <ele>32.799999237061</ele>
        <time>2021-08-15T08:56:15.000Z</time>
      </trkpt>
      <trkpt lat="47.52201" lon="-2.35119">
        <ele>33.200000762939</ele>
        <time>2021-08-15T08:56:16.000Z</time>
      </trkpt>
      <trkpt lat="47.52199" lon="-2.3512">
        <ele>33.599998474121</ele>
        <time>2021-08-15T08:56:17.000Z</time>
      </trkpt>
      <trkpt lat="47.52197" lon="-2.35121">
        <ele>34</ele>
        <time>2021-08-15T08:56:18.000Z</time>
      </trkpt>
      <trkpt lat="47.52195" lon="-2.35123">
        <ele>34.400001525879</ele>
        <time>2021-08-15T08:56:19.000Z</time>
      </trkpt>
      <trkpt lat="47.52189" lon="-2.35125">
        <ele>34.400001525879</ele>
        <time>2021-08-15T08:56:22.000Z</time>
      </trkpt>
      <trkpt lat="47.52187" lon="-2.35126">
        <ele>34.799999237061</ele>
        <time>2021-08-15T08:56:23.000Z</time>
      </trkpt>
      <trkpt lat="47.52185" lon="-2.35128">
        <ele>35.799999237061</ele>
        <time>2021-08-15T08:56:24.000Z</time>
      </trkpt>
      <trkpt lat="47.52184" lon="-2.35129">
        <ele>36.200000762939</ele>
        <time>2021-08-15T08:56:25.000Z</time>
      </trkpt>
      <trkpt lat="47.52183" lon="-2.3513">
        <ele>36.599998474121</ele>
        <time>2021-08-15T08:56:26.000Z</time>
      </trkpt>
      <trkpt lat="47.5218" lon="-2.35132">
        <ele>36.599998474121</ele>
        <time>2021-08-15T08:56:28.000Z</time>
      </trkpt>
      <trkpt lat="47.52178" lon="-2.35133">
        <ele>37</ele>
        <time>2021-08-15T08:56:30.000Z</time>
      </trkpt>
      <trkpt lat="47.52176" lon="-2.35134">
        <ele>37.599998474121</ele>
        <time>2021-08-15T08:56:31.000Z</time>
      </trkpt>
      <trkpt lat="47.52174" lon="-2.35135">
        <ele>38</ele>
        <time>2021-08-15T08:56:32.000Z</time>
      </trkpt>
      <trkpt lat="47.52172" lon="-2.35135">
        <ele>38.400001525879</ele>
        <time>2021-08-15T08:56:33.000Z</time>
      </trkpt>
      <trkpt lat="47.5217" lon="-2.35136">
        <ele>38.799999237061</ele>
        <time>2021-08-15T08:56:34.000Z</time>
      </trkpt>
      <trkpt lat="47.52159" lon="-2.3514">
        <ele>39.200000762939</ele>
        <time>2021-08-15T08:56:40.000Z</time>
      </trkpt>
      <trkpt lat="47.52156" lon="-2.3514">
        <ele>39.599998474121</ele>
        <time>2021-08-15T08:56:41.000Z</time>
      </trkpt>
      <trkpt lat="47.52154" lon="-2.35141">
        <ele>40</ele>
        <time>2021-08-15T08:56:42.000Z</time>
      </trkpt>
      <trkpt lat="47.52152" lon="-2.35141">
        <ele>40.400001525879</ele>
        <time>2021-08-15T08:56:43.000Z</time>
      </trkpt>
      <trkpt lat="47.52149" lon="-2.35141">
        <ele>40.799999237061</ele>
        <time>2021-08-15T08:56:44.000Z</time>
      </trkpt>
      <trkpt lat="47.52143" lon="-2.35143">
        <ele>40.799999237061</ele>
        <time>2021-08-15T08:56:47.000Z</time>
      </trkpt>
      <trkpt lat="47.52132" lon="-2.35145">
        <ele>40.799999237061</ele>
        <time>2021-08-15T08:56:52.000Z</time>
      </trkpt>
      <trkpt lat="47.52112" lon="-2.35147">
        <ele>40.799999237061</ele>
        <time>2021-08-15T08:57:00.000Z</time>
      </trkpt>
      <trkpt lat="47.52097" lon="-2.35137">
        <ele>40.799999237061</ele>
        <time>2021-08-15T08:57:05.000Z</time>
      </trkpt>
      <trkpt lat="47.52095" lon="-2.35138">
        <ele>40.799999237061</ele>
        <time>2021-08-15T08:57:06.000Z</time>
      </trkpt>
      <trkpt lat="47.52088" lon="-2.35143">
        <ele>40.400001525879</ele>
        <time>2021-08-15T08:57:09.000Z</time>
      </trkpt>
      <trkpt lat="47.52087" lon="-2.35147">
        <ele>40</ele>
        <time>2021-08-15T08:57:10.000Z</time>
      </trkpt>
      <trkpt lat="47.52086" lon="-2.35152">
        <ele>39.599998474121</ele>
        <time>2021-08-15T08:57:11.000Z</time>
      </trkpt>
      <trkpt lat="47.52085" lon="-2.35157">
        <ele>39.200000762939</ele>
        <time>2021-08-15T08:57:12.000Z</time>
      </trkpt>
      <trkpt lat="47.52084" lon="-2.35164">
        <ele>38.799999237061</ele>
        <time>2021-08-15T08:57:13.000Z</time>
      </trkpt>
      <trkpt lat="47.52085" lon="-2.3517">
        <ele>38.799999237061</ele>
        <time>2021-08-15T08:57:14.000Z</time>
      </trkpt>
      <trkpt lat="47.52084" lon="-2.35184">
        <ele>38.400001525879</ele>
        <time>2021-08-15T08:57:16.000Z</time>
      </trkpt>
      <trkpt lat="47.52085" lon="-2.35191">
        <ele>38</ele>
        <time>2021-08-15T08:57:17.000Z</time>
      </trkpt>
      <trkpt lat="47.52085" lon="-2.35198">
        <ele>37.599998474121</ele>
        <time>2021-08-15T08:57:18.000Z</time>
      </trkpt>
      <trkpt lat="47.52085" lon="-2.35205">
        <ele>37.200000762939</ele>
        <time>2021-08-15T08:57:19.000Z</time>
      </trkpt>
      <trkpt lat="47.52085" lon="-2.35212">
        <ele>36.799999237061</ele>
        <time>2021-08-15T08:57:20.000Z</time>
      </trkpt>
      <trkpt lat="47.52084" lon="-2.35218">
        <ele>36.799999237061</ele>
        <time>2021-08-15T08:57:21.000Z</time>
      </trkpt>
      <trkpt lat="47.52078" lon="-2.35231">
        <ele>36.200000762939</ele>
        <time>2021-08-15T08:57:24.000Z</time>
      </trkpt>
      <trkpt lat="47.52075" lon="-2.35233">
        <ele>35.799999237061</ele>
        <time>2021-08-15T08:57:25.000Z</time>
      </trkpt>
      <trkpt lat="47.52072" lon="-2.35235">
        <ele>35.400001525879</ele>
        <time>2021-08-15T08:57:26.000Z</time>
      </trkpt>
      <trkpt lat="47.52069" lon="-2.35236">
        <ele>35</ele>
        <time>2021-08-15T08:57:27.000Z</time>
      </trkpt>
      <trkpt lat="47.52065" lon="-2.35238">
        <ele>34.400001525879</ele>
        <time>2021-08-15T08:57:28.000Z</time>
      </trkpt>
      <trkpt lat="47.52061" lon="-2.35241">
        <ele>34.400001525879</ele>
        <time>2021-08-15T08:57:29.000Z</time>
      </trkpt>
      <trkpt lat="47.52056" lon="-2.35243">
        <ele>34</ele>
        <time>2021-08-15T08:57:30.000Z</time>
      </trkpt>
      <trkpt lat="47.52052" lon="-2.35246">
        <ele>33.599998474121</ele>
        <time>2021-08-15T08:57:31.000Z</time>
      </trkpt>
      <trkpt lat="47.52049" lon="-2.35247">
        <ele>33.200000762939</ele>
        <time>2021-08-15T08:57:32.000Z</time>
      </trkpt>
      <trkpt lat="47.52046" lon="-2.35249">
        <ele>32.799999237061</ele>
        <time>2021-08-15T08:57:33.000Z</time>
      </trkpt>
      <trkpt lat="47.52045" lon="-2.35251">
        <ele>32.200000762939</ele>
        <time>2021-08-15T08:57:34.000Z</time>
      </trkpt>
      <trkpt lat="47.52042" lon="-2.35253">
        <ele>32.200000762939</ele>
        <time>2021-08-15T08:57:37.000Z</time>
      </trkpt>
      <trkpt lat="47.52042" lon="-2.35252">
        <ele>32.200000762939</ele>
        <time>2021-08-15T08:57:38.000Z</time>
      </trkpt>
      <trkpt lat="47.52039" lon="-2.35257">
        <ele>30.799999237061</ele>
        <time>2021-08-15T09:00:14.000Z</time>
      </trkpt>
      <trkpt lat="47.52038" lon="-2.35259">
        <ele>30.799999237061</ele>
        <time>2021-08-15T09:00:15.000Z</time>
      </trkpt>
      <trkpt lat="47.52029" lon="-2.35273">
        <ele>30.799999237061</ele>
        <time>2021-08-15T09:00:19.000Z</time>
      </trkpt>
      <trkpt lat="47.52012" lon="-2.35308">
        <ele>30.799999237061</ele>
        <time>2021-08-15T09:00:26.000Z</time>
      </trkpt>
      <trkpt lat="47.52005" lon="-2.35326">
        <ele>31.200000762939</ele>
        <time>2021-08-15T09:00:30.000Z</time>
      </trkpt>
      <trkpt lat="47.52003" lon="-2.35331">
        <ele>31.60000038147</ele>
        <time>2021-08-15T09:00:31.000Z</time>
      </trkpt>
      <trkpt lat="47.52002" lon="-2.35335">
        <ele>32.400001525879</ele>
        <time>2021-08-15T09:00:32.000Z</time>
      </trkpt>
      <trkpt lat="47.52" lon="-2.35339">
        <ele>32.799999237061</ele>
        <time>2021-08-15T09:00:33.000Z</time>
      </trkpt>
      <trkpt lat="47.51989" lon="-2.35368">
        <ele>32.799999237061</ele>
        <time>2021-08-15T09:00:41.000Z</time>
      </trkpt>
      <trkpt lat="47.51978" lon="-2.35389">
        <ele>32.799999237061</ele>
        <time>2021-08-15T09:00:46.000Z</time>
      </trkpt>
      <trkpt lat="47.51959" lon="-2.35425">
        <ele>32.799999237061</ele>
        <time>2021-08-15T09:00:53.000Z</time>
      </trkpt>
      <trkpt lat="47.51946" lon="-2.3545">
        <ele>32.799999237061</ele>
        <time>2021-08-15T09:00:59.000Z</time>
      </trkpt>
      <trkpt lat="47.51933" lon="-2.35474">
        <ele>32.799999237061</ele>
        <time>2021-08-15T09:01:07.000Z</time>
      </trkpt>
      <trkpt lat="47.51926" lon="-2.35499">
        <ele>32.799999237061</ele>
        <time>2021-08-15T09:01:14.000Z</time>
      </trkpt>
      <trkpt lat="47.51924" lon="-2.35516">
        <ele>32.799999237061</ele>
        <time>2021-08-15T09:01:21.000Z</time>
      </trkpt>
      <trkpt lat="47.51922" lon="-2.35525">
        <ele>33.200000762939</ele>
        <time>2021-08-15T09:01:25.000Z</time>
      </trkpt>
      <trkpt lat="47.5192" lon="-2.35527">
        <ele>33.599998474121</ele>
        <time>2021-08-15T09:01:26.000Z</time>
      </trkpt>
      <trkpt lat="47.5192" lon="-2.35528">
        <ele>34</ele>
        <time>2021-08-15T09:01:27.000Z</time>
      </trkpt>
      <trkpt lat="47.51919" lon="-2.3553">
        <ele>34.400001525879</ele>
        <time>2021-08-15T09:01:28.000Z</time>
      </trkpt>
      <trkpt lat="47.51919" lon="-2.35532">
        <ele>34.799999237061</ele>
        <time>2021-08-15T09:01:29.000Z</time>
      </trkpt>
      <trkpt lat="47.51915" lon="-2.35538">
        <ele>34.799999237061</ele>
        <time>2021-08-15T09:01:33.000Z</time>
      </trkpt>
      <trkpt lat="47.51912" lon="-2.35553">
        <ele>34.799999237061</ele>
        <time>2021-08-15T09:01:38.000Z</time>
      </trkpt>
      <trkpt lat="47.51906" lon="-2.35579">
        <ele>34.799999237061</ele>
        <time>2021-08-15T09:01:44.000Z</time>
      </trkpt>
      <trkpt lat="47.51904" lon="-2.35583">
        <ele>35.200000762939</ele>
        <time>2021-08-15T09:01:45.000Z</time>
      </trkpt>
      <trkpt lat="47.51903" lon="-2.35587">
        <ele>36</ele>
        <time>2021-08-15T09:01:46.000Z</time>
      </trkpt>
      <trkpt lat="47.51902" lon="-2.35592">
        <ele>36.400001525879</ele>
        <time>2021-08-15T09:01:47.000Z</time>
      </trkpt>
      <trkpt lat="47.51901" lon="-2.35596">
        <ele>37</ele>
        <time>2021-08-15T09:01:48.000Z</time>
      </trkpt>
      <trkpt lat="47.51897" lon="-2.35609">
        <ele>37</ele>
        <time>2021-08-15T09:01:51.000Z</time>
      </trkpt>
      <trkpt lat="47.51893" lon="-2.35628">
        <ele>37.400001525879</ele>
        <time>2021-08-15T09:01:55.000Z</time>
      </trkpt>
      <trkpt lat="47.51891" lon="-2.35633">
        <ele>37.799999237061</ele>
        <time>2021-08-15T09:01:56.000Z</time>
      </trkpt>
      <trkpt lat="47.5189" lon="-2.35638">
        <ele>38.200000762939</ele>
        <time>2021-08-15T09:01:57.000Z</time>
      </trkpt>
      <trkpt lat="47.5189" lon="-2.35643">
        <ele>38.599998474121</ele>
        <time>2021-08-15T09:01:58.000Z</time>
      </trkpt>
      <trkpt lat="47.51889" lon="-2.35648">
        <ele>39</ele>
        <time>2021-08-15T09:01:59.000Z</time>
      </trkpt>
      <trkpt lat="47.51883" lon="-2.3568">
        <ele>39</ele>
        <time>2021-08-15T09:02:06.000Z</time>
      </trkpt>
      <trkpt lat="47.51882" lon="-2.35685">
        <ele>39.400001525879</ele>
        <time>2021-08-15T09:02:07.000Z</time>
      </trkpt>
      <trkpt lat="47.51881" lon="-2.35691">
        <ele>39.799999237061</ele>
        <time>2021-08-15T09:02:08.000Z</time>
      </trkpt>
      <trkpt lat="47.5188" lon="-2.35697">
        <ele>40.400001525879</ele>
        <time>2021-08-15T09:02:09.000Z</time>
      </trkpt>
      <trkpt lat="47.51879" lon="-2.35703">
        <ele>40.799999237061</ele>
        <time>2021-08-15T09:02:10.000Z</time>
      </trkpt>
      <trkpt lat="47.51878" lon="-2.35709">
        <ele>41.200000762939</ele>
        <time>2021-08-15T09:02:11.000Z</time>
      </trkpt>
      <trkpt lat="47.51877" lon="-2.35715">
        <ele>41.200000762939</ele>
        <time>2021-08-15T09:02:12.000Z</time>
      </trkpt>
      <trkpt lat="47.51873" lon="-2.35749">
        <ele>41.599998474121</ele>
        <time>2021-08-15T09:02:18.000Z</time>
      </trkpt>
      <trkpt lat="47.51872" lon="-2.35754">
        <ele>42</ele>
        <time>2021-08-15T09:02:19.000Z</time>
      </trkpt>
      <trkpt lat="47.51872" lon="-2.3576">
        <ele>42.400001525879</ele>
        <time>2021-08-15T09:02:20.000Z</time>
      </trkpt>
      <trkpt lat="47.51871" lon="-2.35766">
        <ele>42.799999237061</ele>
        <time>2021-08-15T09:02:21.000Z</time>
      </trkpt>
      <trkpt lat="47.5187" lon="-2.35772">
        <ele>43.200000762939</ele>
        <time>2021-08-15T09:02:22.000Z</time>
      </trkpt>
      <trkpt lat="47.51862" lon="-2.35811">
        <ele>43.200000762939</ele>
        <time>2021-08-15T09:02:28.000Z</time>
      </trkpt>
      <trkpt lat="47.51852" lon="-2.35877">
        <ele>43.200000762939</ele>
        <time>2021-08-15T09:02:37.000Z</time>
      </trkpt>
      <trkpt lat="47.51851" lon="-2.35885">
        <ele>43.599998474121</ele>
        <time>2021-08-15T09:02:38.000Z</time>
      </trkpt>
      <trkpt lat="47.5185" lon="-2.35892">
        <ele>44</ele>
        <time>2021-08-15T09:02:39.000Z</time>
      </trkpt>
      <trkpt lat="47.51849" lon="-2.35899">
        <ele>44.400001525879</ele>
        <time>2021-08-15T09:02:40.000Z</time>
      </trkpt>
      <trkpt lat="47.51847" lon="-2.35906">
        <ele>44.799999237061</ele>
        <time>2021-08-15T09:02:41.000Z</time>
      </trkpt>
      <trkpt lat="47.51846" lon="-2.35913">
        <ele>45.400001525879</ele>
        <time>2021-08-15T09:02:42.000Z</time>
      </trkpt>
      <trkpt lat="47.51834" lon="-2.35968">
        <ele>45.400001525879</ele>
        <time>2021-08-15T09:02:50.000Z</time>
      </trkpt>
      <trkpt lat="47.51825" lon="-2.36023">
        <ele>45.400001525879</ele>
        <time>2021-08-15T09:02:58.000Z</time>
      </trkpt>
      <trkpt lat="47.51822" lon="-2.36053">
        <ele>45.400001525879</ele>
        <time>2021-08-15T09:03:02.000Z</time>
      </trkpt>
      <trkpt lat="47.51822" lon="-2.36067">
        <ele>45.400001525879</ele>
        <time>2021-08-15T09:03:04.000Z</time>
      </trkpt>
      <trkpt lat="47.5182" lon="-2.36124">
        <ele>45.400001525879</ele>
        <time>2021-08-15T09:03:12.000Z</time>
      </trkpt>
      <trkpt lat="47.51816" lon="-2.36191">
        <ele>45.400001525879</ele>
        <time>2021-08-15T09:03:21.000Z</time>
      </trkpt>
      <trkpt lat="47.51813" lon="-2.36247">
        <ele>45.400001525879</ele>
        <time>2021-08-15T09:03:29.000Z</time>
      </trkpt>
      <trkpt lat="47.51812" lon="-2.36262">
        <ele>45.400001525879</ele>
        <time>2021-08-15T09:03:31.000Z</time>
      </trkpt>
      <trkpt lat="47.51811" lon="-2.36287">
        <ele>45.400001525879</ele>
        <time>2021-08-15T09:03:34.000Z</time>
      </trkpt>
      <trkpt lat="47.51808" lon="-2.36328">
        <ele>45.799999237061</ele>
        <time>2021-08-15T09:03:39.000Z</time>
      </trkpt>
      <trkpt lat="47.51807" lon="-2.36337">
        <ele>46.200000762939</ele>
        <time>2021-08-15T09:03:40.000Z</time>
      </trkpt>
      <trkpt lat="47.51807" lon="-2.36345">
        <ele>46.599998474121</ele>
        <time>2021-08-15T09:03:41.000Z</time>
      </trkpt>
      <trkpt lat="47.51807" lon="-2.36353">
        <ele>47</ele>
        <time>2021-08-15T09:03:42.000Z</time>
      </trkpt>
      <trkpt lat="47.51807" lon="-2.36362">
        <ele>47.400001525879</ele>
        <time>2021-08-15T09:03:43.000Z</time>
      </trkpt>
      <trkpt lat="47.51805" lon="-2.3642">
        <ele>47.400001525879</ele>
        <time>2021-08-15T09:03:50.000Z</time>
      </trkpt>
      <trkpt lat="47.51801" lon="-2.36489">
        <ele>47.400001525879</ele>
        <time>2021-08-15T09:03:58.000Z</time>
      </trkpt>
      <trkpt lat="47.51795" lon="-2.36566">
        <ele>47.400001525879</ele>
        <time>2021-08-15T09:04:07.000Z</time>
      </trkpt>
      <trkpt lat="47.5179" lon="-2.36634">
        <ele>47.400001525879</ele>
        <time>2021-08-15T09:04:15.000Z</time>
      </trkpt>
      <trkpt lat="47.51781" lon="-2.36703">
        <ele>47.400001525879</ele>
        <time>2021-08-15T09:04:24.000Z</time>
      </trkpt>
      <trkpt lat="47.51779" lon="-2.36711">
        <ele>47.400001525879</ele>
        <time>2021-08-15T09:04:25.000Z</time>
      </trkpt>
      <trkpt lat="47.51768" lon="-2.36726">
        <ele>47.400001525879</ele>
        <time>2021-08-15T09:04:28.000Z</time>
      </trkpt>
      <trkpt lat="47.51752" lon="-2.36722">
        <ele>47.400001525879</ele>
        <time>2021-08-15T09:04:31.000Z</time>
      </trkpt>
      <trkpt lat="47.51747" lon="-2.36721">
        <ele>47.400001525879</ele>
        <time>2021-08-15T09:04:32.000Z</time>
      </trkpt>
      <trkpt lat="47.51732" lon="-2.36716">
        <ele>46.799999237061</ele>
        <time>2021-08-15T09:04:35.000Z</time>
      </trkpt>
      <trkpt lat="47.51727" lon="-2.36714">
        <ele>46.400001525879</ele>
        <time>2021-08-15T09:04:36.000Z</time>
      </trkpt>
      <trkpt lat="47.51722" lon="-2.36713">
        <ele>46</ele>
        <time>2021-08-15T09:04:37.000Z</time>
      </trkpt>
      <trkpt lat="47.51718" lon="-2.36712">
        <ele>45.599998474121</ele>
        <time>2021-08-15T09:04:38.000Z</time>
      </trkpt>
      <trkpt lat="47.51713" lon="-2.36711">
        <ele>45.200000762939</ele>
        <time>2021-08-15T09:04:39.000Z</time>
      </trkpt>
      <trkpt lat="47.51676" lon="-2.36697">
        <ele>45.200000762939</ele>
        <time>2021-08-15T09:04:47.000Z</time>
      </trkpt>
      <trkpt lat="47.51667" lon="-2.36694">
        <ele>45.200000762939</ele>
        <time>2021-08-15T09:04:49.000Z</time>
      </trkpt>
      <trkpt lat="47.5166" lon="-2.36698">
        <ele>45.200000762939</ele>
        <time>2021-08-15T09:04:51.000Z</time>
      </trkpt>
      <trkpt lat="47.51645" lon="-2.36702">
        <ele>45.200000762939</ele>
        <time>2021-08-15T09:04:55.000Z</time>
      </trkpt>
      <trkpt lat="47.51635" lon="-2.36693">
        <ele>45.200000762939</ele>
        <time>2021-08-15T09:04:58.000Z</time>
      </trkpt>
      <trkpt lat="47.51631" lon="-2.36689">
        <ele>45.200000762939</ele>
        <time>2021-08-15T09:04:59.000Z</time>
      </trkpt>
      <trkpt lat="47.51611" lon="-2.3667">
        <ele>45.200000762939</ele>
        <time>2021-08-15T09:05:04.000Z</time>
      </trkpt>
      <trkpt lat="47.51586" lon="-2.36656">
        <ele>45.200000762939</ele>
        <time>2021-08-15T09:05:09.000Z</time>
      </trkpt>
      <trkpt lat="47.51581" lon="-2.36655">
        <ele>45.200000762939</ele>
        <time>2021-08-15T09:05:10.000Z</time>
      </trkpt>
      <trkpt lat="47.51577" lon="-2.36652">
        <ele>45.200000762939</ele>
        <time>2021-08-15T09:05:11.000Z</time>
      </trkpt>
      <trkpt lat="47.51559" lon="-2.36641">
        <ele>45.200000762939</ele>
        <time>2021-08-15T09:05:15.000Z</time>
      </trkpt>
      <trkpt lat="47.51542" lon="-2.36635">
        <ele>45.200000762939</ele>
        <time>2021-08-15T09:05:18.000Z</time>
      </trkpt>
      <trkpt lat="47.51536" lon="-2.36634">
        <ele>44.799999237061</ele>
        <time>2021-08-15T09:05:19.000Z</time>
      </trkpt>
      <trkpt lat="47.51531" lon="-2.36632">
        <ele>44.400001525879</ele>
        <time>2021-08-15T09:05:20.000Z</time>
      </trkpt>
      <trkpt lat="47.51526" lon="-2.36631">
        <ele>44</ele>
        <time>2021-08-15T09:05:21.000Z</time>
      </trkpt>
      <trkpt lat="47.51521" lon="-2.3663">
        <ele>43.599998474121</ele>
        <time>2021-08-15T09:05:22.000Z</time>
      </trkpt>
      <trkpt lat="47.51516" lon="-2.36629">
        <ele>43</ele>
        <time>2021-08-15T09:05:23.000Z</time>
      </trkpt>
      <trkpt lat="47.515" lon="-2.36627">
        <ele>43</ele>
        <time>2021-08-15T09:05:26.000Z</time>
      </trkpt>
      <trkpt lat="47.5147" lon="-2.36621">
        <ele>43</ele>
        <time>2021-08-15T09:05:33.000Z</time>
      </trkpt>
      <trkpt lat="47.51463" lon="-2.36619">
        <ele>42.599998474121</ele>
        <time>2021-08-15T09:05:35.000Z</time>
      </trkpt>
      <trkpt lat="47.5146" lon="-2.36618">
        <ele>42.200000762939</ele>
        <time>2021-08-15T09:05:36.000Z</time>
      </trkpt>
      <trkpt lat="47.51457" lon="-2.36617">
        <ele>41.799999237061</ele>
        <time>2021-08-15T09:05:37.000Z</time>
      </trkpt>
      <trkpt lat="47.51454" lon="-2.36615">
        <ele>41.400001525879</ele>
        <time>2021-08-15T09:05:38.000Z</time>
      </trkpt>
      <trkpt lat="47.5145" lon="-2.36611">
        <ele>41</ele>
        <time>2021-08-15T09:05:39.000Z</time>
      </trkpt>
      <trkpt lat="47.51435" lon="-2.36604">
        <ele>41</ele>
        <time>2021-08-15T09:05:43.000Z</time>
      </trkpt>
      <trkpt lat="47.51421" lon="-2.366">
        <ele>41</ele>
        <time>2021-08-15T09:05:46.000Z</time>
      </trkpt>
      <trkpt lat="47.51409" lon="-2.36596">
        <ele>41</ele>
        <time>2021-08-15T09:05:48.000Z</time>
      </trkpt>
      <trkpt lat="47.51379" lon="-2.36587">
        <ele>41</ele>
        <time>2021-08-15T09:05:53.000Z</time>
      </trkpt>
      <trkpt lat="47.51356" lon="-2.3658">
        <ele>41</ele>
        <time>2021-08-15T09:05:56.000Z</time>
      </trkpt>
      <trkpt lat="47.51341" lon="-2.36577">
        <ele>41</ele>
        <time>2021-08-15T09:05:58.000Z</time>
      </trkpt>
      <trkpt lat="47.5132" lon="-2.36572">
        <ele>40.599998474121</ele>
        <time>2021-08-15T09:06:01.000Z</time>
      </trkpt>
      <trkpt lat="47.51313" lon="-2.36569">
        <ele>40.200000762939</ele>
        <time>2021-08-15T09:06:02.000Z</time>
      </trkpt>
      <trkpt lat="47.51306" lon="-2.36567">
        <ele>39.799999237061</ele>
        <time>2021-08-15T09:06:03.000Z</time>
      </trkpt>
      <trkpt lat="47.513" lon="-2.36565">
        <ele>39.400001525879</ele>
        <time>2021-08-15T09:06:04.000Z</time>
      </trkpt>
      <trkpt lat="47.51294" lon="-2.36562">
        <ele>39</ele>
        <time>2021-08-15T09:06:05.000Z</time>
      </trkpt>
      <trkpt lat="47.51273" lon="-2.36555">
        <ele>39</ele>
        <time>2021-08-15T09:06:08.000Z</time>
      </trkpt>
      <trkpt lat="47.51252" lon="-2.36545">
        <ele>39</ele>
        <time>2021-08-15T09:06:11.000Z</time>
      </trkpt>
      <trkpt lat="47.51237" lon="-2.3654">
        <ele>39</ele>
        <time>2021-08-15T09:06:13.000Z</time>
      </trkpt>
      <trkpt lat="47.51222" lon="-2.36536">
        <ele>38.599998474121</ele>
        <time>2021-08-15T09:06:15.000Z</time>
      </trkpt>
      <trkpt lat="47.51216" lon="-2.36534">
        <ele>38</ele>
        <time>2021-08-15T09:06:16.000Z</time>
      </trkpt>
      <trkpt lat="47.5121" lon="-2.36533">
        <ele>37.599998474121</ele>
        <time>2021-08-15T09:06:17.000Z</time>
      </trkpt>
      <trkpt lat="47.51205" lon="-2.36535">
        <ele>36.799999237061</ele>
        <time>2021-08-15T09:06:18.000Z</time>
      </trkpt>
      <trkpt lat="47.51199" lon="-2.36547">
        <ele>36.799999237061</ele>
        <time>2021-08-15T09:06:20.000Z</time>
      </trkpt>
      <trkpt lat="47.51197" lon="-2.36564">
        <ele>36.799999237061</ele>
        <time>2021-08-15T09:06:22.000Z</time>
      </trkpt>
      <trkpt lat="47.51191" lon="-2.36599">
        <ele>36.799999237061</ele>
        <time>2021-08-15T09:06:26.000Z</time>
      </trkpt>
      <trkpt lat="47.51189" lon="-2.36608">
        <ele>36.799999237061</ele>
        <time>2021-08-15T09:06:27.000Z</time>
      </trkpt>
      <trkpt lat="47.51183" lon="-2.36622">
        <ele>36.799999237061</ele>
        <time>2021-08-15T09:06:29.000Z</time>
      </trkpt>
      <trkpt lat="47.5118" lon="-2.36627">
        <ele>36.799999237061</ele>
        <time>2021-08-15T09:06:30.000Z</time>
      </trkpt>
      <trkpt lat="47.51165" lon="-2.36636">
        <ele>36.799999237061</ele>
        <time>2021-08-15T09:06:33.000Z</time>
      </trkpt>
      <trkpt lat="47.51152" lon="-2.36636">
        <ele>36.799999237061</ele>
        <time>2021-08-15T09:06:35.000Z</time>
      </trkpt>
      <trkpt lat="47.51146" lon="-2.36636">
        <ele>36.799999237061</ele>
        <time>2021-08-15T09:06:36.000Z</time>
      </trkpt>
      <trkpt lat="47.51136" lon="-2.36635">
        <ele>36.400001525879</ele>
        <time>2021-08-15T09:06:38.000Z</time>
      </trkpt>
      <trkpt lat="47.51131" lon="-2.36635">
        <ele>36</ele>
        <time>2021-08-15T09:06:39.000Z</time>
      </trkpt>
      <trkpt lat="47.51127" lon="-2.36634">
        <ele>35.599998474121</ele>
        <time>2021-08-15T09:06:40.000Z</time>
      </trkpt>
      <trkpt lat="47.51124" lon="-2.36634">
        <ele>35.200000762939</ele>
        <time>2021-08-15T09:06:41.000Z</time>
      </trkpt>
      <trkpt lat="47.51122" lon="-2.36634">
        <ele>34.799999237061</ele>
        <time>2021-08-15T09:06:42.000Z</time>
      </trkpt>
      <trkpt lat="47.51112" lon="-2.36633">
        <ele>34.799999237061</ele>
        <time>2021-08-15T09:06:47.000Z</time>
      </trkpt>
      <trkpt lat="47.51102" lon="-2.36631">
        <ele>34.799999237061</ele>
        <time>2021-08-15T09:06:51.000Z</time>
      </trkpt>
      <trkpt lat="47.51096" lon="-2.36641">
        <ele>34.799999237061</ele>
        <time>2021-08-15T09:06:54.000Z</time>
      </trkpt>
      <trkpt lat="47.51095" lon="-2.36645">
        <ele>34.799999237061</ele>
        <time>2021-08-15T09:06:55.000Z</time>
      </trkpt>
      <trkpt lat="47.51088" lon="-2.36668">
        <ele>34.799999237061</ele>
        <time>2021-08-15T09:07:00.000Z</time>
      </trkpt>
      <trkpt lat="47.51077" lon="-2.36703">
        <ele>34.799999237061</ele>
        <time>2021-08-15T09:07:06.000Z</time>
      </trkpt>
      <trkpt lat="47.51065" lon="-2.36739">
        <ele>34.799999237061</ele>
        <time>2021-08-15T09:07:12.000Z</time>
      </trkpt>
      <trkpt lat="47.51061" lon="-2.36754">
        <ele>34.400001525879</ele>
        <time>2021-08-15T09:07:14.000Z</time>
      </trkpt>
      <trkpt lat="47.51059" lon="-2.36762">
        <ele>33.799999237061</ele>
        <time>2021-08-15T09:07:15.000Z</time>
      </trkpt>
      <trkpt lat="47.51057" lon="-2.3677">
        <ele>33.400001525879</ele>
        <time>2021-08-15T09:07:16.000Z</time>
      </trkpt>
      <trkpt lat="47.51056" lon="-2.36778">
        <ele>33</ele>
        <time>2021-08-15T09:07:17.000Z</time>
      </trkpt>
      <trkpt lat="47.51055" lon="-2.36787">
        <ele>32.400001525879</ele>
        <time>2021-08-15T09:07:18.000Z</time>
      </trkpt>
      <trkpt lat="47.51053" lon="-2.36797">
        <ele>32</ele>
        <time>2021-08-15T09:07:19.000Z</time>
      </trkpt>
      <trkpt lat="47.5105" lon="-2.36806">
        <ele>31.39999961853</ele>
        <time>2021-08-15T09:07:20.000Z</time>
      </trkpt>
      <trkpt lat="47.51048" lon="-2.36816">
        <ele>30.799999237061</ele>
        <time>2021-08-15T09:07:21.000Z</time>
      </trkpt>
      <trkpt lat="47.51045" lon="-2.36826">
        <ele>30.200000762939</ele>
        <time>2021-08-15T09:07:22.000Z</time>
      </trkpt>
      <trkpt lat="47.51042" lon="-2.36837">
        <ele>29.60000038147</ele>
        <time>2021-08-15T09:07:23.000Z</time>
      </trkpt>
      <trkpt lat="47.51039" lon="-2.36848">
        <ele>28.799999237061</ele>
        <time>2021-08-15T09:07:24.000Z</time>
      </trkpt>
      <trkpt lat="47.51036" lon="-2.36859">
        <ele>28.200000762939</ele>
        <time>2021-08-15T09:07:25.000Z</time>
      </trkpt>
      <trkpt lat="47.51033" lon="-2.3687">
        <ele>27.39999961853</ele>
        <time>2021-08-15T09:07:26.000Z</time>
      </trkpt>
      <trkpt lat="47.5103" lon="-2.36879">
        <ele>26.60000038147</ele>
        <time>2021-08-15T09:07:27.000Z</time>
      </trkpt>
      <trkpt lat="47.51027" lon="-2.36886">
        <ele>25.60000038147</ele>
        <time>2021-08-15T09:07:28.000Z</time>
      </trkpt>
      <trkpt lat="47.51022" lon="-2.36892">
        <ele>24.60000038147</ele>
        <time>2021-08-15T09:07:29.000Z</time>
      </trkpt>
      <trkpt lat="47.51016" lon="-2.36894">
        <ele>23.60000038147</ele>
        <time>2021-08-15T09:07:30.000Z</time>
      </trkpt>
      <trkpt lat="47.51011" lon="-2.36894">
        <ele>22.60000038147</ele>
        <time>2021-08-15T09:07:31.000Z</time>
      </trkpt>
      <trkpt lat="47.51007" lon="-2.36894">
        <ele>21</ele>
        <time>2021-08-15T09:07:32.000Z</time>
      </trkpt>
      <trkpt lat="47.51004" lon="-2.36894">
        <ele>20</ele>
        <time>2021-08-15T09:07:33.000Z</time>
      </trkpt>
      <trkpt lat="47.51001" lon="-2.36893">
        <ele>19.200000762939</ele>
        <time>2021-08-15T09:07:34.000Z</time>
      </trkpt>
      <trkpt lat="47.50997" lon="-2.36892">
        <ele>18.39999961853</ele>
        <time>2021-08-15T09:07:35.000Z</time>
      </trkpt>
      <trkpt lat="47.50993" lon="-2.36891">
        <ele>17.60000038147</ele>
        <time>2021-08-15T09:07:36.000Z</time>
      </trkpt>
      <trkpt lat="47.50991" lon="-2.36889">
        <ele>17</ele>
        <time>2021-08-15T09:07:37.000Z</time>
      </trkpt>
      <trkpt lat="47.50988" lon="-2.36888">
        <ele>16.200000762939</ele>
        <time>2021-08-15T09:07:38.000Z</time>
      </trkpt>
      <trkpt lat="47.50981" lon="-2.36885">
        <ele>16.200000762939</ele>
        <time>2021-08-15T09:07:40.000Z</time>
      </trkpt>
      <trkpt lat="47.50968" lon="-2.36872">
        <ele>16.200000762939</ele>
        <time>2021-08-15T09:07:44.000Z</time>
      </trkpt>
      <trkpt lat="47.50941" lon="-2.36863">
        <ele>16.200000762939</ele>
        <time>2021-08-15T09:07:50.000Z</time>
      </trkpt>
      <trkpt lat="47.50905" lon="-2.36846">
        <ele>16.200000762939</ele>
        <time>2021-08-15T09:07:57.000Z</time>
      </trkpt>
      <trkpt lat="47.509" lon="-2.36844">
        <ele>16.200000762939</ele>
        <time>2021-08-15T09:07:58.000Z</time>
      </trkpt>
      <trkpt lat="47.50877" lon="-2.36831">
        <ele>16.200000762939</ele>
        <time>2021-08-15T09:08:02.000Z</time>
      </trkpt>
      <trkpt lat="47.50871" lon="-2.36829">
        <ele>15.800000190735</ele>
        <time>2021-08-15T09:08:03.000Z</time>
      </trkpt>
      <trkpt lat="47.50864" lon="-2.36826">
        <ele>15.199999809265</ele>
        <time>2021-08-15T09:08:04.000Z</time>
      </trkpt>
      <trkpt lat="47.50857" lon="-2.36822">
        <ele>14.800000190735</ele>
        <time>2021-08-15T09:08:05.000Z</time>
      </trkpt>
      <trkpt lat="47.50851" lon="-2.36818">
        <ele>14.39999961853</ele>
        <time>2021-08-15T09:08:06.000Z</time>
      </trkpt>
      <trkpt lat="47.50845" lon="-2.36815">
        <ele>14</ele>
        <time>2021-08-15T09:08:07.000Z</time>
      </trkpt>
      <trkpt lat="47.50835" lon="-2.36809">
        <ele>13.60000038147</ele>
        <time>2021-08-15T09:08:09.000Z</time>
      </trkpt>
      <trkpt lat="47.50831" lon="-2.36808">
        <ele>13</ele>
        <time>2021-08-15T09:08:10.000Z</time>
      </trkpt>
      <trkpt lat="47.50828" lon="-2.36809">
        <ele>12.60000038147</ele>
        <time>2021-08-15T09:08:11.000Z</time>
      </trkpt>
      <trkpt lat="47.50826" lon="-2.36811">
        <ele>12</ele>
        <time>2021-08-15T09:08:12.000Z</time>
      </trkpt>
      <trkpt lat="47.50824" lon="-2.36814">
        <ele>11.60000038147</ele>
        <time>2021-08-15T09:08:13.000Z</time>
      </trkpt>
      <trkpt lat="47.50824" lon="-2.36818">
        <ele>11.60000038147</ele>
        <time>2021-08-15T09:08:14.000Z</time>
      </trkpt>
      <trkpt lat="47.50823" lon="-2.36821">
        <ele>11.199999809265</ele>
        <time>2021-08-15T09:08:15.000Z</time>
      </trkpt>
      <trkpt lat="47.50823" lon="-2.36824">
        <ele>10.800000190735</ele>
        <time>2021-08-15T09:08:16.000Z</time>
      </trkpt>
      <trkpt lat="47.50823" lon="-2.36827">
        <ele>10.39999961853</ele>
        <time>2021-08-15T09:08:17.000Z</time>
      </trkpt>
      <trkpt lat="47.50822" lon="-2.36829">
        <ele>10</ele>
        <time>2021-08-15T09:08:18.000Z</time>
      </trkpt>
      <trkpt lat="47.50822" lon="-2.3683">
        <ele>9.6000003814697</ele>
        <time>2021-08-15T09:08:19.000Z</time>
      </trkpt>
      <trkpt lat="47.50822" lon="-2.36831">
        <ele>9.6000003814697</ele>
        <time>2021-08-15T09:08:20.000Z</time>
      </trkpt>
      <trkpt lat="47.50819" lon="-2.3685">
        <ele>11.60000038147</ele>
        <time>2021-08-15T09:09:10.000Z</time>
      </trkpt>
      <trkpt lat="47.50819" lon="-2.36853">
        <ele>11.60000038147</ele>
        <time>2021-08-15T09:09:11.000Z</time>
      </trkpt>
      <trkpt lat="47.50817" lon="-2.36872">
        <ele>11.60000038147</ele>
        <time>2021-08-15T09:09:16.000Z</time>
      </trkpt>
      <trkpt lat="47.50816" lon="-2.36876">
        <ele>12</ele>
        <time>2021-08-15T09:09:17.000Z</time>
      </trkpt>
      <trkpt lat="47.50815" lon="-2.3688">
        <ele>12.39999961853</ele>
        <time>2021-08-15T09:09:18.000Z</time>
      </trkpt>
      <trkpt lat="47.50814" lon="-2.36885">
        <ele>12.800000190735</ele>
        <time>2021-08-15T09:09:19.000Z</time>
      </trkpt>
      <trkpt lat="47.50813" lon="-2.36889">
        <ele>13.199999809265</ele>
        <time>2021-08-15T09:09:20.000Z</time>
      </trkpt>
      <trkpt lat="47.50812" lon="-2.36893">
        <ele>13.60000038147</ele>
        <time>2021-08-15T09:09:21.000Z</time>
      </trkpt>
      <trkpt lat="47.50811" lon="-2.36897">
        <ele>13.60000038147</ele>
        <time>2021-08-15T09:09:22.000Z</time>
      </trkpt>
      <trkpt lat="47.50802" lon="-2.36917">
        <ele>14</ele>
        <time>2021-08-15T09:09:28.000Z</time>
      </trkpt>
      <trkpt lat="47.508" lon="-2.36921">
        <ele>14.39999961853</ele>
        <time>2021-08-15T09:09:29.000Z</time>
      </trkpt>
      <trkpt lat="47.50798" lon="-2.36924">
        <ele>14.800000190735</ele>
        <time>2021-08-15T09:09:30.000Z</time>
      </trkpt>
      <trkpt lat="47.50797" lon="-2.36927">
        <ele>15.199999809265</ele>
        <time>2021-08-15T09:09:31.000Z</time>
      </trkpt>
      <trkpt lat="47.50796" lon="-2.36931">
        <ele>15.800000190735</ele>
        <time>2021-08-15T09:09:32.000Z</time>
      </trkpt>
      <trkpt lat="47.50793" lon="-2.3694">
        <ele>16.200000762939</ele>
        <time>2021-08-15T09:09:35.000Z</time>
      </trkpt>
      <trkpt lat="47.50792" lon="-2.36943">
        <ele>17</ele>
        <time>2021-08-15T09:09:36.000Z</time>
      </trkpt>
      <trkpt lat="47.50791" lon="-2.36947">
        <ele>17.39999961853</ele>
        <time>2021-08-15T09:09:37.000Z</time>
      </trkpt>
      <trkpt lat="47.5079" lon="-2.3695">
        <ele>17.799999237061</ele>
        <time>2021-08-15T09:09:38.000Z</time>
      </trkpt>
      <trkpt lat="47.50782" lon="-2.3697">
        <ele>18.200000762939</ele>
        <time>2021-08-15T09:09:43.000Z</time>
      </trkpt>
      <trkpt lat="47.5078" lon="-2.36975">
        <ele>18.60000038147</ele>
        <time>2021-08-15T09:09:44.000Z</time>
      </trkpt>
      <trkpt lat="47.50778" lon="-2.36979">
        <ele>19</ele>
        <time>2021-08-15T09:09:45.000Z</time>
      </trkpt>
      <trkpt lat="47.50776" lon="-2.36983">
        <ele>19.39999961853</ele>
        <time>2021-08-15T09:09:46.000Z</time>
      </trkpt>
      <trkpt lat="47.50775" lon="-2.36986">
        <ele>19.799999237061</ele>
        <time>2021-08-15T09:09:47.000Z</time>
      </trkpt>
      <trkpt lat="47.5077" lon="-2.37">
        <ele>19.799999237061</ele>
        <time>2021-08-15T09:09:51.000Z</time>
      </trkpt>
      <trkpt lat="47.50768" lon="-2.37007">
        <ele>20.39999961853</ele>
        <time>2021-08-15T09:09:53.000Z</time>
      </trkpt>
      <trkpt lat="47.50767" lon="-2.3701">
        <ele>20.799999237061</ele>
        <time>2021-08-15T09:09:54.000Z</time>
      </trkpt>
      <trkpt lat="47.50766" lon="-2.37015">
        <ele>21.200000762939</ele>
        <time>2021-08-15T09:09:55.000Z</time>
      </trkpt>
      <trkpt lat="47.50765" lon="-2.37019">
        <ele>21.60000038147</ele>
        <time>2021-08-15T09:09:56.000Z</time>
      </trkpt>
      <trkpt lat="47.50763" lon="-2.37024">
        <ele>22</ele>
        <time>2021-08-15T09:09:57.000Z</time>
      </trkpt>
      <trkpt lat="47.50755" lon="-2.37055">
        <ele>22</ele>
        <time>2021-08-15T09:10:04.000Z</time>
      </trkpt>
      <trkpt lat="47.5075" lon="-2.3709">
        <ele>22</ele>
        <time>2021-08-15T09:10:11.000Z</time>
      </trkpt>
      <trkpt lat="47.50749" lon="-2.37102">
        <ele>22.39999961853</ele>
        <time>2021-08-15T09:10:13.000Z</time>
      </trkpt>
      <trkpt lat="47.50748" lon="-2.37107">
        <ele>22.799999237061</ele>
        <time>2021-08-15T09:10:14.000Z</time>
      </trkpt>
      <trkpt lat="47.50747" lon="-2.37112">
        <ele>23.200000762939</ele>
        <time>2021-08-15T09:10:15.000Z</time>
      </trkpt>
      <trkpt lat="47.50745" lon="-2.37118">
        <ele>23.60000038147</ele>
        <time>2021-08-15T09:10:16.000Z</time>
      </trkpt>
      <trkpt lat="47.50744" lon="-2.37122">
        <ele>24</ele>
        <time>2021-08-15T09:10:17.000Z</time>
      </trkpt>
      <trkpt lat="47.50735" lon="-2.37154">
        <ele>24</ele>
        <time>2021-08-15T09:10:24.000Z</time>
      </trkpt>
      <trkpt lat="47.50725" lon="-2.37175">
        <ele>24</ele>
        <time>2021-08-15T09:10:29.000Z</time>
      </trkpt>
      <trkpt lat="47.50706" lon="-2.37189">
        <ele>24</ele>
        <time>2021-08-15T09:10:33.000Z</time>
      </trkpt>
      <trkpt lat="47.50675" lon="-2.37211">
        <ele>24</ele>
        <time>2021-08-15T09:10:38.000Z</time>
      </trkpt>
      <trkpt lat="47.50669" lon="-2.37216">
        <ele>24</ele>
        <time>2021-08-15T09:10:39.000Z</time>
      </trkpt>
      <trkpt lat="47.50655" lon="-2.37236">
        <ele>24</ele>
        <time>2021-08-15T09:10:42.000Z</time>
      </trkpt>
      <trkpt lat="47.50648" lon="-2.37251">
        <ele>24</ele>
        <time>2021-08-15T09:10:44.000Z</time>
      </trkpt>
      <trkpt lat="47.50642" lon="-2.37266">
        <ele>23.60000038147</ele>
        <time>2021-08-15T09:10:46.000Z</time>
      </trkpt>
      <trkpt lat="47.5064" lon="-2.37274">
        <ele>23.200000762939</ele>
        <time>2021-08-15T09:10:47.000Z</time>
      </trkpt>
      <trkpt lat="47.50637" lon="-2.37282">
        <ele>22.799999237061</ele>
        <time>2021-08-15T09:10:48.000Z</time>
      </trkpt>
      <trkpt lat="47.50635" lon="-2.37289">
        <ele>22.39999961853</ele>
        <time>2021-08-15T09:10:49.000Z</time>
      </trkpt>
      <trkpt lat="47.50632" lon="-2.37296">
        <ele>22</ele>
        <time>2021-08-15T09:10:50.000Z</time>
      </trkpt>
      <trkpt lat="47.50626" lon="-2.37311">
        <ele>22</ele>
        <time>2021-08-15T09:10:52.000Z</time>
      </trkpt>
      <trkpt lat="47.5061" lon="-2.3735">
        <ele>22</ele>
        <time>2021-08-15T09:10:58.000Z</time>
      </trkpt>
      <trkpt lat="47.50596" lon="-2.37383">
        <ele>22</ele>
        <time>2021-08-15T09:11:04.000Z</time>
      </trkpt>
      <trkpt lat="47.50588" lon="-2.3739">
        <ele>22</ele>
        <time>2021-08-15T09:11:07.000Z</time>
      </trkpt>
      <trkpt lat="47.50577" lon="-2.37384">
        <ele>22</ele>
        <time>2021-08-15T09:11:11.000Z</time>
      </trkpt>
      <trkpt lat="47.50572" lon="-2.37381">
        <ele>22</ele>
        <time>2021-08-15T09:11:13.000Z</time>
      </trkpt>
      <trkpt lat="47.50561" lon="-2.37371">
        <ele>22</ele>
        <time>2021-08-15T09:11:17.000Z</time>
      </trkpt>
      <trkpt lat="47.50542" lon="-2.37358">
        <ele>22</ele>
        <time>2021-08-15T09:11:24.000Z</time>
      </trkpt>
      <trkpt lat="47.50527" lon="-2.37347">
        <ele>22</ele>
        <time>2021-08-15T09:11:28.000Z</time>
      </trkpt>
      <trkpt lat="47.50523" lon="-2.37342">
        <ele>22</ele>
        <time>2021-08-15T09:11:29.000Z</time>
      </trkpt>
      <trkpt lat="47.50509" lon="-2.37329">
        <ele>21.60000038147</ele>
        <time>2021-08-15T09:11:32.000Z</time>
      </trkpt>
      <trkpt lat="47.50505" lon="-2.37324">
        <ele>21.200000762939</ele>
        <time>2021-08-15T09:11:33.000Z</time>
      </trkpt>
      <trkpt lat="47.50501" lon="-2.37319">
        <ele>20.799999237061</ele>
        <time>2021-08-15T09:11:34.000Z</time>
      </trkpt>
      <trkpt lat="47.50495" lon="-2.37314">
        <ele>20.39999961853</ele>
        <time>2021-08-15T09:11:35.000Z</time>
      </trkpt>
      <trkpt lat="47.5049" lon="-2.3731">
        <ele>20</ele>
        <time>2021-08-15T09:11:36.000Z</time>
      </trkpt>
      <trkpt lat="47.50483" lon="-2.37306">
        <ele>20</ele>
        <time>2021-08-15T09:11:37.000Z</time>
      </trkpt>
      <trkpt lat="47.5047" lon="-2.37299">
        <ele>19.39999961853</ele>
        <time>2021-08-15T09:11:39.000Z</time>
      </trkpt>
      <trkpt lat="47.50465" lon="-2.37294">
        <ele>19</ele>
        <time>2021-08-15T09:11:40.000Z</time>
      </trkpt>
      <trkpt lat="47.50459" lon="-2.37291">
        <ele>17.799999237061</ele>
        <time>2021-08-15T09:11:41.000Z</time>
      </trkpt>
      <trkpt lat="47.50454" lon="-2.37289">
        <ele>17</ele>
        <time>2021-08-15T09:11:42.000Z</time>
      </trkpt>
      <trkpt lat="47.50449" lon="-2.37288">
        <ele>16.39999961853</ele>
        <time>2021-08-15T09:11:43.000Z</time>
      </trkpt>
      <trkpt lat="47.50444" lon="-2.37287">
        <ele>15.800000190735</ele>
        <time>2021-08-15T09:11:44.000Z</time>
      </trkpt>
      <trkpt lat="47.50439" lon="-2.37288">
        <ele>15</ele>
        <time>2021-08-15T09:11:45.000Z</time>
      </trkpt>
      <trkpt lat="47.50434" lon="-2.37287">
        <ele>14.39999961853</ele>
        <time>2021-08-15T09:11:46.000Z</time>
      </trkpt>
      <trkpt lat="47.50428" lon="-2.37285">
        <ele>13.39999961853</ele>
        <time>2021-08-15T09:11:47.000Z</time>
      </trkpt>
      <trkpt lat="47.50423" lon="-2.37283">
        <ele>12.60000038147</ele>
        <time>2021-08-15T09:11:48.000Z</time>
      </trkpt>
      <trkpt lat="47.50417" lon="-2.37281">
        <ele>11.800000190735</ele>
        <time>2021-08-15T09:11:49.000Z</time>
      </trkpt>
      <trkpt lat="47.50413" lon="-2.37279">
        <ele>11</ele>
        <time>2021-08-15T09:11:50.000Z</time>
      </trkpt>
      <trkpt lat="47.50408" lon="-2.37277">
        <ele>10.199999809265</ele>
        <time>2021-08-15T09:11:51.000Z</time>
      </trkpt>
      <trkpt lat="47.50404" lon="-2.37276">
        <ele>9.3999996185303</ele>
        <time>2021-08-15T09:11:52.000Z</time>
      </trkpt>
      <trkpt lat="47.504" lon="-2.37276">
        <ele>8.3999996185303</ele>
        <time>2021-08-15T09:11:53.000Z</time>
      </trkpt>
      <trkpt lat="47.50396" lon="-2.37275">
        <ele>7.5999999046326</ele>
        <time>2021-08-15T09:11:54.000Z</time>
      </trkpt>
      <trkpt lat="47.50393" lon="-2.37275">
        <ele>6.5999999046326</ele>
        <time>2021-08-15T09:11:55.000Z</time>
      </trkpt>
      <trkpt lat="47.5039" lon="-2.37275">
        <ele>5.8000001907349</ele>
        <time>2021-08-15T09:11:56.000Z</time>
      </trkpt>
      <trkpt lat="47.50388" lon="-2.37276">
        <ele>4.8000001907349</ele>
        <time>2021-08-15T09:11:57.000Z</time>
      </trkpt>
      <trkpt lat="47.50387" lon="-2.37279">
        <ele>4.8000001907349</ele>
        <time>2021-08-15T09:11:58.000Z</time>
      </trkpt>
      <trkpt lat="47.50387" lon="-2.37301">
        <ele>4.8000001907349</ele>
        <time>2021-08-15T09:12:02.000Z</time>
      </trkpt>
      <trkpt lat="47.50387" lon="-2.37307">
        <ele>4.8000001907349</ele>
        <time>2021-08-15T09:12:03.000Z</time>
      </trkpt>
      <trkpt lat="47.50387" lon="-2.37346">
        <ele>4.8000001907349</ele>
        <time>2021-08-15T09:12:08.000Z</time>
      </trkpt>
      <trkpt lat="47.50387" lon="-2.37406">
        <ele>4.8000001907349</ele>
        <time>2021-08-15T09:12:15.000Z</time>
      </trkpt>
      <trkpt lat="47.50377" lon="-2.37445">
        <ele>4.8000001907349</ele>
        <time>2021-08-15T09:12:20.000Z</time>
      </trkpt>
      <trkpt lat="47.50358" lon="-2.37486">
        <ele>4.8000001907349</ele>
        <time>2021-08-15T09:12:26.000Z</time>
      </trkpt>
      <trkpt lat="47.50332" lon="-2.37527">
        <ele>4.8000001907349</ele>
        <time>2021-08-15T09:12:33.000Z</time>
      </trkpt>
      <trkpt lat="47.50326" lon="-2.37541">
        <ele>4.8000001907349</ele>
        <time>2021-08-15T09:12:35.000Z</time>
      </trkpt>
      <trkpt lat="47.50317" lon="-2.37563">
        <ele>4.8000001907349</ele>
        <time>2021-08-15T09:12:38.000Z</time>
      </trkpt>
      <trkpt lat="47.50315" lon="-2.37594">
        <ele>4.8000001907349</ele>
        <time>2021-08-15T09:12:42.000Z</time>
      </trkpt>
      <trkpt lat="47.50317" lon="-2.3761">
        <ele>4.8000001907349</ele>
        <time>2021-08-15T09:12:44.000Z</time>
      </trkpt>
      <trkpt lat="47.50318" lon="-2.37618">
        <ele>4.8000001907349</ele>
        <time>2021-08-15T09:12:45.000Z</time>
      </trkpt>
      <trkpt lat="47.50316" lon="-2.37635">
        <ele>4.8000001907349</ele>
        <time>2021-08-15T09:12:47.000Z</time>
      </trkpt>
      <trkpt lat="47.50307" lon="-2.37654">
        <ele>4.8000001907349</ele>
        <time>2021-08-15T09:12:50.000Z</time>
      </trkpt>
      <trkpt lat="47.50302" lon="-2.37659">
        <ele>4.8000001907349</ele>
        <time>2021-08-15T09:12:51.000Z</time>
      </trkpt>
      <trkpt lat="47.50277" lon="-2.37697">
        <ele>4.8000001907349</ele>
        <time>2021-08-15T09:12:57.000Z</time>
      </trkpt>
      <trkpt lat="47.50252" lon="-2.37729">
        <ele>4.8000001907349</ele>
        <time>2021-08-15T09:13:03.000Z</time>
      </trkpt>
      <trkpt lat="47.50236" lon="-2.3775">
        <ele>5.1999998092651</ele>
        <time>2021-08-15T09:13:07.000Z</time>
      </trkpt>
      <trkpt lat="47.50233" lon="-2.37755">
        <ele>5.5999999046326</ele>
        <time>2021-08-15T09:13:08.000Z</time>
      </trkpt>
      <trkpt lat="47.50229" lon="-2.3776">
        <ele>6</ele>
        <time>2021-08-15T09:13:09.000Z</time>
      </trkpt>
      <trkpt lat="47.50226" lon="-2.37764">
        <ele>6.4000000953674</ele>
        <time>2021-08-15T09:13:10.000Z</time>
      </trkpt>
      <trkpt lat="47.50222" lon="-2.37769">
        <ele>6.8000001907349</ele>
        <time>2021-08-15T09:13:11.000Z</time>
      </trkpt>
      <trkpt lat="47.50203" lon="-2.37795">
        <ele>6.8000001907349</ele>
        <time>2021-08-15T09:13:16.000Z</time>
      </trkpt>
      <trkpt lat="47.50191" lon="-2.37813">
        <ele>7.8000001907349</ele>
        <time>2021-08-15T09:13:19.000Z</time>
      </trkpt>
      <trkpt lat="47.50187" lon="-2.37819">
        <ele>8.1999998092651</ele>
        <time>2021-08-15T09:13:20.000Z</time>
      </trkpt>
      <trkpt lat="47.50183" lon="-2.37824">
        <ele>8.6000003814697</ele>
        <time>2021-08-15T09:13:21.000Z</time>
      </trkpt>
      <trkpt lat="47.50179" lon="-2.3783">
        <ele>9</ele>
        <time>2021-08-15T09:13:22.000Z</time>
      </trkpt>
      <trkpt lat="47.50167" lon="-2.37846">
        <ele>9</ele>
        <time>2021-08-15T09:13:25.000Z</time>
      </trkpt>
      <trkpt lat="47.50161" lon="-2.37858">
        <ele>9</ele>
        <time>2021-08-15T09:13:27.000Z</time>
      </trkpt>
      <trkpt lat="47.50151" lon="-2.37873">
        <ele>9</ele>
        <time>2021-08-15T09:13:30.000Z</time>
      </trkpt>
      <trkpt lat="47.50145" lon="-2.37883">
        <ele>9</ele>
        <time>2021-08-15T09:13:32.000Z</time>
      </trkpt>
      <trkpt lat="47.50128" lon="-2.37923">
        <ele>9</ele>
        <time>2021-08-15T09:13:39.000Z</time>
      </trkpt>
      <trkpt lat="47.50122" lon="-2.37935">
        <ele>9</ele>
        <time>2021-08-15T09:13:41.000Z</time>
      </trkpt>
      <trkpt lat="47.50108" lon="-2.37956">
        <ele>9</ele>
        <time>2021-08-15T09:13:45.000Z</time>
      </trkpt>
      <trkpt lat="47.50079" lon="-2.37996">
        <ele>9</ele>
        <time>2021-08-15T09:13:53.000Z</time>
      </trkpt>
      <trkpt lat="47.50075" lon="-2.38002">
        <ele>9</ele>
        <time>2021-08-15T09:13:54.000Z</time>
      </trkpt>
      <trkpt lat="47.5007" lon="-2.38013">
        <ele>8.6000003814697</ele>
        <time>2021-08-15T09:13:56.000Z</time>
      </trkpt>
      <trkpt lat="47.50069" lon="-2.38019">
        <ele>8.1999998092651</ele>
        <time>2021-08-15T09:13:57.000Z</time>
      </trkpt>
      <trkpt lat="47.50068" lon="-2.38025">
        <ele>7.8000001907349</ele>
        <time>2021-08-15T09:13:58.000Z</time>
      </trkpt>
      <trkpt lat="47.50068" lon="-2.3803">
        <ele>7.4000000953674</ele>
        <time>2021-08-15T09:13:59.000Z</time>
      </trkpt>
      <trkpt lat="47.50067" lon="-2.38036">
        <ele>7</ele>
        <time>2021-08-15T09:14:00.000Z</time>
      </trkpt>
      <trkpt lat="47.50066" lon="-2.38054">
        <ele>7</ele>
        <time>2021-08-15T09:14:03.000Z</time>
      </trkpt>
      <trkpt lat="47.50063" lon="-2.38061">
        <ele>7</ele>
        <time>2021-08-15T09:14:05.000Z</time>
      </trkpt>
      <trkpt lat="47.5006" lon="-2.38063">
        <ele>7</ele>
        <time>2021-08-15T09:14:06.000Z</time>
      </trkpt>
      <trkpt lat="47.5005" lon="-2.38067">
        <ele>7</ele>
        <time>2021-08-15T09:14:11.000Z</time>
      </trkpt>
      <trkpt lat="47.50048" lon="-2.38069">
        <ele>7</ele>
        <time>2021-08-15T09:14:14.000Z</time>
      </trkpt>
      <trkpt lat="47.50048" lon="-2.3808">
        <ele>7</ele>
        <time>2021-08-15T09:23:46.000Z</time>
      </trkpt>
      <trkpt lat="47.50048" lon="-2.38082">
        <ele>7</ele>
        <time>2021-08-15T09:23:47.000Z</time>
      </trkpt>
      <trkpt lat="47.50048" lon="-2.3809">
        <ele>7</ele>
        <time>2021-08-15T09:23:51.000Z</time>
      </trkpt>
      <trkpt lat="47.50046" lon="-2.38095">
        <ele>7</ele>
        <time>2021-08-15T09:23:53.000Z</time>
      </trkpt>
      <trkpt lat="47.50042" lon="-2.381">
        <ele>7</ele>
        <time>2021-08-15T09:23:55.000Z</time>
      </trkpt>
      <trkpt lat="47.50031" lon="-2.38116">
        <ele>7</ele>
        <time>2021-08-15T09:24:00.000Z</time>
      </trkpt>
      <trkpt lat="47.50021" lon="-2.38137">
        <ele>7</ele>
        <time>2021-08-15T09:24:06.000Z</time>
      </trkpt>
      <trkpt lat="47.50002" lon="-2.38163">
        <ele>7</ele>
        <time>2021-08-15T09:24:14.000Z</time>
      </trkpt>
      <trkpt lat="47.49985" lon="-2.38188">
        <ele>7</ele>
        <time>2021-08-15T09:24:20.000Z</time>
      </trkpt>
      <trkpt lat="47.49959" lon="-2.38223">
        <ele>7</ele>
        <time>2021-08-15T09:24:27.000Z</time>
      </trkpt>
      <trkpt lat="47.49923" lon="-2.38271">
        <ele>7</ele>
        <time>2021-08-15T09:24:37.000Z</time>
      </trkpt>
      <trkpt lat="47.49906" lon="-2.38292">
        <ele>7</ele>
        <time>2021-08-15T09:24:42.000Z</time>
      </trkpt>
      <trkpt lat="47.49901" lon="-2.38292">
        <ele>7</ele>
        <time>2021-08-15T09:24:43.000Z</time>
      </trkpt>
      <trkpt lat="47.49881" lon="-2.38299">
        <ele>7</ele>
        <time>2021-08-15T09:24:47.000Z</time>
      </trkpt>
      <trkpt lat="47.49872" lon="-2.38308">
        <ele>7</ele>
        <time>2021-08-15T09:24:49.000Z</time>
      </trkpt>
      <trkpt lat="47.49865" lon="-2.38318">
        <ele>7</ele>
        <time>2021-08-15T09:24:51.000Z</time>
      </trkpt>
      <trkpt lat="47.49863" lon="-2.38324">
        <ele>7</ele>
        <time>2021-08-15T09:24:52.000Z</time>
      </trkpt>
      <trkpt lat="47.49855" lon="-2.38347">
        <ele>7</ele>
        <time>2021-08-15T09:24:56.000Z</time>
      </trkpt>
      <trkpt lat="47.49847" lon="-2.38358">
        <ele>7</ele>
        <time>2021-08-15T09:24:58.000Z</time>
      </trkpt>
      <trkpt lat="47.49834" lon="-2.38372">
        <ele>7</ele>
        <time>2021-08-15T09:25:01.000Z</time>
      </trkpt>
      <trkpt lat="47.4983" lon="-2.38377">
        <ele>7</ele>
        <time>2021-08-15T09:25:02.000Z</time>
      </trkpt>
      <trkpt lat="47.49816" lon="-2.38401">
        <ele>7</ele>
        <time>2021-08-15T09:25:06.000Z</time>
      </trkpt>
      <trkpt lat="47.498" lon="-2.38422">
        <ele>7</ele>
        <time>2021-08-15T09:25:10.000Z</time>
      </trkpt>
      <trkpt lat="47.49787" lon="-2.38436">
        <ele>7</ele>
        <time>2021-08-15T09:25:13.000Z</time>
      </trkpt>
      <trkpt lat="47.49769" lon="-2.38456">
        <ele>6.5999999046326</ele>
        <time>2021-08-15T09:25:17.000Z</time>
      </trkpt>
      <trkpt lat="47.49765" lon="-2.38462">
        <ele>6.1999998092651</ele>
        <time>2021-08-15T09:25:18.000Z</time>
      </trkpt>
      <trkpt lat="47.49762" lon="-2.38467">
        <ele>5.8000001907349</ele>
        <time>2021-08-15T09:25:19.000Z</time>
      </trkpt>
      <trkpt lat="47.49759" lon="-2.38472">
        <ele>5.4000000953674</ele>
        <time>2021-08-15T09:25:20.000Z</time>
      </trkpt>
      <trkpt lat="47.49756" lon="-2.38477">
        <ele>5</ele>
        <time>2021-08-15T09:25:21.000Z</time>
      </trkpt>
      <trkpt lat="47.49751" lon="-2.38488">
        <ele>5</ele>
        <time>2021-08-15T09:25:24.000Z</time>
      </trkpt>
      <trkpt lat="47.4974" lon="-2.38503">
        <ele>5</ele>
        <time>2021-08-15T09:25:28.000Z</time>
      </trkpt>
      <trkpt lat="47.49719" lon="-2.38529">
        <ele>5</ele>
        <time>2021-08-15T09:25:33.000Z</time>
      </trkpt>
      <trkpt lat="47.49687" lon="-2.3856">
        <ele>5</ele>
        <time>2021-08-15T09:25:40.000Z</time>
      </trkpt>
      <trkpt lat="47.49665" lon="-2.38585">
        <ele>5</ele>
        <time>2021-08-15T09:25:46.000Z</time>
      </trkpt>
      <trkpt lat="47.49662" lon="-2.3859">
        <ele>5</ele>
        <time>2021-08-15T09:25:47.000Z</time>
      </trkpt>
      <trkpt lat="47.49656" lon="-2.38598">
        <ele>5.4000000953674</ele>
        <time>2021-08-15T09:25:49.000Z</time>
      </trkpt>
      <trkpt lat="47.49654" lon="-2.38602">
        <ele>5.8000001907349</ele>
        <time>2021-08-15T09:25:50.000Z</time>
      </trkpt>
      <trkpt lat="47.49651" lon="-2.38606">
        <ele>6.1999998092651</ele>
        <time>2021-08-15T09:25:51.000Z</time>
      </trkpt>
      <trkpt lat="47.49649" lon="-2.38609">
        <ele>6.5999999046326</ele>
        <time>2021-08-15T09:25:52.000Z</time>
      </trkpt>
      <trkpt lat="47.49646" lon="-2.38613">
        <ele>7</ele>
        <time>2021-08-15T09:25:53.000Z</time>
      </trkpt>
      <trkpt lat="47.49634" lon="-2.38624">
        <ele>7</ele>
        <time>2021-08-15T09:25:58.000Z</time>
      </trkpt>
      <trkpt lat="47.49621" lon="-2.3863">
        <ele>7</ele>
        <time>2021-08-15T09:26:04.000Z</time>
      </trkpt>
      <trkpt lat="47.49615" lon="-2.38631">
        <ele>7.4000000953674</ele>
        <time>2021-08-15T09:26:06.000Z</time>
      </trkpt>
      <trkpt lat="47.49613" lon="-2.3863">
        <ele>7.8000001907349</ele>
        <time>2021-08-15T09:26:07.000Z</time>
      </trkpt>
      <trkpt lat="47.49611" lon="-2.38628">
        <ele>8.1999998092651</ele>
        <time>2021-08-15T09:26:08.000Z</time>
      </trkpt>
      <trkpt lat="47.4961" lon="-2.38626">
        <ele>8.6000003814697</ele>
        <time>2021-08-15T09:26:09.000Z</time>
      </trkpt>
      <trkpt lat="47.49609" lon="-2.38623">
        <ele>9</ele>
        <time>2021-08-15T09:26:10.000Z</time>
      </trkpt>
      <trkpt lat="47.49613" lon="-2.38617">
        <ele>9</ele>
        <time>2021-08-15T09:26:13.000Z</time>
      </trkpt>
      <trkpt lat="47.4962" lon="-2.38612">
        <ele>9</ele>
        <time>2021-08-15T09:26:16.000Z</time>
      </trkpt>
      <trkpt lat="47.49626" lon="-2.38609">
        <ele>9.3999996185303</ele>
        <time>2021-08-15T09:26:19.000Z</time>
      </trkpt>
      <trkpt lat="47.49627" lon="-2.38606">
        <ele>9.8000001907349</ele>
        <time>2021-08-15T09:26:20.000Z</time>
      </trkpt>
      <trkpt lat="47.49628" lon="-2.38602">
        <ele>10.199999809265</ele>
        <time>2021-08-15T09:26:21.000Z</time>
      </trkpt>
      <trkpt lat="47.49628" lon="-2.38599">
        <ele>10.60000038147</ele>
        <time>2021-08-15T09:26:22.000Z</time>
      </trkpt>
      <trkpt lat="47.49627" lon="-2.38595">
        <ele>11</ele>
        <time>2021-08-15T09:26:23.000Z</time>
      </trkpt>
      <trkpt lat="47.49627" lon="-2.38592">
        <ele>11</ele>
        <time>2021-08-15T09:26:24.000Z</time>
      </trkpt>
      <trkpt lat="47.49623" lon="-2.3857">
        <ele>11</ele>
        <time>2021-08-15T09:26:30.000Z</time>
      </trkpt>
      <trkpt lat="47.49619" lon="-2.38564">
        <ele>11</ele>
        <time>2021-08-15T09:26:35.000Z</time>
      </trkpt>
      <trkpt lat="47.49619" lon="-2.38562">
        <ele>11</ele>
        <time>2021-08-15T09:26:37.000Z</time>
      </trkpt>
      <trkpt lat="47.49618" lon="-2.3856">
        <ele>11</ele>
        <time>2021-08-15T09:26:40.000Z</time>
      </trkpt>
      <trkpt lat="47.49617" lon="-2.38554">
        <ele>11</ele>
        <time>2021-08-15T09:26:42.000Z</time>
      </trkpt>
      <trkpt lat="47.49615" lon="-2.38526">
        <ele>11</ele>
        <time>2021-08-15T09:26:47.000Z</time>
      </trkpt>
      <trkpt lat="47.49616" lon="-2.38516">
        <ele>10.60000038147</ele>
        <time>2021-08-15T09:26:48.000Z</time>
      </trkpt>
      <trkpt lat="47.49618" lon="-2.38505">
        <ele>10.199999809265</ele>
        <time>2021-08-15T09:26:49.000Z</time>
      </trkpt>
      <trkpt lat="47.4962" lon="-2.38494">
        <ele>9.8000001907349</ele>
        <time>2021-08-15T09:26:50.000Z</time>
      </trkpt>
      <trkpt lat="47.49621" lon="-2.38483">
        <ele>9.1999998092651</ele>
        <time>2021-08-15T09:26:51.000Z</time>
      </trkpt>
      <trkpt lat="47.49621" lon="-2.38473">
        <ele>8.6000003814697</ele>
        <time>2021-08-15T09:26:52.000Z</time>
      </trkpt>
      <trkpt lat="47.4962" lon="-2.38462">
        <ele>8</ele>
        <time>2021-08-15T09:26:53.000Z</time>
      </trkpt>
      <trkpt lat="47.49619" lon="-2.38452">
        <ele>7.4000000953674</ele>
        <time>2021-08-15T09:26:54.000Z</time>
      </trkpt>
      <trkpt lat="47.49617" lon="-2.38444">
        <ele>6.8000001907349</ele>
        <time>2021-08-15T09:26:55.000Z</time>
      </trkpt>
      <trkpt lat="47.49609" lon="-2.38418">
        <ele>6.8000001907349</ele>
        <time>2021-08-15T09:26:58.000Z</time>
      </trkpt>
      <trkpt lat="47.49605" lon="-2.38401">
        <ele>6.8000001907349</ele>
        <time>2021-08-15T09:27:00.000Z</time>
      </trkpt>
      <trkpt lat="47.49605" lon="-2.38384">
        <ele>6.4000000953674</ele>
        <time>2021-08-15T09:27:02.000Z</time>
      </trkpt>
      <trkpt lat="47.49605" lon="-2.38376">
        <ele>6</ele>
        <time>2021-08-15T09:27:03.000Z</time>
      </trkpt>
      <trkpt lat="47.49605" lon="-2.38368">
        <ele>5.5999999046326</ele>
        <time>2021-08-15T09:27:04.000Z</time>
      </trkpt>
      <trkpt lat="47.49604" lon="-2.3836">
        <ele>5.1999998092651</ele>
        <time>2021-08-15T09:27:05.000Z</time>
      </trkpt>
      <trkpt lat="47.49603" lon="-2.38352">
        <ele>4.8000001907349</ele>
        <time>2021-08-15T09:27:06.000Z</time>
      </trkpt>
      <trkpt lat="47.49598" lon="-2.38337">
        <ele>4.8000001907349</ele>
        <time>2021-08-15T09:27:08.000Z</time>
      </trkpt>
      <trkpt lat="47.49585" lon="-2.38311">
        <ele>4.8000001907349</ele>
        <time>2021-08-15T09:27:12.000Z</time>
      </trkpt>
      <trkpt lat="47.49581" lon="-2.38305">
        <ele>4.8000001907349</ele>
        <time>2021-08-15T09:27:13.000Z</time>
      </trkpt>
      <trkpt lat="47.49578" lon="-2.38299">
        <ele>4.8000001907349</ele>
        <time>2021-08-15T09:27:14.000Z</time>
      </trkpt>
      <trkpt lat="47.49571" lon="-2.38279">
        <ele>4.8000001907349</ele>
        <time>2021-08-15T09:27:17.000Z</time>
      </trkpt>
      <trkpt lat="47.49568" lon="-2.38261">
        <ele>4.8000001907349</ele>
        <time>2021-08-15T09:27:20.000Z</time>
      </trkpt>
      <trkpt lat="47.49564" lon="-2.38241">
        <ele>4.8000001907349</ele>
        <time>2021-08-15T09:27:23.000Z</time>
      </trkpt>
      <trkpt lat="47.49557" lon="-2.38219">
        <ele>4.8000001907349</ele>
        <time>2021-08-15T09:27:26.000Z</time>
      </trkpt>
      <trkpt lat="47.49551" lon="-2.38206">
        <ele>4.8000001907349</ele>
        <time>2021-08-15T09:27:28.000Z</time>
      </trkpt>
      <trkpt lat="47.49542" lon="-2.38177">
        <ele>4.8000001907349</ele>
        <time>2021-08-15T09:27:32.000Z</time>
      </trkpt>
      <trkpt lat="47.49544" lon="-2.38163">
        <ele>4.8000001907349</ele>
        <time>2021-08-15T09:27:34.000Z</time>
      </trkpt>
      <trkpt lat="47.49544" lon="-2.38155">
        <ele>4.8000001907349</ele>
        <time>2021-08-15T09:27:35.000Z</time>
      </trkpt>
      <trkpt lat="47.49543" lon="-2.38148">
        <ele>4.8000001907349</ele>
        <time>2021-08-15T09:27:36.000Z</time>
      </trkpt>
      <trkpt lat="47.49532" lon="-2.38121">
        <ele>4.8000001907349</ele>
        <time>2021-08-15T09:27:40.000Z</time>
      </trkpt>
      <trkpt lat="47.49529" lon="-2.38115">
        <ele>4.8000001907349</ele>
        <time>2021-08-15T09:27:41.000Z</time>
      </trkpt>
      <trkpt lat="47.49514" lon="-2.3808">
        <ele>4.8000001907349</ele>
        <time>2021-08-15T09:27:46.000Z</time>
      </trkpt>
      <trkpt lat="47.49502" lon="-2.38047">
        <ele>4.8000001907349</ele>
        <time>2021-08-15T09:27:52.000Z</time>
      </trkpt>
      <trkpt lat="47.49494" lon="-2.38021">
        <ele>4.8000001907349</ele>
        <time>2021-08-15T09:27:58.000Z</time>
      </trkpt>
      <trkpt lat="47.4949" lon="-2.38008">
        <ele>4.8000001907349</ele>
        <time>2021-08-15T09:28:02.000Z</time>
      </trkpt>
      <trkpt lat="47.49489" lon="-2.38003">
        <ele>4.8000001907349</ele>
        <time>2021-08-15T09:28:04.000Z</time>
      </trkpt>
      <trkpt lat="47.49489" lon="-2.38001">
        <ele>4.8000001907349</ele>
        <time>2021-08-15T09:28:06.000Z</time>
      </trkpt>
      <trkpt lat="47.49487" lon="-2.37994">
        <ele>4.8000001907349</ele>
        <time>2021-08-15T09:28:10.000Z</time>
      </trkpt>
      <trkpt lat="47.49486" lon="-2.37991">
        <ele>4.8000001907349</ele>
        <time>2021-08-15T09:28:11.000Z</time>
      </trkpt>
      <trkpt lat="47.4948" lon="-2.3798">
        <ele>4.8000001907349</ele>
        <time>2021-08-15T09:28:14.000Z</time>
      </trkpt>
      <trkpt lat="47.49476" lon="-2.37973">
        <ele>4.8000001907349</ele>
        <time>2021-08-15T09:28:16.000Z</time>
      </trkpt>
      <trkpt lat="47.49468" lon="-2.3796">
        <ele>4.8000001907349</ele>
        <time>2021-08-15T09:28:21.000Z</time>
      </trkpt>
      <trkpt lat="47.49466" lon="-2.37956">
        <ele>5.1999998092651</ele>
        <time>2021-08-15T09:28:23.000Z</time>
      </trkpt>
      <trkpt lat="47.49465" lon="-2.37953">
        <ele>5.8000001907349</ele>
        <time>2021-08-15T09:28:24.000Z</time>
      </trkpt>
      <trkpt lat="47.49465" lon="-2.37949">
        <ele>6.1999998092651</ele>
        <time>2021-08-15T09:28:25.000Z</time>
      </trkpt>
      <trkpt lat="47.49466" lon="-2.37943">
        <ele>6.5999999046326</ele>
        <time>2021-08-15T09:28:26.000Z</time>
      </trkpt>
      <trkpt lat="47.49468" lon="-2.37936">
        <ele>7</ele>
        <time>2021-08-15T09:28:27.000Z</time>
      </trkpt>
      <trkpt lat="47.49473" lon="-2.37915">
        <ele>7</ele>
        <time>2021-08-15T09:28:30.000Z</time>
      </trkpt>
      <trkpt lat="47.49474" lon="-2.37905">
        <ele>7</ele>
        <time>2021-08-15T09:28:32.000Z</time>
      </trkpt>
      <trkpt lat="47.49481" lon="-2.37872">
        <ele>7</ele>
        <time>2021-08-15T09:28:37.000Z</time>
      </trkpt>
      <trkpt lat="47.49493" lon="-2.37837">
        <ele>7.4000000953674</ele>
        <time>2021-08-15T09:28:42.000Z</time>
      </trkpt>
      <trkpt lat="47.49495" lon="-2.37832">
        <ele>7.8000001907349</ele>
        <time>2021-08-15T09:28:43.000Z</time>
      </trkpt>
      <trkpt lat="47.49497" lon="-2.37827">
        <ele>8.3999996185303</ele>
        <time>2021-08-15T09:28:44.000Z</time>
      </trkpt>
      <trkpt lat="47.49499" lon="-2.37821">
        <ele>8.8000001907349</ele>
        <time>2021-08-15T09:28:45.000Z</time>
      </trkpt>
      <trkpt lat="47.49501" lon="-2.37816">
        <ele>9.1999998092651</ele>
        <time>2021-08-15T09:28:46.000Z</time>
      </trkpt>
      <trkpt lat="47.49511" lon="-2.37788">
        <ele>9.1999998092651</ele>
        <time>2021-08-15T09:28:50.000Z</time>
      </trkpt>
      <trkpt lat="47.49523" lon="-2.37765">
        <ele>9.1999998092651</ele>
        <time>2021-08-15T09:28:54.000Z</time>
      </trkpt>
      <trkpt lat="47.49535" lon="-2.37766">
        <ele>9.1999998092651</ele>
        <time>2021-08-15T09:28:57.000Z</time>
      </trkpt>
      <trkpt lat="47.49539" lon="-2.37768">
        <ele>9.1999998092651</ele>
        <time>2021-08-15T09:28:58.000Z</time>
      </trkpt>
      <trkpt lat="47.49543" lon="-2.37766">
        <ele>9.1999998092651</ele>
        <time>2021-08-15T09:28:59.000Z</time>
      </trkpt>
      <trkpt lat="47.49544" lon="-2.37762">
        <ele>8.8000001907349</ele>
        <time>2021-08-15T09:29:00.000Z</time>
      </trkpt>
      <trkpt lat="47.49546" lon="-2.37757">
        <ele>8.1999998092651</ele>
        <time>2021-08-15T09:29:01.000Z</time>
      </trkpt>
      <trkpt lat="47.49547" lon="-2.37753">
        <ele>7.8000001907349</ele>
        <time>2021-08-15T09:29:02.000Z</time>
      </trkpt>
      <trkpt lat="47.49546" lon="-2.37749">
        <ele>7.4000000953674</ele>
        <time>2021-08-15T09:29:03.000Z</time>
      </trkpt>
      <trkpt lat="47.49545" lon="-2.37744">
        <ele>6.8000001907349</ele>
        <time>2021-08-15T09:29:04.000Z</time>
      </trkpt>
      <trkpt lat="47.49544" lon="-2.37739">
        <ele>6.8000001907349</ele>
        <time>2021-08-15T09:29:05.000Z</time>
      </trkpt>
      <trkpt lat="47.49538" lon="-2.37713">
        <ele>6.8000001907349</ele>
        <time>2021-08-15T09:29:10.000Z</time>
      </trkpt>
      <trkpt lat="47.49537" lon="-2.37699">
        <ele>6.8000001907349</ele>
        <time>2021-08-15T09:29:12.000Z</time>
      </trkpt>
      <trkpt lat="47.49539" lon="-2.37684">
        <ele>6.8000001907349</ele>
        <time>2021-08-15T09:29:14.000Z</time>
      </trkpt>
      <trkpt lat="47.49541" lon="-2.37661">
        <ele>6.8000001907349</ele>
        <time>2021-08-15T09:29:17.000Z</time>
      </trkpt>
      <trkpt lat="47.49541" lon="-2.37646">
        <ele>6.8000001907349</ele>
        <time>2021-08-15T09:29:19.000Z</time>
      </trkpt>
      <trkpt lat="47.49542" lon="-2.37628">
        <ele>6.8000001907349</ele>
        <time>2021-08-15T09:29:22.000Z</time>
      </trkpt>
      <trkpt lat="47.49543" lon="-2.37611">
        <ele>6.8000001907349</ele>
        <time>2021-08-15T09:29:24.000Z</time>
      </trkpt>
      <trkpt lat="47.49543" lon="-2.37602">
        <ele>6.4000000953674</ele>
        <time>2021-08-15T09:29:25.000Z</time>
      </trkpt>
      <trkpt lat="47.49544" lon="-2.37593">
        <ele>6</ele>
        <time>2021-08-15T09:29:26.000Z</time>
      </trkpt>
      <trkpt lat="47.49546" lon="-2.37586">
        <ele>5.5999999046326</ele>
        <time>2021-08-15T09:29:27.000Z</time>
      </trkpt>
      <trkpt lat="47.49549" lon="-2.37579">
        <ele>5.1999998092651</ele>
        <time>2021-08-15T09:29:28.000Z</time>
      </trkpt>
      <trkpt lat="47.49552" lon="-2.37575">
        <ele>4.8000001907349</ele>
        <time>2021-08-15T09:29:29.000Z</time>
      </trkpt>
      <trkpt lat="47.49562" lon="-2.3756">
        <ele>4.8000001907349</ele>
        <time>2021-08-15T09:29:32.000Z</time>
      </trkpt>
      <trkpt lat="47.4957" lon="-2.37552">
        <ele>4.8000001907349</ele>
        <time>2021-08-15T09:29:34.000Z</time>
      </trkpt>
      <trkpt lat="47.49577" lon="-2.3754">
        <ele>4.8000001907349</ele>
        <time>2021-08-15T09:29:36.000Z</time>
      </trkpt>
      <trkpt lat="47.49578" lon="-2.37535">
        <ele>4.8000001907349</ele>
        <time>2021-08-15T09:29:37.000Z</time>
      </trkpt>
      <trkpt lat="47.49572" lon="-2.37524">
        <ele>4.8000001907349</ele>
        <time>2021-08-15T09:29:40.000Z</time>
      </trkpt>
      <trkpt lat="47.4957" lon="-2.37523">
        <ele>4.8000001907349</ele>
        <time>2021-08-15T09:29:41.000Z</time>
      </trkpt>
      <trkpt lat="47.49564" lon="-2.37522">
        <ele>4.8000001907349</ele>
        <time>2021-08-15T09:29:46.000Z</time>
      </trkpt>
      <trkpt lat="47.49563" lon="-2.37522">
        <ele>4.4000000953674</ele>
        <time>2021-08-15T09:29:49.000Z</time>
      </trkpt>
      <trkpt lat="47.49563" lon="-2.37522">
        <ele>4.4000000953674</ele>
        <time>2021-08-15T09:29:50.000Z</time>
      </trkpt>
      <trkpt lat="47.49561" lon="-2.3752">
        <ele>5.8000001907349</ele>
        <time>2021-08-15T09:29:53.000Z</time>
      </trkpt>
      <trkpt lat="47.49559" lon="-2.37519">
        <ele>5.8000001907349</ele>
        <time>2021-08-15T09:29:54.000Z</time>
      </trkpt>
      <trkpt lat="47.49558" lon="-2.37518">
        <ele>5.8000001907349</ele>
        <time>2021-08-15T09:29:55.000Z</time>
      </trkpt>
      <trkpt lat="47.49558" lon="-2.37518">
        <ele>5.5999999046326</ele>
        <time>2021-08-15T09:29:56.000Z</time>
      </trkpt>
      <trkpt lat="47.49557" lon="-2.37517">
        <ele>5.5999999046326</ele>
        <time>2021-08-15T09:29:57.000Z</time>
      </trkpt>
      <trkpt lat="47.49557" lon="-2.37516">
        <ele>5.5999999046326</ele>
        <time>2021-08-15T09:29:58.000Z</time>
      </trkpt>
      <trkpt lat="47.49557" lon="-2.37515">
        <ele>5.5999999046326</ele>
        <time>2021-08-15T09:30:00.000Z</time>
      </trkpt>
      <trkpt lat="47.49553" lon="-2.37513">
        <ele>5.5999999046326</ele>
        <time>2021-08-15T09:30:05.000Z</time>
      </trkpt>
      <trkpt lat="47.49547" lon="-2.37509">
        <ele>5.5999999046326</ele>
        <time>2021-08-15T09:30:08.000Z</time>
      </trkpt>
      <trkpt lat="47.49539" lon="-2.37504">
        <ele>6</ele>
        <time>2021-08-15T09:30:10.000Z</time>
      </trkpt>
      <trkpt lat="47.49536" lon="-2.37502">
        <ele>6.4000000953674</ele>
        <time>2021-08-15T09:30:11.000Z</time>
      </trkpt>
      <trkpt lat="47.49532" lon="-2.375">
        <ele>6.8000001907349</ele>
        <time>2021-08-15T09:30:12.000Z</time>
      </trkpt>
      <trkpt lat="47.49528" lon="-2.37497">
        <ele>7.4000000953674</ele>
        <time>2021-08-15T09:30:13.000Z</time>
      </trkpt>
      <trkpt lat="47.49525" lon="-2.37494">
        <ele>7.8000001907349</ele>
        <time>2021-08-15T09:30:14.000Z</time>
      </trkpt>
      <trkpt lat="47.49514" lon="-2.37486">
        <ele>8.1999998092651</ele>
        <time>2021-08-15T09:30:17.000Z</time>
      </trkpt>
      <trkpt lat="47.49511" lon="-2.37484">
        <ele>8.6000003814697</ele>
        <time>2021-08-15T09:30:18.000Z</time>
      </trkpt>
      <trkpt lat="47.49507" lon="-2.37481">
        <ele>9</ele>
        <time>2021-08-15T09:30:19.000Z</time>
      </trkpt>
      <trkpt lat="47.49504" lon="-2.37479">
        <ele>9.6000003814697</ele>
        <time>2021-08-15T09:30:20.000Z</time>
      </trkpt>
      <trkpt lat="47.49501" lon="-2.37476">
        <ele>10</ele>
        <time>2021-08-15T09:30:21.000Z</time>
      </trkpt>
      <trkpt lat="47.49498" lon="-2.37471">
        <ele>10</ele>
        <time>2021-08-15T09:30:22.000Z</time>
      </trkpt>
      <trkpt lat="47.49494" lon="-2.3746">
        <ele>10</ele>
        <time>2021-08-15T09:30:24.000Z</time>
      </trkpt>
      <trkpt lat="47.49498" lon="-2.37442">
        <ele>10</ele>
        <time>2021-08-15T09:30:27.000Z</time>
      </trkpt>
      <trkpt lat="47.495" lon="-2.37438">
        <ele>10</ele>
        <time>2021-08-15T09:30:28.000Z</time>
      </trkpt>
      <trkpt lat="47.49502" lon="-2.37434">
        <ele>10.39999961853</ele>
        <time>2021-08-15T09:30:29.000Z</time>
      </trkpt>
      <trkpt lat="47.49504" lon="-2.37429">
        <ele>10.800000190735</ele>
        <time>2021-08-15T09:30:30.000Z</time>
      </trkpt>
      <trkpt lat="47.49506" lon="-2.37425">
        <ele>11.39999961853</ele>
        <time>2021-08-15T09:30:31.000Z</time>
      </trkpt>
      <trkpt lat="47.49507" lon="-2.37421">
        <ele>11.800000190735</ele>
        <time>2021-08-15T09:30:32.000Z</time>
      </trkpt>
      <trkpt lat="47.49509" lon="-2.37416">
        <ele>12.199999809265</ele>
        <time>2021-08-15T09:30:33.000Z</time>
      </trkpt>
      <trkpt lat="47.49511" lon="-2.37412">
        <ele>12.199999809265</ele>
        <time>2021-08-15T09:30:34.000Z</time>
      </trkpt>
      <trkpt lat="47.49518" lon="-2.37396">
        <ele>12.60000038147</ele>
        <time>2021-08-15T09:30:38.000Z</time>
      </trkpt>
      <trkpt lat="47.49519" lon="-2.37392">
        <ele>13</ele>
        <time>2021-08-15T09:30:39.000Z</time>
      </trkpt>
      <trkpt lat="47.49521" lon="-2.37388">
        <ele>13.60000038147</ele>
        <time>2021-08-15T09:30:40.000Z</time>
      </trkpt>
      <trkpt lat="47.49523" lon="-2.37385">
        <ele>14</ele>
        <time>2021-08-15T09:30:41.000Z</time>
      </trkpt>
      <trkpt lat="47.49524" lon="-2.37383">
        <ele>14.39999961853</ele>
        <time>2021-08-15T09:30:42.000Z</time>
      </trkpt>
      <trkpt lat="47.49529" lon="-2.37373">
        <ele>14.39999961853</ele>
        <time>2021-08-15T09:30:47.000Z</time>
      </trkpt>
      <trkpt lat="47.49529" lon="-2.37373">
        <ele>14.39999961853</ele>
        <time>2021-08-15T09:30:49.000Z</time>
      </trkpt>
      <trkpt lat="47.4953" lon="-2.3737">
        <ele>14.39999961853</ele>
        <time>2021-08-15T09:31:01.000Z</time>
      </trkpt>
      <trkpt lat="47.49531" lon="-2.37367">
        <ele>14.39999961853</ele>
        <time>2021-08-15T09:31:02.000Z</time>
      </trkpt>
      <trkpt lat="47.49538" lon="-2.3735">
        <ele>14.39999961853</ele>
        <time>2021-08-15T09:31:06.000Z</time>
      </trkpt>
      <trkpt lat="47.49551" lon="-2.37316">
        <ele>14.39999961853</ele>
        <time>2021-08-15T09:31:12.000Z</time>
      </trkpt>
      <trkpt lat="47.49558" lon="-2.37299">
        <ele>14.39999961853</ele>
        <time>2021-08-15T09:31:16.000Z</time>
      </trkpt>
      <trkpt lat="47.49567" lon="-2.37271">
        <ele>14.39999961853</ele>
        <time>2021-08-15T09:31:21.000Z</time>
      </trkpt>
      <trkpt lat="47.49572" lon="-2.37258">
        <ele>14.39999961853</ele>
        <time>2021-08-15T09:31:23.000Z</time>
      </trkpt>
      <trkpt lat="47.4958" lon="-2.37236">
        <ele>14.39999961853</ele>
        <time>2021-08-15T09:31:26.000Z</time>
      </trkpt>
      <trkpt lat="47.49598" lon="-2.37188">
        <ele>14.39999961853</ele>
        <time>2021-08-15T09:31:33.000Z</time>
      </trkpt>
      <trkpt lat="47.49619" lon="-2.37138">
        <ele>14.800000190735</ele>
        <time>2021-08-15T09:31:41.000Z</time>
      </trkpt>
      <trkpt lat="47.49622" lon="-2.3713">
        <ele>15.199999809265</ele>
        <time>2021-08-15T09:31:42.000Z</time>
      </trkpt>
      <trkpt lat="47.49625" lon="-2.37123">
        <ele>15.60000038147</ele>
        <time>2021-08-15T09:31:43.000Z</time>
      </trkpt>
      <trkpt lat="47.49628" lon="-2.37116">
        <ele>16.200000762939</ele>
        <time>2021-08-15T09:31:44.000Z</time>
      </trkpt>
      <trkpt lat="47.49631" lon="-2.37109">
        <ele>16.60000038147</ele>
        <time>2021-08-15T09:31:45.000Z</time>
      </trkpt>
      <trkpt lat="47.49636" lon="-2.37093">
        <ele>16.60000038147</ele>
        <time>2021-08-15T09:31:47.000Z</time>
      </trkpt>
      <trkpt lat="47.4965" lon="-2.3704">
        <ele>16.60000038147</ele>
        <time>2021-08-15T09:31:54.000Z</time>
      </trkpt>
      <trkpt lat="47.49657" lon="-2.37028">
        <ele>16.60000038147</ele>
        <time>2021-08-15T09:31:58.000Z</time>
      </trkpt>
      <trkpt lat="47.49661" lon="-2.37033">
        <ele>16.200000762939</ele>
        <time>2021-08-15T09:32:01.000Z</time>
      </trkpt>
      <trkpt lat="47.49663" lon="-2.37037">
        <ele>15.60000038147</ele>
        <time>2021-08-15T09:32:02.000Z</time>
      </trkpt>
      <trkpt lat="47.49666" lon="-2.37044">
        <ele>15.199999809265</ele>
        <time>2021-08-15T09:32:03.000Z</time>
      </trkpt>
      <trkpt lat="47.4967" lon="-2.37051">
        <ele>14.800000190735</ele>
        <time>2021-08-15T09:32:04.000Z</time>
      </trkpt>
      <trkpt lat="47.49673" lon="-2.37059">
        <ele>14.199999809265</ele>
        <time>2021-08-15T09:32:05.000Z</time>
      </trkpt>
      <trkpt lat="47.49676" lon="-2.37067">
        <ele>13.60000038147</ele>
        <time>2021-08-15T09:32:06.000Z</time>
      </trkpt>
      <trkpt lat="47.4968" lon="-2.37074">
        <ele>13</ele>
        <time>2021-08-15T09:32:07.000Z</time>
      </trkpt>
      <trkpt lat="47.49684" lon="-2.37082">
        <ele>12.39999961853</ele>
        <time>2021-08-15T09:32:08.000Z</time>
      </trkpt>
      <trkpt lat="47.49686" lon="-2.37089">
        <ele>11.60000038147</ele>
        <time>2021-08-15T09:32:09.000Z</time>
      </trkpt>
      <trkpt lat="47.49689" lon="-2.37093">
        <ele>10.800000190735</ele>
        <time>2021-08-15T09:32:10.000Z</time>
      </trkpt>
      <trkpt lat="47.49689" lon="-2.37093">
        <ele>10</ele>
        <time>2021-08-15T09:32:11.000Z</time>
      </trkpt>
      <trkpt lat="47.49689" lon="-2.3709">
        <ele>9.6000003814697</ele>
        <time>2021-08-15T09:32:12.000Z</time>
      </trkpt>
      <trkpt lat="47.49692" lon="-2.37086">
        <ele>9</ele>
        <time>2021-08-15T09:32:13.000Z</time>
      </trkpt>
      <trkpt lat="47.49695" lon="-2.37081">
        <ele>8.3999996185303</ele>
        <time>2021-08-15T09:32:14.000Z</time>
      </trkpt>
      <trkpt lat="47.49697" lon="-2.37076">
        <ele>7.8000001907349</ele>
        <time>2021-08-15T09:32:15.000Z</time>
      </trkpt>
      <trkpt lat="47.49701" lon="-2.37072">
        <ele>7.1999998092651</ele>
        <time>2021-08-15T09:32:16.000Z</time>
      </trkpt>
      <trkpt lat="47.49704" lon="-2.37066">
        <ele>7.1999998092651</ele>
        <time>2021-08-15T09:32:17.000Z</time>
      </trkpt>
      <trkpt lat="47.49721" lon="-2.37045">
        <ele>7.1999998092651</ele>
        <time>2021-08-15T09:32:21.000Z</time>
      </trkpt>
      <trkpt lat="47.4973" lon="-2.37034">
        <ele>7.1999998092651</ele>
        <time>2021-08-15T09:32:23.000Z</time>
      </trkpt>
      <trkpt lat="47.49739" lon="-2.37015">
        <ele>7.1999998092651</ele>
        <time>2021-08-15T09:32:26.000Z</time>
      </trkpt>
      <trkpt lat="47.49755" lon="-2.3698">
        <ele>7.1999998092651</ele>
        <time>2021-08-15T09:32:32.000Z</time>
      </trkpt>
      <trkpt lat="47.49765" lon="-2.36964">
        <ele>7.1999998092651</ele>
        <time>2021-08-15T09:32:34.000Z</time>
      </trkpt>
      <trkpt lat="47.49778" lon="-2.36947">
        <ele>7.1999998092651</ele>
        <time>2021-08-15T09:32:36.000Z</time>
      </trkpt>
      <trkpt lat="47.49805" lon="-2.36903">
        <ele>6.8000001907349</ele>
        <time>2021-08-15T09:32:41.000Z</time>
      </trkpt>
      <trkpt lat="47.49809" lon="-2.36894">
        <ele>6.4000000953674</ele>
        <time>2021-08-15T09:32:42.000Z</time>
      </trkpt>
      <trkpt lat="47.49815" lon="-2.36885">
        <ele>5.8000001907349</ele>
        <time>2021-08-15T09:32:43.000Z</time>
      </trkpt>
      <trkpt lat="47.49818" lon="-2.36878">
        <ele>5.4000000953674</ele>
        <time>2021-08-15T09:32:44.000Z</time>
      </trkpt>
      <trkpt lat="47.4982" lon="-2.36873">
        <ele>5</ele>
        <time>2021-08-15T09:32:45.000Z</time>
      </trkpt>
      <trkpt lat="47.49821" lon="-2.36869">
        <ele>5</ele>
        <time>2021-08-15T09:32:46.000Z</time>
      </trkpt>
      <trkpt lat="47.4982" lon="-2.36865">
        <ele>5</ele>
        <time>2021-08-15T09:32:47.000Z</time>
      </trkpt>
      <trkpt lat="47.4982" lon="-2.36861">
        <ele>4.5999999046326</ele>
        <time>2021-08-15T09:32:48.000Z</time>
      </trkpt>
      <trkpt lat="47.49819" lon="-2.36855">
        <ele>4.1999998092651</ele>
        <time>2021-08-15T09:32:49.000Z</time>
      </trkpt>
      <trkpt lat="47.49818" lon="-2.3685">
        <ele>3.7999999523163</ele>
        <time>2021-08-15T09:32:50.000Z</time>
      </trkpt>
      <trkpt lat="47.49816" lon="-2.36845">
        <ele>3.4000000953674</ele>
        <time>2021-08-15T09:32:51.000Z</time>
      </trkpt>
      <trkpt lat="47.49815" lon="-2.36841">
        <ele>3</ele>
        <time>2021-08-15T09:32:52.000Z</time>
      </trkpt>
      <trkpt lat="47.49815" lon="-2.36835">
        <ele>3</ele>
        <time>2021-08-15T09:32:56.000Z</time>
      </trkpt>
      <trkpt lat="47.4981" lon="-2.36833">
        <ele>3</ele>
        <time>2021-08-15T09:34:07.000Z</time>
      </trkpt>
      <trkpt lat="47.49806" lon="-2.36831">
        <ele>3</ele>
        <time>2021-08-15T09:34:09.000Z</time>
      </trkpt>
      <trkpt lat="47.49801" lon="-2.3683">
        <ele>3</ele>
        <time>2021-08-15T09:34:11.000Z</time>
      </trkpt>
      <trkpt lat="47.49789" lon="-2.36828">
        <ele>3</ele>
        <time>2021-08-15T09:34:14.000Z</time>
      </trkpt>
      <trkpt lat="47.49771" lon="-2.36825">
        <ele>3</ele>
        <time>2021-08-15T09:34:19.000Z</time>
      </trkpt>
      <trkpt lat="47.49769" lon="-2.36822">
        <ele>3</ele>
        <time>2021-08-15T09:34:20.000Z</time>
      </trkpt>
      <trkpt lat="47.49766" lon="-2.36812">
        <ele>3</ele>
        <time>2021-08-15T09:34:22.000Z</time>
      </trkpt>
      <trkpt lat="47.49755" lon="-2.36785">
        <ele>3</ele>
        <time>2021-08-15T09:34:28.000Z</time>
      </trkpt>
      <trkpt lat="47.49745" lon="-2.36767">
        <ele>3</ele>
        <time>2021-08-15T09:34:33.000Z</time>
      </trkpt>
      <trkpt lat="47.49731" lon="-2.36762">
        <ele>3</ele>
        <time>2021-08-15T09:34:39.000Z</time>
      </trkpt>
      <trkpt lat="47.49728" lon="-2.36765">
        <ele>3</ele>
        <time>2021-08-15T09:34:40.000Z</time>
      </trkpt>
      <trkpt lat="47.49724" lon="-2.36773">
        <ele>3</ele>
        <time>2021-08-15T09:34:42.000Z</time>
      </trkpt>
      <trkpt lat="47.49715" lon="-2.36785">
        <ele>3.4000000953674</ele>
        <time>2021-08-15T09:34:46.000Z</time>
      </trkpt>
      <trkpt lat="47.49713" lon="-2.36787">
        <ele>3.7999999523163</ele>
        <time>2021-08-15T09:34:47.000Z</time>
      </trkpt>
      <trkpt lat="47.49711" lon="-2.36789">
        <ele>4.1999998092651</ele>
        <time>2021-08-15T09:34:48.000Z</time>
      </trkpt>
      <trkpt lat="47.49709" lon="-2.36791">
        <ele>4.8000001907349</ele>
        <time>2021-08-15T09:34:49.000Z</time>
      </trkpt>
      <trkpt lat="47.49707" lon="-2.36793">
        <ele>5.1999998092651</ele>
        <time>2021-08-15T09:34:50.000Z</time>
      </trkpt>
      <trkpt lat="47.49705" lon="-2.36795">
        <ele>5.8000001907349</ele>
        <time>2021-08-15T09:34:51.000Z</time>
      </trkpt>
      <trkpt lat="47.49703" lon="-2.36798">
        <ele>6.4000000953674</ele>
        <time>2021-08-15T09:34:52.000Z</time>
      </trkpt>
      <trkpt lat="47.49701" lon="-2.368">
        <ele>6.8000001907349</ele>
        <time>2021-08-15T09:34:53.000Z</time>
      </trkpt>
      <trkpt lat="47.49699" lon="-2.36803">
        <ele>7.4000000953674</ele>
        <time>2021-08-15T09:34:54.000Z</time>
      </trkpt>
      <trkpt lat="47.49697" lon="-2.36804">
        <ele>7.8000001907349</ele>
        <time>2021-08-15T09:34:55.000Z</time>
      </trkpt>
      <trkpt lat="47.49696" lon="-2.36807">
        <ele>8.1999998092651</ele>
        <time>2021-08-15T09:34:56.000Z</time>
      </trkpt>
      <trkpt lat="47.49694" lon="-2.36808">
        <ele>8.8000001907349</ele>
        <time>2021-08-15T09:34:57.000Z</time>
      </trkpt>
      <trkpt lat="47.49691" lon="-2.3681">
        <ele>9.1999998092651</ele>
        <time>2021-08-15T09:34:58.000Z</time>
      </trkpt>
      <trkpt lat="47.49689" lon="-2.36812">
        <ele>9.6000003814697</ele>
        <time>2021-08-15T09:34:59.000Z</time>
      </trkpt>
      <trkpt lat="47.49685" lon="-2.36816">
        <ele>10</ele>
        <time>2021-08-15T09:35:01.000Z</time>
      </trkpt>
      <trkpt lat="47.49683" lon="-2.36818">
        <ele>10.39999961853</ele>
        <time>2021-08-15T09:35:02.000Z</time>
      </trkpt>
      <trkpt lat="47.49681" lon="-2.36819">
        <ele>10.800000190735</ele>
        <time>2021-08-15T09:35:03.000Z</time>
      </trkpt>
      <trkpt lat="47.49679" lon="-2.36821">
        <ele>11.199999809265</ele>
        <time>2021-08-15T09:35:04.000Z</time>
      </trkpt>
      <trkpt lat="47.49677" lon="-2.36823">
        <ele>11.60000038147</ele>
        <time>2021-08-15T09:35:05.000Z</time>
      </trkpt>
      <trkpt lat="47.49671" lon="-2.3683">
        <ele>12</ele>
        <time>2021-08-15T09:35:08.000Z</time>
      </trkpt>
      <trkpt lat="47.4967" lon="-2.36832">
        <ele>13</ele>
        <time>2021-08-15T09:35:09.000Z</time>
      </trkpt>
      <trkpt lat="47.49668" lon="-2.36834">
        <ele>13.39999961853</ele>
        <time>2021-08-15T09:35:10.000Z</time>
      </trkpt>
      <trkpt lat="47.49666" lon="-2.36836">
        <ele>13.800000190735</ele>
        <time>2021-08-15T09:35:11.000Z</time>
      </trkpt>
      <trkpt lat="47.49661" lon="-2.36842">
        <ele>13.800000190735</ele>
        <time>2021-08-15T09:35:14.000Z</time>
      </trkpt>
      <trkpt lat="47.49657" lon="-2.36843">
        <ele>14.199999809265</ele>
        <time>2021-08-15T09:35:16.000Z</time>
      </trkpt>
      <trkpt lat="47.49655" lon="-2.36841">
        <ele>14.60000038147</ele>
        <time>2021-08-15T09:35:17.000Z</time>
      </trkpt>
      <trkpt lat="47.49653" lon="-2.36839">
        <ele>15</ele>
        <time>2021-08-15T09:35:18.000Z</time>
      </trkpt>
      <trkpt lat="47.49652" lon="-2.36836">
        <ele>15.39999961853</ele>
        <time>2021-08-15T09:35:19.000Z</time>
      </trkpt>
      <trkpt lat="47.4965" lon="-2.36832">
        <ele>16</ele>
        <time>2021-08-15T09:35:20.000Z</time>
      </trkpt>
      <trkpt lat="47.49643" lon="-2.36819">
        <ele>16</ele>
        <time>2021-08-15T09:35:23.000Z</time>
      </trkpt>
      <trkpt lat="47.49628" lon="-2.36794">
        <ele>16</ele>
        <time>2021-08-15T09:35:29.000Z</time>
      </trkpt>
      <trkpt lat="47.4961" lon="-2.36769">
        <ele>16</ele>
        <time>2021-08-15T09:35:36.000Z</time>
      </trkpt>
      <trkpt lat="47.49597" lon="-2.36754">
        <ele>16</ele>
        <time>2021-08-15T09:35:41.000Z</time>
      </trkpt>
      <trkpt lat="47.49583" lon="-2.36731">
        <ele>16</ele>
        <time>2021-08-15T09:35:45.000Z</time>
      </trkpt>
      <trkpt lat="47.49579" lon="-2.36722">
        <ele>16</ele>
        <time>2021-08-15T09:35:46.000Z</time>
      </trkpt>
      <trkpt lat="47.49571" lon="-2.3671">
        <ele>16</ele>
        <time>2021-08-15T09:35:48.000Z</time>
      </trkpt>
      <trkpt lat="47.49567" lon="-2.36698">
        <ele>16</ele>
        <time>2021-08-15T09:35:50.000Z</time>
      </trkpt>
      <trkpt lat="47.49562" lon="-2.36684">
        <ele>16</ele>
        <time>2021-08-15T09:35:52.000Z</time>
      </trkpt>
      <trkpt lat="47.49554" lon="-2.36665">
        <ele>16</ele>
        <time>2021-08-15T09:35:55.000Z</time>
      </trkpt>
      <trkpt lat="47.49552" lon="-2.36659">
        <ele>16</ele>
        <time>2021-08-15T09:35:56.000Z</time>
      </trkpt>
      <trkpt lat="47.49536" lon="-2.36623">
        <ele>16</ele>
        <time>2021-08-15T09:36:03.000Z</time>
      </trkpt>
      <trkpt lat="47.49529" lon="-2.36613">
        <ele>16</ele>
        <time>2021-08-15T09:36:05.000Z</time>
      </trkpt>
      <trkpt lat="47.4952" lon="-2.36599">
        <ele>16</ele>
        <time>2021-08-15T09:36:07.000Z</time>
      </trkpt>
      <trkpt lat="47.49493" lon="-2.36565">
        <ele>16</ele>
        <time>2021-08-15T09:36:13.000Z</time>
      </trkpt>
      <trkpt lat="47.49461" lon="-2.36527">
        <ele>16</ele>
        <time>2021-08-15T09:36:19.000Z</time>
      </trkpt>
      <trkpt lat="47.4945" lon="-2.36515">
        <ele>16</ele>
        <time>2021-08-15T09:36:21.000Z</time>
      </trkpt>
      <trkpt lat="47.49431" lon="-2.365">
        <ele>16</ele>
        <time>2021-08-15T09:36:24.000Z</time>
      </trkpt>
      <trkpt lat="47.49422" lon="-2.36488">
        <ele>15.39999961853</ele>
        <time>2021-08-15T09:36:26.000Z</time>
      </trkpt>
      <trkpt lat="47.4942" lon="-2.36482">
        <ele>15</ele>
        <time>2021-08-15T09:36:27.000Z</time>
      </trkpt>
      <trkpt lat="47.4942" lon="-2.36476">
        <ele>14.60000038147</ele>
        <time>2021-08-15T09:36:28.000Z</time>
      </trkpt>
      <trkpt lat="47.4942" lon="-2.36471">
        <ele>14.199999809265</ele>
        <time>2021-08-15T09:36:29.000Z</time>
      </trkpt>
      <trkpt lat="47.4942" lon="-2.36465">
        <ele>13.800000190735</ele>
        <time>2021-08-15T09:36:30.000Z</time>
      </trkpt>
      <trkpt lat="47.49419" lon="-2.36451">
        <ele>13.800000190735</ele>
        <time>2021-08-15T09:36:33.000Z</time>
      </trkpt>
      <trkpt lat="47.49418" lon="-2.36434">
        <ele>14.39999961853</ele>
        <time>2021-08-15T09:36:38.000Z</time>
      </trkpt>
      <trkpt lat="47.49418" lon="-2.3643">
        <ele>14.800000190735</ele>
        <time>2021-08-15T09:36:39.000Z</time>
      </trkpt>
      <trkpt lat="47.49419" lon="-2.36427">
        <ele>15.199999809265</ele>
        <time>2021-08-15T09:36:40.000Z</time>
      </trkpt>
      <trkpt lat="47.49419" lon="-2.36423">
        <ele>15.60000038147</ele>
        <time>2021-08-15T09:36:41.000Z</time>
      </trkpt>
      <trkpt lat="47.49419" lon="-2.3642">
        <ele>16.200000762939</ele>
        <time>2021-08-15T09:36:42.000Z</time>
      </trkpt>
      <trkpt lat="47.49423" lon="-2.36411">
        <ele>16.200000762939</ele>
        <time>2021-08-15T09:36:45.000Z</time>
      </trkpt>
      <trkpt lat="47.49425" lon="-2.36404">
        <ele>17</ele>
        <time>2021-08-15T09:36:47.000Z</time>
      </trkpt>
      <trkpt lat="47.49425" lon="-2.36401">
        <ele>17.39999961853</ele>
        <time>2021-08-15T09:36:48.000Z</time>
      </trkpt>
      <trkpt lat="47.49426" lon="-2.36398">
        <ele>17.799999237061</ele>
        <time>2021-08-15T09:36:49.000Z</time>
      </trkpt>
      <trkpt lat="47.49428" lon="-2.36395">
        <ele>18.200000762939</ele>
        <time>2021-08-15T09:36:50.000Z</time>
      </trkpt>
      <trkpt lat="47.49432" lon="-2.36389">
        <ele>18.200000762939</ele>
        <time>2021-08-15T09:36:52.000Z</time>
      </trkpt>
      <trkpt lat="47.49435" lon="-2.36367">
        <ele>18.60000038147</ele>
        <time>2021-08-15T09:36:57.000Z</time>
      </trkpt>
      <trkpt lat="47.49435" lon="-2.36363">
        <ele>19</ele>
        <time>2021-08-15T09:36:58.000Z</time>
      </trkpt>
      <trkpt lat="47.49435" lon="-2.36358">
        <ele>19.39999961853</ele>
        <time>2021-08-15T09:36:59.000Z</time>
      </trkpt>
      <trkpt lat="47.49435" lon="-2.36353">
        <ele>19.799999237061</ele>
        <time>2021-08-15T09:37:00.000Z</time>
      </trkpt>
      <trkpt lat="47.49436" lon="-2.36348">
        <ele>20.200000762939</ele>
        <time>2021-08-15T09:37:01.000Z</time>
      </trkpt>
      <trkpt lat="47.49438" lon="-2.36325">
        <ele>20.200000762939</ele>
        <time>2021-08-15T09:37:05.000Z</time>
      </trkpt>
      <trkpt lat="47.49439" lon="-2.36295">
        <ele>21</ele>
        <time>2021-08-15T09:37:10.000Z</time>
      </trkpt>
      <trkpt lat="47.49439" lon="-2.36289">
        <ele>21.39999961853</ele>
        <time>2021-08-15T09:37:11.000Z</time>
      </trkpt>
      <trkpt lat="47.49439" lon="-2.36284">
        <ele>21.799999237061</ele>
        <time>2021-08-15T09:37:12.000Z</time>
      </trkpt>
      <trkpt lat="47.49439" lon="-2.36279">
        <ele>22.39999961853</ele>
        <time>2021-08-15T09:37:13.000Z</time>
      </trkpt>
      <trkpt lat="47.49444" lon="-2.36235">
        <ele>22.39999961853</ele>
        <time>2021-08-15T09:37:21.000Z</time>
      </trkpt>
      <trkpt lat="47.49446" lon="-2.3623">
        <ele>22.799999237061</ele>
        <time>2021-08-15T09:37:22.000Z</time>
      </trkpt>
      <trkpt lat="47.49448" lon="-2.36226">
        <ele>23.200000762939</ele>
        <time>2021-08-15T09:37:23.000Z</time>
      </trkpt>
      <trkpt lat="47.49451" lon="-2.36222">
        <ele>23.60000038147</ele>
        <time>2021-08-15T09:37:24.000Z</time>
      </trkpt>
      <trkpt lat="47.49454" lon="-2.36219">
        <ele>24</ele>
        <time>2021-08-15T09:37:25.000Z</time>
      </trkpt>
      <trkpt lat="47.49458" lon="-2.36217">
        <ele>24.39999961853</ele>
        <time>2021-08-15T09:37:26.000Z</time>
      </trkpt>
      <trkpt lat="47.49481" lon="-2.36195">
        <ele>24.39999961853</ele>
        <time>2021-08-15T09:37:33.000Z</time>
      </trkpt>
      <trkpt lat="47.4949" lon="-2.3617">
        <ele>24.39999961853</ele>
        <time>2021-08-15T09:37:38.000Z</time>
      </trkpt>
      <trkpt lat="47.4949" lon="-2.36164">
        <ele>24.39999961853</ele>
        <time>2021-08-15T09:37:39.000Z</time>
      </trkpt>
      <trkpt lat="47.4949" lon="-2.36152">
        <ele>24.39999961853</ele>
        <time>2021-08-15T09:37:41.000Z</time>
      </trkpt>
      <trkpt lat="47.49489" lon="-2.36146">
        <ele>24.799999237061</ele>
        <time>2021-08-15T09:37:42.000Z</time>
      </trkpt>
      <trkpt lat="47.49487" lon="-2.3614">
        <ele>25.200000762939</ele>
        <time>2021-08-15T09:37:43.000Z</time>
      </trkpt>
      <trkpt lat="47.49487" lon="-2.36134">
        <ele>25.60000038147</ele>
        <time>2021-08-15T09:37:44.000Z</time>
      </trkpt>
      <trkpt lat="47.49486" lon="-2.36128">
        <ele>26</ele>
        <time>2021-08-15T09:37:45.000Z</time>
      </trkpt>
      <trkpt lat="47.49485" lon="-2.36122">
        <ele>26.60000038147</ele>
        <time>2021-08-15T09:37:46.000Z</time>
      </trkpt>
      <trkpt lat="47.49482" lon="-2.36101">
        <ele>26.60000038147</ele>
        <time>2021-08-15T09:37:50.000Z</time>
      </trkpt>
      <trkpt lat="47.49475" lon="-2.3608">
        <ele>26.60000038147</ele>
        <time>2021-08-15T09:37:55.000Z</time>
      </trkpt>
      <trkpt lat="47.49466" lon="-2.36047">
        <ele>26.60000038147</ele>
        <time>2021-08-15T09:38:01.000Z</time>
      </trkpt>
      <trkpt lat="47.4946" lon="-2.36027">
        <ele>26.60000038147</ele>
        <time>2021-08-15T09:38:04.000Z</time>
      </trkpt>
      <trkpt lat="47.49455" lon="-2.3601">
        <ele>26.60000038147</ele>
        <time>2021-08-15T09:38:07.000Z</time>
      </trkpt>
      <trkpt lat="47.49453" lon="-2.35995">
        <ele>26.60000038147</ele>
        <time>2021-08-15T09:38:09.000Z</time>
      </trkpt>
      <trkpt lat="47.49454" lon="-2.35989">
        <ele>26.60000038147</ele>
        <time>2021-08-15T09:38:10.000Z</time>
      </trkpt>
      <trkpt lat="47.49455" lon="-2.35984">
        <ele>26.60000038147</ele>
        <time>2021-08-15T09:38:11.000Z</time>
      </trkpt>
      <trkpt lat="47.49456" lon="-2.35977">
        <ele>26</ele>
        <time>2021-08-15T09:38:12.000Z</time>
      </trkpt>
      <trkpt lat="47.49457" lon="-2.35971">
        <ele>25.60000038147</ele>
        <time>2021-08-15T09:38:13.000Z</time>
      </trkpt>
      <trkpt lat="47.49459" lon="-2.35965">
        <ele>25.200000762939</ele>
        <time>2021-08-15T09:38:14.000Z</time>
      </trkpt>
      <trkpt lat="47.49463" lon="-2.3596">
        <ele>24.799999237061</ele>
        <time>2021-08-15T09:38:15.000Z</time>
      </trkpt>
      <trkpt lat="47.49466" lon="-2.35953">
        <ele>24.39999961853</ele>
        <time>2021-08-15T09:38:16.000Z</time>
      </trkpt>
      <trkpt lat="47.49471" lon="-2.35942">
        <ele>24.39999961853</ele>
        <time>2021-08-15T09:38:18.000Z</time>
      </trkpt>
      <trkpt lat="47.49474" lon="-2.35925">
        <ele>24.39999961853</ele>
        <time>2021-08-15T09:38:21.000Z</time>
      </trkpt>
      <trkpt lat="47.49473" lon="-2.35905">
        <ele>24.39999961853</ele>
        <time>2021-08-15T09:38:24.000Z</time>
      </trkpt>
      <trkpt lat="47.49472" lon="-2.35899">
        <ele>24</ele>
        <time>2021-08-15T09:38:25.000Z</time>
      </trkpt>
      <trkpt lat="47.49471" lon="-2.35892">
        <ele>23.39999961853</ele>
        <time>2021-08-15T09:38:26.000Z</time>
      </trkpt>
      <trkpt lat="47.4947" lon="-2.35886">
        <ele>23</ele>
        <time>2021-08-15T09:38:27.000Z</time>
      </trkpt>
      <trkpt lat="47.49469" lon="-2.35879">
        <ele>22.60000038147</ele>
        <time>2021-08-15T09:38:28.000Z</time>
      </trkpt>
      <trkpt lat="47.49467" lon="-2.35873">
        <ele>22.200000762939</ele>
        <time>2021-08-15T09:38:29.000Z</time>
      </trkpt>
      <trkpt lat="47.49464" lon="-2.35853">
        <ele>22.200000762939</ele>
        <time>2021-08-15T09:38:32.000Z</time>
      </trkpt>
      <trkpt lat="47.49465" lon="-2.35815">
        <ele>21.60000038147</ele>
        <time>2021-08-15T09:38:38.000Z</time>
      </trkpt>
      <trkpt lat="47.49465" lon="-2.35811">
        <ele>21.200000762939</ele>
        <time>2021-08-15T09:38:39.000Z</time>
      </trkpt>
      <trkpt lat="47.49466" lon="-2.35807">
        <ele>20.799999237061</ele>
        <time>2021-08-15T09:38:40.000Z</time>
      </trkpt>
      <trkpt lat="47.49466" lon="-2.35802">
        <ele>20.39999961853</ele>
        <time>2021-08-15T09:38:41.000Z</time>
      </trkpt>
      <trkpt lat="47.49467" lon="-2.35798">
        <ele>19.799999237061</ele>
        <time>2021-08-15T09:38:42.000Z</time>
      </trkpt>
      <trkpt lat="47.49467" lon="-2.35785">
        <ele>19.799999237061</ele>
        <time>2021-08-15T09:38:45.000Z</time>
      </trkpt>
      <trkpt lat="47.49467" lon="-2.35781">
        <ele>19.39999961853</ele>
        <time>2021-08-15T09:38:46.000Z</time>
      </trkpt>
      <trkpt lat="47.49467" lon="-2.35776">
        <ele>19</ele>
        <time>2021-08-15T09:38:47.000Z</time>
      </trkpt>
      <trkpt lat="47.49467" lon="-2.35771">
        <ele>18.60000038147</ele>
        <time>2021-08-15T09:38:48.000Z</time>
      </trkpt>
      <trkpt lat="47.49466" lon="-2.35766">
        <ele>17.799999237061</ele>
        <time>2021-08-15T09:38:49.000Z</time>
      </trkpt>
      <trkpt lat="47.49463" lon="-2.35752">
        <ele>17.799999237061</ele>
        <time>2021-08-15T09:38:51.000Z</time>
      </trkpt>
      <trkpt lat="47.49459" lon="-2.35738">
        <ele>17.799999237061</ele>
        <time>2021-08-15T09:38:53.000Z</time>
      </trkpt>
      <trkpt lat="47.49455" lon="-2.35712">
        <ele>17.799999237061</ele>
        <time>2021-08-15T09:38:57.000Z</time>
      </trkpt>
      <trkpt lat="47.49456" lon="-2.3568">
        <ele>17.799999237061</ele>
        <time>2021-08-15T09:39:03.000Z</time>
      </trkpt>
      <trkpt lat="47.49457" lon="-2.3567">
        <ele>18.200000762939</ele>
        <time>2021-08-15T09:39:05.000Z</time>
      </trkpt>
      <trkpt lat="47.49456" lon="-2.35664">
        <ele>18.60000038147</ele>
        <time>2021-08-15T09:39:06.000Z</time>
      </trkpt>
      <trkpt lat="47.49456" lon="-2.35657">
        <ele>19.200000762939</ele>
        <time>2021-08-15T09:39:07.000Z</time>
      </trkpt>
      <trkpt lat="47.49455" lon="-2.35651">
        <ele>19.60000038147</ele>
        <time>2021-08-15T09:39:08.000Z</time>
      </trkpt>
      <trkpt lat="47.49454" lon="-2.35645">
        <ele>20</ele>
        <time>2021-08-15T09:39:09.000Z</time>
      </trkpt>
      <trkpt lat="47.49454" lon="-2.35639">
        <ele>20</ele>
        <time>2021-08-15T09:39:10.000Z</time>
      </trkpt>
      <trkpt lat="47.49453" lon="-2.35601">
        <ele>20.39999961853</ele>
        <time>2021-08-15T09:39:16.000Z</time>
      </trkpt>
      <trkpt lat="47.49453" lon="-2.35595">
        <ele>20.799999237061</ele>
        <time>2021-08-15T09:39:17.000Z</time>
      </trkpt>
      <trkpt lat="47.49453" lon="-2.35588">
        <ele>21.200000762939</ele>
        <time>2021-08-15T09:39:18.000Z</time>
      </trkpt>
      <trkpt lat="47.49452" lon="-2.35582">
        <ele>21.60000038147</ele>
        <time>2021-08-15T09:39:19.000Z</time>
      </trkpt>
      <trkpt lat="47.49452" lon="-2.35574">
        <ele>22</ele>
        <time>2021-08-15T09:39:20.000Z</time>
      </trkpt>
      <trkpt lat="47.49451" lon="-2.35546">
        <ele>22</ele>
        <time>2021-08-15T09:39:24.000Z</time>
      </trkpt>
      <trkpt lat="47.49445" lon="-2.35477">
        <ele>22</ele>
        <time>2021-08-15T09:39:33.000Z</time>
      </trkpt>
      <trkpt lat="47.49435" lon="-2.35421">
        <ele>22</ele>
        <time>2021-08-15T09:39:40.000Z</time>
      </trkpt>
      <trkpt lat="47.49428" lon="-2.35396">
        <ele>22.39999961853</ele>
        <time>2021-08-15T09:39:43.000Z</time>
      </trkpt>
      <trkpt lat="47.49426" lon="-2.35388">
        <ele>22.799999237061</ele>
        <time>2021-08-15T09:39:44.000Z</time>
      </trkpt>
      <trkpt lat="47.49424" lon="-2.3538">
        <ele>23.200000762939</ele>
        <time>2021-08-15T09:39:45.000Z</time>
      </trkpt>
      <trkpt lat="47.49422" lon="-2.35374">
        <ele>23.60000038147</ele>
        <time>2021-08-15T09:39:46.000Z</time>
      </trkpt>
      <trkpt lat="47.4942" lon="-2.35367">
        <ele>24</ele>
        <time>2021-08-15T09:39:47.000Z</time>
      </trkpt>
      <trkpt lat="47.4941" lon="-2.35327">
        <ele>24</ele>
        <time>2021-08-15T09:39:54.000Z</time>
      </trkpt>
      <trkpt lat="47.49409" lon="-2.3532">
        <ele>24</ele>
        <time>2021-08-15T09:39:59.000Z</time>
      </trkpt>
      <trkpt lat="47.49409" lon="-2.3532">
        <ele>24</ele>
        <time>2021-08-15T09:40:00.000Z</time>
      </trkpt>
      <trkpt lat="47.49409" lon="-2.35316">
        <ele>24</ele>
        <time>2021-08-15T09:41:29.000Z</time>
      </trkpt>
      <trkpt lat="47.4941" lon="-2.35311">
        <ele>24</ele>
        <time>2021-08-15T09:41:31.000Z</time>
      </trkpt>
      <trkpt lat="47.49417" lon="-2.35283">
        <ele>24</ele>
        <time>2021-08-15T09:41:37.000Z</time>
      </trkpt>
      <trkpt lat="47.49424" lon="-2.35273">
        <ele>23.60000038147</ele>
        <time>2021-08-15T09:41:39.000Z</time>
      </trkpt>
      <trkpt lat="47.49428" lon="-2.35269">
        <ele>23</ele>
        <time>2021-08-15T09:41:40.000Z</time>
      </trkpt>
      <trkpt lat="47.49432" lon="-2.35265">
        <ele>22</ele>
        <time>2021-08-15T09:41:41.000Z</time>
      </trkpt>
      <trkpt lat="47.49436" lon="-2.3526">
        <ele>21.39999961853</ele>
        <time>2021-08-15T09:41:42.000Z</time>
      </trkpt>
      <trkpt lat="47.49441" lon="-2.35257">
        <ele>20.60000038147</ele>
        <time>2021-08-15T09:41:43.000Z</time>
      </trkpt>
      <trkpt lat="47.49446" lon="-2.35251">
        <ele>19.799999237061</ele>
        <time>2021-08-15T09:41:44.000Z</time>
      </trkpt>
      <trkpt lat="47.49449" lon="-2.35245">
        <ele>19.200000762939</ele>
        <time>2021-08-15T09:41:45.000Z</time>
      </trkpt>
      <trkpt lat="47.49453" lon="-2.35235">
        <ele>18.39999961853</ele>
        <time>2021-08-15T09:41:46.000Z</time>
      </trkpt>
      <trkpt lat="47.49455" lon="-2.35226">
        <ele>17.60000038147</ele>
        <time>2021-08-15T09:41:47.000Z</time>
      </trkpt>
      <trkpt lat="47.49459" lon="-2.35217">
        <ele>17</ele>
        <time>2021-08-15T09:41:48.000Z</time>
      </trkpt>
      <trkpt lat="47.49463" lon="-2.35208">
        <ele>16.39999961853</ele>
        <time>2021-08-15T09:41:49.000Z</time>
      </trkpt>
      <trkpt lat="47.49467" lon="-2.35199">
        <ele>15.800000190735</ele>
        <time>2021-08-15T09:41:50.000Z</time>
      </trkpt>
      <trkpt lat="47.49472" lon="-2.35189">
        <ele>15.199999809265</ele>
        <time>2021-08-15T09:41:51.000Z</time>
      </trkpt>
      <trkpt lat="47.49477" lon="-2.35179">
        <ele>14.60000038147</ele>
        <time>2021-08-15T09:41:52.000Z</time>
      </trkpt>
      <trkpt lat="47.49482" lon="-2.35169">
        <ele>13.800000190735</ele>
        <time>2021-08-15T09:41:53.000Z</time>
      </trkpt>
      <trkpt lat="47.49486" lon="-2.35158">
        <ele>13</ele>
        <time>2021-08-15T09:41:54.000Z</time>
      </trkpt>
      <trkpt lat="47.4949" lon="-2.35148">
        <ele>12.39999961853</ele>
        <time>2021-08-15T09:41:55.000Z</time>
      </trkpt>
      <trkpt lat="47.49494" lon="-2.35138">
        <ele>11.60000038147</ele>
        <time>2021-08-15T09:41:56.000Z</time>
      </trkpt>
      <trkpt lat="47.49497" lon="-2.35128">
        <ele>10.800000190735</ele>
        <time>2021-08-15T09:41:57.000Z</time>
      </trkpt>
      <trkpt lat="47.495" lon="-2.35118">
        <ele>10</ele>
        <time>2021-08-15T09:41:58.000Z</time>
      </trkpt>
      <trkpt lat="47.49502" lon="-2.35109">
        <ele>9.3999996185303</ele>
        <time>2021-08-15T09:41:59.000Z</time>
      </trkpt>
      <trkpt lat="47.49504" lon="-2.351">
        <ele>8.6000003814697</ele>
        <time>2021-08-15T09:42:00.000Z</time>
      </trkpt>
      <trkpt lat="47.49506" lon="-2.35092">
        <ele>7.8000001907349</ele>
        <time>2021-08-15T09:42:01.000Z</time>
      </trkpt>
      <trkpt lat="47.49508" lon="-2.35083">
        <ele>7.1999998092651</ele>
        <time>2021-08-15T09:42:02.000Z</time>
      </trkpt>
      <trkpt lat="47.49511" lon="-2.35047">
        <ele>7.1999998092651</ele>
        <time>2021-08-15T09:42:06.000Z</time>
      </trkpt>
      <trkpt lat="47.49509" lon="-2.35017">
        <ele>7.1999998092651</ele>
        <time>2021-08-15T09:42:09.000Z</time>
      </trkpt>
      <trkpt lat="47.49507" lon="-2.35007">
        <ele>7.1999998092651</ele>
        <time>2021-08-15T09:42:10.000Z</time>
      </trkpt>
      <trkpt lat="47.49495" lon="-2.34944">
        <ele>7.1999998092651</ele>
        <time>2021-08-15T09:42:16.000Z</time>
      </trkpt>
      <trkpt lat="47.49483" lon="-2.34895">
        <ele>7.1999998092651</ele>
        <time>2021-08-15T09:42:21.000Z</time>
      </trkpt>
      <trkpt lat="47.4948" lon="-2.3488">
        <ele>7.1999998092651</ele>
        <time>2021-08-15T09:42:23.000Z</time>
      </trkpt>
      <trkpt lat="47.49476" lon="-2.34867">
        <ele>7.1999998092651</ele>
        <time>2021-08-15T09:42:25.000Z</time>
      </trkpt>
      <trkpt lat="47.49469" lon="-2.3485">
        <ele>7.1999998092651</ele>
        <time>2021-08-15T09:42:28.000Z</time>
      </trkpt>
      <trkpt lat="47.49465" lon="-2.34844">
        <ele>7.5999999046326</ele>
        <time>2021-08-15T09:42:29.000Z</time>
      </trkpt>
      <trkpt lat="47.49462" lon="-2.34839">
        <ele>8</ele>
        <time>2021-08-15T09:42:30.000Z</time>
      </trkpt>
      <trkpt lat="47.49459" lon="-2.34834">
        <ele>9</ele>
        <time>2021-08-15T09:42:31.000Z</time>
      </trkpt>
      <trkpt lat="47.49456" lon="-2.34828">
        <ele>9.3999996185303</ele>
        <time>2021-08-15T09:42:32.000Z</time>
      </trkpt>
      <trkpt lat="47.49454" lon="-2.34822">
        <ele>9.3999996185303</ele>
        <time>2021-08-15T09:42:33.000Z</time>
      </trkpt>
      <trkpt lat="47.49441" lon="-2.34788">
        <ele>9.3999996185303</ele>
        <time>2021-08-15T09:42:38.000Z</time>
      </trkpt>
      <trkpt lat="47.4942" lon="-2.34752">
        <ele>9.3999996185303</ele>
        <time>2021-08-15T09:42:44.000Z</time>
      </trkpt>
      <trkpt lat="47.49412" lon="-2.34736">
        <ele>9.3999996185303</ele>
        <time>2021-08-15T09:42:47.000Z</time>
      </trkpt>
      <trkpt lat="47.49406" lon="-2.34726">
        <ele>9.3999996185303</ele>
        <time>2021-08-15T09:42:49.000Z</time>
      </trkpt>
      <trkpt lat="47.49401" lon="-2.34719">
        <ele>9.8000001907349</ele>
        <time>2021-08-15T09:42:51.000Z</time>
      </trkpt>
      <trkpt lat="47.49397" lon="-2.34715">
        <ele>10.199999809265</ele>
        <time>2021-08-15T09:42:52.000Z</time>
      </trkpt>
      <trkpt lat="47.49393" lon="-2.34711">
        <ele>10.60000038147</ele>
        <time>2021-08-15T09:42:53.000Z</time>
      </trkpt>
      <trkpt lat="47.49389" lon="-2.34706">
        <ele>11</ele>
        <time>2021-08-15T09:42:54.000Z</time>
      </trkpt>
      <trkpt lat="47.49385" lon="-2.34703">
        <ele>11.39999961853</ele>
        <time>2021-08-15T09:42:55.000Z</time>
      </trkpt>
      <trkpt lat="47.49368" lon="-2.34685">
        <ele>11.39999961853</ele>
        <time>2021-08-15T09:43:00.000Z</time>
      </trkpt>
      <trkpt lat="47.49357" lon="-2.3467">
        <ele>11.39999961853</ele>
        <time>2021-08-15T09:43:05.000Z</time>
      </trkpt>
      <trkpt lat="47.49347" lon="-2.3466">
        <ele>11.800000190735</ele>
        <time>2021-08-15T09:43:08.000Z</time>
      </trkpt>
      <trkpt lat="47.49344" lon="-2.34657">
        <ele>12.199999809265</ele>
        <time>2021-08-15T09:43:09.000Z</time>
      </trkpt>
      <trkpt lat="47.49341" lon="-2.34655">
        <ele>12.60000038147</ele>
        <time>2021-08-15T09:43:10.000Z</time>
      </trkpt>
      <trkpt lat="47.49338" lon="-2.34652">
        <ele>13</ele>
        <time>2021-08-15T09:43:11.000Z</time>
      </trkpt>
      <trkpt lat="47.49335" lon="-2.34649">
        <ele>13.39999961853</ele>
        <time>2021-08-15T09:43:12.000Z</time>
      </trkpt>
      <trkpt lat="47.49325" lon="-2.34642">
        <ele>13.39999961853</ele>
        <time>2021-08-15T09:43:15.000Z</time>
      </trkpt>
      <trkpt lat="47.49306" lon="-2.34626">
        <ele>13.39999961853</ele>
        <time>2021-08-15T09:43:21.000Z</time>
      </trkpt>
      <trkpt lat="47.49291" lon="-2.34614">
        <ele>13.39999961853</ele>
        <time>2021-08-15T09:43:26.000Z</time>
      </trkpt>
      <trkpt lat="47.4927" lon="-2.34605">
        <ele>13.39999961853</ele>
        <time>2021-08-15T09:43:31.000Z</time>
      </trkpt>
      <trkpt lat="47.49266" lon="-2.34602">
        <ele>13.39999961853</ele>
        <time>2021-08-15T09:43:32.000Z</time>
      </trkpt>
      <trkpt lat="47.49263" lon="-2.34599">
        <ele>13.800000190735</ele>
        <time>2021-08-15T09:43:33.000Z</time>
      </trkpt>
      <trkpt lat="47.49259" lon="-2.34597">
        <ele>14.199999809265</ele>
        <time>2021-08-15T09:43:34.000Z</time>
      </trkpt>
      <trkpt lat="47.49256" lon="-2.34595">
        <ele>14.60000038147</ele>
        <time>2021-08-15T09:43:35.000Z</time>
      </trkpt>
      <trkpt lat="47.49253" lon="-2.34592">
        <ele>15</ele>
        <time>2021-08-15T09:43:36.000Z</time>
      </trkpt>
      <trkpt lat="47.4925" lon="-2.3459">
        <ele>15.39999961853</ele>
        <time>2021-08-15T09:43:37.000Z</time>
      </trkpt>
      <trkpt lat="47.49239" lon="-2.34582">
        <ele>15.39999961853</ele>
        <time>2021-08-15T09:43:42.000Z</time>
      </trkpt>
      <trkpt lat="47.49235" lon="-2.34579">
        <ele>15.800000190735</ele>
        <time>2021-08-15T09:43:44.000Z</time>
      </trkpt>
      <trkpt lat="47.49233" lon="-2.34577">
        <ele>16.60000038147</ele>
        <time>2021-08-15T09:43:45.000Z</time>
      </trkpt>
      <trkpt lat="47.49231" lon="-2.34575">
        <ele>17</ele>
        <time>2021-08-15T09:43:46.000Z</time>
      </trkpt>
      <trkpt lat="47.49229" lon="-2.34573">
        <ele>17.39999961853</ele>
        <time>2021-08-15T09:43:47.000Z</time>
      </trkpt>
      <trkpt lat="47.49224" lon="-2.34566">
        <ele>17.39999961853</ele>
        <time>2021-08-15T09:43:49.000Z</time>
      </trkpt>
      <trkpt lat="47.49204" lon="-2.34555">
        <ele>17.39999961853</ele>
        <time>2021-08-15T09:43:53.000Z</time>
      </trkpt>
      <trkpt lat="47.49183" lon="-2.34554">
        <ele>17.39999961853</ele>
        <time>2021-08-15T09:43:58.000Z</time>
      </trkpt>
      <trkpt lat="47.49179" lon="-2.34555">
        <ele>17.39999961853</ele>
        <time>2021-08-15T09:43:59.000Z</time>
      </trkpt>
      <trkpt lat="47.4917" lon="-2.34556">
        <ele>17.39999961853</ele>
        <time>2021-08-15T09:44:01.000Z</time>
      </trkpt>
      <trkpt lat="47.4916" lon="-2.34549">
        <ele>17.39999961853</ele>
        <time>2021-08-15T09:44:04.000Z</time>
      </trkpt>
      <trkpt lat="47.49152" lon="-2.34547">
        <ele>17.39999961853</ele>
        <time>2021-08-15T09:44:07.000Z</time>
      </trkpt>
      <trkpt lat="47.49136" lon="-2.34546">
        <ele>17.39999961853</ele>
        <time>2021-08-15T09:44:13.000Z</time>
      </trkpt>
      <trkpt lat="47.49133" lon="-2.34545">
        <ele>17.39999961853</ele>
        <time>2021-08-15T09:44:17.000Z</time>
      </trkpt>
      <trkpt lat="47.49109" lon="-2.34549">
        <ele>19.799999237061</ele>
        <time>2021-08-15T09:47:13.000Z</time>
      </trkpt>
      <trkpt lat="47.49099" lon="-2.34535">
        <ele>19.799999237061</ele>
        <time>2021-08-15T09:47:18.000Z</time>
      </trkpt>
      <trkpt lat="47.49084" lon="-2.34531">
        <ele>19.799999237061</ele>
        <time>2021-08-15T09:47:23.000Z</time>
      </trkpt>
      <trkpt lat="47.49078" lon="-2.34536">
        <ele>20.200000762939</ele>
        <time>2021-08-15T09:47:25.000Z</time>
      </trkpt>
      <trkpt lat="47.49075" lon="-2.34538">
        <ele>20.799999237061</ele>
        <time>2021-08-15T09:47:26.000Z</time>
      </trkpt>
      <trkpt lat="47.49073" lon="-2.34542">
        <ele>21.60000038147</ele>
        <time>2021-08-15T09:47:27.000Z</time>
      </trkpt>
      <trkpt lat="47.4907" lon="-2.34545">
        <ele>22.200000762939</ele>
        <time>2021-08-15T09:47:28.000Z</time>
      </trkpt>
      <trkpt lat="47.49062" lon="-2.34556">
        <ele>22.60000038147</ele>
        <time>2021-08-15T09:47:31.000Z</time>
      </trkpt>
      <trkpt lat="47.49059" lon="-2.34559">
        <ele>23</ele>
        <time>2021-08-15T09:47:32.000Z</time>
      </trkpt>
      <trkpt lat="47.49056" lon="-2.34562">
        <ele>23.60000038147</ele>
        <time>2021-08-15T09:47:33.000Z</time>
      </trkpt>
      <trkpt lat="47.49054" lon="-2.34565">
        <ele>24</ele>
        <time>2021-08-15T09:47:34.000Z</time>
      </trkpt>
      <trkpt lat="47.49051" lon="-2.34567">
        <ele>24.39999961853</ele>
        <time>2021-08-15T09:47:35.000Z</time>
      </trkpt>
      <trkpt lat="47.49048" lon="-2.3457">
        <ele>24.39999961853</ele>
        <time>2021-08-15T09:47:36.000Z</time>
      </trkpt>
      <trkpt lat="47.49029" lon="-2.3458">
        <ele>24.799999237061</ele>
        <time>2021-08-15T09:47:42.000Z</time>
      </trkpt>
      <trkpt lat="47.49025" lon="-2.34581">
        <ele>25.200000762939</ele>
        <time>2021-08-15T09:47:43.000Z</time>
      </trkpt>
      <trkpt lat="47.49022" lon="-2.34581">
        <ele>25.60000038147</ele>
        <time>2021-08-15T09:47:44.000Z</time>
      </trkpt>
      <trkpt lat="47.49018" lon="-2.34582">
        <ele>26</ele>
        <time>2021-08-15T09:47:45.000Z</time>
      </trkpt>
      <trkpt lat="47.49015" lon="-2.34581">
        <ele>26.39999961853</ele>
        <time>2021-08-15T09:47:46.000Z</time>
      </trkpt>
      <trkpt lat="47.49006" lon="-2.3458">
        <ele>26.39999961853</ele>
        <time>2021-08-15T09:47:49.000Z</time>
      </trkpt>
      <trkpt lat="47.48996" lon="-2.34578">
        <ele>26.39999961853</ele>
        <time>2021-08-15T09:47:52.000Z</time>
      </trkpt>
      <trkpt lat="47.48984" lon="-2.34574">
        <ele>26.39999961853</ele>
        <time>2021-08-15T09:47:55.000Z</time>
      </trkpt>
      <trkpt lat="47.48977" lon="-2.3457">
        <ele>26.39999961853</ele>
        <time>2021-08-15T09:47:57.000Z</time>
      </trkpt>
      <trkpt lat="47.48968" lon="-2.34562">
        <ele>26.39999961853</ele>
        <time>2021-08-15T09:48:00.000Z</time>
      </trkpt>
      <trkpt lat="47.48953" lon="-2.34538">
        <ele>26.39999961853</ele>
        <time>2021-08-15T09:48:06.000Z</time>
      </trkpt>
      <trkpt lat="47.4894" lon="-2.34512">
        <ele>26.39999961853</ele>
        <time>2021-08-15T09:48:11.000Z</time>
      </trkpt>
      <trkpt lat="47.48932" lon="-2.34503">
        <ele>26.39999961853</ele>
        <time>2021-08-15T09:48:13.000Z</time>
      </trkpt>
      <trkpt lat="47.48928" lon="-2.345">
        <ele>26.39999961853</ele>
        <time>2021-08-15T09:48:14.000Z</time>
      </trkpt>
      <trkpt lat="47.4891" lon="-2.34488">
        <ele>26.39999961853</ele>
        <time>2021-08-15T09:48:18.000Z</time>
      </trkpt>
      <trkpt lat="47.48864" lon="-2.34471">
        <ele>26.39999961853</ele>
        <time>2021-08-15T09:48:27.000Z</time>
      </trkpt>
      <trkpt lat="47.48844" lon="-2.34467">
        <ele>26.39999961853</ele>
        <time>2021-08-15T09:48:31.000Z</time>
      </trkpt>
      <trkpt lat="47.4884" lon="-2.3447">
        <ele>26.39999961853</ele>
        <time>2021-08-15T09:48:32.000Z</time>
      </trkpt>
      <trkpt lat="47.48825" lon="-2.34493">
        <ele>26.39999961853</ele>
        <time>2021-08-15T09:48:37.000Z</time>
      </trkpt>
      <trkpt lat="47.48822" lon="-2.34498">
        <ele>27</ele>
        <time>2021-08-15T09:48:38.000Z</time>
      </trkpt>
      <trkpt lat="47.48819" lon="-2.34503">
        <ele>27.39999961853</ele>
        <time>2021-08-15T09:48:39.000Z</time>
      </trkpt>
      <trkpt lat="47.48816" lon="-2.34509">
        <ele>27.799999237061</ele>
        <time>2021-08-15T09:48:40.000Z</time>
      </trkpt>
      <trkpt lat="47.48813" lon="-2.34514">
        <ele>28.60000038147</ele>
        <time>2021-08-15T09:48:41.000Z</time>
      </trkpt>
      <trkpt lat="47.48804" lon="-2.34531">
        <ele>28.60000038147</ele>
        <time>2021-08-15T09:48:44.000Z</time>
      </trkpt>
      <trkpt lat="47.48789" lon="-2.34556">
        <ele>28.60000038147</ele>
        <time>2021-08-15T09:48:49.000Z</time>
      </trkpt>
      <trkpt lat="47.48781" lon="-2.34563">
        <ele>28.60000038147</ele>
        <time>2021-08-15T09:48:51.000Z</time>
      </trkpt>
      <trkpt lat="47.48755" lon="-2.34581">
        <ele>28.60000038147</ele>
        <time>2021-08-15T09:48:57.000Z</time>
      </trkpt>
      <trkpt lat="47.48747" lon="-2.34587">
        <ele>28.60000038147</ele>
        <time>2021-08-15T09:48:59.000Z</time>
      </trkpt>
      <trkpt lat="47.48722" lon="-2.34607">
        <ele>28.60000038147</ele>
        <time>2021-08-15T09:49:05.000Z</time>
      </trkpt>
      <trkpt lat="47.48714" lon="-2.34615">
        <ele>28.60000038147</ele>
        <time>2021-08-15T09:49:07.000Z</time>
      </trkpt>
      <trkpt lat="47.48702" lon="-2.34627">
        <ele>28.60000038147</ele>
        <time>2021-08-15T09:49:10.000Z</time>
      </trkpt>
      <trkpt lat="47.48698" lon="-2.34631">
        <ele>28.60000038147</ele>
        <time>2021-08-15T09:49:11.000Z</time>
      </trkpt>
      <trkpt lat="47.48695" lon="-2.34636">
        <ele>28.60000038147</ele>
        <time>2021-08-15T09:49:12.000Z</time>
      </trkpt>
      <trkpt lat="47.48685" lon="-2.34649">
        <ele>28.60000038147</ele>
        <time>2021-08-15T09:49:15.000Z</time>
      </trkpt>
      <trkpt lat="47.48673" lon="-2.34668">
        <ele>28.60000038147</ele>
        <time>2021-08-15T09:49:19.000Z</time>
      </trkpt>
      <trkpt lat="47.48668" lon="-2.34679">
        <ele>28.60000038147</ele>
        <time>2021-08-15T09:49:21.000Z</time>
      </trkpt>
      <trkpt lat="47.48665" lon="-2.34702">
        <ele>28.60000038147</ele>
        <time>2021-08-15T09:49:25.000Z</time>
      </trkpt>
      <trkpt lat="47.48666" lon="-2.34718">
        <ele>29</ele>
        <time>2021-08-15T09:49:28.000Z</time>
      </trkpt>
      <trkpt lat="47.48667" lon="-2.34723">
        <ele>29.39999961853</ele>
        <time>2021-08-15T09:49:29.000Z</time>
      </trkpt>
      <trkpt lat="47.48668" lon="-2.34728">
        <ele>29.799999237061</ele>
        <time>2021-08-15T09:49:30.000Z</time>
      </trkpt>
      <trkpt lat="47.4867" lon="-2.34732">
        <ele>30.60000038147</ele>
        <time>2021-08-15T09:49:31.000Z</time>
      </trkpt>
      <trkpt lat="47.48675" lon="-2.34751">
        <ele>30.60000038147</ele>
        <time>2021-08-15T09:49:35.000Z</time>
      </trkpt>
      <trkpt lat="47.48666" lon="-2.34763">
        <ele>30.60000038147</ele>
        <time>2021-08-15T09:49:39.000Z</time>
      </trkpt>
      <trkpt lat="47.48649" lon="-2.34779">
        <ele>30.60000038147</ele>
        <time>2021-08-15T09:49:46.000Z</time>
      </trkpt>
      <trkpt lat="47.48644" lon="-2.34781">
        <ele>30.60000038147</ele>
        <time>2021-08-15T09:49:52.000Z</time>
      </trkpt>
      <trkpt lat="47.48646" lon="-2.34777">
        <ele>30.60000038147</ele>
        <time>2021-08-15T09:49:55.000Z</time>
      </trkpt>
      <trkpt lat="47.48649" lon="-2.34775">
        <ele>30.60000038147</ele>
        <time>2021-08-15T09:49:57.000Z</time>
      </trkpt>
      <trkpt lat="47.48663" lon="-2.34765">
        <ele>30.60000038147</ele>
        <time>2021-08-15T09:50:02.000Z</time>
      </trkpt>
      <trkpt lat="47.48669" lon="-2.34762">
        <ele>30.60000038147</ele>
        <time>2021-08-15T09:50:03.000Z</time>
      </trkpt>
      <trkpt lat="47.48676" lon="-2.34756">
        <ele>30.60000038147</ele>
        <time>2021-08-15T09:50:05.000Z</time>
      </trkpt>
      <trkpt lat="47.48678" lon="-2.34751">
        <ele>30.60000038147</ele>
        <time>2021-08-15T09:50:07.000Z</time>
      </trkpt>
      <trkpt lat="47.48674" lon="-2.34737">
        <ele>30.60000038147</ele>
        <time>2021-08-15T09:50:10.000Z</time>
      </trkpt>
      <trkpt lat="47.48671" lon="-2.34725">
        <ele>30.60000038147</ele>
        <time>2021-08-15T09:50:12.000Z</time>
      </trkpt>
      <trkpt lat="47.4867" lon="-2.34712">
        <ele>30.60000038147</ele>
        <time>2021-08-15T09:50:14.000Z</time>
      </trkpt>
      <trkpt lat="47.4867" lon="-2.34705">
        <ele>30.60000038147</ele>
        <time>2021-08-15T09:50:15.000Z</time>
      </trkpt>
      <trkpt lat="47.48673" lon="-2.34672">
        <ele>30.60000038147</ele>
        <time>2021-08-15T09:50:20.000Z</time>
      </trkpt>
      <trkpt lat="47.48676" lon="-2.34667">
        <ele>30.60000038147</ele>
        <time>2021-08-15T09:50:21.000Z</time>
      </trkpt>
      <trkpt lat="47.4869" lon="-2.34641">
        <ele>30.60000038147</ele>
        <time>2021-08-15T09:50:26.000Z</time>
      </trkpt>
      <trkpt lat="47.48697" lon="-2.34632">
        <ele>30.60000038147</ele>
        <time>2021-08-15T09:50:28.000Z</time>
      </trkpt>
      <trkpt lat="47.48712" lon="-2.34616">
        <ele>30.60000038147</ele>
        <time>2021-08-15T09:50:32.000Z</time>
      </trkpt>
      <trkpt lat="47.4874" lon="-2.34593">
        <ele>30.60000038147</ele>
        <time>2021-08-15T09:50:39.000Z</time>
      </trkpt>
      <trkpt lat="47.48771" lon="-2.34571">
        <ele>30.60000038147</ele>
        <time>2021-08-15T09:50:46.000Z</time>
      </trkpt>
      <trkpt lat="47.4879" lon="-2.34557">
        <ele>30.60000038147</ele>
        <time>2021-08-15T09:50:50.000Z</time>
      </trkpt>
      <trkpt lat="47.48797" lon="-2.34546">
        <ele>30.60000038147</ele>
        <time>2021-08-15T09:50:52.000Z</time>
      </trkpt>
      <trkpt lat="47.48825" lon="-2.34494">
        <ele>30.60000038147</ele>
        <time>2021-08-15T09:51:00.000Z</time>
      </trkpt>
      <trkpt lat="47.48839" lon="-2.34472">
        <ele>30.60000038147</ele>
        <time>2021-08-15T09:51:04.000Z</time>
      </trkpt>
      <trkpt lat="47.4884" lon="-2.34467">
        <ele>30.200000762939</ele>
        <time>2021-08-15T09:51:05.000Z</time>
      </trkpt>
      <trkpt lat="47.4884" lon="-2.34463">
        <ele>29.799999237061</ele>
        <time>2021-08-15T09:51:06.000Z</time>
      </trkpt>
      <trkpt lat="47.48839" lon="-2.34459">
        <ele>29.39999961853</ele>
        <time>2021-08-15T09:51:07.000Z</time>
      </trkpt>
      <trkpt lat="47.48835" lon="-2.34458">
        <ele>29</ele>
        <time>2021-08-15T09:51:08.000Z</time>
      </trkpt>
      <trkpt lat="47.4883" lon="-2.34458">
        <ele>28.60000038147</ele>
        <time>2021-08-15T09:51:09.000Z</time>
      </trkpt>
      <trkpt lat="47.48825" lon="-2.34458">
        <ele>28.60000038147</ele>
        <time>2021-08-15T09:51:10.000Z</time>
      </trkpt>
      <trkpt lat="47.4882" lon="-2.34459">
        <ele>28.60000038147</ele>
        <time>2021-08-15T09:51:11.000Z</time>
      </trkpt>
      <trkpt lat="47.48808" lon="-2.34461">
        <ele>28.60000038147</ele>
        <time>2021-08-15T09:51:13.000Z</time>
      </trkpt>
      <trkpt lat="47.48761" lon="-2.34474">
        <ele>28.60000038147</ele>
        <time>2021-08-15T09:51:21.000Z</time>
      </trkpt>
      <trkpt lat="47.48725" lon="-2.34479">
        <ele>28.60000038147</ele>
        <time>2021-08-15T09:51:27.000Z</time>
      </trkpt>
      <trkpt lat="47.48695" lon="-2.34481">
        <ele>28.60000038147</ele>
        <time>2021-08-15T09:51:32.000Z</time>
      </trkpt>
      <trkpt lat="47.48689" lon="-2.34481">
        <ele>28.60000038147</ele>
        <time>2021-08-15T09:51:33.000Z</time>
      </trkpt>
      <trkpt lat="47.48678" lon="-2.34487">
        <ele>28.60000038147</ele>
        <time>2021-08-15T09:51:35.000Z</time>
      </trkpt>
      <trkpt lat="47.48668" lon="-2.34506">
        <ele>28.60000038147</ele>
        <time>2021-08-15T09:51:38.000Z</time>
      </trkpt>
      <trkpt lat="47.48662" lon="-2.3452">
        <ele>28.60000038147</ele>
        <time>2021-08-15T09:51:40.000Z</time>
      </trkpt>
      <trkpt lat="47.48652" lon="-2.34543">
        <ele>28.60000038147</ele>
        <time>2021-08-15T09:51:43.000Z</time>
      </trkpt>
      <trkpt lat="47.48629" lon="-2.34596">
        <ele>28.60000038147</ele>
        <time>2021-08-15T09:51:50.000Z</time>
      </trkpt>
      <trkpt lat="47.48621" lon="-2.34619">
        <ele>28.60000038147</ele>
        <time>2021-08-15T09:51:53.000Z</time>
      </trkpt>
      <trkpt lat="47.48617" lon="-2.34635">
        <ele>28.60000038147</ele>
        <time>2021-08-15T09:51:55.000Z</time>
      </trkpt>
      <trkpt lat="47.48611" lon="-2.3465">
        <ele>29</ele>
        <time>2021-08-15T09:51:57.000Z</time>
      </trkpt>
      <trkpt lat="47.48608" lon="-2.34658">
        <ele>29.39999961853</ele>
        <time>2021-08-15T09:51:58.000Z</time>
      </trkpt>
      <trkpt lat="47.48605" lon="-2.34665">
        <ele>30.200000762939</ele>
        <time>2021-08-15T09:51:59.000Z</time>
      </trkpt>
      <trkpt lat="47.48603" lon="-2.34672">
        <ele>30.60000038147</ele>
        <time>2021-08-15T09:52:00.000Z</time>
      </trkpt>
      <trkpt lat="47.48594" lon="-2.34695">
        <ele>30.60000038147</ele>
        <time>2021-08-15T09:52:03.000Z</time>
      </trkpt>
      <trkpt lat="47.48577" lon="-2.34744">
        <ele>30.60000038147</ele>
        <time>2021-08-15T09:52:09.000Z</time>
      </trkpt>
      <trkpt lat="47.48556" lon="-2.34803">
        <ele>30.60000038147</ele>
        <time>2021-08-15T09:52:16.000Z</time>
      </trkpt>
      <trkpt lat="47.48529" lon="-2.34877">
        <ele>30.60000038147</ele>
        <time>2021-08-15T09:52:25.000Z</time>
      </trkpt>
      <trkpt lat="47.48526" lon="-2.34886">
        <ele>30.60000038147</ele>
        <time>2021-08-15T09:52:26.000Z</time>
      </trkpt>
      <trkpt lat="47.48514" lon="-2.34917">
        <ele>31</ele>
        <time>2021-08-15T09:52:30.000Z</time>
      </trkpt>
      <trkpt lat="47.4851" lon="-2.34924">
        <ele>31.60000038147</ele>
        <time>2021-08-15T09:52:31.000Z</time>
      </trkpt>
      <trkpt lat="47.48507" lon="-2.34931">
        <ele>32</ele>
        <time>2021-08-15T09:52:32.000Z</time>
      </trkpt>
      <trkpt lat="47.48503" lon="-2.34939">
        <ele>32.400001525879</ele>
        <time>2021-08-15T09:52:33.000Z</time>
      </trkpt>
      <trkpt lat="47.48499" lon="-2.34945">
        <ele>32.799999237061</ele>
        <time>2021-08-15T09:52:34.000Z</time>
      </trkpt>
      <trkpt lat="47.48487" lon="-2.34963">
        <ele>32.799999237061</ele>
        <time>2021-08-15T09:52:37.000Z</time>
      </trkpt>
      <trkpt lat="47.48463" lon="-2.35">
        <ele>32.799999237061</ele>
        <time>2021-08-15T09:52:43.000Z</time>
      </trkpt>
      <trkpt lat="47.48459" lon="-2.35007">
        <ele>33.200000762939</ele>
        <time>2021-08-15T09:52:44.000Z</time>
      </trkpt>
      <trkpt lat="47.48455" lon="-2.35013">
        <ele>33.599998474121</ele>
        <time>2021-08-15T09:52:45.000Z</time>
      </trkpt>
      <trkpt lat="47.48452" lon="-2.3502">
        <ele>34</ele>
        <time>2021-08-15T09:52:46.000Z</time>
      </trkpt>
      <trkpt lat="47.48449" lon="-2.35027">
        <ele>34.400001525879</ele>
        <time>2021-08-15T09:52:47.000Z</time>
      </trkpt>
      <trkpt lat="47.48446" lon="-2.35034">
        <ele>34.799999237061</ele>
        <time>2021-08-15T09:52:48.000Z</time>
      </trkpt>
      <trkpt lat="47.48443" lon="-2.3504">
        <ele>34.799999237061</ele>
        <time>2021-08-15T09:52:49.000Z</time>
      </trkpt>
      <trkpt lat="47.4843" lon="-2.35065">
        <ele>35.200000762939</ele>
        <time>2021-08-15T09:52:53.000Z</time>
      </trkpt>
      <trkpt lat="47.48426" lon="-2.35071">
        <ele>35.599998474121</ele>
        <time>2021-08-15T09:52:54.000Z</time>
      </trkpt>
      <trkpt lat="47.48423" lon="-2.35078">
        <ele>36.200000762939</ele>
        <time>2021-08-15T09:52:55.000Z</time>
      </trkpt>
      <trkpt lat="47.4842" lon="-2.35084">
        <ele>36.599998474121</ele>
        <time>2021-08-15T09:52:56.000Z</time>
      </trkpt>
      <trkpt lat="47.48417" lon="-2.35091">
        <ele>37</ele>
        <time>2021-08-15T09:52:57.000Z</time>
      </trkpt>
      <trkpt lat="47.48402" lon="-2.35123">
        <ele>37</ele>
        <time>2021-08-15T09:53:02.000Z</time>
      </trkpt>
      <trkpt lat="47.48395" lon="-2.35142">
        <ele>37.400001525879</ele>
        <time>2021-08-15T09:53:05.000Z</time>
      </trkpt>
      <trkpt lat="47.48392" lon="-2.35148">
        <ele>37.799999237061</ele>
        <time>2021-08-15T09:53:06.000Z</time>
      </trkpt>
      <trkpt lat="47.48389" lon="-2.35154">
        <ele>38.200000762939</ele>
        <time>2021-08-15T09:53:07.000Z</time>
      </trkpt>
      <trkpt lat="47.48385" lon="-2.35159">
        <ele>38.599998474121</ele>
        <time>2021-08-15T09:53:08.000Z</time>
      </trkpt>
      <trkpt lat="47.48382" lon="-2.35165">
        <ele>39</ele>
        <time>2021-08-15T09:53:09.000Z</time>
      </trkpt>
      <trkpt lat="47.48369" lon="-2.35188">
        <ele>39</ele>
        <time>2021-08-15T09:53:13.000Z</time>
      </trkpt>
      <trkpt lat="47.48366" lon="-2.35193">
        <ele>39</ele>
        <time>2021-08-15T09:53:14.000Z</time>
      </trkpt>
      <trkpt lat="47.48348" lon="-2.35215">
        <ele>39</ele>
        <time>2021-08-15T09:53:19.000Z</time>
      </trkpt>
      <trkpt lat="47.48344" lon="-2.35219">
        <ele>39</ele>
        <time>2021-08-15T09:53:20.000Z</time>
      </trkpt>
      <trkpt lat="47.48338" lon="-2.35241">
        <ele>39.400001525879</ele>
        <time>2021-08-15T09:53:23.000Z</time>
      </trkpt>
      <trkpt lat="47.48338" lon="-2.35248">
        <ele>39.799999237061</ele>
        <time>2021-08-15T09:53:24.000Z</time>
      </trkpt>
      <trkpt lat="47.48338" lon="-2.35255">
        <ele>40.400001525879</ele>
        <time>2021-08-15T09:53:25.000Z</time>
      </trkpt>
      <trkpt lat="47.48338" lon="-2.35263">
        <ele>40.799999237061</ele>
        <time>2021-08-15T09:53:26.000Z</time>
      </trkpt>
      <trkpt lat="47.48338" lon="-2.3527">
        <ele>41.200000762939</ele>
        <time>2021-08-15T09:53:27.000Z</time>
      </trkpt>
      <trkpt lat="47.48339" lon="-2.35278">
        <ele>41.200000762939</ele>
        <time>2021-08-15T09:53:28.000Z</time>
      </trkpt>
      <trkpt lat="47.48344" lon="-2.35319">
        <ele>41.200000762939</ele>
        <time>2021-08-15T09:53:34.000Z</time>
      </trkpt>
      <trkpt lat="47.48349" lon="-2.35361">
        <ele>41.200000762939</ele>
        <time>2021-08-15T09:53:41.000Z</time>
      </trkpt>
      <trkpt lat="47.48352" lon="-2.35385">
        <ele>41.200000762939</ele>
        <time>2021-08-15T09:53:45.000Z</time>
      </trkpt>
      <trkpt lat="47.48352" lon="-2.35391">
        <ele>41.200000762939</ele>
        <time>2021-08-15T09:53:46.000Z</time>
      </trkpt>
      <trkpt lat="47.48353" lon="-2.35404">
        <ele>41.200000762939</ele>
        <time>2021-08-15T09:53:48.000Z</time>
      </trkpt>
      <trkpt lat="47.48353" lon="-2.35411">
        <ele>40.799999237061</ele>
        <time>2021-08-15T09:53:49.000Z</time>
      </trkpt>
      <trkpt lat="47.48352" lon="-2.35418">
        <ele>40.400001525879</ele>
        <time>2021-08-15T09:53:50.000Z</time>
      </trkpt>
      <trkpt lat="47.4835" lon="-2.35424">
        <ele>40</ele>
        <time>2021-08-15T09:53:51.000Z</time>
      </trkpt>
      <trkpt lat="47.48348" lon="-2.35428">
        <ele>39.599998474121</ele>
        <time>2021-08-15T09:53:52.000Z</time>
      </trkpt>
      <trkpt lat="47.48345" lon="-2.35431">
        <ele>39.200000762939</ele>
        <time>2021-08-15T09:53:53.000Z</time>
      </trkpt>
      <trkpt lat="47.48342" lon="-2.35432">
        <ele>39.200000762939</ele>
        <time>2021-08-15T09:53:54.000Z</time>
      </trkpt>
      <trkpt lat="47.48334" lon="-2.35431">
        <ele>39.200000762939</ele>
        <time>2021-08-15T09:53:56.000Z</time>
      </trkpt>
      <trkpt lat="47.48326" lon="-2.3543">
        <ele>39.200000762939</ele>
        <time>2021-08-15T09:53:58.000Z</time>
      </trkpt>
      <trkpt lat="47.48302" lon="-2.35429">
        <ele>39.599998474121</ele>
        <time>2021-08-15T09:54:04.000Z</time>
      </trkpt>
      <trkpt lat="47.48298" lon="-2.35428">
        <ele>40</ele>
        <time>2021-08-15T09:54:05.000Z</time>
      </trkpt>
      <trkpt lat="47.48295" lon="-2.35427">
        <ele>40.400001525879</ele>
        <time>2021-08-15T09:54:06.000Z</time>
      </trkpt>
      <trkpt lat="47.48291" lon="-2.35427">
        <ele>40.799999237061</ele>
        <time>2021-08-15T09:54:07.000Z</time>
      </trkpt>
      <trkpt lat="47.48288" lon="-2.35427">
        <ele>41.200000762939</ele>
        <time>2021-08-15T09:54:08.000Z</time>
      </trkpt>
      <trkpt lat="47.48279" lon="-2.35427">
        <ele>41.200000762939</ele>
        <time>2021-08-15T09:54:11.000Z</time>
      </trkpt>
      <trkpt lat="47.48266" lon="-2.35429">
        <ele>41.200000762939</ele>
        <time>2021-08-15T09:54:17.000Z</time>
      </trkpt>
      <trkpt lat="47.48257" lon="-2.35434">
        <ele>41.200000762939</ele>
        <time>2021-08-15T09:54:23.000Z</time>
      </trkpt>
      <trkpt lat="47.48257" lon="-2.35435">
        <ele>41.200000762939</ele>
        <time>2021-08-15T09:54:25.000Z</time>
      </trkpt>
      <trkpt lat="47.48252" lon="-2.35436">
        <ele>41.200000762939</ele>
        <time>2021-08-15T09:54:59.000Z</time>
      </trkpt>
      <trkpt lat="47.4825" lon="-2.35435">
        <ele>41.200000762939</ele>
        <time>2021-08-15T09:55:00.000Z</time>
      </trkpt>
      <trkpt lat="47.48237" lon="-2.35425">
        <ele>41.200000762939</ele>
        <time>2021-08-15T09:55:04.000Z</time>
      </trkpt>
      <trkpt lat="47.4823" lon="-2.35414">
        <ele>41.200000762939</ele>
        <time>2021-08-15T09:55:06.000Z</time>
      </trkpt>
      <trkpt lat="47.48213" lon="-2.35395">
        <ele>41.200000762939</ele>
        <time>2021-08-15T09:55:10.000Z</time>
      </trkpt>
      <trkpt lat="47.48201" lon="-2.35382">
        <ele>41.599998474121</ele>
        <time>2021-08-15T09:55:13.000Z</time>
      </trkpt>
      <trkpt lat="47.48196" lon="-2.35377">
        <ele>42</ele>
        <time>2021-08-15T09:55:14.000Z</time>
      </trkpt>
      <trkpt lat="47.48192" lon="-2.35372">
        <ele>42.400001525879</ele>
        <time>2021-08-15T09:55:15.000Z</time>
      </trkpt>
      <trkpt lat="47.48187" lon="-2.35368">
        <ele>43.200000762939</ele>
        <time>2021-08-15T09:55:16.000Z</time>
      </trkpt>
      <trkpt lat="47.48183" lon="-2.35364">
        <ele>43.200000762939</ele>
        <time>2021-08-15T09:55:17.000Z</time>
      </trkpt>
      <trkpt lat="47.48156" lon="-2.35334">
        <ele>43.200000762939</ele>
        <time>2021-08-15T09:55:23.000Z</time>
      </trkpt>
      <trkpt lat="47.48152" lon="-2.35329">
        <ele>43.599998474121</ele>
        <time>2021-08-15T09:55:24.000Z</time>
      </trkpt>
      <trkpt lat="47.48148" lon="-2.35324">
        <ele>44.200000762939</ele>
        <time>2021-08-15T09:55:25.000Z</time>
      </trkpt>
      <trkpt lat="47.48144" lon="-2.35318">
        <ele>44.599998474121</ele>
        <time>2021-08-15T09:55:26.000Z</time>
      </trkpt>
      <trkpt lat="47.48141" lon="-2.35311">
        <ele>45</ele>
        <time>2021-08-15T09:55:27.000Z</time>
      </trkpt>
      <trkpt lat="47.48137" lon="-2.35305">
        <ele>45.400001525879</ele>
        <time>2021-08-15T09:55:28.000Z</time>
      </trkpt>
      <trkpt lat="47.48117" lon="-2.35261">
        <ele>45.400001525879</ele>
        <time>2021-08-15T09:55:34.000Z</time>
      </trkpt>
      <trkpt lat="47.481" lon="-2.35225">
        <ele>45.799999237061</ele>
        <time>2021-08-15T09:55:39.000Z</time>
      </trkpt>
      <trkpt lat="47.48097" lon="-2.35219">
        <ele>46.599998474121</ele>
        <time>2021-08-15T09:55:40.000Z</time>
      </trkpt>
      <trkpt lat="47.48093" lon="-2.35213">
        <ele>47</ele>
        <time>2021-08-15T09:55:41.000Z</time>
      </trkpt>
      <trkpt lat="47.48088" lon="-2.35207">
        <ele>47.400001525879</ele>
        <time>2021-08-15T09:55:42.000Z</time>
      </trkpt>
      <trkpt lat="47.48063" lon="-2.3517">
        <ele>47.400001525879</ele>
        <time>2021-08-15T09:55:48.000Z</time>
      </trkpt>
      <trkpt lat="47.48033" lon="-2.35127">
        <ele>47.400001525879</ele>
        <time>2021-08-15T09:55:55.000Z</time>
      </trkpt>
      <trkpt lat="47.48001" lon="-2.35074">
        <ele>47.400001525879</ele>
        <time>2021-08-15T09:56:03.000Z</time>
      </trkpt>
      <trkpt lat="47.47972" lon="-2.35028">
        <ele>47.400001525879</ele>
        <time>2021-08-15T09:56:10.000Z</time>
      </trkpt>
      <trkpt lat="47.47959" lon="-2.35012">
        <ele>47.400001525879</ele>
        <time>2021-08-15T09:56:13.000Z</time>
      </trkpt>
      <trkpt lat="47.4795" lon="-2.35004">
        <ele>47.400001525879</ele>
        <time>2021-08-15T09:56:15.000Z</time>
      </trkpt>
      <trkpt lat="47.47945" lon="-2.34999">
        <ele>47.400001525879</ele>
        <time>2021-08-15T09:56:16.000Z</time>
      </trkpt>
      <trkpt lat="47.47915" lon="-2.34958">
        <ele>47.400001525879</ele>
        <time>2021-08-15T09:56:23.000Z</time>
      </trkpt>
      <trkpt lat="47.47888" lon="-2.34919">
        <ele>47</ele>
        <time>2021-08-15T09:56:29.000Z</time>
      </trkpt>
      <trkpt lat="47.47883" lon="-2.34913">
        <ele>46.200000762939</ele>
        <time>2021-08-15T09:56:30.000Z</time>
      </trkpt>
      <trkpt lat="47.47878" lon="-2.34907">
        <ele>45.599998474121</ele>
        <time>2021-08-15T09:56:31.000Z</time>
      </trkpt>
      <trkpt lat="47.47873" lon="-2.34901">
        <ele>45.200000762939</ele>
        <time>2021-08-15T09:56:32.000Z</time>
      </trkpt>
      <trkpt lat="47.47858" lon="-2.34884">
        <ele>45.200000762939</ele>
        <time>2021-08-15T09:56:35.000Z</time>
      </trkpt>
      <trkpt lat="47.47842" lon="-2.34865">
        <ele>45.200000762939</ele>
        <time>2021-08-15T09:56:38.000Z</time>
      </trkpt>
      <trkpt lat="47.47808" lon="-2.34816">
        <ele>45.200000762939</ele>
        <time>2021-08-15T09:56:45.000Z</time>
      </trkpt>
      <trkpt lat="47.47776" lon="-2.34765">
        <ele>45.200000762939</ele>
        <time>2021-08-15T09:56:52.000Z</time>
      </trkpt>
      <trkpt lat="47.47756" lon="-2.34738">
        <ele>45.200000762939</ele>
        <time>2021-08-15T09:56:57.000Z</time>
      </trkpt>
      <trkpt lat="47.47734" lon="-2.3471">
        <ele>45.200000762939</ele>
        <time>2021-08-15T09:57:02.000Z</time>
      </trkpt>
      <trkpt lat="47.47721" lon="-2.34711">
        <ele>45.200000762939</ele>
        <time>2021-08-15T09:57:05.000Z</time>
      </trkpt>
      <trkpt lat="47.47713" lon="-2.34717">
        <ele>45.200000762939</ele>
        <time>2021-08-15T09:57:07.000Z</time>
      </trkpt>
      <trkpt lat="47.47691" lon="-2.34735">
        <ele>45.200000762939</ele>
        <time>2021-08-15T09:57:12.000Z</time>
      </trkpt>
      <trkpt lat="47.47658" lon="-2.34757">
        <ele>45.200000762939</ele>
        <time>2021-08-15T09:57:19.000Z</time>
      </trkpt>
      <trkpt lat="47.47618" lon="-2.34784">
        <ele>45.200000762939</ele>
        <time>2021-08-15T09:57:27.000Z</time>
      </trkpt>
      <trkpt lat="47.47579" lon="-2.3481">
        <ele>45.200000762939</ele>
        <time>2021-08-15T09:57:35.000Z</time>
      </trkpt>
      <trkpt lat="47.47562" lon="-2.34822">
        <ele>45.200000762939</ele>
        <time>2021-08-15T09:57:39.000Z</time>
      </trkpt>
      <trkpt lat="47.47559" lon="-2.3482">
        <ele>45.200000762939</ele>
        <time>2021-08-15T09:57:40.000Z</time>
      </trkpt>
      <trkpt lat="47.47554" lon="-2.34808">
        <ele>45.200000762939</ele>
        <time>2021-08-15T09:57:43.000Z</time>
      </trkpt>
      <trkpt lat="47.47553" lon="-2.34791">
        <ele>45.200000762939</ele>
        <time>2021-08-15T09:57:46.000Z</time>
      </trkpt>
      <trkpt lat="47.47552" lon="-2.3478">
        <ele>45.200000762939</ele>
        <time>2021-08-15T09:57:48.000Z</time>
      </trkpt>
      <trkpt lat="47.4755" lon="-2.34762">
        <ele>45.200000762939</ele>
        <time>2021-08-15T09:57:51.000Z</time>
      </trkpt>
      <trkpt lat="47.47542" lon="-2.34754">
        <ele>45.200000762939</ele>
        <time>2021-08-15T09:57:53.000Z</time>
      </trkpt>
      <trkpt lat="47.47529" lon="-2.3476">
        <ele>45.200000762939</ele>
        <time>2021-08-15T09:57:56.000Z</time>
      </trkpt>
      <trkpt lat="47.47506" lon="-2.34774">
        <ele>45.200000762939</ele>
        <time>2021-08-15T09:58:01.000Z</time>
      </trkpt>
      <trkpt lat="47.47501" lon="-2.34773">
        <ele>45.200000762939</ele>
        <time>2021-08-15T09:58:02.000Z</time>
      </trkpt>
      <trkpt lat="47.47496" lon="-2.34775">
        <ele>45.200000762939</ele>
        <time>2021-08-15T09:58:03.000Z</time>
      </trkpt>
      <trkpt lat="47.47488" lon="-2.34782">
        <ele>45.200000762939</ele>
        <time>2021-08-15T09:58:05.000Z</time>
      </trkpt>
      <trkpt lat="47.4748" lon="-2.34798">
        <ele>45.200000762939</ele>
        <time>2021-08-15T09:58:08.000Z</time>
      </trkpt>
      <trkpt lat="47.47477" lon="-2.34804">
        <ele>45.200000762939</ele>
        <time>2021-08-15T09:58:09.000Z</time>
      </trkpt>
      <trkpt lat="47.47458" lon="-2.34839">
        <ele>45.200000762939</ele>
        <time>2021-08-15T09:58:16.000Z</time>
      </trkpt>
      <trkpt lat="47.47454" lon="-2.34839">
        <ele>44.799999237061</ele>
        <time>2021-08-15T09:58:18.000Z</time>
      </trkpt>
      <trkpt lat="47.47451" lon="-2.34837">
        <ele>44.400001525879</ele>
        <time>2021-08-15T09:58:19.000Z</time>
      </trkpt>
      <trkpt lat="47.47447" lon="-2.34834">
        <ele>44</ele>
        <time>2021-08-15T09:58:20.000Z</time>
      </trkpt>
      <trkpt lat="47.47443" lon="-2.34831">
        <ele>43.599998474121</ele>
        <time>2021-08-15T09:58:21.000Z</time>
      </trkpt>
      <trkpt lat="47.47438" lon="-2.34827">
        <ele>43</ele>
        <time>2021-08-15T09:58:22.000Z</time>
      </trkpt>
      <trkpt lat="47.47424" lon="-2.34815">
        <ele>43</ele>
        <time>2021-08-15T09:58:25.000Z</time>
      </trkpt>
      <trkpt lat="47.47389" lon="-2.34783">
        <ele>43</ele>
        <time>2021-08-15T09:58:32.000Z</time>
      </trkpt>
      <trkpt lat="47.47385" lon="-2.34778">
        <ele>43</ele>
        <time>2021-08-15T09:58:33.000Z</time>
      </trkpt>
      <trkpt lat="47.47372" lon="-2.34763">
        <ele>43</ele>
        <time>2021-08-15T09:58:36.000Z</time>
      </trkpt>
      <trkpt lat="47.47345" lon="-2.34734">
        <ele>43</ele>
        <time>2021-08-15T09:58:42.000Z</time>
      </trkpt>
      <trkpt lat="47.47328" lon="-2.34718">
        <ele>43</ele>
        <time>2021-08-15T09:58:46.000Z</time>
      </trkpt>
      <trkpt lat="47.47319" lon="-2.34709">
        <ele>43</ele>
        <time>2021-08-15T09:58:48.000Z</time>
      </trkpt>
      <trkpt lat="47.47311" lon="-2.347">
        <ele>43</ele>
        <time>2021-08-15T09:58:50.000Z</time>
      </trkpt>
      <trkpt lat="47.47299" lon="-2.34695">
        <ele>43</ele>
        <time>2021-08-15T09:58:53.000Z</time>
      </trkpt>
      <trkpt lat="47.47291" lon="-2.34705">
        <ele>43</ele>
        <time>2021-08-15T09:58:56.000Z</time>
      </trkpt>
      <trkpt lat="47.47282" lon="-2.34709">
        <ele>43</ele>
        <time>2021-08-15T09:58:58.000Z</time>
      </trkpt>
      <trkpt lat="47.47277" lon="-2.34711">
        <ele>43</ele>
        <time>2021-08-15T09:58:59.000Z</time>
      </trkpt>
      <trkpt lat="47.47272" lon="-2.34713">
        <ele>43</ele>
        <time>2021-08-15T09:59:00.000Z</time>
      </trkpt>
      <trkpt lat="47.47259" lon="-2.34704">
        <ele>43</ele>
        <time>2021-08-15T09:59:04.000Z</time>
      </trkpt>
      <trkpt lat="47.47251" lon="-2.34685">
        <ele>43</ele>
        <time>2021-08-15T09:59:08.000Z</time>
      </trkpt>
      <trkpt lat="47.47239" lon="-2.3469">
        <ele>43</ele>
        <time>2021-08-15T09:59:11.000Z</time>
      </trkpt>
      <trkpt lat="47.47219" lon="-2.347">
        <ele>43</ele>
        <time>2021-08-15T09:59:16.000Z</time>
      </trkpt>
      <trkpt lat="47.47214" lon="-2.34702">
        <ele>43</ele>
        <time>2021-08-15T09:59:17.000Z</time>
      </trkpt>
      <trkpt lat="47.47201" lon="-2.34697">
        <ele>43</ele>
        <time>2021-08-15T09:59:20.000Z</time>
      </trkpt>
      <trkpt lat="47.4719" lon="-2.34689">
        <ele>43</ele>
        <time>2021-08-15T09:59:23.000Z</time>
      </trkpt>
      <trkpt lat="47.47181" lon="-2.34689">
        <ele>43</ele>
        <time>2021-08-15T09:59:25.000Z</time>
      </trkpt>
      <trkpt lat="47.47176" lon="-2.34689">
        <ele>43</ele>
        <time>2021-08-15T09:59:26.000Z</time>
      </trkpt>
      <trkpt lat="47.4716" lon="-2.34693">
        <ele>43</ele>
        <time>2021-08-15T09:59:29.000Z</time>
      </trkpt>
      <trkpt lat="47.47154" lon="-2.34695">
        <ele>43</ele>
        <time>2021-08-15T09:59:30.000Z</time>
      </trkpt>
      <trkpt lat="47.47116" lon="-2.34708">
        <ele>43</ele>
        <time>2021-08-15T09:59:37.000Z</time>
      </trkpt>
      <trkpt lat="47.47078" lon="-2.34721">
        <ele>43</ele>
        <time>2021-08-15T09:59:44.000Z</time>
      </trkpt>
      <trkpt lat="47.47057" lon="-2.34728">
        <ele>43.599998474121</ele>
        <time>2021-08-15T09:59:48.000Z</time>
      </trkpt>
      <trkpt lat="47.47052" lon="-2.3473">
        <ele>44.400001525879</ele>
        <time>2021-08-15T09:59:49.000Z</time>
      </trkpt>
      <trkpt lat="47.47047" lon="-2.34732">
        <ele>44.799999237061</ele>
        <time>2021-08-15T09:59:50.000Z</time>
      </trkpt>
      <trkpt lat="47.47042" lon="-2.34734">
        <ele>45.200000762939</ele>
        <time>2021-08-15T09:59:51.000Z</time>
      </trkpt>
      <trkpt lat="47.47037" lon="-2.34735">
        <ele>45.200000762939</ele>
        <time>2021-08-15T09:59:52.000Z</time>
      </trkpt>
      <trkpt lat="47.46993" lon="-2.34753">
        <ele>45.200000762939</ele>
        <time>2021-08-15T10:00:01.000Z</time>
      </trkpt>
      <trkpt lat="47.46981" lon="-2.3477">
        <ele>45.200000762939</ele>
        <time>2021-08-15T10:00:05.000Z</time>
      </trkpt>
      <trkpt lat="47.46956" lon="-2.34795">
        <ele>45.200000762939</ele>
        <time>2021-08-15T10:00:11.000Z</time>
      </trkpt>
      <trkpt lat="47.46931" lon="-2.34815">
        <ele>44.799999237061</ele>
        <time>2021-08-15T10:00:16.000Z</time>
      </trkpt>
      <trkpt lat="47.46927" lon="-2.34818">
        <ele>44.400001525879</ele>
        <time>2021-08-15T10:00:17.000Z</time>
      </trkpt>
      <trkpt lat="47.46921" lon="-2.34822">
        <ele>44</ele>
        <time>2021-08-15T10:00:18.000Z</time>
      </trkpt>
      <trkpt lat="47.46916" lon="-2.34826">
        <ele>43.599998474121</ele>
        <time>2021-08-15T10:00:19.000Z</time>
      </trkpt>
      <trkpt lat="47.4691" lon="-2.3483">
        <ele>43.200000762939</ele>
        <time>2021-08-15T10:00:20.000Z</time>
      </trkpt>
      <trkpt lat="47.46888" lon="-2.34843">
        <ele>42.799999237061</ele>
        <time>2021-08-15T10:00:24.000Z</time>
      </trkpt>
      <trkpt lat="47.46882" lon="-2.34847">
        <ele>42.400001525879</ele>
        <time>2021-08-15T10:00:25.000Z</time>
      </trkpt>
      <trkpt lat="47.46876" lon="-2.3485">
        <ele>42</ele>
        <time>2021-08-15T10:00:26.000Z</time>
      </trkpt>
      <trkpt lat="47.46869" lon="-2.34854">
        <ele>41.400001525879</ele>
        <time>2021-08-15T10:00:27.000Z</time>
      </trkpt>
      <trkpt lat="47.46863" lon="-2.34859">
        <ele>41</ele>
        <time>2021-08-15T10:00:28.000Z</time>
      </trkpt>
      <trkpt lat="47.46809" lon="-2.34895">
        <ele>40.599998474121</ele>
        <time>2021-08-15T10:00:36.000Z</time>
      </trkpt>
      <trkpt lat="47.46802" lon="-2.34901">
        <ele>40.200000762939</ele>
        <time>2021-08-15T10:00:37.000Z</time>
      </trkpt>
      <trkpt lat="47.46795" lon="-2.34906">
        <ele>39.799999237061</ele>
        <time>2021-08-15T10:00:38.000Z</time>
      </trkpt>
      <trkpt lat="47.46788" lon="-2.34911">
        <ele>39</ele>
        <time>2021-08-15T10:00:39.000Z</time>
      </trkpt>
      <trkpt lat="47.46778" lon="-2.34922">
        <ele>39</ele>
        <time>2021-08-15T10:00:41.000Z</time>
      </trkpt>
      <trkpt lat="47.46775" lon="-2.3493">
        <ele>38.400001525879</ele>
        <time>2021-08-15T10:00:42.000Z</time>
      </trkpt>
      <trkpt lat="47.46774" lon="-2.34938">
        <ele>38</ele>
        <time>2021-08-15T10:00:43.000Z</time>
      </trkpt>
      <trkpt lat="47.46775" lon="-2.34946">
        <ele>37.599998474121</ele>
        <time>2021-08-15T10:00:44.000Z</time>
      </trkpt>
      <trkpt lat="47.46777" lon="-2.34952">
        <ele>37</ele>
        <time>2021-08-15T10:00:45.000Z</time>
      </trkpt>
      <trkpt lat="47.46781" lon="-2.34957">
        <ele>36.599998474121</ele>
        <time>2021-08-15T10:00:46.000Z</time>
      </trkpt>
      <trkpt lat="47.46789" lon="-2.34965">
        <ele>36.599998474121</ele>
        <time>2021-08-15T10:00:48.000Z</time>
      </trkpt>
      <trkpt lat="47.46803" lon="-2.34989">
        <ele>36.599998474121</ele>
        <time>2021-08-15T10:00:52.000Z</time>
      </trkpt>
      <trkpt lat="47.46806" lon="-2.35003">
        <ele>36.599998474121</ele>
        <time>2021-08-15T10:00:54.000Z</time>
      </trkpt>
      <trkpt lat="47.46809" lon="-2.35013">
        <ele>36.599998474121</ele>
        <time>2021-08-15T10:00:56.000Z</time>
      </trkpt>
      <trkpt lat="47.46813" lon="-2.3502">
        <ele>36.599998474121</ele>
        <time>2021-08-15T10:00:59.000Z</time>
      </trkpt>
      <trkpt lat="47.46813" lon="-2.3502">
        <ele>36.599998474121</ele>
        <time>2021-08-15T10:01:00.000Z</time>
      </trkpt>
      <trkpt lat="47.46812" lon="-2.35024">
        <ele>34.400001525879</ele>
        <time>2021-08-15T10:01:08.000Z</time>
      </trkpt>
      <trkpt lat="47.46812" lon="-2.35028">
        <ele>34.400001525879</ele>
        <time>2021-08-15T10:01:09.000Z</time>
      </trkpt>
      <trkpt lat="47.46813" lon="-2.35036">
        <ele>34.400001525879</ele>
        <time>2021-08-15T10:01:11.000Z</time>
      </trkpt>
      <trkpt lat="47.46814" lon="-2.35048">
        <ele>34.400001525879</ele>
        <time>2021-08-15T10:01:13.000Z</time>
      </trkpt>
      <trkpt lat="47.46816" lon="-2.35062">
        <ele>34.400001525879</ele>
        <time>2021-08-15T10:01:15.000Z</time>
      </trkpt>
      <trkpt lat="47.4682" lon="-2.35083">
        <ele>34.400001525879</ele>
        <time>2021-08-15T10:01:18.000Z</time>
      </trkpt>
      <trkpt lat="47.46835" lon="-2.35116">
        <ele>34.400001525879</ele>
        <time>2021-08-15T10:01:23.000Z</time>
      </trkpt>
      <trkpt lat="47.46849" lon="-2.35149">
        <ele>34.400001525879</ele>
        <time>2021-08-15T10:01:29.000Z</time>
      </trkpt>
      <trkpt lat="47.46842" lon="-2.3515">
        <ele>34.400001525879</ele>
        <time>2021-08-15T10:01:31.000Z</time>
      </trkpt>
      <trkpt lat="47.46828" lon="-2.35154">
        <ele>34.400001525879</ele>
        <time>2021-08-15T10:01:34.000Z</time>
      </trkpt>
      <trkpt lat="47.46823" lon="-2.35156">
        <ele>34.400001525879</ele>
        <time>2021-08-15T10:01:35.000Z</time>
      </trkpt>
      <trkpt lat="47.46783" lon="-2.35174">
        <ele>34.400001525879</ele>
        <time>2021-08-15T10:01:43.000Z</time>
      </trkpt>
      <trkpt lat="47.46745" lon="-2.35194">
        <ele>34.400001525879</ele>
        <time>2021-08-15T10:01:50.000Z</time>
      </trkpt>
      <trkpt lat="47.4673" lon="-2.35207">
        <ele>34.400001525879</ele>
        <time>2021-08-15T10:01:53.000Z</time>
      </trkpt>
      <trkpt lat="47.46727" lon="-2.35214">
        <ele>34.400001525879</ele>
        <time>2021-08-15T10:01:54.000Z</time>
      </trkpt>
      <trkpt lat="47.4673" lon="-2.3524">
        <ele>34.400001525879</ele>
        <time>2021-08-15T10:01:57.000Z</time>
      </trkpt>
      <trkpt lat="47.46736" lon="-2.35288">
        <ele>34.400001525879</ele>
        <time>2021-08-15T10:02:03.000Z</time>
      </trkpt>
      <trkpt lat="47.4673" lon="-2.35308">
        <ele>34.400001525879</ele>
        <time>2021-08-15T10:02:06.000Z</time>
      </trkpt>
      <trkpt lat="47.46716" lon="-2.35319">
        <ele>34.400001525879</ele>
        <time>2021-08-15T10:02:10.000Z</time>
      </trkpt>
      <trkpt lat="47.46704" lon="-2.35308">
        <ele>34.400001525879</ele>
        <time>2021-08-15T10:02:13.000Z</time>
      </trkpt>
      <trkpt lat="47.46694" lon="-2.35288">
        <ele>34.400001525879</ele>
        <time>2021-08-15T10:02:16.000Z</time>
      </trkpt>
      <trkpt lat="47.46688" lon="-2.35272">
        <ele>34.400001525879</ele>
        <time>2021-08-15T10:02:18.000Z</time>
      </trkpt>
      <trkpt lat="47.4668" lon="-2.35257">
        <ele>34.400001525879</ele>
        <time>2021-08-15T10:02:20.000Z</time>
      </trkpt>
      <trkpt lat="47.46666" lon="-2.35236">
        <ele>34.400001525879</ele>
        <time>2021-08-15T10:02:23.000Z</time>
      </trkpt>
      <trkpt lat="47.46634" lon="-2.35203">
        <ele>34.400001525879</ele>
        <time>2021-08-15T10:02:29.000Z</time>
      </trkpt>
      <trkpt lat="47.46604" lon="-2.35181">
        <ele>34.400001525879</ele>
        <time>2021-08-15T10:02:34.000Z</time>
      </trkpt>
      <trkpt lat="47.46597" lon="-2.35178">
        <ele>34.400001525879</ele>
        <time>2021-08-15T10:02:35.000Z</time>
      </trkpt>
      <trkpt lat="47.46563" lon="-2.35158">
        <ele>34.799999237061</ele>
        <time>2021-08-15T10:02:41.000Z</time>
      </trkpt>
      <trkpt lat="47.46557" lon="-2.35155">
        <ele>35.200000762939</ele>
        <time>2021-08-15T10:02:42.000Z</time>
      </trkpt>
      <trkpt lat="47.46551" lon="-2.35151">
        <ele>36</ele>
        <time>2021-08-15T10:02:43.000Z</time>
      </trkpt>
      <trkpt lat="47.46545" lon="-2.35148">
        <ele>36.400001525879</ele>
        <time>2021-08-15T10:02:44.000Z</time>
      </trkpt>
      <trkpt lat="47.46526" lon="-2.35136">
        <ele>36.400001525879</ele>
        <time>2021-08-15T10:02:47.000Z</time>
      </trkpt>
      <trkpt lat="47.4652" lon="-2.35133">
        <ele>36.400001525879</ele>
        <time>2021-08-15T10:02:48.000Z</time>
      </trkpt>
      <trkpt lat="47.46483" lon="-2.35111">
        <ele>36.400001525879</ele>
        <time>2021-08-15T10:02:54.000Z</time>
      </trkpt>
      <trkpt lat="47.46438" lon="-2.35081">
        <ele>36.400001525879</ele>
        <time>2021-08-15T10:03:01.000Z</time>
      </trkpt>
      <trkpt lat="47.46401" lon="-2.35062">
        <ele>36.400001525879</ele>
        <time>2021-08-15T10:03:07.000Z</time>
      </trkpt>
      <trkpt lat="47.46359" lon="-2.35053">
        <ele>36.400001525879</ele>
        <time>2021-08-15T10:03:13.000Z</time>
      </trkpt>
      <trkpt lat="47.46339" lon="-2.35048">
        <ele>36</ele>
        <time>2021-08-15T10:03:16.000Z</time>
      </trkpt>
      <trkpt lat="47.46332" lon="-2.35046">
        <ele>35.599998474121</ele>
        <time>2021-08-15T10:03:17.000Z</time>
      </trkpt>
      <trkpt lat="47.46325" lon="-2.35044">
        <ele>35.200000762939</ele>
        <time>2021-08-15T10:03:18.000Z</time>
      </trkpt>
      <trkpt lat="47.46318" lon="-2.35042">
        <ele>34.599998474121</ele>
        <time>2021-08-15T10:03:19.000Z</time>
      </trkpt>
      <trkpt lat="47.4631" lon="-2.35039">
        <ele>34.200000762939</ele>
        <time>2021-08-15T10:03:20.000Z</time>
      </trkpt>
      <trkpt lat="47.46293" lon="-2.35034">
        <ele>33.799999237061</ele>
        <time>2021-08-15T10:03:22.000Z</time>
      </trkpt>
      <trkpt lat="47.46285" lon="-2.35031">
        <ele>33.400001525879</ele>
        <time>2021-08-15T10:03:23.000Z</time>
      </trkpt>
      <trkpt lat="47.46278" lon="-2.35028">
        <ele>33</ele>
        <time>2021-08-15T10:03:24.000Z</time>
      </trkpt>
      <trkpt lat="47.46271" lon="-2.35027">
        <ele>32.599998474121</ele>
        <time>2021-08-15T10:03:25.000Z</time>
      </trkpt>
      <trkpt lat="47.46262" lon="-2.35027">
        <ele>32</ele>
        <time>2021-08-15T10:03:26.000Z</time>
      </trkpt>
      <trkpt lat="47.46247" lon="-2.35026">
        <ele>32</ele>
        <time>2021-08-15T10:03:28.000Z</time>
      </trkpt>
      <trkpt lat="47.46197" lon="-2.35021">
        <ele>32</ele>
        <time>2021-08-15T10:03:34.000Z</time>
      </trkpt>
      <trkpt lat="47.46161" lon="-2.35014">
        <ele>32</ele>
        <time>2021-08-15T10:03:39.000Z</time>
      </trkpt>
      <trkpt lat="47.46129" lon="-2.35007">
        <ele>32</ele>
        <time>2021-08-15T10:03:44.000Z</time>
      </trkpt>
      <trkpt lat="47.46092" lon="-2.35005">
        <ele>32</ele>
        <time>2021-08-15T10:03:50.000Z</time>
      </trkpt>
      <trkpt lat="47.46053" lon="-2.34994">
        <ele>32</ele>
        <time>2021-08-15T10:03:56.000Z</time>
      </trkpt>
      <trkpt lat="47.46041" lon="-2.3499">
        <ele>32</ele>
        <time>2021-08-15T10:03:58.000Z</time>
      </trkpt>
      <trkpt lat="47.46029" lon="-2.34988">
        <ele>32</ele>
        <time>2021-08-15T10:04:00.000Z</time>
      </trkpt>
      <trkpt lat="47.46018" lon="-2.34985">
        <ele>32.400001525879</ele>
        <time>2021-08-15T10:04:02.000Z</time>
      </trkpt>
      <trkpt lat="47.46011" lon="-2.34984">
        <ele>33</ele>
        <time>2021-08-15T10:04:03.000Z</time>
      </trkpt>
      <trkpt lat="47.46005" lon="-2.34983">
        <ele>33.400001525879</ele>
        <time>2021-08-15T10:04:04.000Z</time>
      </trkpt>
      <trkpt lat="47.45999" lon="-2.34983">
        <ele>33.799999237061</ele>
        <time>2021-08-15T10:04:05.000Z</time>
      </trkpt>
      <trkpt lat="47.45993" lon="-2.34983">
        <ele>34.200000762939</ele>
        <time>2021-08-15T10:04:06.000Z</time>
      </trkpt>
      <trkpt lat="47.45964" lon="-2.34979">
        <ele>34.200000762939</ele>
        <time>2021-08-15T10:04:11.000Z</time>
      </trkpt>
      <trkpt lat="47.45954" lon="-2.34977">
        <ele>34.200000762939</ele>
        <time>2021-08-15T10:04:13.000Z</time>
      </trkpt>
      <trkpt lat="47.45931" lon="-2.34972">
        <ele>34.200000762939</ele>
        <time>2021-08-15T10:04:17.000Z</time>
      </trkpt>
      <trkpt lat="47.45905" lon="-2.34965">
        <ele>34.200000762939</ele>
        <time>2021-08-15T10:04:21.000Z</time>
      </trkpt>
      <trkpt lat="47.45876" lon="-2.34961">
        <ele>34.200000762939</ele>
        <time>2021-08-15T10:04:26.000Z</time>
      </trkpt>
      <trkpt lat="47.4584" lon="-2.34955">
        <ele>34.200000762939</ele>
        <time>2021-08-15T10:04:32.000Z</time>
      </trkpt>
      <trkpt lat="47.45797" lon="-2.34948">
        <ele>34.200000762939</ele>
        <time>2021-08-15T10:04:39.000Z</time>
      </trkpt>
      <trkpt lat="47.45791" lon="-2.34949">
        <ele>34.200000762939</ele>
        <time>2021-08-15T10:04:40.000Z</time>
      </trkpt>
      <trkpt lat="47.45776" lon="-2.34959">
        <ele>34.200000762939</ele>
        <time>2021-08-15T10:04:43.000Z</time>
      </trkpt>
      <trkpt lat="47.45755" lon="-2.34978">
        <ele>34.200000762939</ele>
        <time>2021-08-15T10:04:47.000Z</time>
      </trkpt>
      <trkpt lat="47.45743" lon="-2.34988">
        <ele>34.200000762939</ele>
        <time>2021-08-15T10:04:49.000Z</time>
      </trkpt>
      <trkpt lat="47.45702" lon="-2.35021">
        <ele>34.200000762939</ele>
        <time>2021-08-15T10:04:56.000Z</time>
      </trkpt>
      <trkpt lat="47.45693" lon="-2.35028">
        <ele>34.200000762939</ele>
        <time>2021-08-15T10:04:58.000Z</time>
      </trkpt>
      <trkpt lat="47.45687" lon="-2.35034">
        <ele>34.200000762939</ele>
        <time>2021-08-15T10:05:00.000Z</time>
      </trkpt>
      <trkpt lat="47.45686" lon="-2.35036">
        <ele>34.200000762939</ele>
        <time>2021-08-15T10:05:03.000Z</time>
      </trkpt>
      <trkpt lat="47.45688" lon="-2.3503">
        <ele>34.200000762939</ele>
        <time>2021-08-15T10:05:23.000Z</time>
      </trkpt>
      <trkpt lat="47.45692" lon="-2.35026">
        <ele>34.200000762939</ele>
        <time>2021-08-15T10:05:26.000Z</time>
      </trkpt>
      <trkpt lat="47.45705" lon="-2.35014">
        <ele>34.200000762939</ele>
        <time>2021-08-15T10:05:32.000Z</time>
      </trkpt>
      <trkpt lat="47.4572" lon="-2.35005">
        <ele>34.200000762939</ele>
        <time>2021-08-15T10:05:38.000Z</time>
      </trkpt>
      <trkpt lat="47.45733" lon="-2.34992">
        <ele>34.200000762939</ele>
        <time>2021-08-15T10:05:44.000Z</time>
      </trkpt>
      <trkpt lat="47.4574" lon="-2.34984">
        <ele>34.200000762939</ele>
        <time>2021-08-15T10:05:49.000Z</time>
      </trkpt>
      <trkpt lat="47.45749" lon="-2.34976">
        <ele>34.200000762939</ele>
        <time>2021-08-15T10:05:55.000Z</time>
      </trkpt>
      <trkpt lat="47.4575" lon="-2.34976">
        <ele>34.200000762939</ele>
        <time>2021-08-15T10:05:56.000Z</time>
      </trkpt>
      <trkpt lat="47.45757" lon="-2.3497">
        <ele>34.200000762939</ele>
        <time>2021-08-15T10:06:02.000Z</time>
      </trkpt>
      <trkpt lat="47.45767" lon="-2.34962">
        <ele>34.200000762939</ele>
        <time>2021-08-15T10:06:10.000Z</time>
      </trkpt>
      <trkpt lat="47.45777" lon="-2.34955">
        <ele>34.200000762939</ele>
        <time>2021-08-15T10:06:18.000Z</time>
      </trkpt>
      <trkpt lat="47.45793" lon="-2.34949">
        <ele>34.200000762939</ele>
        <time>2021-08-15T10:06:26.000Z</time>
      </trkpt>
      <trkpt lat="47.45805" lon="-2.34951">
        <ele>34.200000762939</ele>
        <time>2021-08-15T10:06:31.000Z</time>
      </trkpt>
      <trkpt lat="47.45815" lon="-2.34951">
        <ele>34.200000762939</ele>
        <time>2021-08-15T10:06:37.000Z</time>
      </trkpt>
      <trkpt lat="47.45824" lon="-2.34953">
        <ele>34.200000762939</ele>
        <time>2021-08-15T10:06:44.000Z</time>
      </trkpt>
      <trkpt lat="47.45836" lon="-2.34954">
        <ele>34.200000762939</ele>
        <time>2021-08-15T10:06:52.000Z</time>
      </trkpt>
      <trkpt lat="47.4585" lon="-2.34951">
        <ele>34.200000762939</ele>
        <time>2021-08-15T10:06:58.000Z</time>
      </trkpt>
      <trkpt lat="47.45853" lon="-2.34952">
        <ele>34.200000762939</ele>
        <time>2021-08-15T10:07:02.000Z</time>
      </trkpt>
      <trkpt lat="47.45852" lon="-2.34951">
        <ele>34.200000762939</ele>
        <time>2021-08-15T10:07:03.000Z</time>
      </trkpt>
      <trkpt lat="47.45837" lon="-2.34951">
        <ele>34.200000762939</ele>
        <time>2021-08-15T10:07:08.000Z</time>
      </trkpt>
      <trkpt lat="47.45821" lon="-2.34947">
        <ele>34.200000762939</ele>
        <time>2021-08-15T10:07:13.000Z</time>
      </trkpt>
      <trkpt lat="47.45802" lon="-2.34944">
        <ele>34.200000762939</ele>
        <time>2021-08-15T10:07:18.000Z</time>
      </trkpt>
      <trkpt lat="47.4579" lon="-2.34946">
        <ele>34.200000762939</ele>
        <time>2021-08-15T10:07:21.000Z</time>
      </trkpt>
      <trkpt lat="47.45784" lon="-2.34952">
        <ele>34.200000762939</ele>
        <time>2021-08-15T10:07:23.000Z</time>
      </trkpt>
      <trkpt lat="47.45777" lon="-2.34957">
        <ele>34.200000762939</ele>
        <time>2021-08-15T10:07:25.000Z</time>
      </trkpt>
      <trkpt lat="47.45768" lon="-2.34967">
        <ele>34.200000762939</ele>
        <time>2021-08-15T10:07:28.000Z</time>
      </trkpt>
      <trkpt lat="47.45751" lon="-2.34979">
        <ele>34.200000762939</ele>
        <time>2021-08-15T10:07:32.000Z</time>
      </trkpt>
      <trkpt lat="47.45741" lon="-2.34987">
        <ele>34.200000762939</ele>
        <time>2021-08-15T10:07:34.000Z</time>
      </trkpt>
      <trkpt lat="47.45713" lon="-2.35012">
        <ele>34.200000762939</ele>
        <time>2021-08-15T10:07:41.000Z</time>
      </trkpt>
      <trkpt lat="47.4568" lon="-2.3504">
        <ele>34.200000762939</ele>
        <time>2021-08-15T10:07:48.000Z</time>
      </trkpt>
      <trkpt lat="47.45651" lon="-2.35065">
        <ele>34.200000762939</ele>
        <time>2021-08-15T10:07:54.000Z</time>
      </trkpt>
      <trkpt lat="47.45611" lon="-2.35098">
        <ele>34.200000762939</ele>
        <time>2021-08-15T10:08:02.000Z</time>
      </trkpt>
      <trkpt lat="47.45584" lon="-2.35121">
        <ele>34.200000762939</ele>
        <time>2021-08-15T10:08:08.000Z</time>
      </trkpt>
      <trkpt lat="47.4556" lon="-2.35141">
        <ele>34.200000762939</ele>
        <time>2021-08-15T10:08:13.000Z</time>
      </trkpt>
      <trkpt lat="47.45552" lon="-2.3515">
        <ele>34.200000762939</ele>
        <time>2021-08-15T10:08:15.000Z</time>
      </trkpt>
      <trkpt lat="47.45516" lon="-2.35189">
        <ele>34.200000762939</ele>
        <time>2021-08-15T10:08:23.000Z</time>
      </trkpt>
      <trkpt lat="47.45489" lon="-2.3522">
        <ele>34.200000762939</ele>
        <time>2021-08-15T10:08:29.000Z</time>
      </trkpt>
      <trkpt lat="47.45459" lon="-2.35257">
        <ele>34.200000762939</ele>
        <time>2021-08-15T10:08:36.000Z</time>
      </trkpt>
      <trkpt lat="47.45452" lon="-2.35275">
        <ele>34.200000762939</ele>
        <time>2021-08-15T10:08:39.000Z</time>
      </trkpt>
      <trkpt lat="47.45447" lon="-2.35285">
        <ele>34.200000762939</ele>
        <time>2021-08-15T10:08:41.000Z</time>
      </trkpt>
      <trkpt lat="47.45441" lon="-2.35293">
        <ele>34.200000762939</ele>
        <time>2021-08-15T10:08:43.000Z</time>
      </trkpt>
      <trkpt lat="47.45431" lon="-2.35303">
        <ele>34.200000762939</ele>
        <time>2021-08-15T10:08:46.000Z</time>
      </trkpt>
      <trkpt lat="47.45427" lon="-2.35305">
        <ele>33.799999237061</ele>
        <time>2021-08-15T10:08:47.000Z</time>
      </trkpt>
      <trkpt lat="47.45423" lon="-2.35307">
        <ele>33.400001525879</ele>
        <time>2021-08-15T10:08:48.000Z</time>
      </trkpt>
      <trkpt lat="47.45419" lon="-2.35308">
        <ele>33</ele>
        <time>2021-08-15T10:08:49.000Z</time>
      </trkpt>
      <trkpt lat="47.45414" lon="-2.35309">
        <ele>32.400001525879</ele>
        <time>2021-08-15T10:08:50.000Z</time>
      </trkpt>
      <trkpt lat="47.45408" lon="-2.35309">
        <ele>32</ele>
        <time>2021-08-15T10:08:51.000Z</time>
      </trkpt>
      <trkpt lat="47.45401" lon="-2.35309">
        <ele>32</ele>
        <time>2021-08-15T10:08:52.000Z</time>
      </trkpt>
      <trkpt lat="47.45367" lon="-2.35306">
        <ele>32</ele>
        <time>2021-08-15T10:08:57.000Z</time>
      </trkpt>
      <trkpt lat="47.4534" lon="-2.35304">
        <ele>32</ele>
        <time>2021-08-15T10:09:01.000Z</time>
      </trkpt>
      <trkpt lat="47.45322" lon="-2.35304">
        <ele>32</ele>
        <time>2021-08-15T10:09:04.000Z</time>
      </trkpt>
      <trkpt lat="47.45288" lon="-2.35307">
        <ele>32</ele>
        <time>2021-08-15T10:09:10.000Z</time>
      </trkpt>
      <trkpt lat="47.45277" lon="-2.35307">
        <ele>32</ele>
        <time>2021-08-15T10:09:12.000Z</time>
      </trkpt>
      <trkpt lat="47.4526" lon="-2.35307">
        <ele>32</ele>
        <time>2021-08-15T10:09:15.000Z</time>
      </trkpt>
      <trkpt lat="47.45226" lon="-2.35303">
        <ele>32</ele>
        <time>2021-08-15T10:09:21.000Z</time>
      </trkpt>
      <trkpt lat="47.45198" lon="-2.35301">
        <ele>32</ele>
        <time>2021-08-15T10:09:26.000Z</time>
      </trkpt>
      <trkpt lat="47.45172" lon="-2.35298">
        <ele>32</ele>
        <time>2021-08-15T10:09:30.000Z</time>
      </trkpt>
      <trkpt lat="47.45136" lon="-2.35289">
        <ele>32</ele>
        <time>2021-08-15T10:09:36.000Z</time>
      </trkpt>
      <trkpt lat="47.45123" lon="-2.35288">
        <ele>32</ele>
        <time>2021-08-15T10:09:38.000Z</time>
      </trkpt>
      <trkpt lat="47.45112" lon="-2.35284">
        <ele>32</ele>
        <time>2021-08-15T10:09:40.000Z</time>
      </trkpt>
      <trkpt lat="47.45101" lon="-2.35281">
        <ele>32</ele>
        <time>2021-08-15T10:09:42.000Z</time>
      </trkpt>
      <trkpt lat="47.45078" lon="-2.35278">
        <ele>32</ele>
        <time>2021-08-15T10:09:46.000Z</time>
      </trkpt>
      <trkpt lat="47.45061" lon="-2.35273">
        <ele>32</ele>
        <time>2021-08-15T10:09:49.000Z</time>
      </trkpt>
      <trkpt lat="47.45052" lon="-2.35273">
        <ele>32</ele>
        <time>2021-08-15T10:09:51.000Z</time>
      </trkpt>
      <trkpt lat="47.45039" lon="-2.35267">
        <ele>32</ele>
        <time>2021-08-15T10:09:54.000Z</time>
      </trkpt>
      <trkpt lat="47.45033" lon="-2.35265">
        <ele>32</ele>
        <time>2021-08-15T10:09:55.000Z</time>
      </trkpt>
      <trkpt lat="47.4501" lon="-2.35256">
        <ele>32.599998474121</ele>
        <time>2021-08-15T10:09:59.000Z</time>
      </trkpt>
      <trkpt lat="47.45005" lon="-2.35254">
        <ele>33</ele>
        <time>2021-08-15T10:10:00.000Z</time>
      </trkpt>
      <trkpt lat="47.44999" lon="-2.35253">
        <ele>33.400001525879</ele>
        <time>2021-08-15T10:10:01.000Z</time>
      </trkpt>
      <trkpt lat="47.44994" lon="-2.35252">
        <ele>33.799999237061</ele>
        <time>2021-08-15T10:10:02.000Z</time>
      </trkpt>
      <trkpt lat="47.44988" lon="-2.35251">
        <ele>34.200000762939</ele>
        <time>2021-08-15T10:10:03.000Z</time>
      </trkpt>
      <trkpt lat="47.44972" lon="-2.35246">
        <ele>34.200000762939</ele>
        <time>2021-08-15T10:10:06.000Z</time>
      </trkpt>
      <trkpt lat="47.44936" lon="-2.35234">
        <ele>34.200000762939</ele>
        <time>2021-08-15T10:10:13.000Z</time>
      </trkpt>
      <trkpt lat="47.44907" lon="-2.35224">
        <ele>34.200000762939</ele>
        <time>2021-08-15T10:10:19.000Z</time>
      </trkpt>
      <trkpt lat="47.44902" lon="-2.35223">
        <ele>34.200000762939</ele>
        <time>2021-08-15T10:10:20.000Z</time>
      </trkpt>
      <trkpt lat="47.4487" lon="-2.3522">
        <ele>34.200000762939</ele>
        <time>2021-08-15T10:10:26.000Z</time>
      </trkpt>
      <trkpt lat="47.44864" lon="-2.3522">
        <ele>34.200000762939</ele>
        <time>2021-08-15T10:10:27.000Z</time>
      </trkpt>
      <trkpt lat="47.44822" lon="-2.35214">
        <ele>34.200000762939</ele>
        <time>2021-08-15T10:10:34.000Z</time>
      </trkpt>
      <trkpt lat="47.44778" lon="-2.35202">
        <ele>34.200000762939</ele>
        <time>2021-08-15T10:10:41.000Z</time>
      </trkpt>
      <trkpt lat="47.44738" lon="-2.35193">
        <ele>34.200000762939</ele>
        <time>2021-08-15T10:10:48.000Z</time>
      </trkpt>
      <trkpt lat="47.44704" lon="-2.3519">
        <ele>34.200000762939</ele>
        <time>2021-08-15T10:10:54.000Z</time>
      </trkpt>
      <trkpt lat="47.44698" lon="-2.35192">
        <ele>34.200000762939</ele>
        <time>2021-08-15T10:10:55.000Z</time>
      </trkpt>
      <trkpt lat="47.44683" lon="-2.35198">
        <ele>34.200000762939</ele>
        <time>2021-08-15T10:10:58.000Z</time>
      </trkpt>
      <trkpt lat="47.44666" lon="-2.35207">
        <ele>34.200000762939</ele>
        <time>2021-08-15T10:11:03.000Z</time>
      </trkpt>
      <trkpt lat="47.44642" lon="-2.3522">
        <ele>34.200000762939</ele>
        <time>2021-08-15T10:11:10.000Z</time>
      </trkpt>
      <trkpt lat="47.44625" lon="-2.35225">
        <ele>34.200000762939</ele>
        <time>2021-08-15T10:11:16.000Z</time>
      </trkpt>
      <trkpt lat="47.44608" lon="-2.35224">
        <ele>34.200000762939</ele>
        <time>2021-08-15T10:11:20.000Z</time>
      </trkpt>
      <trkpt lat="47.44586" lon="-2.35226">
        <ele>34.200000762939</ele>
        <time>2021-08-15T10:11:26.000Z</time>
      </trkpt>
      <trkpt lat="47.4456" lon="-2.35216">
        <ele>34.200000762939</ele>
        <time>2021-08-15T10:11:32.000Z</time>
      </trkpt>
      <trkpt lat="47.44534" lon="-2.35209">
        <ele>34.200000762939</ele>
        <time>2021-08-15T10:11:38.000Z</time>
      </trkpt>
      <trkpt lat="47.44512" lon="-2.35203">
        <ele>34.200000762939</ele>
        <time>2021-08-15T10:11:43.000Z</time>
      </trkpt>
      <trkpt lat="47.44493" lon="-2.35199">
        <ele>34.200000762939</ele>
        <time>2021-08-15T10:11:48.000Z</time>
      </trkpt>
      <trkpt lat="47.4449" lon="-2.35199">
        <ele>34.200000762939</ele>
        <time>2021-08-15T10:11:49.000Z</time>
      </trkpt>
      <trkpt lat="47.44477" lon="-2.35189">
        <ele>34.200000762939</ele>
        <time>2021-08-15T10:11:53.000Z</time>
      </trkpt>
      <trkpt lat="47.44463" lon="-2.35185">
        <ele>33.799999237061</ele>
        <time>2021-08-15T10:11:57.000Z</time>
      </trkpt>
      <trkpt lat="47.44459" lon="-2.35184">
        <ele>33.400001525879</ele>
        <time>2021-08-15T10:11:58.000Z</time>
      </trkpt>
      <trkpt lat="47.44454" lon="-2.35183">
        <ele>33</ele>
        <time>2021-08-15T10:11:59.000Z</time>
      </trkpt>
      <trkpt lat="47.44449" lon="-2.35181">
        <ele>32.599998474121</ele>
        <time>2021-08-15T10:12:00.000Z</time>
      </trkpt>
      <trkpt lat="47.44445" lon="-2.3518">
        <ele>32.200000762939</ele>
        <time>2021-08-15T10:12:01.000Z</time>
      </trkpt>
      <trkpt lat="47.44432" lon="-2.35175">
        <ele>32.200000762939</ele>
        <time>2021-08-15T10:12:04.000Z</time>
      </trkpt>
      <trkpt lat="47.44423" lon="-2.35173">
        <ele>32.200000762939</ele>
        <time>2021-08-15T10:12:06.000Z</time>
      </trkpt>
      <trkpt lat="47.44405" lon="-2.35168">
        <ele>32.200000762939</ele>
        <time>2021-08-15T10:12:10.000Z</time>
      </trkpt>
      <trkpt lat="47.44382" lon="-2.35158">
        <ele>32.200000762939</ele>
        <time>2021-08-15T10:12:16.000Z</time>
      </trkpt>
      <trkpt lat="47.44352" lon="-2.35139">
        <ele>32.200000762939</ele>
        <time>2021-08-15T10:12:23.000Z</time>
      </trkpt>
      <trkpt lat="47.44331" lon="-2.35126">
        <ele>32.200000762939</ele>
        <time>2021-08-15T10:12:28.000Z</time>
      </trkpt>
      <trkpt lat="47.44316" lon="-2.35115">
        <ele>32.200000762939</ele>
        <time>2021-08-15T10:12:33.000Z</time>
      </trkpt>
      <trkpt lat="47.44296" lon="-2.3511">
        <ele>32.200000762939</ele>
        <time>2021-08-15T10:12:37.000Z</time>
      </trkpt>
      <trkpt lat="47.44275" lon="-2.35105">
        <ele>32.200000762939</ele>
        <time>2021-08-15T10:12:42.000Z</time>
      </trkpt>
      <trkpt lat="47.44266" lon="-2.35105">
        <ele>31.799999237061</ele>
        <time>2021-08-15T10:12:45.000Z</time>
      </trkpt>
      <trkpt lat="47.44264" lon="-2.35103">
        <ele>31.200000762939</ele>
        <time>2021-08-15T10:12:46.000Z</time>
      </trkpt>
      <trkpt lat="47.44261" lon="-2.35103">
        <ele>30.799999237061</ele>
        <time>2021-08-15T10:12:47.000Z</time>
      </trkpt>
      <trkpt lat="47.44259" lon="-2.35101">
        <ele>30.39999961853</ele>
        <time>2021-08-15T10:12:48.000Z</time>
      </trkpt>
      <trkpt lat="47.44257" lon="-2.351">
        <ele>30</ele>
        <time>2021-08-15T10:12:49.000Z</time>
      </trkpt>
      <trkpt lat="47.44247" lon="-2.35095">
        <ele>30</ele>
        <time>2021-08-15T10:12:53.000Z</time>
      </trkpt>
      <trkpt lat="47.44223" lon="-2.35091">
        <ele>30</ele>
        <time>2021-08-15T10:12:58.000Z</time>
      </trkpt>
      <trkpt lat="47.44214" lon="-2.35084">
        <ele>30</ele>
        <time>2021-08-15T10:12:59.000Z</time>
      </trkpt>
      <trkpt lat="47.44199" lon="-2.35075">
        <ele>30</ele>
        <time>2021-08-15T10:13:02.000Z</time>
      </trkpt>
      <trkpt lat="47.44171" lon="-2.35063">
        <ele>30</ele>
        <time>2021-08-15T10:13:08.000Z</time>
      </trkpt>
      <trkpt lat="47.44134" lon="-2.35043">
        <ele>30</ele>
        <time>2021-08-15T10:13:15.000Z</time>
      </trkpt>
      <trkpt lat="47.44094" lon="-2.35023">
        <ele>29.60000038147</ele>
        <time>2021-08-15T10:13:22.000Z</time>
      </trkpt>
      <trkpt lat="47.44089" lon="-2.3502">
        <ele>29.200000762939</ele>
        <time>2021-08-15T10:13:23.000Z</time>
      </trkpt>
      <trkpt lat="47.44084" lon="-2.35017">
        <ele>28.60000038147</ele>
        <time>2021-08-15T10:13:24.000Z</time>
      </trkpt>
      <trkpt lat="47.44079" lon="-2.35015">
        <ele>28.200000762939</ele>
        <time>2021-08-15T10:13:25.000Z</time>
      </trkpt>
      <trkpt lat="47.44074" lon="-2.35012">
        <ele>27.799999237061</ele>
        <time>2021-08-15T10:13:26.000Z</time>
      </trkpt>
      <trkpt lat="47.44061" lon="-2.35003">
        <ele>27.799999237061</ele>
        <time>2021-08-15T10:13:28.000Z</time>
      </trkpt>
      <trkpt lat="47.44048" lon="-2.34996">
        <ele>27.799999237061</ele>
        <time>2021-08-15T10:13:30.000Z</time>
      </trkpt>
      <trkpt lat="47.44022" lon="-2.3498">
        <ele>27.799999237061</ele>
        <time>2021-08-15T10:13:34.000Z</time>
      </trkpt>
      <trkpt lat="47.44003" lon="-2.34971">
        <ele>27.39999961853</ele>
        <time>2021-08-15T10:13:37.000Z</time>
      </trkpt>
      <trkpt lat="47.43996" lon="-2.34967">
        <ele>27</ele>
        <time>2021-08-15T10:13:38.000Z</time>
      </trkpt>
      <trkpt lat="47.43991" lon="-2.34965">
        <ele>26.39999961853</ele>
        <time>2021-08-15T10:13:39.000Z</time>
      </trkpt>
      <trkpt lat="47.43986" lon="-2.34961">
        <ele>26</ele>
        <time>2021-08-15T10:13:40.000Z</time>
      </trkpt>
      <trkpt lat="47.4398" lon="-2.34956">
        <ele>25.60000038147</ele>
        <time>2021-08-15T10:13:41.000Z</time>
      </trkpt>
      <trkpt lat="47.43954" lon="-2.3494">
        <ele>25.60000038147</ele>
        <time>2021-08-15T10:13:46.000Z</time>
      </trkpt>
      <trkpt lat="47.43923" lon="-2.34922">
        <ele>25.60000038147</ele>
        <time>2021-08-15T10:13:52.000Z</time>
      </trkpt>
      <trkpt lat="47.43895" lon="-2.34904">
        <ele>25.60000038147</ele>
        <time>2021-08-15T10:13:57.000Z</time>
      </trkpt>
      <trkpt lat="47.43868" lon="-2.34891">
        <ele>25.60000038147</ele>
        <time>2021-08-15T10:14:02.000Z</time>
      </trkpt>
      <trkpt lat="47.43849" lon="-2.34883">
        <ele>25.200000762939</ele>
        <time>2021-08-15T10:14:06.000Z</time>
      </trkpt>
      <trkpt lat="47.43843" lon="-2.3488">
        <ele>24.799999237061</ele>
        <time>2021-08-15T10:14:07.000Z</time>
      </trkpt>
      <trkpt lat="47.43839" lon="-2.34877">
        <ele>24.39999961853</ele>
        <time>2021-08-15T10:14:08.000Z</time>
      </trkpt>
      <trkpt lat="47.43834" lon="-2.34875">
        <ele>24</ele>
        <time>2021-08-15T10:14:09.000Z</time>
      </trkpt>
      <trkpt lat="47.43829" lon="-2.34872">
        <ele>23.39999961853</ele>
        <time>2021-08-15T10:14:10.000Z</time>
      </trkpt>
      <trkpt lat="47.43805" lon="-2.3486">
        <ele>23.39999961853</ele>
        <time>2021-08-15T10:14:15.000Z</time>
      </trkpt>
      <trkpt lat="47.4377" lon="-2.34841">
        <ele>23.39999961853</ele>
        <time>2021-08-15T10:14:22.000Z</time>
      </trkpt>
      <trkpt lat="47.43751" lon="-2.34829">
        <ele>23.39999961853</ele>
        <time>2021-08-15T10:14:27.000Z</time>
      </trkpt>
      <trkpt lat="47.43726" lon="-2.34808">
        <ele>23.39999961853</ele>
        <time>2021-08-15T10:14:33.000Z</time>
      </trkpt>
      <trkpt lat="47.43721" lon="-2.34806">
        <ele>24</ele>
        <time>2021-08-15T10:14:34.000Z</time>
      </trkpt>
      <trkpt lat="47.43715" lon="-2.34804">
        <ele>24.39999961853</ele>
        <time>2021-08-15T10:14:35.000Z</time>
      </trkpt>
      <trkpt lat="47.43711" lon="-2.34803">
        <ele>24.799999237061</ele>
        <time>2021-08-15T10:14:36.000Z</time>
      </trkpt>
      <trkpt lat="47.43706" lon="-2.348">
        <ele>25.200000762939</ele>
        <time>2021-08-15T10:14:37.000Z</time>
      </trkpt>
      <trkpt lat="47.43702" lon="-2.34798">
        <ele>25.60000038147</ele>
        <time>2021-08-15T10:14:38.000Z</time>
      </trkpt>
      <trkpt lat="47.43696" lon="-2.34795">
        <ele>25.60000038147</ele>
        <time>2021-08-15T10:14:39.000Z</time>
      </trkpt>
      <trkpt lat="47.4366" lon="-2.34777">
        <ele>25.60000038147</ele>
        <time>2021-08-15T10:14:47.000Z</time>
      </trkpt>
      <trkpt lat="47.43631" lon="-2.34764">
        <ele>25.60000038147</ele>
        <time>2021-08-15T10:14:53.000Z</time>
      </trkpt>
      <trkpt lat="47.43603" lon="-2.34746">
        <ele>25.60000038147</ele>
        <time>2021-08-15T10:14:59.000Z</time>
      </trkpt>
      <trkpt lat="47.43579" lon="-2.34732">
        <ele>25.60000038147</ele>
        <time>2021-08-15T10:15:04.000Z</time>
      </trkpt>
      <trkpt lat="47.43574" lon="-2.34729">
        <ele>25.60000038147</ele>
        <time>2021-08-15T10:15:05.000Z</time>
      </trkpt>
      <trkpt lat="47.43542" lon="-2.34714">
        <ele>25.60000038147</ele>
        <time>2021-08-15T10:15:12.000Z</time>
      </trkpt>
      <trkpt lat="47.43523" lon="-2.34703">
        <ele>26</ele>
        <time>2021-08-15T10:15:17.000Z</time>
      </trkpt>
      <trkpt lat="47.43519" lon="-2.34701">
        <ele>26.39999961853</ele>
        <time>2021-08-15T10:15:18.000Z</time>
      </trkpt>
      <trkpt lat="47.43515" lon="-2.34699">
        <ele>26.799999237061</ele>
        <time>2021-08-15T10:15:19.000Z</time>
      </trkpt>
      <trkpt lat="47.43512" lon="-2.34697">
        <ele>27.200000762939</ele>
        <time>2021-08-15T10:15:20.000Z</time>
      </trkpt>
      <trkpt lat="47.43511" lon="-2.34696">
        <ele>27.799999237061</ele>
        <time>2021-08-15T10:15:21.000Z</time>
      </trkpt>
      <trkpt lat="47.4351" lon="-2.34695">
        <ele>27.799999237061</ele>
        <time>2021-08-15T10:15:22.000Z</time>
      </trkpt>
      <trkpt lat="47.43508" lon="-2.34693">
        <ele>27.799999237061</ele>
        <time>2021-08-15T10:15:25.000Z</time>
      </trkpt>
    </trkseg>
  </trk>
</gpx>